<?xml version="1.0" encoding="UTF-8"?>
<gpx xmlns:xsi="http://www.w3.org/2001/XMLSchema-instance" xmlns="http://www.topografix.com/GPX/1/1" xmlns:gpxdata="http://www.cluetrust.com/XML/GPXDATA/1/0" xsi:schemaLocation="http://www.topografix.com/GPX/1/1 http://www.topografix.com/GPX/1/1/gpx.xsd http://www.cluetrust.com/XML/GPXDATA/1/0 http://www.cluetrust.com/Schemas/gpxdata10.xsd" version="1.1" creator="http://ridewithgps.com/">
  <metadata>
    <name>Corsair Classic Bike Course (olympic)</name>
    <link href="https://ridewithgps.com/routes/17596526">
      <text>Corsair Classic Bike Course (olympic)</text>
    </link>
    <time>2016-11-09T12:22:26Z</time>
  </metadata>
  <trk>
    <name>Corsair Classic Bike Course (olympic)</name>
    <trkseg>
      <trkpt lat="-43.60649" lon="172.7006199">
        <ele>40.4</ele>
        <time>2021-01-31T08:00:00.000Z</time>
      </trkpt>
      <trkpt lat="-43.60651" lon="172.70074">
        <ele>40.7</ele>
        <time>2021-01-31T08:00:01.000Z</time>
      </trkpt>
      <trkpt lat="-43.60651" lon="172.70074">
        <ele>40.7</ele>
        <time>2021-01-31T08:00:01.000Z</time>
      </trkpt>
      <trkpt lat="-43.60645" lon="172.70075">
        <ele>41.5</ele>
        <time>2021-01-31T08:00:02.000Z</time>
      </trkpt>
      <trkpt lat="-43.60637" lon="172.70075">
        <ele>42.7</ele>
        <time>2021-01-31T08:00:03.000Z</time>
      </trkpt>
      <trkpt lat="-43.60627" lon="172.70073">
        <ele>44</ele>
        <time>2021-01-31T08:00:04.000Z</time>
      </trkpt>
      <trkpt lat="-43.60601" lon="172.70067">
        <ele>47.8</ele>
        <time>2021-01-31T08:00:07.000Z</time>
      </trkpt>
      <trkpt lat="-43.60597" lon="172.70066">
        <ele>48.4</ele>
        <time>2021-01-31T08:00:07.000Z</time>
      </trkpt>
      <trkpt lat="-43.6059" lon="172.70063">
        <ele>49.5</ele>
        <time>2021-01-31T08:00:08.000Z</time>
      </trkpt>
      <trkpt lat="-43.6058499" lon="172.70061">
        <ele>50.3</ele>
        <time>2021-01-31T08:00:09.000Z</time>
      </trkpt>
      <trkpt lat="-43.60574" lon="172.70058">
        <ele>51.7</ele>
        <time>2021-01-31T08:00:10.000Z</time>
      </trkpt>
      <trkpt lat="-43.60574" lon="172.70058">
        <ele>51.7</ele>
        <time>2021-01-31T08:00:10.000Z</time>
      </trkpt>
      <trkpt lat="-43.60573" lon="172.70054">
        <ele>52</ele>
        <time>2021-01-31T08:00:10.000Z</time>
      </trkpt>
      <trkpt lat="-43.60572" lon="172.70046">
        <ele>52.3</ele>
        <time>2021-01-31T08:00:11.000Z</time>
      </trkpt>
      <trkpt lat="-43.60573" lon="172.7004">
        <ele>52.4</ele>
        <time>2021-01-31T08:00:11.000Z</time>
      </trkpt>
      <trkpt lat="-43.60574" lon="172.70034">
        <ele>52.5</ele>
        <time>2021-01-31T08:00:11.000Z</time>
      </trkpt>
      <trkpt lat="-43.60578" lon="172.7002599">
        <ele>52.2</ele>
        <time>2021-01-31T08:00:12.000Z</time>
      </trkpt>
      <trkpt lat="-43.60581" lon="172.70019">
        <ele>51.9</ele>
        <time>2021-01-31T08:00:13.000Z</time>
      </trkpt>
      <trkpt lat="-43.60586" lon="172.70014">
        <ele>51.1</ele>
        <time>2021-01-31T08:00:14.000Z</time>
      </trkpt>
      <trkpt lat="-43.6059399" lon="172.70006">
        <ele>49.6</ele>
        <time>2021-01-31T08:00:15.000Z</time>
      </trkpt>
      <trkpt lat="-43.6062" lon="172.69982">
        <ele>47</ele>
        <time>2021-01-31T08:00:18.000Z</time>
      </trkpt>
      <trkpt lat="-43.60637" lon="172.6996399">
        <ele>46.1</ele>
        <time>2021-01-31T08:00:20.000Z</time>
      </trkpt>
      <trkpt lat="-43.60645" lon="172.69954">
        <ele>45.7</ele>
        <time>2021-01-31T08:00:21.000Z</time>
      </trkpt>
      <trkpt lat="-43.60671" lon="172.6991899">
        <ele>44.3</ele>
        <time>2021-01-31T08:00:25.000Z</time>
      </trkpt>
      <trkpt lat="-43.60709" lon="172.69868">
        <ele>43.7</ele>
        <time>2021-01-31T08:00:31.000Z</time>
      </trkpt>
      <trkpt lat="-43.60727" lon="172.69842">
        <ele>45.3</ele>
        <time>2021-01-31T08:00:34.000Z</time>
      </trkpt>
      <trkpt lat="-43.60775" lon="172.69777">
        <ele>44.1</ele>
        <time>2021-01-31T08:00:41.000Z</time>
      </trkpt>
      <trkpt lat="-43.60779" lon="172.69768">
        <ele>44.2</ele>
        <time>2021-01-31T08:00:42.000Z</time>
      </trkpt>
      <trkpt lat="-43.60784" lon="172.69757">
        <ele>44.3</ele>
        <time>2021-01-31T08:00:43.000Z</time>
      </trkpt>
      <trkpt lat="-43.60787" lon="172.6974899">
        <ele>44.2</ele>
        <time>2021-01-31T08:00:44.000Z</time>
      </trkpt>
      <trkpt lat="-43.60788" lon="172.69743">
        <ele>43.1</ele>
        <time>2021-01-31T08:00:45.000Z</time>
      </trkpt>
      <trkpt lat="-43.60789" lon="172.69735">
        <ele>41.7</ele>
        <time>2021-01-31T08:00:46.000Z</time>
      </trkpt>
      <trkpt lat="-43.6079" lon="172.69726">
        <ele>40.3</ele>
        <time>2021-01-31T08:00:47.000Z</time>
      </trkpt>
      <trkpt lat="-43.6079" lon="172.69719">
        <ele>39.4</ele>
        <time>2021-01-31T08:00:48.000Z</time>
      </trkpt>
      <trkpt lat="-43.60789" lon="172.6971299">
        <ele>39.1</ele>
        <time>2021-01-31T08:00:48.000Z</time>
      </trkpt>
      <trkpt lat="-43.60787" lon="172.69706">
        <ele>39</ele>
        <time>2021-01-31T08:00:49.000Z</time>
      </trkpt>
      <trkpt lat="-43.60784" lon="172.69698">
        <ele>39.1</ele>
        <time>2021-01-31T08:00:50.000Z</time>
      </trkpt>
      <trkpt lat="-43.6078199" lon="172.69691">
        <ele>38.9</ele>
        <time>2021-01-31T08:00:51.000Z</time>
      </trkpt>
      <trkpt lat="-43.60778" lon="172.69684">
        <ele>39.5</ele>
        <time>2021-01-31T08:00:52.000Z</time>
      </trkpt>
      <trkpt lat="-43.60772" lon="172.69673">
        <ele>40.2</ele>
        <time>2021-01-31T08:00:53.000Z</time>
      </trkpt>
      <trkpt lat="-43.60766" lon="172.6966">
        <ele>39.7</ele>
        <time>2021-01-31T08:00:54.000Z</time>
      </trkpt>
      <trkpt lat="-43.60759" lon="172.69647">
        <ele>38.4</ele>
        <time>2021-01-31T08:00:55.000Z</time>
      </trkpt>
      <trkpt lat="-43.60756" lon="172.69642">
        <ele>37.8</ele>
        <time>2021-01-31T08:00:56.000Z</time>
      </trkpt>
      <trkpt lat="-43.60752" lon="172.69637">
        <ele>37.5</ele>
        <time>2021-01-31T08:00:57.000Z</time>
      </trkpt>
      <trkpt lat="-43.60748" lon="172.69633">
        <ele>37.1</ele>
        <time>2021-01-31T08:00:58.000Z</time>
      </trkpt>
      <trkpt lat="-43.6074399" lon="172.69631">
        <ele>36.7</ele>
        <time>2021-01-31T08:00:58.000Z</time>
      </trkpt>
      <trkpt lat="-43.6073499" lon="172.69627">
        <ele>36.1</ele>
        <time>2021-01-31T08:00:59.000Z</time>
      </trkpt>
      <trkpt lat="-43.60729" lon="172.69625">
        <ele>35.9</ele>
        <time>2021-01-31T08:01:00.000Z</time>
      </trkpt>
      <trkpt lat="-43.60722" lon="172.69624">
        <ele>36</ele>
        <time>2021-01-31T08:01:01.000Z</time>
      </trkpt>
      <trkpt lat="-43.60716" lon="172.69624">
        <ele>36.4</ele>
        <time>2021-01-31T08:01:02.000Z</time>
      </trkpt>
      <trkpt lat="-43.60712" lon="172.69625">
        <ele>37</ele>
        <time>2021-01-31T08:01:02.000Z</time>
      </trkpt>
      <trkpt lat="-43.607" lon="172.69628">
        <ele>38.9</ele>
        <time>2021-01-31T08:01:03.000Z</time>
      </trkpt>
      <trkpt lat="-43.60698" lon="172.69628">
        <ele>39</ele>
        <time>2021-01-31T08:01:03.000Z</time>
      </trkpt>
      <trkpt lat="-43.60691" lon="172.6963">
        <ele>40.2</ele>
        <time>2021-01-31T08:01:04.000Z</time>
      </trkpt>
      <trkpt lat="-43.60655" lon="172.6964099">
        <ele>47.3</ele>
        <time>2021-01-31T08:01:08.000Z</time>
      </trkpt>
      <trkpt lat="-43.60649" lon="172.69643">
        <ele>48.6</ele>
        <time>2021-01-31T08:01:09.000Z</time>
      </trkpt>
      <trkpt lat="-43.60649" lon="172.69643">
        <ele>48.6</ele>
        <time>2021-01-31T08:01:09.000Z</time>
      </trkpt>
      <trkpt lat="-43.60642" lon="172.69645">
        <ele>50</ele>
        <time>2021-01-31T08:01:10.000Z</time>
      </trkpt>
      <trkpt lat="-43.60635" lon="172.69646">
        <ele>50.9</ele>
        <time>2021-01-31T08:01:11.000Z</time>
      </trkpt>
      <trkpt lat="-43.60626" lon="172.69647">
        <ele>52</ele>
        <time>2021-01-31T08:01:12.000Z</time>
      </trkpt>
      <trkpt lat="-43.60614" lon="172.69647">
        <ele>53</ele>
        <time>2021-01-31T08:01:13.000Z</time>
      </trkpt>
      <trkpt lat="-43.60577" lon="172.69645">
        <ele>57.2</ele>
        <time>2021-01-31T08:01:17.000Z</time>
      </trkpt>
      <trkpt lat="-43.60571" lon="172.69643">
        <ele>58.5</ele>
        <time>2021-01-31T08:01:18.000Z</time>
      </trkpt>
      <trkpt lat="-43.60568" lon="172.69642">
        <ele>59.2</ele>
        <time>2021-01-31T08:01:18.000Z</time>
      </trkpt>
      <trkpt lat="-43.60565" lon="172.6964">
        <ele>59.7</ele>
        <time>2021-01-31T08:01:18.000Z</time>
      </trkpt>
      <trkpt lat="-43.60562" lon="172.69637">
        <ele>60</ele>
        <time>2021-01-31T08:01:18.000Z</time>
      </trkpt>
      <trkpt lat="-43.60557" lon="172.6963">
        <ele>60</ele>
        <time>2021-01-31T08:01:19.000Z</time>
      </trkpt>
      <trkpt lat="-43.60553" lon="172.69624">
        <ele>60</ele>
        <time>2021-01-31T08:01:20.000Z</time>
      </trkpt>
      <trkpt lat="-43.6055" lon="172.69617">
        <ele>59.5</ele>
        <time>2021-01-31T08:01:21.000Z</time>
      </trkpt>
      <trkpt lat="-43.60546" lon="172.69603">
        <ele>57.8</ele>
        <time>2021-01-31T08:01:22.000Z</time>
      </trkpt>
      <trkpt lat="-43.60542" lon="172.6959">
        <ele>56.2</ele>
        <time>2021-01-31T08:01:23.000Z</time>
      </trkpt>
      <trkpt lat="-43.60537" lon="172.69579">
        <ele>55.4</ele>
        <time>2021-01-31T08:01:24.000Z</time>
      </trkpt>
      <trkpt lat="-43.60535" lon="172.69573">
        <ele>54.9</ele>
        <time>2021-01-31T08:01:25.000Z</time>
      </trkpt>
      <trkpt lat="-43.60532" lon="172.69566">
        <ele>54.3</ele>
        <time>2021-01-31T08:01:26.000Z</time>
      </trkpt>
      <trkpt lat="-43.60528" lon="172.6956099">
        <ele>54.3</ele>
        <time>2021-01-31T08:01:27.000Z</time>
      </trkpt>
      <trkpt lat="-43.60523" lon="172.69555">
        <ele>54.1</ele>
        <time>2021-01-31T08:01:28.000Z</time>
      </trkpt>
      <trkpt lat="-43.60517" lon="172.69548">
        <ele>53.9</ele>
        <time>2021-01-31T08:01:29.000Z</time>
      </trkpt>
      <trkpt lat="-43.6050899" lon="172.69541">
        <ele>53.8</ele>
        <time>2021-01-31T08:01:30.000Z</time>
      </trkpt>
      <trkpt lat="-43.60495" lon="172.69531">
        <ele>54</ele>
        <time>2021-01-31T08:01:32.000Z</time>
      </trkpt>
      <trkpt lat="-43.60486" lon="172.69523">
        <ele>53.7</ele>
        <time>2021-01-31T08:01:33.000Z</time>
      </trkpt>
      <trkpt lat="-43.60474" lon="172.69511">
        <ele>53</ele>
        <time>2021-01-31T08:01:35.000Z</time>
      </trkpt>
      <trkpt lat="-43.60466" lon="172.69502">
        <ele>52.2</ele>
        <time>2021-01-31T08:01:36.000Z</time>
      </trkpt>
      <trkpt lat="-43.60459" lon="172.69494">
        <ele>51.7</ele>
        <time>2021-01-31T08:01:37.000Z</time>
      </trkpt>
      <trkpt lat="-43.6045299" lon="172.69484">
        <ele>50.7</ele>
        <time>2021-01-31T08:01:38.000Z</time>
      </trkpt>
      <trkpt lat="-43.6043" lon="172.69448">
        <ele>46.4</ele>
        <time>2021-01-31T08:01:42.000Z</time>
      </trkpt>
      <trkpt lat="-43.60423" lon="172.69439">
        <ele>45.3</ele>
        <time>2021-01-31T08:01:43.000Z</time>
      </trkpt>
      <trkpt lat="-43.60417" lon="172.69432">
        <ele>44.5</ele>
        <time>2021-01-31T08:01:44.000Z</time>
      </trkpt>
      <trkpt lat="-43.60408" lon="172.69423">
        <ele>43.6</ele>
        <time>2021-01-31T08:01:45.000Z</time>
      </trkpt>
      <trkpt lat="-43.60393" lon="172.69409">
        <ele>43.4</ele>
        <time>2021-01-31T08:01:47.000Z</time>
      </trkpt>
      <trkpt lat="-43.6037899" lon="172.69395">
        <ele>43.9</ele>
        <time>2021-01-31T08:01:49.000Z</time>
      </trkpt>
      <trkpt lat="-43.60366" lon="172.69379">
        <ele>44</ele>
        <time>2021-01-31T08:01:51.000Z</time>
      </trkpt>
      <trkpt lat="-43.60348" lon="172.6936">
        <ele>44.2</ele>
        <time>2021-01-31T08:01:54.000Z</time>
      </trkpt>
      <trkpt lat="-43.60325" lon="172.69339">
        <ele>44.5</ele>
        <time>2021-01-31T08:01:57.000Z</time>
      </trkpt>
      <trkpt lat="-43.60317" lon="172.69332">
        <ele>44.7</ele>
        <time>2021-01-31T08:01:58.000Z</time>
      </trkpt>
      <trkpt lat="-43.6031" lon="172.69326">
        <ele>45</ele>
        <time>2021-01-31T08:01:59.000Z</time>
      </trkpt>
      <trkpt lat="-43.60302" lon="172.69318">
        <ele>45.4</ele>
        <time>2021-01-31T08:02:00.000Z</time>
      </trkpt>
      <trkpt lat="-43.60299" lon="172.69313">
        <ele>45.5</ele>
        <time>2021-01-31T08:02:01.000Z</time>
      </trkpt>
      <trkpt lat="-43.60296" lon="172.69307">
        <ele>45.5</ele>
        <time>2021-01-31T08:02:02.000Z</time>
      </trkpt>
      <trkpt lat="-43.6029399" lon="172.69302">
        <ele>45.5</ele>
        <time>2021-01-31T08:02:02.000Z</time>
      </trkpt>
      <trkpt lat="-43.60292" lon="172.69294">
        <ele>45.3</ele>
        <time>2021-01-31T08:02:03.000Z</time>
      </trkpt>
      <trkpt lat="-43.60292" lon="172.69287">
        <ele>45</ele>
        <time>2021-01-31T08:02:04.000Z</time>
      </trkpt>
      <trkpt lat="-43.60291" lon="172.69279">
        <ele>44.7</ele>
        <time>2021-01-31T08:02:05.000Z</time>
      </trkpt>
      <trkpt lat="-43.6029" lon="172.69262">
        <ele>43.9</ele>
        <time>2021-01-31T08:02:06.000Z</time>
      </trkpt>
      <trkpt lat="-43.6029" lon="172.69215">
        <ele>42</ele>
        <time>2021-01-31T08:02:10.000Z</time>
      </trkpt>
      <trkpt lat="-43.60289" lon="172.69175">
        <ele>40.8</ele>
        <time>2021-01-31T08:02:13.000Z</time>
      </trkpt>
      <trkpt lat="-43.60289" lon="172.69169">
        <ele>40.6</ele>
        <time>2021-01-31T08:02:13.000Z</time>
      </trkpt>
      <trkpt lat="-43.60287" lon="172.6915799">
        <ele>40.7</ele>
        <time>2021-01-31T08:02:14.000Z</time>
      </trkpt>
      <trkpt lat="-43.6028499" lon="172.69147">
        <ele>40.7</ele>
        <time>2021-01-31T08:02:15.000Z</time>
      </trkpt>
      <trkpt lat="-43.60281" lon="172.69136">
        <ele>41.1</ele>
        <time>2021-01-31T08:02:16.000Z</time>
      </trkpt>
      <trkpt lat="-43.60276" lon="172.69125">
        <ele>41.6</ele>
        <time>2021-01-31T08:02:17.000Z</time>
      </trkpt>
      <trkpt lat="-43.60267" lon="172.69108">
        <ele>42.5</ele>
        <time>2021-01-31T08:02:19.000Z</time>
      </trkpt>
      <trkpt lat="-43.60258" lon="172.69093">
        <ele>43.3</ele>
        <time>2021-01-31T08:02:21.000Z</time>
      </trkpt>
      <trkpt lat="-43.60252" lon="172.69084">
        <ele>43.7</ele>
        <time>2021-01-31T08:02:22.000Z</time>
      </trkpt>
      <trkpt lat="-43.60246" lon="172.69076">
        <ele>45.1</ele>
        <time>2021-01-31T08:02:23.000Z</time>
      </trkpt>
      <trkpt lat="-43.6024" lon="172.69069">
        <ele>46.5</ele>
        <time>2021-01-31T08:02:24.000Z</time>
      </trkpt>
      <trkpt lat="-43.60231" lon="172.6906">
        <ele>48.6</ele>
        <time>2021-01-31T08:02:25.000Z</time>
      </trkpt>
      <trkpt lat="-43.6022" lon="172.6904999">
        <ele>50.8</ele>
        <time>2021-01-31T08:02:26.000Z</time>
      </trkpt>
      <trkpt lat="-43.60213" lon="172.69042">
        <ele>52.1</ele>
        <time>2021-01-31T08:02:27.000Z</time>
      </trkpt>
      <trkpt lat="-43.60205" lon="172.69032">
        <ele>53.3</ele>
        <time>2021-01-31T08:02:28.000Z</time>
      </trkpt>
      <trkpt lat="-43.60201" lon="172.69025">
        <ele>53.8</ele>
        <time>2021-01-31T08:02:29.000Z</time>
      </trkpt>
      <trkpt lat="-43.60197" lon="172.69015">
        <ele>54</ele>
        <time>2021-01-31T08:02:30.000Z</time>
      </trkpt>
      <trkpt lat="-43.60195" lon="172.6901">
        <ele>54.1</ele>
        <time>2021-01-31T08:02:30.000Z</time>
      </trkpt>
      <trkpt lat="-43.60194" lon="172.69006">
        <ele>54.1</ele>
        <time>2021-01-31T08:02:30.000Z</time>
      </trkpt>
      <trkpt lat="-43.60193" lon="172.68999">
        <ele>54</ele>
        <time>2021-01-31T08:02:31.000Z</time>
      </trkpt>
      <trkpt lat="-43.60193" lon="172.68989">
        <ele>54.7</ele>
        <time>2021-01-31T08:02:32.000Z</time>
      </trkpt>
      <trkpt lat="-43.60193" lon="172.6897899">
        <ele>55.5</ele>
        <time>2021-01-31T08:02:33.000Z</time>
      </trkpt>
      <trkpt lat="-43.60195" lon="172.68967">
        <ele>56.1</ele>
        <time>2021-01-31T08:02:34.000Z</time>
      </trkpt>
      <trkpt lat="-43.60198" lon="172.68957">
        <ele>56.5</ele>
        <time>2021-01-31T08:02:35.000Z</time>
      </trkpt>
      <trkpt lat="-43.60204" lon="172.68944">
        <ele>56.7</ele>
        <time>2021-01-31T08:02:36.000Z</time>
      </trkpt>
      <trkpt lat="-43.60218" lon="172.68921">
        <ele>57.1</ele>
        <time>2021-01-31T08:02:38.000Z</time>
      </trkpt>
      <trkpt lat="-43.60233" lon="172.689">
        <ele>59.5</ele>
        <time>2021-01-31T08:02:40.000Z</time>
      </trkpt>
      <trkpt lat="-43.60241" lon="172.68893">
        <ele>60.4</ele>
        <time>2021-01-31T08:02:41.000Z</time>
      </trkpt>
      <trkpt lat="-43.6024699" lon="172.68888">
        <ele>61.1</ele>
        <time>2021-01-31T08:02:42.000Z</time>
      </trkpt>
      <trkpt lat="-43.60252" lon="172.68885">
        <ele>61.4</ele>
        <time>2021-01-31T08:02:43.000Z</time>
      </trkpt>
      <trkpt lat="-43.60257" lon="172.68883">
        <ele>61.5</ele>
        <time>2021-01-31T08:02:44.000Z</time>
      </trkpt>
      <trkpt lat="-43.60263" lon="172.68881">
        <ele>61.5</ele>
        <time>2021-01-31T08:02:45.000Z</time>
      </trkpt>
      <trkpt lat="-43.60268" lon="172.6887999">
        <ele>61.4</ele>
        <time>2021-01-31T08:02:46.000Z</time>
      </trkpt>
      <trkpt lat="-43.60273" lon="172.68879">
        <ele>61.2</ele>
        <time>2021-01-31T08:02:47.000Z</time>
      </trkpt>
      <trkpt lat="-43.60279" lon="172.68879">
        <ele>60.7</ele>
        <time>2021-01-31T08:02:48.000Z</time>
      </trkpt>
      <trkpt lat="-43.6029" lon="172.68881">
        <ele>59.3</ele>
        <time>2021-01-31T08:02:49.000Z</time>
      </trkpt>
      <trkpt lat="-43.60302" lon="172.6887999">
        <ele>58.6</ele>
        <time>2021-01-31T08:02:50.000Z</time>
      </trkpt>
      <trkpt lat="-43.6031" lon="172.6887999">
        <ele>58</ele>
        <time>2021-01-31T08:02:51.000Z</time>
      </trkpt>
      <trkpt lat="-43.60318" lon="172.68879">
        <ele>57.6</ele>
        <time>2021-01-31T08:02:52.000Z</time>
      </trkpt>
      <trkpt lat="-43.60329" lon="172.68875">
        <ele>57.8</ele>
        <time>2021-01-31T08:02:53.000Z</time>
      </trkpt>
      <trkpt lat="-43.60335" lon="172.68873">
        <ele>58</ele>
        <time>2021-01-31T08:02:54.000Z</time>
      </trkpt>
      <trkpt lat="-43.60343" lon="172.68868">
        <ele>59</ele>
        <time>2021-01-31T08:02:55.000Z</time>
      </trkpt>
      <trkpt lat="-43.60352" lon="172.68861">
        <ele>60.5</ele>
        <time>2021-01-31T08:02:56.000Z</time>
      </trkpt>
      <trkpt lat="-43.60364" lon="172.6885299">
        <ele>62.2</ele>
        <time>2021-01-31T08:02:57.000Z</time>
      </trkpt>
      <trkpt lat="-43.60376" lon="172.68846">
        <ele>63.5</ele>
        <time>2021-01-31T08:02:58.000Z</time>
      </trkpt>
      <trkpt lat="-43.6038799" lon="172.68839">
        <ele>64.9</ele>
        <time>2021-01-31T08:02:59.000Z</time>
      </trkpt>
      <trkpt lat="-43.60404" lon="172.68833">
        <ele>65.7</ele>
        <time>2021-01-31T08:03:01.000Z</time>
      </trkpt>
      <trkpt lat="-43.60414" lon="172.6883">
        <ele>66.1</ele>
        <time>2021-01-31T08:03:02.000Z</time>
      </trkpt>
      <trkpt lat="-43.60425" lon="172.68829">
        <ele>66.5</ele>
        <time>2021-01-31T08:03:03.000Z</time>
      </trkpt>
      <trkpt lat="-43.60434" lon="172.68828">
        <ele>67</ele>
        <time>2021-01-31T08:03:04.000Z</time>
      </trkpt>
      <trkpt lat="-43.60449" lon="172.68828">
        <ele>67.4</ele>
        <time>2021-01-31T08:03:06.000Z</time>
      </trkpt>
      <trkpt lat="-43.60462" lon="172.68829">
        <ele>67.4</ele>
        <time>2021-01-31T08:03:07.000Z</time>
      </trkpt>
      <trkpt lat="-43.60473" lon="172.68829">
        <ele>67.7</ele>
        <time>2021-01-31T08:03:08.000Z</time>
      </trkpt>
      <trkpt lat="-43.60484" lon="172.68828">
        <ele>68.3</ele>
        <time>2021-01-31T08:03:09.000Z</time>
      </trkpt>
      <trkpt lat="-43.60506" lon="172.68823">
        <ele>70.8</ele>
        <time>2021-01-31T08:03:11.000Z</time>
      </trkpt>
      <trkpt lat="-43.60544" lon="172.68811">
        <ele>76.9</ele>
        <time>2021-01-31T08:03:15.000Z</time>
      </trkpt>
      <trkpt lat="-43.60553" lon="172.68808">
        <ele>78.2</ele>
        <time>2021-01-31T08:03:16.000Z</time>
      </trkpt>
      <trkpt lat="-43.60559" lon="172.68807">
        <ele>78.7</ele>
        <time>2021-01-31T08:03:17.000Z</time>
      </trkpt>
      <trkpt lat="-43.60567" lon="172.68806">
        <ele>79.4</ele>
        <time>2021-01-31T08:03:18.000Z</time>
      </trkpt>
      <trkpt lat="-43.60573" lon="172.68805">
        <ele>79.9</ele>
        <time>2021-01-31T08:03:19.000Z</time>
      </trkpt>
      <trkpt lat="-43.60578" lon="172.68805">
        <ele>80.2</ele>
        <time>2021-01-31T08:03:20.000Z</time>
      </trkpt>
      <trkpt lat="-43.6058499" lon="172.68806">
        <ele>80.1</ele>
        <time>2021-01-31T08:03:21.000Z</time>
      </trkpt>
      <trkpt lat="-43.6060299" lon="172.68808">
        <ele>78.6</ele>
        <time>2021-01-31T08:03:23.000Z</time>
      </trkpt>
      <trkpt lat="-43.60616" lon="172.68811">
        <ele>77.3</ele>
        <time>2021-01-31T08:03:24.000Z</time>
      </trkpt>
      <trkpt lat="-43.6062" lon="172.68812">
        <ele>76.9</ele>
        <time>2021-01-31T08:03:24.000Z</time>
      </trkpt>
      <trkpt lat="-43.60626" lon="172.68812">
        <ele>76.5</ele>
        <time>2021-01-31T08:03:25.000Z</time>
      </trkpt>
      <trkpt lat="-43.6063" lon="172.68811">
        <ele>76.4</ele>
        <time>2021-01-31T08:03:25.000Z</time>
      </trkpt>
      <trkpt lat="-43.60636" lon="172.6881">
        <ele>76.2</ele>
        <time>2021-01-31T08:03:26.000Z</time>
      </trkpt>
      <trkpt lat="-43.60643" lon="172.68807">
        <ele>76.3</ele>
        <time>2021-01-31T08:03:27.000Z</time>
      </trkpt>
      <trkpt lat="-43.60647" lon="172.68805">
        <ele>76.3</ele>
        <time>2021-01-31T08:03:27.000Z</time>
      </trkpt>
      <trkpt lat="-43.6064999" lon="172.68802">
        <ele>76.6</ele>
        <time>2021-01-31T08:03:27.000Z</time>
      </trkpt>
      <trkpt lat="-43.60656" lon="172.68797">
        <ele>77</ele>
        <time>2021-01-31T08:03:28.000Z</time>
      </trkpt>
      <trkpt lat="-43.60662" lon="172.68789">
        <ele>77.7</ele>
        <time>2021-01-31T08:03:29.000Z</time>
      </trkpt>
      <trkpt lat="-43.60665" lon="172.68785">
        <ele>78.1</ele>
        <time>2021-01-31T08:03:29.000Z</time>
      </trkpt>
      <trkpt lat="-43.6066999" lon="172.68777">
        <ele>78.7</ele>
        <time>2021-01-31T08:03:30.000Z</time>
      </trkpt>
      <trkpt lat="-43.60673" lon="172.68771">
        <ele>79.2</ele>
        <time>2021-01-31T08:03:31.000Z</time>
      </trkpt>
      <trkpt lat="-43.60676" lon="172.68766">
        <ele>79.6</ele>
        <time>2021-01-31T08:03:32.000Z</time>
      </trkpt>
      <trkpt lat="-43.60678" lon="172.68759">
        <ele>80.3</ele>
        <time>2021-01-31T08:03:33.000Z</time>
      </trkpt>
      <trkpt lat="-43.6067899" lon="172.6875499">
        <ele>80.8</ele>
        <time>2021-01-31T08:03:33.000Z</time>
      </trkpt>
      <trkpt lat="-43.6067899" lon="172.6875">
        <ele>81.5</ele>
        <time>2021-01-31T08:03:33.000Z</time>
      </trkpt>
      <trkpt lat="-43.6067899" lon="172.68747">
        <ele>81.1</ele>
        <time>2021-01-31T08:03:33.000Z</time>
      </trkpt>
      <trkpt lat="-43.60678" lon="172.68742">
        <ele>80.6</ele>
        <time>2021-01-31T08:03:33.000Z</time>
      </trkpt>
      <trkpt lat="-43.60677" lon="172.6874">
        <ele>80.4</ele>
        <time>2021-01-31T08:03:33.000Z</time>
      </trkpt>
      <trkpt lat="-43.60675" lon="172.68735">
        <ele>80</ele>
        <time>2021-01-31T08:03:33.000Z</time>
      </trkpt>
      <trkpt lat="-43.6066999" lon="172.6872799">
        <ele>79.7</ele>
        <time>2021-01-31T08:03:34.000Z</time>
      </trkpt>
      <trkpt lat="-43.60653" lon="172.68706">
        <ele>79.6</ele>
        <time>2021-01-31T08:03:37.000Z</time>
      </trkpt>
      <trkpt lat="-43.60644" lon="172.6869199">
        <ele>80</ele>
        <time>2021-01-31T08:03:39.000Z</time>
      </trkpt>
      <trkpt lat="-43.60638" lon="172.68682">
        <ele>80.4</ele>
        <time>2021-01-31T08:03:40.000Z</time>
      </trkpt>
      <trkpt lat="-43.60622" lon="172.68653">
        <ele>81.4</ele>
        <time>2021-01-31T08:03:43.000Z</time>
      </trkpt>
      <trkpt lat="-43.60616" lon="172.68641">
        <ele>81.5</ele>
        <time>2021-01-31T08:03:44.000Z</time>
      </trkpt>
      <trkpt lat="-43.60611" lon="172.6863">
        <ele>81.6</ele>
        <time>2021-01-31T08:03:45.000Z</time>
      </trkpt>
      <trkpt lat="-43.60606" lon="172.68618">
        <ele>81.8</ele>
        <time>2021-01-31T08:03:46.000Z</time>
      </trkpt>
      <trkpt lat="-43.60604" lon="172.68609">
        <ele>81.4</ele>
        <time>2021-01-31T08:03:47.000Z</time>
      </trkpt>
      <trkpt lat="-43.60602" lon="172.68601">
        <ele>81.2</ele>
        <time>2021-01-31T08:03:48.000Z</time>
      </trkpt>
      <trkpt lat="-43.60602" lon="172.68591">
        <ele>80.1</ele>
        <time>2021-01-31T08:03:49.000Z</time>
      </trkpt>
      <trkpt lat="-43.60599" lon="172.6855">
        <ele>74.8</ele>
        <time>2021-01-31T08:03:52.000Z</time>
      </trkpt>
      <trkpt lat="-43.60599" lon="172.68544">
        <ele>73.8</ele>
        <time>2021-01-31T08:03:52.000Z</time>
      </trkpt>
      <trkpt lat="-43.60597" lon="172.68534">
        <ele>72.8</ele>
        <time>2021-01-31T08:03:53.000Z</time>
      </trkpt>
      <trkpt lat="-43.60595" lon="172.68526">
        <ele>72.2</ele>
        <time>2021-01-31T08:03:54.000Z</time>
      </trkpt>
      <trkpt lat="-43.60593" lon="172.68517">
        <ele>71.4</ele>
        <time>2021-01-31T08:03:55.000Z</time>
      </trkpt>
      <trkpt lat="-43.60591" lon="172.6851299">
        <ele>71.4</ele>
        <time>2021-01-31T08:03:55.000Z</time>
      </trkpt>
      <trkpt lat="-43.60588" lon="172.68508">
        <ele>71.7</ele>
        <time>2021-01-31T08:03:56.000Z</time>
      </trkpt>
      <trkpt lat="-43.6058499" lon="172.68503">
        <ele>71.9</ele>
        <time>2021-01-31T08:03:57.000Z</time>
      </trkpt>
      <trkpt lat="-43.60581" lon="172.68498">
        <ele>72.1</ele>
        <time>2021-01-31T08:03:58.000Z</time>
      </trkpt>
      <trkpt lat="-43.60577" lon="172.68494">
        <ele>72</ele>
        <time>2021-01-31T08:03:59.000Z</time>
      </trkpt>
      <trkpt lat="-43.60571" lon="172.68488">
        <ele>71.9</ele>
        <time>2021-01-31T08:04:00.000Z</time>
      </trkpt>
      <trkpt lat="-43.60564" lon="172.68482">
        <ele>72.1</ele>
        <time>2021-01-31T08:04:01.000Z</time>
      </trkpt>
      <trkpt lat="-43.60521" lon="172.68447">
        <ele>73.1</ele>
        <time>2021-01-31T08:04:07.000Z</time>
      </trkpt>
      <trkpt lat="-43.60511" lon="172.6844">
        <ele>73.6</ele>
        <time>2021-01-31T08:04:08.000Z</time>
      </trkpt>
      <trkpt lat="-43.60466" lon="172.68409">
        <ele>76.7</ele>
        <time>2021-01-31T08:04:14.000Z</time>
      </trkpt>
      <trkpt lat="-43.60462" lon="172.68405">
        <ele>77</ele>
        <time>2021-01-31T08:04:15.000Z</time>
      </trkpt>
      <trkpt lat="-43.60457" lon="172.68401">
        <ele>77.5</ele>
        <time>2021-01-31T08:04:16.000Z</time>
      </trkpt>
      <trkpt lat="-43.60454" lon="172.6839699">
        <ele>77.6</ele>
        <time>2021-01-31T08:04:16.000Z</time>
      </trkpt>
      <trkpt lat="-43.60451" lon="172.68392">
        <ele>77.4</ele>
        <time>2021-01-31T08:04:17.000Z</time>
      </trkpt>
      <trkpt lat="-43.60447" lon="172.68385">
        <ele>77.2</ele>
        <time>2021-01-31T08:04:18.000Z</time>
      </trkpt>
      <trkpt lat="-43.6044399" lon="172.68377">
        <ele>76.6</ele>
        <time>2021-01-31T08:04:19.000Z</time>
      </trkpt>
      <trkpt lat="-43.60442" lon="172.68368">
        <ele>75.6</ele>
        <time>2021-01-31T08:04:20.000Z</time>
      </trkpt>
      <trkpt lat="-43.6044" lon="172.68359">
        <ele>74.6</ele>
        <time>2021-01-31T08:04:21.000Z</time>
      </trkpt>
      <trkpt lat="-43.60438" lon="172.68351">
        <ele>73.8</ele>
        <time>2021-01-31T08:04:22.000Z</time>
      </trkpt>
      <trkpt lat="-43.60437" lon="172.6834">
        <ele>72.3</ele>
        <time>2021-01-31T08:04:23.000Z</time>
      </trkpt>
      <trkpt lat="-43.60437" lon="172.6833">
        <ele>70.8</ele>
        <time>2021-01-31T08:04:24.000Z</time>
      </trkpt>
      <trkpt lat="-43.60437" lon="172.68317">
        <ele>69.2</ele>
        <time>2021-01-31T08:04:25.000Z</time>
      </trkpt>
      <trkpt lat="-43.60438" lon="172.68304">
        <ele>67.4</ele>
        <time>2021-01-31T08:04:26.000Z</time>
      </trkpt>
      <trkpt lat="-43.60441" lon="172.68256">
        <ele>61</ele>
        <time>2021-01-31T08:04:30.000Z</time>
      </trkpt>
      <trkpt lat="-43.60441" lon="172.68248">
        <ele>60.1</ele>
        <time>2021-01-31T08:04:31.000Z</time>
      </trkpt>
      <trkpt lat="-43.60441" lon="172.68241">
        <ele>59.4</ele>
        <time>2021-01-31T08:04:32.000Z</time>
      </trkpt>
      <trkpt lat="-43.60441" lon="172.68234">
        <ele>58.7</ele>
        <time>2021-01-31T08:04:33.000Z</time>
      </trkpt>
      <trkpt lat="-43.6044" lon="172.68226">
        <ele>58.1</ele>
        <time>2021-01-31T08:04:34.000Z</time>
      </trkpt>
      <trkpt lat="-43.60438" lon="172.68219">
        <ele>57.9</ele>
        <time>2021-01-31T08:04:35.000Z</time>
      </trkpt>
      <trkpt lat="-43.60436" lon="172.68212">
        <ele>57.6</ele>
        <time>2021-01-31T08:04:36.000Z</time>
      </trkpt>
      <trkpt lat="-43.6043499" lon="172.68206">
        <ele>57.2</ele>
        <time>2021-01-31T08:04:36.000Z</time>
      </trkpt>
      <trkpt lat="-43.60432" lon="172.6819999">
        <ele>57.2</ele>
        <time>2021-01-31T08:04:37.000Z</time>
      </trkpt>
      <trkpt lat="-43.6043" lon="172.68195">
        <ele>57</ele>
        <time>2021-01-31T08:04:37.000Z</time>
      </trkpt>
      <trkpt lat="-43.60419" lon="172.68175">
        <ele>56.7</ele>
        <time>2021-01-31T08:04:39.000Z</time>
      </trkpt>
      <trkpt lat="-43.60414" lon="172.68166">
        <ele>56.4</ele>
        <time>2021-01-31T08:04:40.000Z</time>
      </trkpt>
      <trkpt lat="-43.60411" lon="172.68159">
        <ele>56.6</ele>
        <time>2021-01-31T08:04:41.000Z</time>
      </trkpt>
      <trkpt lat="-43.60409" lon="172.68153">
        <ele>56.6</ele>
        <time>2021-01-31T08:04:42.000Z</time>
      </trkpt>
      <trkpt lat="-43.60407" lon="172.68147">
        <ele>56.7</ele>
        <time>2021-01-31T08:04:43.000Z</time>
      </trkpt>
      <trkpt lat="-43.6040599" lon="172.68139">
        <ele>56.5</ele>
        <time>2021-01-31T08:04:44.000Z</time>
      </trkpt>
      <trkpt lat="-43.60405" lon="172.68132">
        <ele>56.3</ele>
        <time>2021-01-31T08:04:45.000Z</time>
      </trkpt>
      <trkpt lat="-43.60405" lon="172.68125">
        <ele>56</ele>
        <time>2021-01-31T08:04:46.000Z</time>
      </trkpt>
      <trkpt lat="-43.60405" lon="172.68116">
        <ele>55.5</ele>
        <time>2021-01-31T08:04:47.000Z</time>
      </trkpt>
      <trkpt lat="-43.60405" lon="172.68106">
        <ele>55</ele>
        <time>2021-01-31T08:04:48.000Z</time>
      </trkpt>
      <trkpt lat="-43.60412" lon="172.68026">
        <ele>48.1</ele>
        <time>2021-01-31T08:04:55.000Z</time>
      </trkpt>
      <trkpt lat="-43.60412" lon="172.68018">
        <ele>47.4</ele>
        <time>2021-01-31T08:04:56.000Z</time>
      </trkpt>
      <trkpt lat="-43.60412" lon="172.68011">
        <ele>46.9</ele>
        <time>2021-01-31T08:04:57.000Z</time>
      </trkpt>
      <trkpt lat="-43.60411" lon="172.68005">
        <ele>46.6</ele>
        <time>2021-01-31T08:04:57.000Z</time>
      </trkpt>
      <trkpt lat="-43.60409" lon="172.67996">
        <ele>46.6</ele>
        <time>2021-01-31T08:04:58.000Z</time>
      </trkpt>
      <trkpt lat="-43.6040599" lon="172.67982">
        <ele>47.2</ele>
        <time>2021-01-31T08:04:59.000Z</time>
      </trkpt>
      <trkpt lat="-43.60403" lon="172.6797">
        <ele>47.7</ele>
        <time>2021-01-31T08:05:00.000Z</time>
      </trkpt>
      <trkpt lat="-43.604" lon="172.6795799">
        <ele>48.1</ele>
        <time>2021-01-31T08:05:01.000Z</time>
      </trkpt>
      <trkpt lat="-43.60398" lon="172.67946">
        <ele>48.3</ele>
        <time>2021-01-31T08:05:02.000Z</time>
      </trkpt>
      <trkpt lat="-43.60396" lon="172.67932">
        <ele>48.4</ele>
        <time>2021-01-31T08:05:03.000Z</time>
      </trkpt>
      <trkpt lat="-43.60395" lon="172.67921">
        <ele>48.4</ele>
        <time>2021-01-31T08:05:04.000Z</time>
      </trkpt>
      <trkpt lat="-43.60394" lon="172.67911">
        <ele>49</ele>
        <time>2021-01-31T08:05:05.000Z</time>
      </trkpt>
      <trkpt lat="-43.60394" lon="172.67905">
        <ele>49.5</ele>
        <time>2021-01-31T08:05:05.000Z</time>
      </trkpt>
      <trkpt lat="-43.60395" lon="172.67898">
        <ele>50.1</ele>
        <time>2021-01-31T08:05:06.000Z</time>
      </trkpt>
      <trkpt lat="-43.60396" lon="172.67885">
        <ele>51.2</ele>
        <time>2021-01-31T08:05:07.000Z</time>
      </trkpt>
      <trkpt lat="-43.604" lon="172.67869">
        <ele>52.3</ele>
        <time>2021-01-31T08:05:08.000Z</time>
      </trkpt>
      <trkpt lat="-43.60403" lon="172.67859">
        <ele>52.9</ele>
        <time>2021-01-31T08:05:09.000Z</time>
      </trkpt>
      <trkpt lat="-43.6040599" lon="172.6785">
        <ele>53.4</ele>
        <time>2021-01-31T08:05:10.000Z</time>
      </trkpt>
      <trkpt lat="-43.60411" lon="172.6784">
        <ele>53.9</ele>
        <time>2021-01-31T08:05:11.000Z</time>
      </trkpt>
      <trkpt lat="-43.60416" lon="172.67831">
        <ele>54.5</ele>
        <time>2021-01-31T08:05:12.000Z</time>
      </trkpt>
      <trkpt lat="-43.60459" lon="172.67763">
        <ele>62.8</ele>
        <time>2021-01-31T08:05:19.000Z</time>
      </trkpt>
      <trkpt lat="-43.60464" lon="172.67754">
        <ele>63.9</ele>
        <time>2021-01-31T08:05:20.000Z</time>
      </trkpt>
      <trkpt lat="-43.6047" lon="172.67748">
        <ele>64.7</ele>
        <time>2021-01-31T08:05:21.000Z</time>
      </trkpt>
      <trkpt lat="-43.60476" lon="172.67742">
        <ele>65.7</ele>
        <time>2021-01-31T08:05:22.000Z</time>
      </trkpt>
      <trkpt lat="-43.6048199" lon="172.67738">
        <ele>66.3</ele>
        <time>2021-01-31T08:05:23.000Z</time>
      </trkpt>
      <trkpt lat="-43.6049" lon="172.67733">
        <ele>67</ele>
        <time>2021-01-31T08:05:24.000Z</time>
      </trkpt>
      <trkpt lat="-43.60497" lon="172.6773">
        <ele>67.3</ele>
        <time>2021-01-31T08:05:25.000Z</time>
      </trkpt>
      <trkpt lat="-43.60512" lon="172.67726">
        <ele>67.6</ele>
        <time>2021-01-31T08:05:27.000Z</time>
      </trkpt>
      <trkpt lat="-43.60524" lon="172.67723">
        <ele>67.8</ele>
        <time>2021-01-31T08:05:28.000Z</time>
      </trkpt>
      <trkpt lat="-43.60541" lon="172.67719">
        <ele>67.9</ele>
        <time>2021-01-31T08:05:30.000Z</time>
      </trkpt>
      <trkpt lat="-43.60551" lon="172.6771599">
        <ele>68</ele>
        <time>2021-01-31T08:05:31.000Z</time>
      </trkpt>
      <trkpt lat="-43.6056" lon="172.67712">
        <ele>68.2</ele>
        <time>2021-01-31T08:05:32.000Z</time>
      </trkpt>
      <trkpt lat="-43.60567" lon="172.67709">
        <ele>68.4</ele>
        <time>2021-01-31T08:05:33.000Z</time>
      </trkpt>
      <trkpt lat="-43.60575" lon="172.67703">
        <ele>68.9</ele>
        <time>2021-01-31T08:05:34.000Z</time>
      </trkpt>
      <trkpt lat="-43.60584" lon="172.67695">
        <ele>69.5</ele>
        <time>2021-01-31T08:05:35.000Z</time>
      </trkpt>
      <trkpt lat="-43.6059399" lon="172.67686">
        <ele>69.4</ele>
        <time>2021-01-31T08:05:36.000Z</time>
      </trkpt>
      <trkpt lat="-43.60606" lon="172.67671">
        <ele>70</ele>
        <time>2021-01-31T08:05:38.000Z</time>
      </trkpt>
      <trkpt lat="-43.60618" lon="172.67653">
        <ele>71.4</ele>
        <time>2021-01-31T08:05:40.000Z</time>
      </trkpt>
      <trkpt lat="-43.60622" lon="172.67644">
        <ele>72.3</ele>
        <time>2021-01-31T08:05:41.000Z</time>
      </trkpt>
      <trkpt lat="-43.60627" lon="172.67633">
        <ele>73.3</ele>
        <time>2021-01-31T08:05:42.000Z</time>
      </trkpt>
      <trkpt lat="-43.6063" lon="172.67624">
        <ele>74.3</ele>
        <time>2021-01-31T08:05:43.000Z</time>
      </trkpt>
      <trkpt lat="-43.60634" lon="172.67611">
        <ele>75.6</ele>
        <time>2021-01-31T08:05:44.000Z</time>
      </trkpt>
      <trkpt lat="-43.60639" lon="172.67601">
        <ele>76.2</ele>
        <time>2021-01-31T08:05:45.000Z</time>
      </trkpt>
      <trkpt lat="-43.60644" lon="172.67592">
        <ele>76.6</ele>
        <time>2021-01-31T08:05:46.000Z</time>
      </trkpt>
      <trkpt lat="-43.60649" lon="172.67583">
        <ele>76.9</ele>
        <time>2021-01-31T08:05:47.000Z</time>
      </trkpt>
      <trkpt lat="-43.60655" lon="172.67577">
        <ele>76.7</ele>
        <time>2021-01-31T08:05:48.000Z</time>
      </trkpt>
      <trkpt lat="-43.6066" lon="172.67572">
        <ele>76.6</ele>
        <time>2021-01-31T08:05:49.000Z</time>
      </trkpt>
      <trkpt lat="-43.60666" lon="172.67567">
        <ele>76.3</ele>
        <time>2021-01-31T08:05:50.000Z</time>
      </trkpt>
      <trkpt lat="-43.60673" lon="172.67563">
        <ele>76</ele>
        <time>2021-01-31T08:05:51.000Z</time>
      </trkpt>
      <trkpt lat="-43.6067899" lon="172.67561">
        <ele>75.6</ele>
        <time>2021-01-31T08:05:52.000Z</time>
      </trkpt>
      <trkpt lat="-43.60687" lon="172.67559">
        <ele>74.8</ele>
        <time>2021-01-31T08:05:53.000Z</time>
      </trkpt>
      <trkpt lat="-43.607" lon="172.67556">
        <ele>73.6</ele>
        <time>2021-01-31T08:05:54.000Z</time>
      </trkpt>
      <trkpt lat="-43.60706" lon="172.67553">
        <ele>73.3</ele>
        <time>2021-01-31T08:05:55.000Z</time>
      </trkpt>
      <trkpt lat="-43.60712" lon="172.6755">
        <ele>73.1</ele>
        <time>2021-01-31T08:05:56.000Z</time>
      </trkpt>
      <trkpt lat="-43.60717" lon="172.6754599">
        <ele>73.2</ele>
        <time>2021-01-31T08:05:57.000Z</time>
      </trkpt>
      <trkpt lat="-43.60723" lon="172.6754">
        <ele>73.6</ele>
        <time>2021-01-31T08:05:58.000Z</time>
      </trkpt>
      <trkpt lat="-43.60729" lon="172.67532">
        <ele>74.3</ele>
        <time>2021-01-31T08:05:59.000Z</time>
      </trkpt>
      <trkpt lat="-43.6078199" lon="172.67464">
        <ele>78</ele>
        <time>2021-01-31T08:06:07.000Z</time>
      </trkpt>
      <trkpt lat="-43.6079" lon="172.6745">
        <ele>78.4</ele>
        <time>2021-01-31T08:06:08.000Z</time>
      </trkpt>
      <trkpt lat="-43.60798" lon="172.67435">
        <ele>78.5</ele>
        <time>2021-01-31T08:06:09.000Z</time>
      </trkpt>
      <trkpt lat="-43.60802" lon="172.67424">
        <ele>79</ele>
        <time>2021-01-31T08:06:10.000Z</time>
      </trkpt>
      <trkpt lat="-43.60805" lon="172.67409">
        <ele>80.3</ele>
        <time>2021-01-31T08:06:11.000Z</time>
      </trkpt>
      <trkpt lat="-43.60809" lon="172.67393">
        <ele>81.3</ele>
        <time>2021-01-31T08:06:12.000Z</time>
      </trkpt>
      <trkpt lat="-43.60812" lon="172.6737">
        <ele>83.5</ele>
        <time>2021-01-31T08:06:14.000Z</time>
      </trkpt>
      <trkpt lat="-43.60813" lon="172.67363">
        <ele>84.1</ele>
        <time>2021-01-31T08:06:15.000Z</time>
      </trkpt>
      <trkpt lat="-43.60813" lon="172.6735799">
        <ele>84.8</ele>
        <time>2021-01-31T08:06:15.000Z</time>
      </trkpt>
      <trkpt lat="-43.60814" lon="172.67351">
        <ele>85.5</ele>
        <time>2021-01-31T08:06:16.000Z</time>
      </trkpt>
      <trkpt lat="-43.60815" lon="172.67346">
        <ele>85.8</ele>
        <time>2021-01-31T08:06:16.000Z</time>
      </trkpt>
      <trkpt lat="-43.60817" lon="172.67335">
        <ele>86.6</ele>
        <time>2021-01-31T08:06:17.000Z</time>
      </trkpt>
      <trkpt lat="-43.6081999" lon="172.67328">
        <ele>86.9</ele>
        <time>2021-01-31T08:06:18.000Z</time>
      </trkpt>
      <trkpt lat="-43.60823" lon="172.67324">
        <ele>86.7</ele>
        <time>2021-01-31T08:06:18.000Z</time>
      </trkpt>
      <trkpt lat="-43.60826" lon="172.67319">
        <ele>86.8</ele>
        <time>2021-01-31T08:06:19.000Z</time>
      </trkpt>
      <trkpt lat="-43.6083" lon="172.67315">
        <ele>86.3</ele>
        <time>2021-01-31T08:06:20.000Z</time>
      </trkpt>
      <trkpt lat="-43.60832" lon="172.67312">
        <ele>86.3</ele>
        <time>2021-01-31T08:06:20.000Z</time>
      </trkpt>
      <trkpt lat="-43.60835" lon="172.6731">
        <ele>86.1</ele>
        <time>2021-01-31T08:06:20.000Z</time>
      </trkpt>
      <trkpt lat="-43.6083799" lon="172.67308">
        <ele>86.3</ele>
        <time>2021-01-31T08:06:20.000Z</time>
      </trkpt>
      <trkpt lat="-43.60841" lon="172.67306">
        <ele>86.5</ele>
        <time>2021-01-31T08:06:20.000Z</time>
      </trkpt>
      <trkpt lat="-43.60845" lon="172.67305">
        <ele>86.3</ele>
        <time>2021-01-31T08:06:20.000Z</time>
      </trkpt>
      <trkpt lat="-43.60849" lon="172.67303">
        <ele>86.4</ele>
        <time>2021-01-31T08:06:20.000Z</time>
      </trkpt>
      <trkpt lat="-43.60853" lon="172.67302">
        <ele>86.3</ele>
        <time>2021-01-31T08:06:20.000Z</time>
      </trkpt>
      <trkpt lat="-43.60857" lon="172.67301">
        <ele>86.1</ele>
        <time>2021-01-31T08:06:20.000Z</time>
      </trkpt>
      <trkpt lat="-43.60862" lon="172.67301">
        <ele>85.7</ele>
        <time>2021-01-31T08:06:21.000Z</time>
      </trkpt>
      <trkpt lat="-43.60866" lon="172.67302">
        <ele>85</ele>
        <time>2021-01-31T08:06:21.000Z</time>
      </trkpt>
      <trkpt lat="-43.60869" lon="172.67302">
        <ele>84.7</ele>
        <time>2021-01-31T08:06:21.000Z</time>
      </trkpt>
      <trkpt lat="-43.60879" lon="172.6730399">
        <ele>83.2</ele>
        <time>2021-01-31T08:06:22.000Z</time>
      </trkpt>
      <trkpt lat="-43.60904" lon="172.67306">
        <ele>80.1</ele>
        <time>2021-01-31T08:06:25.000Z</time>
      </trkpt>
      <trkpt lat="-43.60917" lon="172.67306">
        <ele>78.8</ele>
        <time>2021-01-31T08:06:26.000Z</time>
      </trkpt>
      <trkpt lat="-43.60931" lon="172.67306">
        <ele>76.8</ele>
        <time>2021-01-31T08:06:28.000Z</time>
      </trkpt>
      <trkpt lat="-43.6094" lon="172.67305">
        <ele>75.8</ele>
        <time>2021-01-31T08:06:29.000Z</time>
      </trkpt>
      <trkpt lat="-43.60946" lon="172.6730399">
        <ele>75.3</ele>
        <time>2021-01-31T08:06:30.000Z</time>
      </trkpt>
      <trkpt lat="-43.60959" lon="172.673">
        <ele>74.6</ele>
        <time>2021-01-31T08:06:31.000Z</time>
      </trkpt>
      <trkpt lat="-43.60962" lon="172.67298">
        <ele>74.8</ele>
        <time>2021-01-31T08:06:31.000Z</time>
      </trkpt>
      <trkpt lat="-43.60966" lon="172.67297">
        <ele>74.5</ele>
        <time>2021-01-31T08:06:31.000Z</time>
      </trkpt>
      <trkpt lat="-43.6096999" lon="172.67294">
        <ele>74.8</ele>
        <time>2021-01-31T08:06:32.000Z</time>
      </trkpt>
      <trkpt lat="-43.60975" lon="172.67291">
        <ele>74.9</ele>
        <time>2021-01-31T08:06:33.000Z</time>
      </trkpt>
      <trkpt lat="-43.6098" lon="172.67287">
        <ele>75.4</ele>
        <time>2021-01-31T08:06:34.000Z</time>
      </trkpt>
      <trkpt lat="-43.60983" lon="172.67284">
        <ele>75.8</ele>
        <time>2021-01-31T08:06:34.000Z</time>
      </trkpt>
      <trkpt lat="-43.60996" lon="172.67269">
        <ele>78.2</ele>
        <time>2021-01-31T08:06:36.000Z</time>
      </trkpt>
      <trkpt lat="-43.61" lon="172.67266">
        <ele>78.4</ele>
        <time>2021-01-31T08:06:37.000Z</time>
      </trkpt>
      <trkpt lat="-43.61004" lon="172.67264">
        <ele>78.9</ele>
        <time>2021-01-31T08:06:37.000Z</time>
      </trkpt>
      <trkpt lat="-43.61006" lon="172.67262">
        <ele>79.4</ele>
        <time>2021-01-31T08:06:37.000Z</time>
      </trkpt>
      <trkpt lat="-43.6101" lon="172.67261">
        <ele>79.6</ele>
        <time>2021-01-31T08:06:37.000Z</time>
      </trkpt>
      <trkpt lat="-43.61015" lon="172.6726">
        <ele>79.7</ele>
        <time>2021-01-31T08:06:38.000Z</time>
      </trkpt>
      <trkpt lat="-43.61019" lon="172.67259">
        <ele>79.9</ele>
        <time>2021-01-31T08:06:38.000Z</time>
      </trkpt>
      <trkpt lat="-43.61023" lon="172.67259">
        <ele>79.8</ele>
        <time>2021-01-31T08:06:38.000Z</time>
      </trkpt>
      <trkpt lat="-43.61029" lon="172.6726">
        <ele>79.4</ele>
        <time>2021-01-31T08:06:39.000Z</time>
      </trkpt>
      <trkpt lat="-43.61033" lon="172.67261">
        <ele>79</ele>
        <time>2021-01-31T08:06:39.000Z</time>
      </trkpt>
      <trkpt lat="-43.61059" lon="172.67268">
        <ele>76.2</ele>
        <time>2021-01-31T08:06:42.000Z</time>
      </trkpt>
      <trkpt lat="-43.61068" lon="172.6727">
        <ele>75.4</ele>
        <time>2021-01-31T08:06:43.000Z</time>
      </trkpt>
      <trkpt lat="-43.6107299" lon="172.67271">
        <ele>75</ele>
        <time>2021-01-31T08:06:44.000Z</time>
      </trkpt>
      <trkpt lat="-43.61076" lon="172.67271">
        <ele>74.9</ele>
        <time>2021-01-31T08:06:44.000Z</time>
      </trkpt>
      <trkpt lat="-43.61081" lon="172.67271">
        <ele>74.8</ele>
        <time>2021-01-31T08:06:45.000Z</time>
      </trkpt>
      <trkpt lat="-43.61085" lon="172.67271">
        <ele>74.4</ele>
        <time>2021-01-31T08:06:45.000Z</time>
      </trkpt>
      <trkpt lat="-43.61093" lon="172.6727">
        <ele>73.1</ele>
        <time>2021-01-31T08:06:46.000Z</time>
      </trkpt>
      <trkpt lat="-43.61102" lon="172.67269">
        <ele>71.6</ele>
        <time>2021-01-31T08:06:47.000Z</time>
      </trkpt>
      <trkpt lat="-43.61107" lon="172.67267">
        <ele>71.2</ele>
        <time>2021-01-31T08:06:48.000Z</time>
      </trkpt>
      <trkpt lat="-43.61113" lon="172.67265">
        <ele>70.6</ele>
        <time>2021-01-31T08:06:49.000Z</time>
      </trkpt>
      <trkpt lat="-43.61121" lon="172.67262">
        <ele>70</ele>
        <time>2021-01-31T08:06:50.000Z</time>
      </trkpt>
      <trkpt lat="-43.6113" lon="172.67257">
        <ele>69.8</ele>
        <time>2021-01-31T08:06:51.000Z</time>
      </trkpt>
      <trkpt lat="-43.61134" lon="172.67255">
        <ele>69.7</ele>
        <time>2021-01-31T08:06:51.000Z</time>
      </trkpt>
      <trkpt lat="-43.6113799" lon="172.67252">
        <ele>69.9</ele>
        <time>2021-01-31T08:06:52.000Z</time>
      </trkpt>
      <trkpt lat="-43.61145" lon="172.67247">
        <ele>69.5</ele>
        <time>2021-01-31T08:06:53.000Z</time>
      </trkpt>
      <trkpt lat="-43.6115" lon="172.67243">
        <ele>69</ele>
        <time>2021-01-31T08:06:54.000Z</time>
      </trkpt>
      <trkpt lat="-43.61153" lon="172.6724">
        <ele>68.7</ele>
        <time>2021-01-31T08:06:54.000Z</time>
      </trkpt>
      <trkpt lat="-43.61156" lon="172.67235">
        <ele>68.6</ele>
        <time>2021-01-31T08:06:55.000Z</time>
      </trkpt>
      <trkpt lat="-43.61159" lon="172.67231">
        <ele>68.4</ele>
        <time>2021-01-31T08:06:55.000Z</time>
      </trkpt>
      <trkpt lat="-43.61161" lon="172.67227">
        <ele>68.4</ele>
        <time>2021-01-31T08:06:55.000Z</time>
      </trkpt>
      <trkpt lat="-43.61163" lon="172.67223">
        <ele>68.4</ele>
        <time>2021-01-31T08:06:55.000Z</time>
      </trkpt>
      <trkpt lat="-43.61164" lon="172.67219">
        <ele>68.6</ele>
        <time>2021-01-31T08:06:55.000Z</time>
      </trkpt>
      <trkpt lat="-43.61165" lon="172.6721499">
        <ele>68.7</ele>
        <time>2021-01-31T08:06:55.000Z</time>
      </trkpt>
      <trkpt lat="-43.6116699" lon="172.6721">
        <ele>68.7</ele>
        <time>2021-01-31T08:06:55.000Z</time>
      </trkpt>
      <trkpt lat="-43.6116699" lon="172.6720599">
        <ele>69.1</ele>
        <time>2021-01-31T08:06:55.000Z</time>
      </trkpt>
      <trkpt lat="-43.6116699" lon="172.67201">
        <ele>69.6</ele>
        <time>2021-01-31T08:06:55.000Z</time>
      </trkpt>
      <trkpt lat="-43.6116699" lon="172.67195">
        <ele>70.1</ele>
        <time>2021-01-31T08:06:55.000Z</time>
      </trkpt>
      <trkpt lat="-43.61166" lon="172.6719">
        <ele>70.9</ele>
        <time>2021-01-31T08:06:55.000Z</time>
      </trkpt>
      <trkpt lat="-43.61165" lon="172.67185">
        <ele>71.7</ele>
        <time>2021-01-31T08:06:55.000Z</time>
      </trkpt>
      <trkpt lat="-43.61151" lon="172.67146">
        <ele>77.2</ele>
        <time>2021-01-31T08:06:59.000Z</time>
      </trkpt>
      <trkpt lat="-43.6115" lon="172.67142">
        <ele>77.5</ele>
        <time>2021-01-31T08:06:59.000Z</time>
      </trkpt>
      <trkpt lat="-43.61149" lon="172.67136">
        <ele>77.8</ele>
        <time>2021-01-31T08:06:59.000Z</time>
      </trkpt>
      <trkpt lat="-43.61148" lon="172.67129">
        <ele>78.2</ele>
        <time>2021-01-31T08:07:00.000Z</time>
      </trkpt>
      <trkpt lat="-43.61148" lon="172.67121">
        <ele>78.2</ele>
        <time>2021-01-31T08:07:01.000Z</time>
      </trkpt>
      <trkpt lat="-43.61148" lon="172.67114">
        <ele>78.2</ele>
        <time>2021-01-31T08:07:02.000Z</time>
      </trkpt>
      <trkpt lat="-43.61149" lon="172.67106">
        <ele>77.8</ele>
        <time>2021-01-31T08:07:03.000Z</time>
      </trkpt>
      <trkpt lat="-43.6115" lon="172.67102">
        <ele>77.4</ele>
        <time>2021-01-31T08:07:03.000Z</time>
      </trkpt>
      <trkpt lat="-43.61152" lon="172.67097">
        <ele>76.7</ele>
        <time>2021-01-31T08:07:03.000Z</time>
      </trkpt>
      <trkpt lat="-43.61154" lon="172.67091">
        <ele>75.9</ele>
        <time>2021-01-31T08:07:04.000Z</time>
      </trkpt>
      <trkpt lat="-43.6115799" lon="172.6708">
        <ele>74.8</ele>
        <time>2021-01-31T08:07:05.000Z</time>
      </trkpt>
      <trkpt lat="-43.61166" lon="172.67065">
        <ele>73.9</ele>
        <time>2021-01-31T08:07:07.000Z</time>
      </trkpt>
      <trkpt lat="-43.61191" lon="172.67024">
        <ele>70.1</ele>
        <time>2021-01-31T08:07:11.000Z</time>
      </trkpt>
      <trkpt lat="-43.61196" lon="172.67015">
        <ele>69.5</ele>
        <time>2021-01-31T08:07:12.000Z</time>
      </trkpt>
      <trkpt lat="-43.612" lon="172.67008">
        <ele>69</ele>
        <time>2021-01-31T08:07:13.000Z</time>
      </trkpt>
      <trkpt lat="-43.61202" lon="172.67004">
        <ele>68.8</ele>
        <time>2021-01-31T08:07:13.000Z</time>
      </trkpt>
      <trkpt lat="-43.61206" lon="172.66995">
        <ele>68.3</ele>
        <time>2021-01-31T08:07:14.000Z</time>
      </trkpt>
      <trkpt lat="-43.61212" lon="172.66981">
        <ele>66.9</ele>
        <time>2021-01-31T08:07:15.000Z</time>
      </trkpt>
      <trkpt lat="-43.61215" lon="172.66974">
        <ele>66.3</ele>
        <time>2021-01-31T08:07:16.000Z</time>
      </trkpt>
      <trkpt lat="-43.61222" lon="172.66956">
        <ele>64.7</ele>
        <time>2021-01-31T08:07:18.000Z</time>
      </trkpt>
      <trkpt lat="-43.61225" lon="172.66944">
        <ele>64.4</ele>
        <time>2021-01-31T08:07:19.000Z</time>
      </trkpt>
      <trkpt lat="-43.61228" lon="172.66932">
        <ele>64</ele>
        <time>2021-01-31T08:07:20.000Z</time>
      </trkpt>
      <trkpt lat="-43.61234" lon="172.66912">
        <ele>62.3</ele>
        <time>2021-01-31T08:07:22.000Z</time>
      </trkpt>
      <trkpt lat="-43.61237" lon="172.66898">
        <ele>60.6</ele>
        <time>2021-01-31T08:07:23.000Z</time>
      </trkpt>
      <trkpt lat="-43.61239" lon="172.66885">
        <ele>59.5</ele>
        <time>2021-01-31T08:07:24.000Z</time>
      </trkpt>
      <trkpt lat="-43.61239" lon="172.66876">
        <ele>59.3</ele>
        <time>2021-01-31T08:07:25.000Z</time>
      </trkpt>
      <trkpt lat="-43.61239" lon="172.66867">
        <ele>59</ele>
        <time>2021-01-31T08:07:26.000Z</time>
      </trkpt>
      <trkpt lat="-43.61237" lon="172.66859">
        <ele>59.3</ele>
        <time>2021-01-31T08:07:27.000Z</time>
      </trkpt>
      <trkpt lat="-43.61236" lon="172.66854">
        <ele>59.3</ele>
        <time>2021-01-31T08:07:27.000Z</time>
      </trkpt>
      <trkpt lat="-43.61234" lon="172.6685">
        <ele>59.6</ele>
        <time>2021-01-31T08:07:27.000Z</time>
      </trkpt>
      <trkpt lat="-43.61231" lon="172.66843">
        <ele>59.9</ele>
        <time>2021-01-31T08:07:28.000Z</time>
      </trkpt>
      <trkpt lat="-43.61228" lon="172.66837">
        <ele>60.2</ele>
        <time>2021-01-31T08:07:29.000Z</time>
      </trkpt>
      <trkpt lat="-43.61224" lon="172.66832">
        <ele>60.5</ele>
        <time>2021-01-31T08:07:30.000Z</time>
      </trkpt>
      <trkpt lat="-43.61221" lon="172.66827">
        <ele>60.2</ele>
        <time>2021-01-31T08:07:31.000Z</time>
      </trkpt>
      <trkpt lat="-43.61218" lon="172.66824">
        <ele>60.2</ele>
        <time>2021-01-31T08:07:31.000Z</time>
      </trkpt>
      <trkpt lat="-43.61209" lon="172.66815">
        <ele>60.2</ele>
        <time>2021-01-31T08:07:32.000Z</time>
      </trkpt>
      <trkpt lat="-43.61204" lon="172.66811">
        <ele>60.3</ele>
        <time>2021-01-31T08:07:33.000Z</time>
      </trkpt>
      <trkpt lat="-43.61198" lon="172.66807">
        <ele>60.6</ele>
        <time>2021-01-31T08:07:34.000Z</time>
      </trkpt>
      <trkpt lat="-43.61193" lon="172.6680299">
        <ele>60.6</ele>
        <time>2021-01-31T08:07:35.000Z</time>
      </trkpt>
      <trkpt lat="-43.61187" lon="172.668">
        <ele>61</ele>
        <time>2021-01-31T08:07:36.000Z</time>
      </trkpt>
      <trkpt lat="-43.6118" lon="172.66797">
        <ele>61.5</ele>
        <time>2021-01-31T08:07:37.000Z</time>
      </trkpt>
      <trkpt lat="-43.61175" lon="172.66795">
        <ele>61.9</ele>
        <time>2021-01-31T08:07:38.000Z</time>
      </trkpt>
      <trkpt lat="-43.61169" lon="172.66793">
        <ele>62.4</ele>
        <time>2021-01-31T08:07:39.000Z</time>
      </trkpt>
      <trkpt lat="-43.61122" lon="172.66782">
        <ele>64.9</ele>
        <time>2021-01-31T08:07:44.000Z</time>
      </trkpt>
      <trkpt lat="-43.61112" lon="172.6678">
        <ele>65.5</ele>
        <time>2021-01-31T08:07:45.000Z</time>
      </trkpt>
      <trkpt lat="-43.61105" lon="172.66777">
        <ele>65.7</ele>
        <time>2021-01-31T08:07:46.000Z</time>
      </trkpt>
      <trkpt lat="-43.61102" lon="172.66775">
        <ele>65.7</ele>
        <time>2021-01-31T08:07:46.000Z</time>
      </trkpt>
      <trkpt lat="-43.611" lon="172.66774">
        <ele>65.7</ele>
        <time>2021-01-31T08:07:46.000Z</time>
      </trkpt>
      <trkpt lat="-43.61097" lon="172.66771">
        <ele>65.6</ele>
        <time>2021-01-31T08:07:46.000Z</time>
      </trkpt>
      <trkpt lat="-43.61094" lon="172.6676699">
        <ele>65.3</ele>
        <time>2021-01-31T08:07:46.000Z</time>
      </trkpt>
      <trkpt lat="-43.6109099" lon="172.66762">
        <ele>64.9</ele>
        <time>2021-01-31T08:07:47.000Z</time>
      </trkpt>
      <trkpt lat="-43.61088" lon="172.66757">
        <ele>64.5</ele>
        <time>2021-01-31T08:07:48.000Z</time>
      </trkpt>
      <trkpt lat="-43.61086" lon="172.6675">
        <ele>63.7</ele>
        <time>2021-01-31T08:07:49.000Z</time>
      </trkpt>
      <trkpt lat="-43.61084" lon="172.66744">
        <ele>64.6</ele>
        <time>2021-01-31T08:07:50.000Z</time>
      </trkpt>
      <trkpt lat="-43.61084" lon="172.66738">
        <ele>65.2</ele>
        <time>2021-01-31T08:07:50.000Z</time>
      </trkpt>
      <trkpt lat="-43.61084" lon="172.6673">
        <ele>66.1</ele>
        <time>2021-01-31T08:07:51.000Z</time>
      </trkpt>
      <trkpt lat="-43.61085" lon="172.66725">
        <ele>66.5</ele>
        <time>2021-01-31T08:07:51.000Z</time>
      </trkpt>
      <trkpt lat="-43.61087" lon="172.66719">
        <ele>66.9</ele>
        <time>2021-01-31T08:07:52.000Z</time>
      </trkpt>
      <trkpt lat="-43.61089" lon="172.6671299">
        <ele>67.3</ele>
        <time>2021-01-31T08:07:53.000Z</time>
      </trkpt>
      <trkpt lat="-43.6109099" lon="172.66709">
        <ele>67.5</ele>
        <time>2021-01-31T08:07:53.000Z</time>
      </trkpt>
      <trkpt lat="-43.61094" lon="172.66706">
        <ele>67.5</ele>
        <time>2021-01-31T08:07:53.000Z</time>
      </trkpt>
      <trkpt lat="-43.61098" lon="172.66703">
        <ele>67.3</ele>
        <time>2021-01-31T08:07:54.000Z</time>
      </trkpt>
      <trkpt lat="-43.611" lon="172.66701">
        <ele>67.3</ele>
        <time>2021-01-31T08:07:54.000Z</time>
      </trkpt>
      <trkpt lat="-43.61104" lon="172.66699">
        <ele>67</ele>
        <time>2021-01-31T08:07:54.000Z</time>
      </trkpt>
      <trkpt lat="-43.61112" lon="172.66695">
        <ele>66.5</ele>
        <time>2021-01-31T08:07:55.000Z</time>
      </trkpt>
      <trkpt lat="-43.61116" lon="172.66693">
        <ele>66.2</ele>
        <time>2021-01-31T08:07:55.000Z</time>
      </trkpt>
      <trkpt lat="-43.61134" lon="172.66684">
        <ele>65</ele>
        <time>2021-01-31T08:07:57.000Z</time>
      </trkpt>
      <trkpt lat="-43.61152" lon="172.66674">
        <ele>64</ele>
        <time>2021-01-31T08:07:59.000Z</time>
      </trkpt>
      <trkpt lat="-43.61169" lon="172.66665">
        <ele>63.4</ele>
        <time>2021-01-31T08:08:01.000Z</time>
      </trkpt>
      <trkpt lat="-43.6118499" lon="172.66656">
        <ele>64.9</ele>
        <time>2021-01-31T08:08:03.000Z</time>
      </trkpt>
      <trkpt lat="-43.61226" lon="172.66636">
        <ele>66.7</ele>
        <time>2021-01-31T08:08:08.000Z</time>
      </trkpt>
      <trkpt lat="-43.61252" lon="172.66622">
        <ele>67.6</ele>
        <time>2021-01-31T08:08:11.000Z</time>
      </trkpt>
      <trkpt lat="-43.61287" lon="172.66603">
        <ele>66.2</ele>
        <time>2021-01-31T08:08:15.000Z</time>
      </trkpt>
      <trkpt lat="-43.61316" lon="172.66587">
        <ele>64.3</ele>
        <time>2021-01-31T08:08:18.000Z</time>
      </trkpt>
      <trkpt lat="-43.6132" lon="172.66585">
        <ele>63.9</ele>
        <time>2021-01-31T08:08:18.000Z</time>
      </trkpt>
      <trkpt lat="-43.61327" lon="172.66581">
        <ele>63.1</ele>
        <time>2021-01-31T08:08:19.000Z</time>
      </trkpt>
      <trkpt lat="-43.61332" lon="172.66578">
        <ele>62.4</ele>
        <time>2021-01-31T08:08:20.000Z</time>
      </trkpt>
      <trkpt lat="-43.61336" lon="172.66575">
        <ele>61.8</ele>
        <time>2021-01-31T08:08:21.000Z</time>
      </trkpt>
      <trkpt lat="-43.61338" lon="172.66573">
        <ele>61.5</ele>
        <time>2021-01-31T08:08:21.000Z</time>
      </trkpt>
      <trkpt lat="-43.61341" lon="172.66571">
        <ele>60.9</ele>
        <time>2021-01-31T08:08:21.000Z</time>
      </trkpt>
      <trkpt lat="-43.61345" lon="172.66568">
        <ele>60.2</ele>
        <time>2021-01-31T08:08:22.000Z</time>
      </trkpt>
      <trkpt lat="-43.61348" lon="172.66565">
        <ele>59.8</ele>
        <time>2021-01-31T08:08:22.000Z</time>
      </trkpt>
      <trkpt lat="-43.61352" lon="172.6656">
        <ele>59.4</ele>
        <time>2021-01-31T08:08:23.000Z</time>
      </trkpt>
      <trkpt lat="-43.6135499" lon="172.66556">
        <ele>59.2</ele>
        <time>2021-01-31T08:08:23.000Z</time>
      </trkpt>
      <trkpt lat="-43.61357" lon="172.66553">
        <ele>59.1</ele>
        <time>2021-01-31T08:08:23.000Z</time>
      </trkpt>
      <trkpt lat="-43.61359" lon="172.6655">
        <ele>59.1</ele>
        <time>2021-01-31T08:08:23.000Z</time>
      </trkpt>
      <trkpt lat="-43.61361" lon="172.66546">
        <ele>59.2</ele>
        <time>2021-01-31T08:08:23.000Z</time>
      </trkpt>
      <trkpt lat="-43.61362" lon="172.6654299">
        <ele>59.4</ele>
        <time>2021-01-31T08:08:23.000Z</time>
      </trkpt>
      <trkpt lat="-43.6136399" lon="172.66538">
        <ele>59.7</ele>
        <time>2021-01-31T08:08:23.000Z</time>
      </trkpt>
      <trkpt lat="-43.61366" lon="172.66533">
        <ele>60.1</ele>
        <time>2021-01-31T08:08:23.000Z</time>
      </trkpt>
      <trkpt lat="-43.61367" lon="172.66528">
        <ele>60.7</ele>
        <time>2021-01-31T08:08:23.000Z</time>
      </trkpt>
      <trkpt lat="-43.61368" lon="172.66521">
        <ele>61.8</ele>
        <time>2021-01-31T08:08:24.000Z</time>
      </trkpt>
      <trkpt lat="-43.61368" lon="172.66512">
        <ele>63.5</ele>
        <time>2021-01-31T08:08:25.000Z</time>
      </trkpt>
      <trkpt lat="-43.61368" lon="172.66505">
        <ele>64.9</ele>
        <time>2021-01-31T08:08:26.000Z</time>
      </trkpt>
      <trkpt lat="-43.61368" lon="172.66499">
        <ele>66</ele>
        <time>2021-01-31T08:08:26.000Z</time>
      </trkpt>
      <trkpt lat="-43.61367" lon="172.66494">
        <ele>66.5</ele>
        <time>2021-01-31T08:08:26.000Z</time>
      </trkpt>
      <trkpt lat="-43.61366" lon="172.66485">
        <ele>67.2</ele>
        <time>2021-01-31T08:08:27.000Z</time>
      </trkpt>
      <trkpt lat="-43.6136399" lon="172.66477">
        <ele>68.1</ele>
        <time>2021-01-31T08:08:28.000Z</time>
      </trkpt>
      <trkpt lat="-43.61359" lon="172.6646">
        <ele>70</ele>
        <time>2021-01-31T08:08:29.000Z</time>
      </trkpt>
      <trkpt lat="-43.61357" lon="172.66453">
        <ele>70.6</ele>
        <time>2021-01-31T08:08:30.000Z</time>
      </trkpt>
      <trkpt lat="-43.61356" lon="172.66447">
        <ele>71</ele>
        <time>2021-01-31T08:08:30.000Z</time>
      </trkpt>
      <trkpt lat="-43.6135499" lon="172.66441">
        <ele>71.3</ele>
        <time>2021-01-31T08:08:30.000Z</time>
      </trkpt>
      <trkpt lat="-43.61354" lon="172.66434">
        <ele>71.6</ele>
        <time>2021-01-31T08:08:31.000Z</time>
      </trkpt>
      <trkpt lat="-43.61354" lon="172.66429">
        <ele>71.6</ele>
        <time>2021-01-31T08:08:31.000Z</time>
      </trkpt>
      <trkpt lat="-43.61354" lon="172.66423">
        <ele>71.7</ele>
        <time>2021-01-31T08:08:31.000Z</time>
      </trkpt>
      <trkpt lat="-43.6135499" lon="172.6641799">
        <ele>71.6</ele>
        <time>2021-01-31T08:08:31.000Z</time>
      </trkpt>
      <trkpt lat="-43.61356" lon="172.66413">
        <ele>72</ele>
        <time>2021-01-31T08:08:31.000Z</time>
      </trkpt>
      <trkpt lat="-43.61358" lon="172.66407">
        <ele>72.6</ele>
        <time>2021-01-31T08:08:32.000Z</time>
      </trkpt>
      <trkpt lat="-43.61361" lon="172.66403">
        <ele>72.8</ele>
        <time>2021-01-31T08:08:32.000Z</time>
      </trkpt>
      <trkpt lat="-43.6136399" lon="172.66397">
        <ele>73.3</ele>
        <time>2021-01-31T08:08:33.000Z</time>
      </trkpt>
      <trkpt lat="-43.61367" lon="172.66394">
        <ele>73.4</ele>
        <time>2021-01-31T08:08:33.000Z</time>
      </trkpt>
      <trkpt lat="-43.6137" lon="172.6639">
        <ele>73.6</ele>
        <time>2021-01-31T08:08:33.000Z</time>
      </trkpt>
      <trkpt lat="-43.61375" lon="172.66386">
        <ele>73.7</ele>
        <time>2021-01-31T08:08:34.000Z</time>
      </trkpt>
      <trkpt lat="-43.61379" lon="172.66383">
        <ele>73.6</ele>
        <time>2021-01-31T08:08:35.000Z</time>
      </trkpt>
      <trkpt lat="-43.61383" lon="172.6638">
        <ele>73.7</ele>
        <time>2021-01-31T08:08:36.000Z</time>
      </trkpt>
      <trkpt lat="-43.61388" lon="172.66378">
        <ele>73.4</ele>
        <time>2021-01-31T08:08:37.000Z</time>
      </trkpt>
      <trkpt lat="-43.61393" lon="172.66376">
        <ele>73.2</ele>
        <time>2021-01-31T08:08:38.000Z</time>
      </trkpt>
      <trkpt lat="-43.61398" lon="172.66374">
        <ele>72.9</ele>
        <time>2021-01-31T08:08:39.000Z</time>
      </trkpt>
      <trkpt lat="-43.61403" lon="172.66372">
        <ele>72.7</ele>
        <time>2021-01-31T08:08:40.000Z</time>
      </trkpt>
      <trkpt lat="-43.61408" lon="172.66372">
        <ele>72.1</ele>
        <time>2021-01-31T08:08:41.000Z</time>
      </trkpt>
      <trkpt lat="-43.6141099" lon="172.66371">
        <ele>72</ele>
        <time>2021-01-31T08:08:41.000Z</time>
      </trkpt>
      <trkpt lat="-43.61415" lon="172.66371">
        <ele>71.5</ele>
        <time>2021-01-31T08:08:41.000Z</time>
      </trkpt>
      <trkpt lat="-43.61421" lon="172.66371">
        <ele>71.1</ele>
        <time>2021-01-31T08:08:42.000Z</time>
      </trkpt>
      <trkpt lat="-43.6142899" lon="172.66372">
        <ele>70.5</ele>
        <time>2021-01-31T08:08:43.000Z</time>
      </trkpt>
      <trkpt lat="-43.61443" lon="172.6637299">
        <ele>69.7</ele>
        <time>2021-01-31T08:08:45.000Z</time>
      </trkpt>
      <trkpt lat="-43.61447" lon="172.66374">
        <ele>69.3</ele>
        <time>2021-01-31T08:08:45.000Z</time>
      </trkpt>
      <trkpt lat="-43.6146" lon="172.66374">
        <ele>68.7</ele>
        <time>2021-01-31T08:08:46.000Z</time>
      </trkpt>
      <trkpt lat="-43.61463" lon="172.66374">
        <ele>68.5</ele>
        <time>2021-01-31T08:08:46.000Z</time>
      </trkpt>
      <trkpt lat="-43.6146699" lon="172.66374">
        <ele>68.3</ele>
        <time>2021-01-31T08:08:46.000Z</time>
      </trkpt>
      <trkpt lat="-43.61475" lon="172.6637299">
        <ele>68.2</ele>
        <time>2021-01-31T08:08:47.000Z</time>
      </trkpt>
      <trkpt lat="-43.61481" lon="172.66372">
        <ele>68.2</ele>
        <time>2021-01-31T08:08:48.000Z</time>
      </trkpt>
      <trkpt lat="-43.61488" lon="172.6637">
        <ele>68.4</ele>
        <time>2021-01-31T08:08:49.000Z</time>
      </trkpt>
      <trkpt lat="-43.61495" lon="172.66368">
        <ele>68.6</ele>
        <time>2021-01-31T08:08:50.000Z</time>
      </trkpt>
      <trkpt lat="-43.615" lon="172.66366">
        <ele>69</ele>
        <time>2021-01-31T08:08:51.000Z</time>
      </trkpt>
      <trkpt lat="-43.6150499" lon="172.66363">
        <ele>68.6</ele>
        <time>2021-01-31T08:08:52.000Z</time>
      </trkpt>
      <trkpt lat="-43.61511" lon="172.66359">
        <ele>68.3</ele>
        <time>2021-01-31T08:08:53.000Z</time>
      </trkpt>
      <trkpt lat="-43.61518" lon="172.66354">
        <ele>68</ele>
        <time>2021-01-31T08:08:54.000Z</time>
      </trkpt>
      <trkpt lat="-43.61525" lon="172.66349">
        <ele>67.8</ele>
        <time>2021-01-31T08:08:55.000Z</time>
      </trkpt>
      <trkpt lat="-43.6153" lon="172.66345">
        <ele>67.8</ele>
        <time>2021-01-31T08:08:56.000Z</time>
      </trkpt>
      <trkpt lat="-43.61536" lon="172.6634">
        <ele>67.8</ele>
        <time>2021-01-31T08:08:57.000Z</time>
      </trkpt>
      <trkpt lat="-43.61543" lon="172.66333">
        <ele>68.3</ele>
        <time>2021-01-31T08:08:58.000Z</time>
      </trkpt>
      <trkpt lat="-43.61555" lon="172.66321">
        <ele>68.9</ele>
        <time>2021-01-31T08:09:00.000Z</time>
      </trkpt>
      <trkpt lat="-43.61565" lon="172.66309">
        <ele>69.8</ele>
        <time>2021-01-31T08:09:01.000Z</time>
      </trkpt>
      <trkpt lat="-43.61576" lon="172.66295">
        <ele>70.9</ele>
        <time>2021-01-31T08:09:03.000Z</time>
      </trkpt>
      <trkpt lat="-43.61582" lon="172.66285">
        <ele>72.1</ele>
        <time>2021-01-31T08:09:04.000Z</time>
      </trkpt>
      <trkpt lat="-43.61607" lon="172.6624799">
        <ele>73.3</ele>
        <time>2021-01-31T08:09:08.000Z</time>
      </trkpt>
      <trkpt lat="-43.6162" lon="172.66227">
        <ele>74.7</ele>
        <time>2021-01-31T08:09:10.000Z</time>
      </trkpt>
      <trkpt lat="-43.61622" lon="172.6622099">
        <ele>75.7</ele>
        <time>2021-01-31T08:09:11.000Z</time>
      </trkpt>
      <trkpt lat="-43.61624" lon="172.66218">
        <ele>75.9</ele>
        <time>2021-01-31T08:09:11.000Z</time>
      </trkpt>
      <trkpt lat="-43.61629" lon="172.66205">
        <ele>77.9</ele>
        <time>2021-01-31T08:09:12.000Z</time>
      </trkpt>
      <trkpt lat="-43.61633" lon="172.66195">
        <ele>79.4</ele>
        <time>2021-01-31T08:09:13.000Z</time>
      </trkpt>
      <trkpt lat="-43.61637" lon="172.66188">
        <ele>80.1</ele>
        <time>2021-01-31T08:09:14.000Z</time>
      </trkpt>
      <trkpt lat="-43.61641" lon="172.66182">
        <ele>80.6</ele>
        <time>2021-01-31T08:09:15.000Z</time>
      </trkpt>
      <trkpt lat="-43.61643" lon="172.66178">
        <ele>81.1</ele>
        <time>2021-01-31T08:09:15.000Z</time>
      </trkpt>
      <trkpt lat="-43.61647" lon="172.66174">
        <ele>81</ele>
        <time>2021-01-31T08:09:16.000Z</time>
      </trkpt>
      <trkpt lat="-43.61652" lon="172.66169">
        <ele>80.9</ele>
        <time>2021-01-31T08:09:17.000Z</time>
      </trkpt>
      <trkpt lat="-43.61658" lon="172.66165">
        <ele>80.2</ele>
        <time>2021-01-31T08:09:18.000Z</time>
      </trkpt>
      <trkpt lat="-43.61663" lon="172.66161">
        <ele>80</ele>
        <time>2021-01-31T08:09:19.000Z</time>
      </trkpt>
      <trkpt lat="-43.61667" lon="172.66159">
        <ele>79.4</ele>
        <time>2021-01-31T08:09:19.000Z</time>
      </trkpt>
      <trkpt lat="-43.61672" lon="172.66156">
        <ele>79.1</ele>
        <time>2021-01-31T08:09:20.000Z</time>
      </trkpt>
      <trkpt lat="-43.61676" lon="172.66155">
        <ele>78.5</ele>
        <time>2021-01-31T08:09:20.000Z</time>
      </trkpt>
      <trkpt lat="-43.61688" lon="172.66151">
        <ele>76.8</ele>
        <time>2021-01-31T08:09:21.000Z</time>
      </trkpt>
      <trkpt lat="-43.61701" lon="172.66146">
        <ele>75.3</ele>
        <time>2021-01-31T08:09:23.000Z</time>
      </trkpt>
      <trkpt lat="-43.61706" lon="172.66143">
        <ele>75.2</ele>
        <time>2021-01-31T08:09:24.000Z</time>
      </trkpt>
      <trkpt lat="-43.6171" lon="172.66141">
        <ele>74.9</ele>
        <time>2021-01-31T08:09:24.000Z</time>
      </trkpt>
      <trkpt lat="-43.61712" lon="172.6613999">
        <ele>74.7</ele>
        <time>2021-01-31T08:09:24.000Z</time>
      </trkpt>
      <trkpt lat="-43.61717" lon="172.66138">
        <ele>74.2</ele>
        <time>2021-01-31T08:09:25.000Z</time>
      </trkpt>
      <trkpt lat="-43.61726" lon="172.66132">
        <ele>74.2</ele>
        <time>2021-01-31T08:09:26.000Z</time>
      </trkpt>
      <trkpt lat="-43.61733" lon="172.66127">
        <ele>74.3</ele>
        <time>2021-01-31T08:09:27.000Z</time>
      </trkpt>
      <trkpt lat="-43.6174" lon="172.66121">
        <ele>74.8</ele>
        <time>2021-01-31T08:09:28.000Z</time>
      </trkpt>
      <trkpt lat="-43.61748" lon="172.66115">
        <ele>75.1</ele>
        <time>2021-01-31T08:09:29.000Z</time>
      </trkpt>
      <trkpt lat="-43.61756" lon="172.66108">
        <ele>75.1</ele>
        <time>2021-01-31T08:09:30.000Z</time>
      </trkpt>
      <trkpt lat="-43.61763" lon="172.66101">
        <ele>75.1</ele>
        <time>2021-01-31T08:09:31.000Z</time>
      </trkpt>
      <trkpt lat="-43.6177599" lon="172.66087">
        <ele>75.4</ele>
        <time>2021-01-31T08:09:33.000Z</time>
      </trkpt>
      <trkpt lat="-43.6179" lon="172.66071">
        <ele>74.1</ele>
        <time>2021-01-31T08:09:35.000Z</time>
      </trkpt>
      <trkpt lat="-43.61802" lon="172.66056">
        <ele>72.6</ele>
        <time>2021-01-31T08:09:37.000Z</time>
      </trkpt>
      <trkpt lat="-43.61813" lon="172.66041">
        <ele>71.2</ele>
        <time>2021-01-31T08:09:39.000Z</time>
      </trkpt>
      <trkpt lat="-43.61815" lon="172.66036">
        <ele>71.3</ele>
        <time>2021-01-31T08:09:39.000Z</time>
      </trkpt>
      <trkpt lat="-43.61818" lon="172.66031">
        <ele>71</ele>
        <time>2021-01-31T08:09:40.000Z</time>
      </trkpt>
      <trkpt lat="-43.6183" lon="172.66007">
        <ele>70.2</ele>
        <time>2021-01-31T08:09:42.000Z</time>
      </trkpt>
      <trkpt lat="-43.61835" lon="172.65996">
        <ele>69.9</ele>
        <time>2021-01-31T08:09:43.000Z</time>
      </trkpt>
      <trkpt lat="-43.61848" lon="172.65969">
        <ele>68.4</ele>
        <time>2021-01-31T08:09:46.000Z</time>
      </trkpt>
      <trkpt lat="-43.61856" lon="172.65954">
        <ele>67.4</ele>
        <time>2021-01-31T08:09:48.000Z</time>
      </trkpt>
      <trkpt lat="-43.61863" lon="172.6594">
        <ele>66.5</ele>
        <time>2021-01-31T08:09:49.000Z</time>
      </trkpt>
      <trkpt lat="-43.61872" lon="172.65919">
        <ele>65.8</ele>
        <time>2021-01-31T08:09:51.000Z</time>
      </trkpt>
      <trkpt lat="-43.61873" lon="172.65917">
        <ele>65.6</ele>
        <time>2021-01-31T08:09:51.000Z</time>
      </trkpt>
      <trkpt lat="-43.61875" lon="172.6591">
        <ele>64.4</ele>
        <time>2021-01-31T08:09:52.000Z</time>
      </trkpt>
      <trkpt lat="-43.61876" lon="172.65905">
        <ele>63.6</ele>
        <time>2021-01-31T08:09:52.000Z</time>
      </trkpt>
      <trkpt lat="-43.61878" lon="172.65898">
        <ele>62.3</ele>
        <time>2021-01-31T08:09:53.000Z</time>
      </trkpt>
      <trkpt lat="-43.61878" lon="172.65893">
        <ele>61.8</ele>
        <time>2021-01-31T08:09:53.000Z</time>
      </trkpt>
      <trkpt lat="-43.61879" lon="172.65887">
        <ele>60.9</ele>
        <time>2021-01-31T08:09:54.000Z</time>
      </trkpt>
      <trkpt lat="-43.61879" lon="172.65879">
        <ele>60.2</ele>
        <time>2021-01-31T08:09:55.000Z</time>
      </trkpt>
      <trkpt lat="-43.61879" lon="172.65873">
        <ele>59.6</ele>
        <time>2021-01-31T08:09:55.000Z</time>
      </trkpt>
      <trkpt lat="-43.61879" lon="172.65864">
        <ele>58.8</ele>
        <time>2021-01-31T08:09:56.000Z</time>
      </trkpt>
      <trkpt lat="-43.61877" lon="172.65853">
        <ele>58.5</ele>
        <time>2021-01-31T08:09:57.000Z</time>
      </trkpt>
      <trkpt lat="-43.61876" lon="172.65842">
        <ele>57.9</ele>
        <time>2021-01-31T08:09:58.000Z</time>
      </trkpt>
      <trkpt lat="-43.61874" lon="172.65833">
        <ele>57.8</ele>
        <time>2021-01-31T08:09:59.000Z</time>
      </trkpt>
      <trkpt lat="-43.61872" lon="172.65824">
        <ele>57.1</ele>
        <time>2021-01-31T08:10:00.000Z</time>
      </trkpt>
      <trkpt lat="-43.61869" lon="172.65815">
        <ele>56.7</ele>
        <time>2021-01-31T08:10:01.000Z</time>
      </trkpt>
      <trkpt lat="-43.61864" lon="172.65802">
        <ele>56.4</ele>
        <time>2021-01-31T08:10:02.000Z</time>
      </trkpt>
      <trkpt lat="-43.6186099" lon="172.65795">
        <ele>56.3</ele>
        <time>2021-01-31T08:10:03.000Z</time>
      </trkpt>
      <trkpt lat="-43.61856" lon="172.65785">
        <ele>56.4</ele>
        <time>2021-01-31T08:10:04.000Z</time>
      </trkpt>
      <trkpt lat="-43.6185" lon="172.6577299">
        <ele>56.4</ele>
        <time>2021-01-31T08:10:05.000Z</time>
      </trkpt>
      <trkpt lat="-43.61839" lon="172.65752">
        <ele>56.4</ele>
        <time>2021-01-31T08:10:07.000Z</time>
      </trkpt>
      <trkpt lat="-43.61829" lon="172.65732">
        <ele>55.5</ele>
        <time>2021-01-31T08:10:09.000Z</time>
      </trkpt>
      <trkpt lat="-43.61825" lon="172.65723">
        <ele>54.7</ele>
        <time>2021-01-31T08:10:10.000Z</time>
      </trkpt>
      <trkpt lat="-43.61822" lon="172.65716">
        <ele>54.1</ele>
        <time>2021-01-31T08:10:11.000Z</time>
      </trkpt>
      <trkpt lat="-43.61812" lon="172.65692">
        <ele>51.7</ele>
        <time>2021-01-31T08:10:13.000Z</time>
      </trkpt>
      <trkpt lat="-43.61795" lon="172.65654">
        <ele>48.4</ele>
        <time>2021-01-31T08:10:17.000Z</time>
      </trkpt>
      <trkpt lat="-43.61789" lon="172.65643">
        <ele>47.8</ele>
        <time>2021-01-31T08:10:18.000Z</time>
      </trkpt>
      <trkpt lat="-43.61786" lon="172.65637">
        <ele>47.4</ele>
        <time>2021-01-31T08:10:19.000Z</time>
      </trkpt>
      <trkpt lat="-43.61783" lon="172.65633">
        <ele>47.3</ele>
        <time>2021-01-31T08:10:19.000Z</time>
      </trkpt>
      <trkpt lat="-43.6178" lon="172.65629">
        <ele>47.2</ele>
        <time>2021-01-31T08:10:19.000Z</time>
      </trkpt>
      <trkpt lat="-43.61777" lon="172.65625">
        <ele>47</ele>
        <time>2021-01-31T08:10:19.000Z</time>
      </trkpt>
      <trkpt lat="-43.61771" lon="172.65618">
        <ele>46.8</ele>
        <time>2021-01-31T08:10:20.000Z</time>
      </trkpt>
      <trkpt lat="-43.61768" lon="172.65614">
        <ele>46.6</ele>
        <time>2021-01-31T08:10:20.000Z</time>
      </trkpt>
      <trkpt lat="-43.61764" lon="172.6561">
        <ele>46.5</ele>
        <time>2021-01-31T08:10:21.000Z</time>
      </trkpt>
      <trkpt lat="-43.61759" lon="172.65606">
        <ele>46.5</ele>
        <time>2021-01-31T08:10:22.000Z</time>
      </trkpt>
      <trkpt lat="-43.61755" lon="172.6560299">
        <ele>46.6</ele>
        <time>2021-01-31T08:10:23.000Z</time>
      </trkpt>
      <trkpt lat="-43.61734" lon="172.6559">
        <ele>45.8</ele>
        <time>2021-01-31T08:10:26.000Z</time>
      </trkpt>
      <trkpt lat="-43.61726" lon="172.6558499">
        <ele>45.2</ele>
        <time>2021-01-31T08:10:27.000Z</time>
      </trkpt>
      <trkpt lat="-43.61718" lon="172.65581">
        <ele>45.1</ele>
        <time>2021-01-31T08:10:28.000Z</time>
      </trkpt>
      <trkpt lat="-43.61708" lon="172.6557599">
        <ele>45.5</ele>
        <time>2021-01-31T08:10:29.000Z</time>
      </trkpt>
      <trkpt lat="-43.61705" lon="172.65573">
        <ele>45.6</ele>
        <time>2021-01-31T08:10:29.000Z</time>
      </trkpt>
      <trkpt lat="-43.6170199" lon="172.6557">
        <ele>45.6</ele>
        <time>2021-01-31T08:10:29.000Z</time>
      </trkpt>
      <trkpt lat="-43.617" lon="172.6556699">
        <ele>45.5</ele>
        <time>2021-01-31T08:10:29.000Z</time>
      </trkpt>
      <trkpt lat="-43.61698" lon="172.65564">
        <ele>45.5</ele>
        <time>2021-01-31T08:10:29.000Z</time>
      </trkpt>
      <trkpt lat="-43.61696" lon="172.65559">
        <ele>45.3</ele>
        <time>2021-01-31T08:10:29.000Z</time>
      </trkpt>
      <trkpt lat="-43.61695" lon="172.65554">
        <ele>45.1</ele>
        <time>2021-01-31T08:10:29.000Z</time>
      </trkpt>
      <trkpt lat="-43.61694" lon="172.65547">
        <ele>44.7</ele>
        <time>2021-01-31T08:10:30.000Z</time>
      </trkpt>
      <trkpt lat="-43.61694" lon="172.65542">
        <ele>44.4</ele>
        <time>2021-01-31T08:10:30.000Z</time>
      </trkpt>
      <trkpt lat="-43.61695" lon="172.65537">
        <ele>44</ele>
        <time>2021-01-31T08:10:30.000Z</time>
      </trkpt>
      <trkpt lat="-43.61696" lon="172.6553099">
        <ele>43.5</ele>
        <time>2021-01-31T08:10:30.000Z</time>
      </trkpt>
      <trkpt lat="-43.61698" lon="172.65526">
        <ele>43</ele>
        <time>2021-01-31T08:10:30.000Z</time>
      </trkpt>
      <trkpt lat="-43.61701" lon="172.65521">
        <ele>42.5</ele>
        <time>2021-01-31T08:10:31.000Z</time>
      </trkpt>
      <trkpt lat="-43.61703" lon="172.65517">
        <ele>42.1</ele>
        <time>2021-01-31T08:10:31.000Z</time>
      </trkpt>
      <trkpt lat="-43.61706" lon="172.65513">
        <ele>41.6</ele>
        <time>2021-01-31T08:10:31.000Z</time>
      </trkpt>
      <trkpt lat="-43.6171" lon="172.65509">
        <ele>41</ele>
        <time>2021-01-31T08:10:32.000Z</time>
      </trkpt>
      <trkpt lat="-43.61714" lon="172.65506">
        <ele>40.4</ele>
        <time>2021-01-31T08:10:33.000Z</time>
      </trkpt>
      <trkpt lat="-43.61722" lon="172.655">
        <ele>39.4</ele>
        <time>2021-01-31T08:10:34.000Z</time>
      </trkpt>
      <trkpt lat="-43.61766" lon="172.6546899">
        <ele>41.7</ele>
        <time>2021-01-31T08:10:39.000Z</time>
      </trkpt>
      <trkpt lat="-43.61783" lon="172.65457">
        <ele>41.9</ele>
        <time>2021-01-31T08:10:41.000Z</time>
      </trkpt>
      <trkpt lat="-43.61795" lon="172.6545099">
        <ele>41.5</ele>
        <time>2021-01-31T08:10:42.000Z</time>
      </trkpt>
      <trkpt lat="-43.61804" lon="172.65446">
        <ele>41.2</ele>
        <time>2021-01-31T08:10:43.000Z</time>
      </trkpt>
      <trkpt lat="-43.61833" lon="172.6543299">
        <ele>39.3</ele>
        <time>2021-01-31T08:10:46.000Z</time>
      </trkpt>
      <trkpt lat="-43.61851" lon="172.6542399">
        <ele>38.1</ele>
        <time>2021-01-31T08:10:48.000Z</time>
      </trkpt>
      <trkpt lat="-43.61864" lon="172.65416">
        <ele>37.4</ele>
        <time>2021-01-31T08:10:50.000Z</time>
      </trkpt>
      <trkpt lat="-43.6186999" lon="172.65412">
        <ele>37.4</ele>
        <time>2021-01-31T08:10:51.000Z</time>
      </trkpt>
      <trkpt lat="-43.61896" lon="172.6539">
        <ele>37.9</ele>
        <time>2021-01-31T08:10:54.000Z</time>
      </trkpt>
      <trkpt lat="-43.619" lon="172.65386">
        <ele>38</ele>
        <time>2021-01-31T08:10:55.000Z</time>
      </trkpt>
      <trkpt lat="-43.61904" lon="172.65383">
        <ele>37.9</ele>
        <time>2021-01-31T08:10:56.000Z</time>
      </trkpt>
      <trkpt lat="-43.61913" lon="172.65372">
        <ele>38.3</ele>
        <time>2021-01-31T08:10:57.000Z</time>
      </trkpt>
      <trkpt lat="-43.61926" lon="172.65353">
        <ele>38.9</ele>
        <time>2021-01-31T08:10:59.000Z</time>
      </trkpt>
      <trkpt lat="-43.61935" lon="172.65341">
        <ele>38.6</ele>
        <time>2021-01-31T08:11:00.000Z</time>
      </trkpt>
      <trkpt lat="-43.61939" lon="172.65335">
        <ele>38.6</ele>
        <time>2021-01-31T08:11:01.000Z</time>
      </trkpt>
      <trkpt lat="-43.61945" lon="172.65326">
        <ele>38.4</ele>
        <time>2021-01-31T08:11:02.000Z</time>
      </trkpt>
      <trkpt lat="-43.61951" lon="172.65313">
        <ele>38.7</ele>
        <time>2021-01-31T08:11:03.000Z</time>
      </trkpt>
      <trkpt lat="-43.61956" lon="172.65301">
        <ele>39.1</ele>
        <time>2021-01-31T08:11:04.000Z</time>
      </trkpt>
      <trkpt lat="-43.61961" lon="172.65288">
        <ele>39.4</ele>
        <time>2021-01-31T08:11:05.000Z</time>
      </trkpt>
      <trkpt lat="-43.61966" lon="172.65274">
        <ele>39.8</ele>
        <time>2021-01-31T08:11:06.000Z</time>
      </trkpt>
      <trkpt lat="-43.6197" lon="172.6526299">
        <ele>40</ele>
        <time>2021-01-31T08:11:07.000Z</time>
      </trkpt>
      <trkpt lat="-43.61974" lon="172.65248">
        <ele>40.5</ele>
        <time>2021-01-31T08:11:08.000Z</time>
      </trkpt>
      <trkpt lat="-43.61977" lon="172.65235">
        <ele>40.3</ele>
        <time>2021-01-31T08:11:09.000Z</time>
      </trkpt>
      <trkpt lat="-43.61979" lon="172.65224">
        <ele>40.3</ele>
        <time>2021-01-31T08:11:10.000Z</time>
      </trkpt>
      <trkpt lat="-43.61981" lon="172.65215">
        <ele>40.1</ele>
        <time>2021-01-31T08:11:11.000Z</time>
      </trkpt>
      <trkpt lat="-43.61982" lon="172.65208">
        <ele>40.2</ele>
        <time>2021-01-31T08:11:12.000Z</time>
      </trkpt>
      <trkpt lat="-43.61983" lon="172.65193">
        <ele>40.8</ele>
        <time>2021-01-31T08:11:13.000Z</time>
      </trkpt>
      <trkpt lat="-43.61984" lon="172.65181">
        <ele>41.2</ele>
        <time>2021-01-31T08:11:14.000Z</time>
      </trkpt>
      <trkpt lat="-43.61984" lon="172.65169">
        <ele>42</ele>
        <time>2021-01-31T08:11:15.000Z</time>
      </trkpt>
      <trkpt lat="-43.61985" lon="172.65151">
        <ele>42.1</ele>
        <time>2021-01-31T08:11:16.000Z</time>
      </trkpt>
      <trkpt lat="-43.61984" lon="172.65133">
        <ele>42.7</ele>
        <time>2021-01-31T08:11:17.000Z</time>
      </trkpt>
      <trkpt lat="-43.61983" lon="172.65115">
        <ele>43.4</ele>
        <time>2021-01-31T08:11:18.000Z</time>
      </trkpt>
      <trkpt lat="-43.61982" lon="172.65101">
        <ele>43.9</ele>
        <time>2021-01-31T08:11:19.000Z</time>
      </trkpt>
      <trkpt lat="-43.61979" lon="172.65072">
        <ele>45.1</ele>
        <time>2021-01-31T08:11:21.000Z</time>
      </trkpt>
      <trkpt lat="-43.61974" lon="172.65034">
        <ele>46.2</ele>
        <time>2021-01-31T08:11:24.000Z</time>
      </trkpt>
      <trkpt lat="-43.61971" lon="172.65011">
        <ele>46.6</ele>
        <time>2021-01-31T08:11:26.000Z</time>
      </trkpt>
      <trkpt lat="-43.6197" lon="172.65007">
        <ele>46.8</ele>
        <time>2021-01-31T08:11:26.000Z</time>
      </trkpt>
      <trkpt lat="-43.61969" lon="172.65001">
        <ele>46.9</ele>
        <time>2021-01-31T08:11:26.000Z</time>
      </trkpt>
      <trkpt lat="-43.61968" lon="172.64999">
        <ele>47</ele>
        <time>2021-01-31T08:11:26.000Z</time>
      </trkpt>
      <trkpt lat="-43.61968" lon="172.64997">
        <ele>47.1</ele>
        <time>2021-01-31T08:11:26.000Z</time>
      </trkpt>
      <trkpt lat="-43.61966" lon="172.6499399">
        <ele>47.5</ele>
        <time>2021-01-31T08:11:26.000Z</time>
      </trkpt>
      <trkpt lat="-43.61965" lon="172.64992">
        <ele>47.7</ele>
        <time>2021-01-31T08:11:26.000Z</time>
      </trkpt>
      <trkpt lat="-43.61959" lon="172.64987">
        <ele>48.7</ele>
        <time>2021-01-31T08:11:27.000Z</time>
      </trkpt>
      <trkpt lat="-43.61959" lon="172.64987">
        <ele>48.7</ele>
        <time>2021-01-31T08:11:27.000Z</time>
      </trkpt>
      <trkpt lat="-43.6196" lon="172.64981">
        <ele>48.7</ele>
        <time>2021-01-31T08:11:27.000Z</time>
      </trkpt>
      <trkpt lat="-43.61962" lon="172.6497599">
        <ele>48.6</ele>
        <time>2021-01-31T08:11:27.000Z</time>
      </trkpt>
      <trkpt lat="-43.6196399" lon="172.64973">
        <ele>48.4</ele>
        <time>2021-01-31T08:11:27.000Z</time>
      </trkpt>
      <trkpt lat="-43.61966" lon="172.64969">
        <ele>48.3</ele>
        <time>2021-01-31T08:11:27.000Z</time>
      </trkpt>
      <trkpt lat="-43.61968" lon="172.64966">
        <ele>48.2</ele>
        <time>2021-01-31T08:11:27.000Z</time>
      </trkpt>
      <trkpt lat="-43.61972" lon="172.64962">
        <ele>47.9</ele>
        <time>2021-01-31T08:11:28.000Z</time>
      </trkpt>
      <trkpt lat="-43.61974" lon="172.6496">
        <ele>47.7</ele>
        <time>2021-01-31T08:11:28.000Z</time>
      </trkpt>
      <trkpt lat="-43.61976" lon="172.64957">
        <ele>47.7</ele>
        <time>2021-01-31T08:11:28.000Z</time>
      </trkpt>
      <trkpt lat="-43.6198" lon="172.64955">
        <ele>47.3</ele>
        <time>2021-01-31T08:11:28.000Z</time>
      </trkpt>
      <trkpt lat="-43.61982" lon="172.64953">
        <ele>47.2</ele>
        <time>2021-01-31T08:11:28.000Z</time>
      </trkpt>
      <trkpt lat="-43.61985" lon="172.64951">
        <ele>47</ele>
        <time>2021-01-31T08:11:28.000Z</time>
      </trkpt>
      <trkpt lat="-43.61998" lon="172.64944">
        <ele>46.2</ele>
        <time>2021-01-31T08:11:30.000Z</time>
      </trkpt>
      <trkpt lat="-43.62006" lon="172.6494">
        <ele>46</ele>
        <time>2021-01-31T08:11:31.000Z</time>
      </trkpt>
      <trkpt lat="-43.62013" lon="172.64936">
        <ele>45.9</ele>
        <time>2021-01-31T08:11:32.000Z</time>
      </trkpt>
      <trkpt lat="-43.62027" lon="172.64931">
        <ele>45.5</ele>
        <time>2021-01-31T08:11:34.000Z</time>
      </trkpt>
      <trkpt lat="-43.62039" lon="172.64927">
        <ele>45.2</ele>
        <time>2021-01-31T08:11:35.000Z</time>
      </trkpt>
      <trkpt lat="-43.62059" lon="172.6492">
        <ele>44.8</ele>
        <time>2021-01-31T08:11:37.000Z</time>
      </trkpt>
      <trkpt lat="-43.62081" lon="172.64913">
        <ele>44.8</ele>
        <time>2021-01-31T08:11:40.000Z</time>
      </trkpt>
      <trkpt lat="-43.62089" lon="172.64911">
        <ele>45.1</ele>
        <time>2021-01-31T08:11:41.000Z</time>
      </trkpt>
      <trkpt lat="-43.62101" lon="172.64909">
        <ele>45.6</ele>
        <time>2021-01-31T08:11:42.000Z</time>
      </trkpt>
      <trkpt lat="-43.6211" lon="172.64907">
        <ele>46.2</ele>
        <time>2021-01-31T08:11:43.000Z</time>
      </trkpt>
      <trkpt lat="-43.62145" lon="172.64903">
        <ele>47.6</ele>
        <time>2021-01-31T08:11:47.000Z</time>
      </trkpt>
      <trkpt lat="-43.62153" lon="172.64902">
        <ele>47.9</ele>
        <time>2021-01-31T08:11:48.000Z</time>
      </trkpt>
      <trkpt lat="-43.6216099" lon="172.64902">
        <ele>48.1</ele>
        <time>2021-01-31T08:11:49.000Z</time>
      </trkpt>
      <trkpt lat="-43.62166" lon="172.64903">
        <ele>47.9</ele>
        <time>2021-01-31T08:11:50.000Z</time>
      </trkpt>
      <trkpt lat="-43.62173" lon="172.64904">
        <ele>48</ele>
        <time>2021-01-31T08:11:51.000Z</time>
      </trkpt>
      <trkpt lat="-43.622" lon="172.64908">
        <ele>48.3</ele>
        <time>2021-01-31T08:11:54.000Z</time>
      </trkpt>
      <trkpt lat="-43.62207" lon="172.6491">
        <ele>48.2</ele>
        <time>2021-01-31T08:11:55.000Z</time>
      </trkpt>
      <trkpt lat="-43.62215" lon="172.64911">
        <ele>48.4</ele>
        <time>2021-01-31T08:11:56.000Z</time>
      </trkpt>
      <trkpt lat="-43.62221" lon="172.64911">
        <ele>48.7</ele>
        <time>2021-01-31T08:11:57.000Z</time>
      </trkpt>
      <trkpt lat="-43.62226" lon="172.64911">
        <ele>48.9</ele>
        <time>2021-01-31T08:11:58.000Z</time>
      </trkpt>
      <trkpt lat="-43.62234" lon="172.64911">
        <ele>49.2</ele>
        <time>2021-01-31T08:11:59.000Z</time>
      </trkpt>
      <trkpt lat="-43.62238" lon="172.6491">
        <ele>49.6</ele>
        <time>2021-01-31T08:11:59.000Z</time>
      </trkpt>
      <trkpt lat="-43.62247" lon="172.64908">
        <ele>50.3</ele>
        <time>2021-01-31T08:12:00.000Z</time>
      </trkpt>
      <trkpt lat="-43.6225" lon="172.64907">
        <ele>50.6</ele>
        <time>2021-01-31T08:12:00.000Z</time>
      </trkpt>
      <trkpt lat="-43.62254" lon="172.64905">
        <ele>50.9</ele>
        <time>2021-01-31T08:12:00.000Z</time>
      </trkpt>
      <trkpt lat="-43.62257" lon="172.64903">
        <ele>51.1</ele>
        <time>2021-01-31T08:12:00.000Z</time>
      </trkpt>
      <trkpt lat="-43.62262" lon="172.64899">
        <ele>51.7</ele>
        <time>2021-01-31T08:12:01.000Z</time>
      </trkpt>
      <trkpt lat="-43.6226399" lon="172.64897">
        <ele>51.9</ele>
        <time>2021-01-31T08:12:01.000Z</time>
      </trkpt>
      <trkpt lat="-43.62267" lon="172.64894">
        <ele>52.3</ele>
        <time>2021-01-31T08:12:01.000Z</time>
      </trkpt>
      <trkpt lat="-43.62269" lon="172.64891">
        <ele>52.7</ele>
        <time>2021-01-31T08:12:01.000Z</time>
      </trkpt>
      <trkpt lat="-43.62283" lon="172.64865">
        <ele>56.1</ele>
        <time>2021-01-31T08:12:04.000Z</time>
      </trkpt>
      <trkpt lat="-43.62288" lon="172.64856">
        <ele>57.1</ele>
        <time>2021-01-31T08:12:05.000Z</time>
      </trkpt>
      <trkpt lat="-43.62295" lon="172.64844">
        <ele>58.3</ele>
        <time>2021-01-31T08:12:06.000Z</time>
      </trkpt>
      <trkpt lat="-43.62301" lon="172.64835">
        <ele>59.1</ele>
        <time>2021-01-31T08:12:07.000Z</time>
      </trkpt>
      <trkpt lat="-43.62308" lon="172.64827">
        <ele>59.6</ele>
        <time>2021-01-31T08:12:08.000Z</time>
      </trkpt>
      <trkpt lat="-43.6231" lon="172.64825">
        <ele>59.7</ele>
        <time>2021-01-31T08:12:08.000Z</time>
      </trkpt>
      <trkpt lat="-43.62312" lon="172.64823">
        <ele>59.8</ele>
        <time>2021-01-31T08:12:08.000Z</time>
      </trkpt>
      <trkpt lat="-43.62314" lon="172.64822">
        <ele>59.7</ele>
        <time>2021-01-31T08:12:08.000Z</time>
      </trkpt>
      <trkpt lat="-43.62315" lon="172.64822">
        <ele>59.7</ele>
        <time>2021-01-31T08:12:08.000Z</time>
      </trkpt>
      <trkpt lat="-43.62317" lon="172.64821">
        <ele>59.6</ele>
        <time>2021-01-31T08:12:08.000Z</time>
      </trkpt>
      <trkpt lat="-43.62318" lon="172.64821">
        <ele>59.5</ele>
        <time>2021-01-31T08:12:08.000Z</time>
      </trkpt>
      <trkpt lat="-43.6232" lon="172.64821">
        <ele>59.4</ele>
        <time>2021-01-31T08:12:08.000Z</time>
      </trkpt>
      <trkpt lat="-43.62322" lon="172.64821">
        <ele>59.2</ele>
        <time>2021-01-31T08:12:08.000Z</time>
      </trkpt>
      <trkpt lat="-43.62325" lon="172.64822">
        <ele>58.9</ele>
        <time>2021-01-31T08:12:08.000Z</time>
      </trkpt>
      <trkpt lat="-43.62327" lon="172.64823">
        <ele>58.6</ele>
        <time>2021-01-31T08:12:08.000Z</time>
      </trkpt>
      <trkpt lat="-43.62329" lon="172.6482399">
        <ele>58.3</ele>
        <time>2021-01-31T08:12:08.000Z</time>
      </trkpt>
      <trkpt lat="-43.62336" lon="172.64827">
        <ele>57.8</ele>
        <time>2021-01-31T08:12:09.000Z</time>
      </trkpt>
      <trkpt lat="-43.62344" lon="172.64831">
        <ele>57.5</ele>
        <time>2021-01-31T08:12:10.000Z</time>
      </trkpt>
      <trkpt lat="-43.62351" lon="172.6483299">
        <ele>57.5</ele>
        <time>2021-01-31T08:12:11.000Z</time>
      </trkpt>
      <trkpt lat="-43.62355" lon="172.64835">
        <ele>57.3</ele>
        <time>2021-01-31T08:12:11.000Z</time>
      </trkpt>
      <trkpt lat="-43.6236" lon="172.64837">
        <ele>57.2</ele>
        <time>2021-01-31T08:12:12.000Z</time>
      </trkpt>
      <trkpt lat="-43.62364" lon="172.64838">
        <ele>57.2</ele>
        <time>2021-01-31T08:12:12.000Z</time>
      </trkpt>
      <trkpt lat="-43.6237" lon="172.6484">
        <ele>57.1</ele>
        <time>2021-01-31T08:12:13.000Z</time>
      </trkpt>
      <trkpt lat="-43.62373" lon="172.6484">
        <ele>57.2</ele>
        <time>2021-01-31T08:12:13.000Z</time>
      </trkpt>
      <trkpt lat="-43.62376" lon="172.6484">
        <ele>57.3</ele>
        <time>2021-01-31T08:12:13.000Z</time>
      </trkpt>
      <trkpt lat="-43.6237799" lon="172.6484">
        <ele>57.3</ele>
        <time>2021-01-31T08:12:13.000Z</time>
      </trkpt>
      <trkpt lat="-43.62381" lon="172.6484">
        <ele>57.4</ele>
        <time>2021-01-31T08:12:13.000Z</time>
      </trkpt>
      <trkpt lat="-43.62384" lon="172.6484">
        <ele>57.4</ele>
        <time>2021-01-31T08:12:13.000Z</time>
      </trkpt>
      <trkpt lat="-43.6238699" lon="172.64839">
        <ele>57.6</ele>
        <time>2021-01-31T08:12:13.000Z</time>
      </trkpt>
      <trkpt lat="-43.62391" lon="172.64838">
        <ele>57.8</ele>
        <time>2021-01-31T08:12:13.000Z</time>
      </trkpt>
      <trkpt lat="-43.62393" lon="172.64837">
        <ele>58</ele>
        <time>2021-01-31T08:12:13.000Z</time>
      </trkpt>
      <trkpt lat="-43.62397" lon="172.64835">
        <ele>58.3</ele>
        <time>2021-01-31T08:12:13.000Z</time>
      </trkpt>
      <trkpt lat="-43.62399" lon="172.64834">
        <ele>58.5</ele>
        <time>2021-01-31T08:12:13.000Z</time>
      </trkpt>
      <trkpt lat="-43.62402" lon="172.64832">
        <ele>58.8</ele>
        <time>2021-01-31T08:12:13.000Z</time>
      </trkpt>
      <trkpt lat="-43.62404" lon="172.64829">
        <ele>59.3</ele>
        <time>2021-01-31T08:12:13.000Z</time>
      </trkpt>
      <trkpt lat="-43.62407" lon="172.64825">
        <ele>59.9</ele>
        <time>2021-01-31T08:12:13.000Z</time>
      </trkpt>
      <trkpt lat="-43.62411" lon="172.64821">
        <ele>60.6</ele>
        <time>2021-01-31T08:12:14.000Z</time>
      </trkpt>
      <trkpt lat="-43.62417" lon="172.64813">
        <ele>61.9</ele>
        <time>2021-01-31T08:12:15.000Z</time>
      </trkpt>
      <trkpt lat="-43.62425" lon="172.64803">
        <ele>63.7</ele>
        <time>2021-01-31T08:12:16.000Z</time>
      </trkpt>
      <trkpt lat="-43.62431" lon="172.64795">
        <ele>65</ele>
        <time>2021-01-31T08:12:17.000Z</time>
      </trkpt>
      <trkpt lat="-43.62438" lon="172.64784">
        <ele>66.7</ele>
        <time>2021-01-31T08:12:18.000Z</time>
      </trkpt>
      <trkpt lat="-43.62444" lon="172.64775">
        <ele>68</ele>
        <time>2021-01-31T08:12:19.000Z</time>
      </trkpt>
      <trkpt lat="-43.6245" lon="172.64768">
        <ele>69.1</ele>
        <time>2021-01-31T08:12:20.000Z</time>
      </trkpt>
      <trkpt lat="-43.62456" lon="172.6476">
        <ele>70.2</ele>
        <time>2021-01-31T08:12:21.000Z</time>
      </trkpt>
      <trkpt lat="-43.62464" lon="172.64751">
        <ele>71.4</ele>
        <time>2021-01-31T08:12:22.000Z</time>
      </trkpt>
      <trkpt lat="-43.62466" lon="172.64749">
        <ele>71.8</ele>
        <time>2021-01-31T08:12:22.000Z</time>
      </trkpt>
      <trkpt lat="-43.62468" lon="172.64748">
        <ele>72</ele>
        <time>2021-01-31T08:12:22.000Z</time>
      </trkpt>
      <trkpt lat="-43.62469" lon="172.64747">
        <ele>72.2</ele>
        <time>2021-01-31T08:12:22.000Z</time>
      </trkpt>
      <trkpt lat="-43.62471" lon="172.64746">
        <ele>72.5</ele>
        <time>2021-01-31T08:12:22.000Z</time>
      </trkpt>
      <trkpt lat="-43.62473" lon="172.64746">
        <ele>72.5</ele>
        <time>2021-01-31T08:12:22.000Z</time>
      </trkpt>
      <trkpt lat="-43.62475" lon="172.64745">
        <ele>72.7</ele>
        <time>2021-01-31T08:12:22.000Z</time>
      </trkpt>
      <trkpt lat="-43.62478" lon="172.64745">
        <ele>72.7</ele>
        <time>2021-01-31T08:12:22.000Z</time>
      </trkpt>
      <trkpt lat="-43.6248099" lon="172.64745">
        <ele>72.8</ele>
        <time>2021-01-31T08:12:22.000Z</time>
      </trkpt>
      <trkpt lat="-43.62483" lon="172.64745">
        <ele>72.8</ele>
        <time>2021-01-31T08:12:22.000Z</time>
      </trkpt>
      <trkpt lat="-43.62485" lon="172.64746">
        <ele>72.6</ele>
        <time>2021-01-31T08:12:22.000Z</time>
      </trkpt>
      <trkpt lat="-43.62503" lon="172.64751">
        <ele>72.1</ele>
        <time>2021-01-31T08:12:24.000Z</time>
      </trkpt>
      <trkpt lat="-43.62506" lon="172.6475199">
        <ele>72.1</ele>
        <time>2021-01-31T08:12:24.000Z</time>
      </trkpt>
      <trkpt lat="-43.62509" lon="172.64753">
        <ele>72.2</ele>
        <time>2021-01-31T08:12:24.000Z</time>
      </trkpt>
      <trkpt lat="-43.62512" lon="172.64753">
        <ele>72.4</ele>
        <time>2021-01-31T08:12:24.000Z</time>
      </trkpt>
      <trkpt lat="-43.62515" lon="172.64753">
        <ele>72.6</ele>
        <time>2021-01-31T08:12:24.000Z</time>
      </trkpt>
      <trkpt lat="-43.62518" lon="172.64753">
        <ele>72.8</ele>
        <time>2021-01-31T08:12:24.000Z</time>
      </trkpt>
      <trkpt lat="-43.62522" lon="172.64753">
        <ele>73</ele>
        <time>2021-01-31T08:12:24.000Z</time>
      </trkpt>
      <trkpt lat="-43.62524" lon="172.6475199">
        <ele>73.2</ele>
        <time>2021-01-31T08:12:24.000Z</time>
      </trkpt>
      <trkpt lat="-43.6252799" lon="172.64751">
        <ele>73.6</ele>
        <time>2021-01-31T08:12:24.000Z</time>
      </trkpt>
      <trkpt lat="-43.62531" lon="172.6475">
        <ele>73.9</ele>
        <time>2021-01-31T08:12:24.000Z</time>
      </trkpt>
      <trkpt lat="-43.62534" lon="172.64748">
        <ele>74.4</ele>
        <time>2021-01-31T08:12:24.000Z</time>
      </trkpt>
      <trkpt lat="-43.62573" lon="172.64726">
        <ele>80.2</ele>
        <time>2021-01-31T08:12:29.000Z</time>
      </trkpt>
      <trkpt lat="-43.62577" lon="172.64724">
        <ele>80.7</ele>
        <time>2021-01-31T08:12:29.000Z</time>
      </trkpt>
      <trkpt lat="-43.6258" lon="172.64723">
        <ele>81</ele>
        <time>2021-01-31T08:12:29.000Z</time>
      </trkpt>
      <trkpt lat="-43.6258399" lon="172.64721">
        <ele>81.6</ele>
        <time>2021-01-31T08:12:29.000Z</time>
      </trkpt>
      <trkpt lat="-43.62588" lon="172.64721">
        <ele>81.8</ele>
        <time>2021-01-31T08:12:29.000Z</time>
      </trkpt>
      <trkpt lat="-43.62591" lon="172.6472">
        <ele>82.2</ele>
        <time>2021-01-31T08:12:29.000Z</time>
      </trkpt>
      <trkpt lat="-43.62595" lon="172.64721">
        <ele>82.3</ele>
        <time>2021-01-31T08:12:29.000Z</time>
      </trkpt>
      <trkpt lat="-43.62598" lon="172.64721">
        <ele>82.5</ele>
        <time>2021-01-31T08:12:29.000Z</time>
      </trkpt>
      <trkpt lat="-43.62601" lon="172.64723">
        <ele>82.4</ele>
        <time>2021-01-31T08:12:29.000Z</time>
      </trkpt>
      <trkpt lat="-43.62605" lon="172.64725">
        <ele>82.5</ele>
        <time>2021-01-31T08:12:29.000Z</time>
      </trkpt>
      <trkpt lat="-43.62607" lon="172.64726">
        <ele>82.5</ele>
        <time>2021-01-31T08:12:29.000Z</time>
      </trkpt>
      <trkpt lat="-43.6261" lon="172.64728">
        <ele>82.5</ele>
        <time>2021-01-31T08:12:29.000Z</time>
      </trkpt>
      <trkpt lat="-43.62643" lon="172.6475">
        <ele>83.4</ele>
        <time>2021-01-31T08:12:33.000Z</time>
      </trkpt>
      <trkpt lat="-43.62647" lon="172.64753">
        <ele>83.6</ele>
        <time>2021-01-31T08:12:34.000Z</time>
      </trkpt>
      <trkpt lat="-43.62651" lon="172.64756">
        <ele>83.8</ele>
        <time>2021-01-31T08:12:35.000Z</time>
      </trkpt>
      <trkpt lat="-43.62656" lon="172.6476099">
        <ele>83.9</ele>
        <time>2021-01-31T08:12:36.000Z</time>
      </trkpt>
      <trkpt lat="-43.62661" lon="172.64764">
        <ele>84.2</ele>
        <time>2021-01-31T08:12:37.000Z</time>
      </trkpt>
      <trkpt lat="-43.62664" lon="172.64768">
        <ele>84.2</ele>
        <time>2021-01-31T08:12:37.000Z</time>
      </trkpt>
      <trkpt lat="-43.62667" lon="172.64772">
        <ele>84.2</ele>
        <time>2021-01-31T08:12:37.000Z</time>
      </trkpt>
      <trkpt lat="-43.62669" lon="172.64775">
        <ele>84</ele>
        <time>2021-01-31T08:12:37.000Z</time>
      </trkpt>
      <trkpt lat="-43.62671" lon="172.64777">
        <ele>84</ele>
        <time>2021-01-31T08:12:37.000Z</time>
      </trkpt>
      <trkpt lat="-43.62673" lon="172.6478">
        <ele>83.9</ele>
        <time>2021-01-31T08:12:37.000Z</time>
      </trkpt>
      <trkpt lat="-43.6269599" lon="172.64817">
        <ele>82.9</ele>
        <time>2021-01-31T08:12:41.000Z</time>
      </trkpt>
      <trkpt lat="-43.62699" lon="172.6482">
        <ele>83</ele>
        <time>2021-01-31T08:12:41.000Z</time>
      </trkpt>
      <trkpt lat="-43.62701" lon="172.64823">
        <ele>83</ele>
        <time>2021-01-31T08:12:41.000Z</time>
      </trkpt>
      <trkpt lat="-43.62704" lon="172.64826">
        <ele>83</ele>
        <time>2021-01-31T08:12:41.000Z</time>
      </trkpt>
      <trkpt lat="-43.62711" lon="172.64835">
        <ele>83</ele>
        <time>2021-01-31T08:12:42.000Z</time>
      </trkpt>
      <trkpt lat="-43.62714" lon="172.64837">
        <ele>83</ele>
        <time>2021-01-31T08:12:42.000Z</time>
      </trkpt>
      <trkpt lat="-43.62717" lon="172.64839">
        <ele>83.1</ele>
        <time>2021-01-31T08:12:42.000Z</time>
      </trkpt>
      <trkpt lat="-43.62737" lon="172.64854">
        <ele>82.7</ele>
        <time>2021-01-31T08:12:45.000Z</time>
      </trkpt>
      <trkpt lat="-43.62822" lon="172.64903">
        <ele>77.4</ele>
        <time>2021-01-31T08:12:55.000Z</time>
      </trkpt>
      <trkpt lat="-43.62829" lon="172.64909">
        <ele>76.8</ele>
        <time>2021-01-31T08:12:56.000Z</time>
      </trkpt>
      <trkpt lat="-43.62836" lon="172.64914">
        <ele>76.4</ele>
        <time>2021-01-31T08:12:57.000Z</time>
      </trkpt>
      <trkpt lat="-43.62849" lon="172.64926">
        <ele>73.8</ele>
        <time>2021-01-31T08:12:59.000Z</time>
      </trkpt>
      <trkpt lat="-43.62872" lon="172.6494899">
        <ele>68.5</ele>
        <time>2021-01-31T08:13:02.000Z</time>
      </trkpt>
      <trkpt lat="-43.62905" lon="172.64974">
        <ele>64.2</ele>
        <time>2021-01-31T08:13:06.000Z</time>
      </trkpt>
      <trkpt lat="-43.62912" lon="172.64975">
        <ele>64.4</ele>
        <time>2021-01-31T08:13:07.000Z</time>
      </trkpt>
      <trkpt lat="-43.6292" lon="172.64975">
        <ele>64.5</ele>
        <time>2021-01-31T08:13:08.000Z</time>
      </trkpt>
      <trkpt lat="-43.62924" lon="172.64975">
        <ele>64.2</ele>
        <time>2021-01-31T08:13:08.000Z</time>
      </trkpt>
      <trkpt lat="-43.62946" lon="172.64973">
        <ele>63.2</ele>
        <time>2021-01-31T08:13:10.000Z</time>
      </trkpt>
      <trkpt lat="-43.62954" lon="172.6497">
        <ele>63.2</ele>
        <time>2021-01-31T08:13:11.000Z</time>
      </trkpt>
      <trkpt lat="-43.62963" lon="172.64965">
        <ele>63.6</ele>
        <time>2021-01-31T08:13:12.000Z</time>
      </trkpt>
      <trkpt lat="-43.62971" lon="172.64961">
        <ele>63.8</ele>
        <time>2021-01-31T08:13:13.000Z</time>
      </trkpt>
      <trkpt lat="-43.62985" lon="172.6494899">
        <ele>64.8</ele>
        <time>2021-01-31T08:13:15.000Z</time>
      </trkpt>
      <trkpt lat="-43.62993" lon="172.64944">
        <ele>65</ele>
        <time>2021-01-31T08:13:16.000Z</time>
      </trkpt>
      <trkpt lat="-43.63" lon="172.64941">
        <ele>64.9</ele>
        <time>2021-01-31T08:13:17.000Z</time>
      </trkpt>
      <trkpt lat="-43.63008" lon="172.64939">
        <ele>64.7</ele>
        <time>2021-01-31T08:13:18.000Z</time>
      </trkpt>
      <trkpt lat="-43.6301599" lon="172.64938">
        <ele>64.3</ele>
        <time>2021-01-31T08:13:19.000Z</time>
      </trkpt>
      <trkpt lat="-43.63032" lon="172.64938">
        <ele>63.2</ele>
        <time>2021-01-31T08:13:21.000Z</time>
      </trkpt>
      <trkpt lat="-43.6304" lon="172.64937">
        <ele>62.8</ele>
        <time>2021-01-31T08:13:22.000Z</time>
      </trkpt>
      <trkpt lat="-43.63055" lon="172.64933">
        <ele>62</ele>
        <time>2021-01-31T08:13:24.000Z</time>
      </trkpt>
      <trkpt lat="-43.63062" lon="172.64931">
        <ele>61.6</ele>
        <time>2021-01-31T08:13:25.000Z</time>
      </trkpt>
      <trkpt lat="-43.63069" lon="172.64928">
        <ele>61.1</ele>
        <time>2021-01-31T08:13:26.000Z</time>
      </trkpt>
      <trkpt lat="-43.63075" lon="172.64924">
        <ele>60.7</ele>
        <time>2021-01-31T08:13:27.000Z</time>
      </trkpt>
      <trkpt lat="-43.63082" lon="172.6492">
        <ele>60.1</ele>
        <time>2021-01-31T08:13:28.000Z</time>
      </trkpt>
      <trkpt lat="-43.63088" lon="172.64915">
        <ele>59.5</ele>
        <time>2021-01-31T08:13:29.000Z</time>
      </trkpt>
      <trkpt lat="-43.63094" lon="172.6491">
        <ele>58.7</ele>
        <time>2021-01-31T08:13:30.000Z</time>
      </trkpt>
      <trkpt lat="-43.63099" lon="172.64905">
        <ele>57.9</ele>
        <time>2021-01-31T08:13:31.000Z</time>
      </trkpt>
      <trkpt lat="-43.63104" lon="172.64899">
        <ele>57</ele>
        <time>2021-01-31T08:13:32.000Z</time>
      </trkpt>
      <trkpt lat="-43.63108" lon="172.64892">
        <ele>56.1</ele>
        <time>2021-01-31T08:13:33.000Z</time>
      </trkpt>
      <trkpt lat="-43.63112" lon="172.64885">
        <ele>55.2</ele>
        <time>2021-01-31T08:13:34.000Z</time>
      </trkpt>
      <trkpt lat="-43.6312" lon="172.6486899">
        <ele>52.9</ele>
        <time>2021-01-31T08:13:36.000Z</time>
      </trkpt>
      <trkpt lat="-43.63126" lon="172.64852">
        <ele>50.5</ele>
        <time>2021-01-31T08:13:38.000Z</time>
      </trkpt>
      <trkpt lat="-43.63129" lon="172.64844">
        <ele>49.3</ele>
        <time>2021-01-31T08:13:39.000Z</time>
      </trkpt>
      <trkpt lat="-43.63131" lon="172.64835">
        <ele>48.2</ele>
        <time>2021-01-31T08:13:40.000Z</time>
      </trkpt>
      <trkpt lat="-43.63133" lon="172.64826">
        <ele>46.8</ele>
        <time>2021-01-31T08:13:41.000Z</time>
      </trkpt>
      <trkpt lat="-43.63135" lon="172.64809">
        <ele>44.6</ele>
        <time>2021-01-31T08:13:42.000Z</time>
      </trkpt>
      <trkpt lat="-43.63135" lon="172.6479">
        <ele>42.4</ele>
        <time>2021-01-31T08:13:44.000Z</time>
      </trkpt>
      <trkpt lat="-43.63134" lon="172.64781">
        <ele>41.6</ele>
        <time>2021-01-31T08:13:45.000Z</time>
      </trkpt>
      <trkpt lat="-43.63131" lon="172.6476099">
        <ele>39.8</ele>
        <time>2021-01-31T08:13:47.000Z</time>
      </trkpt>
      <trkpt lat="-43.63126" lon="172.64741">
        <ele>38.5</ele>
        <time>2021-01-31T08:13:49.000Z</time>
      </trkpt>
      <trkpt lat="-43.63117" lon="172.64712">
        <ele>36.9</ele>
        <time>2021-01-31T08:13:52.000Z</time>
      </trkpt>
      <trkpt lat="-43.63116" lon="172.64703">
        <ele>36.1</ele>
        <time>2021-01-31T08:13:53.000Z</time>
      </trkpt>
      <trkpt lat="-43.63116" lon="172.64694">
        <ele>35.2</ele>
        <time>2021-01-31T08:13:54.000Z</time>
      </trkpt>
      <trkpt lat="-43.63116" lon="172.64694">
        <ele>35.2</ele>
        <time>2021-01-31T08:13:54.000Z</time>
      </trkpt>
      <trkpt lat="-43.63117" lon="172.64682">
        <ele>33.9</ele>
        <time>2021-01-31T08:13:55.000Z</time>
      </trkpt>
      <trkpt lat="-43.6311899" lon="172.6467199">
        <ele>32.8</ele>
        <time>2021-01-31T08:13:56.000Z</time>
      </trkpt>
      <trkpt lat="-43.63124" lon="172.64664">
        <ele>32</ele>
        <time>2021-01-31T08:13:57.000Z</time>
      </trkpt>
      <trkpt lat="-43.6313" lon="172.64658">
        <ele>31.7</ele>
        <time>2021-01-31T08:13:58.000Z</time>
      </trkpt>
      <trkpt lat="-43.6313699" lon="172.64653">
        <ele>31.4</ele>
        <time>2021-01-31T08:13:59.000Z</time>
      </trkpt>
      <trkpt lat="-43.63147" lon="172.6465">
        <ele>30.9</ele>
        <time>2021-01-31T08:14:00.000Z</time>
      </trkpt>
      <trkpt lat="-43.63157" lon="172.64647">
        <ele>30.4</ele>
        <time>2021-01-31T08:14:01.000Z</time>
      </trkpt>
      <trkpt lat="-43.63168" lon="172.6464499">
        <ele>29.9</ele>
        <time>2021-01-31T08:14:02.000Z</time>
      </trkpt>
      <trkpt lat="-43.6318" lon="172.64644">
        <ele>29.2</ele>
        <time>2021-01-31T08:14:03.000Z</time>
      </trkpt>
      <trkpt lat="-43.6319299" lon="172.64641">
        <ele>28.5</ele>
        <time>2021-01-31T08:14:04.000Z</time>
      </trkpt>
      <trkpt lat="-43.63207" lon="172.64637">
        <ele>27.8</ele>
        <time>2021-01-31T08:14:06.000Z</time>
      </trkpt>
      <trkpt lat="-43.6322" lon="172.6463">
        <ele>27.3</ele>
        <time>2021-01-31T08:14:08.000Z</time>
      </trkpt>
      <trkpt lat="-43.6323099" lon="172.64624">
        <ele>26.9</ele>
        <time>2021-01-31T08:14:09.000Z</time>
      </trkpt>
      <trkpt lat="-43.63245" lon="172.64615">
        <ele>26.7</ele>
        <time>2021-01-31T08:14:11.000Z</time>
      </trkpt>
      <trkpt lat="-43.63267" lon="172.64598">
        <ele>26.5</ele>
        <time>2021-01-31T08:14:14.000Z</time>
      </trkpt>
      <trkpt lat="-43.63297" lon="172.6457299">
        <ele>26.5</ele>
        <time>2021-01-31T08:14:18.000Z</time>
      </trkpt>
      <trkpt lat="-43.63319" lon="172.64557">
        <ele>26.4</ele>
        <time>2021-01-31T08:14:21.000Z</time>
      </trkpt>
      <trkpt lat="-43.6333" lon="172.64546">
        <ele>26.4</ele>
        <time>2021-01-31T08:14:23.000Z</time>
      </trkpt>
      <trkpt lat="-43.63342" lon="172.64538">
        <ele>26.3</ele>
        <time>2021-01-31T08:14:24.000Z</time>
      </trkpt>
      <trkpt lat="-43.63366" lon="172.64522">
        <ele>26.1</ele>
        <time>2021-01-31T08:14:27.000Z</time>
      </trkpt>
      <trkpt lat="-43.634" lon="172.645">
        <ele>25.8</ele>
        <time>2021-01-31T08:14:31.000Z</time>
      </trkpt>
      <trkpt lat="-43.63421" lon="172.64488">
        <ele>26.6</ele>
        <time>2021-01-31T08:14:34.000Z</time>
      </trkpt>
      <trkpt lat="-43.63432" lon="172.64483">
        <ele>28.2</ele>
        <time>2021-01-31T08:14:35.000Z</time>
      </trkpt>
      <trkpt lat="-43.63443" lon="172.6448">
        <ele>29.6</ele>
        <time>2021-01-31T08:14:36.000Z</time>
      </trkpt>
      <trkpt lat="-43.63454" lon="172.64479">
        <ele>30.8</ele>
        <time>2021-01-31T08:14:37.000Z</time>
      </trkpt>
      <trkpt lat="-43.63465" lon="172.6448">
        <ele>31.9</ele>
        <time>2021-01-31T08:14:38.000Z</time>
      </trkpt>
      <trkpt lat="-43.63474" lon="172.64483">
        <ele>32.5</ele>
        <time>2021-01-31T08:14:39.000Z</time>
      </trkpt>
      <trkpt lat="-43.63485" lon="172.64488">
        <ele>33.3</ele>
        <time>2021-01-31T08:14:40.000Z</time>
      </trkpt>
      <trkpt lat="-43.63496" lon="172.64495">
        <ele>33.9</ele>
        <time>2021-01-31T08:14:41.000Z</time>
      </trkpt>
      <trkpt lat="-43.63507" lon="172.64503">
        <ele>35.5</ele>
        <time>2021-01-31T08:14:42.000Z</time>
      </trkpt>
      <trkpt lat="-43.63519" lon="172.64513">
        <ele>37.3</ele>
        <time>2021-01-31T08:14:44.000Z</time>
      </trkpt>
      <trkpt lat="-43.63543" lon="172.64534">
        <ele>40.4</ele>
        <time>2021-01-31T08:14:47.000Z</time>
      </trkpt>
      <trkpt lat="-43.63603" lon="172.64587">
        <ele>46</ele>
        <time>2021-01-31T08:14:55.000Z</time>
      </trkpt>
      <trkpt lat="-43.63612" lon="172.6459999">
        <ele>45.5</ele>
        <time>2021-01-31T08:14:56.000Z</time>
      </trkpt>
      <trkpt lat="-43.63623" lon="172.6461">
        <ele>46.1</ele>
        <time>2021-01-31T08:14:57.000Z</time>
      </trkpt>
      <trkpt lat="-43.63637" lon="172.6461799">
        <ele>47.7</ele>
        <time>2021-01-31T08:14:59.000Z</time>
      </trkpt>
      <trkpt lat="-43.6366" lon="172.64638">
        <ele>48.7</ele>
        <time>2021-01-31T08:15:02.000Z</time>
      </trkpt>
      <trkpt lat="-43.63702" lon="172.64677">
        <ele>47.4</ele>
        <time>2021-01-31T08:15:08.000Z</time>
      </trkpt>
      <trkpt lat="-43.63712" lon="172.64684">
        <ele>47.2</ele>
        <time>2021-01-31T08:15:09.000Z</time>
      </trkpt>
      <trkpt lat="-43.63722" lon="172.6468999">
        <ele>47.2</ele>
        <time>2021-01-31T08:15:10.000Z</time>
      </trkpt>
      <trkpt lat="-43.63732" lon="172.64693">
        <ele>48.2</ele>
        <time>2021-01-31T08:15:11.000Z</time>
      </trkpt>
      <trkpt lat="-43.63742" lon="172.64695">
        <ele>49.4</ele>
        <time>2021-01-31T08:15:12.000Z</time>
      </trkpt>
      <trkpt lat="-43.63752" lon="172.64695">
        <ele>50.8</ele>
        <time>2021-01-31T08:15:13.000Z</time>
      </trkpt>
      <trkpt lat="-43.63783" lon="172.64691">
        <ele>51.5</ele>
        <time>2021-01-31T08:15:16.000Z</time>
      </trkpt>
      <trkpt lat="-43.63815" lon="172.64693">
        <ele>50.6</ele>
        <time>2021-01-31T08:15:20.000Z</time>
      </trkpt>
      <trkpt lat="-43.63828" lon="172.64691">
        <ele>50.8</ele>
        <time>2021-01-31T08:15:21.000Z</time>
      </trkpt>
      <trkpt lat="-43.63839" lon="172.64687">
        <ele>50.8</ele>
        <time>2021-01-31T08:15:22.000Z</time>
      </trkpt>
      <trkpt lat="-43.6385" lon="172.6468099">
        <ele>50.5</ele>
        <time>2021-01-31T08:15:23.000Z</time>
      </trkpt>
      <trkpt lat="-43.6385999" lon="172.64674">
        <ele>50.6</ele>
        <time>2021-01-31T08:15:24.000Z</time>
      </trkpt>
      <trkpt lat="-43.6386899" lon="172.64666">
        <ele>51</ele>
        <time>2021-01-31T08:15:25.000Z</time>
      </trkpt>
      <trkpt lat="-43.63879" lon="172.64658">
        <ele>51.5</ele>
        <time>2021-01-31T08:15:26.000Z</time>
      </trkpt>
      <trkpt lat="-43.63884" lon="172.64656">
        <ele>51.4</ele>
        <time>2021-01-31T08:15:27.000Z</time>
      </trkpt>
      <trkpt lat="-43.6389" lon="172.64653">
        <ele>51.4</ele>
        <time>2021-01-31T08:15:28.000Z</time>
      </trkpt>
      <trkpt lat="-43.63902" lon="172.64651">
        <ele>50.4</ele>
        <time>2021-01-31T08:15:29.000Z</time>
      </trkpt>
      <trkpt lat="-43.63914" lon="172.64653">
        <ele>48.4</ele>
        <time>2021-01-31T08:15:30.000Z</time>
      </trkpt>
      <trkpt lat="-43.63926" lon="172.64658">
        <ele>46.3</ele>
        <time>2021-01-31T08:15:31.000Z</time>
      </trkpt>
      <trkpt lat="-43.63974" lon="172.64682">
        <ele>39.6</ele>
        <time>2021-01-31T08:15:37.000Z</time>
      </trkpt>
      <trkpt lat="-43.63997" lon="172.64694">
        <ele>36.8</ele>
        <time>2021-01-31T08:15:40.000Z</time>
      </trkpt>
      <trkpt lat="-43.64009" lon="172.64699">
        <ele>34.4</ele>
        <time>2021-01-31T08:15:41.000Z</time>
      </trkpt>
      <trkpt lat="-43.6402" lon="172.64704">
        <ele>31.8</ele>
        <time>2021-01-31T08:15:42.000Z</time>
      </trkpt>
      <trkpt lat="-43.64031" lon="172.6471">
        <ele>29.3</ele>
        <time>2021-01-31T08:15:43.000Z</time>
      </trkpt>
      <trkpt lat="-43.64041" lon="172.64717">
        <ele>26.9</ele>
        <time>2021-01-31T08:15:44.000Z</time>
      </trkpt>
      <trkpt lat="-43.6405" lon="172.64726">
        <ele>24.7</ele>
        <time>2021-01-31T08:15:45.000Z</time>
      </trkpt>
      <trkpt lat="-43.64058" lon="172.64736">
        <ele>22.6</ele>
        <time>2021-01-31T08:15:46.000Z</time>
      </trkpt>
      <trkpt lat="-43.64064" lon="172.64748">
        <ele>20.8</ele>
        <time>2021-01-31T08:15:47.000Z</time>
      </trkpt>
      <trkpt lat="-43.64068" lon="172.6476099">
        <ele>19.3</ele>
        <time>2021-01-31T08:15:48.000Z</time>
      </trkpt>
      <trkpt lat="-43.64069" lon="172.64776">
        <ele>18</ele>
        <time>2021-01-31T08:15:49.000Z</time>
      </trkpt>
      <trkpt lat="-43.64067" lon="172.6479">
        <ele>16.8</ele>
        <time>2021-01-31T08:15:50.000Z</time>
      </trkpt>
      <trkpt lat="-43.64063" lon="172.64802">
        <ele>15.9</ele>
        <time>2021-01-31T08:15:51.000Z</time>
      </trkpt>
      <trkpt lat="-43.6405699" lon="172.64814">
        <ele>14.9</ele>
        <time>2021-01-31T08:15:52.000Z</time>
      </trkpt>
      <trkpt lat="-43.64049" lon="172.6482399">
        <ele>14</ele>
        <time>2021-01-31T08:15:53.000Z</time>
      </trkpt>
      <trkpt lat="-43.64034" lon="172.64841">
        <ele>12.6</ele>
        <time>2021-01-31T08:15:55.000Z</time>
      </trkpt>
      <trkpt lat="-43.64028" lon="172.64852">
        <ele>12</ele>
        <time>2021-01-31T08:15:56.000Z</time>
      </trkpt>
      <trkpt lat="-43.64024" lon="172.64864">
        <ele>11.3</ele>
        <time>2021-01-31T08:15:57.000Z</time>
      </trkpt>
      <trkpt lat="-43.64022" lon="172.64873">
        <ele>10.7</ele>
        <time>2021-01-31T08:15:58.000Z</time>
      </trkpt>
      <trkpt lat="-43.64022" lon="172.6487799">
        <ele>10.5</ele>
        <time>2021-01-31T08:15:58.000Z</time>
      </trkpt>
      <trkpt lat="-43.64023" lon="172.64892">
        <ele>9.7</ele>
        <time>2021-01-31T08:15:59.000Z</time>
      </trkpt>
      <trkpt lat="-43.64028" lon="172.64906">
        <ele>8.9</ele>
        <time>2021-01-31T08:16:00.000Z</time>
      </trkpt>
      <trkpt lat="-43.64035" lon="172.64918">
        <ele>8.4</ele>
        <time>2021-01-31T08:16:01.000Z</time>
      </trkpt>
      <trkpt lat="-43.64044" lon="172.64928">
        <ele>8.2</ele>
        <time>2021-01-31T08:16:02.000Z</time>
      </trkpt>
      <trkpt lat="-43.64055" lon="172.64935">
        <ele>8.2</ele>
        <time>2021-01-31T08:16:03.000Z</time>
      </trkpt>
      <trkpt lat="-43.64067" lon="172.64939">
        <ele>8.4</ele>
        <time>2021-01-31T08:16:04.000Z</time>
      </trkpt>
      <trkpt lat="-43.6408" lon="172.64943">
        <ele>8.6</ele>
        <time>2021-01-31T08:16:05.000Z</time>
      </trkpt>
      <trkpt lat="-43.64094" lon="172.64947">
        <ele>8.4</ele>
        <time>2021-01-31T08:16:07.000Z</time>
      </trkpt>
      <trkpt lat="-43.64108" lon="172.6494899">
        <ele>8.1</ele>
        <time>2021-01-31T08:16:09.000Z</time>
      </trkpt>
      <trkpt lat="-43.64123" lon="172.6495">
        <ele>7.8</ele>
        <time>2021-01-31T08:16:11.000Z</time>
      </trkpt>
      <trkpt lat="-43.64138" lon="172.64948">
        <ele>7.6</ele>
        <time>2021-01-31T08:16:13.000Z</time>
      </trkpt>
      <trkpt lat="-43.64152" lon="172.64944">
        <ele>7.3</ele>
        <time>2021-01-31T08:16:15.000Z</time>
      </trkpt>
      <trkpt lat="-43.64167" lon="172.64939">
        <ele>7</ele>
        <time>2021-01-31T08:16:17.000Z</time>
      </trkpt>
      <trkpt lat="-43.64181" lon="172.64933">
        <ele>7</ele>
        <time>2021-01-31T08:16:19.000Z</time>
      </trkpt>
      <trkpt lat="-43.64211" lon="172.64919">
        <ele>7</ele>
        <time>2021-01-31T08:16:23.000Z</time>
      </trkpt>
      <trkpt lat="-43.64225" lon="172.64913">
        <ele>7</ele>
        <time>2021-01-31T08:16:25.000Z</time>
      </trkpt>
      <trkpt lat="-43.6424" lon="172.64906">
        <ele>7</ele>
        <time>2021-01-31T08:16:27.000Z</time>
      </trkpt>
      <trkpt lat="-43.64268" lon="172.64893">
        <ele>8.1</ele>
        <time>2021-01-31T08:16:30.000Z</time>
      </trkpt>
      <trkpt lat="-43.64281" lon="172.6489">
        <ele>8.9</ele>
        <time>2021-01-31T08:16:31.000Z</time>
      </trkpt>
      <trkpt lat="-43.64294" lon="172.64889">
        <ele>9.6</ele>
        <time>2021-01-31T08:16:32.000Z</time>
      </trkpt>
      <trkpt lat="-43.64307" lon="172.6489">
        <ele>10.4</ele>
        <time>2021-01-31T08:16:33.000Z</time>
      </trkpt>
      <trkpt lat="-43.6432" lon="172.64894">
        <ele>11.2</ele>
        <time>2021-01-31T08:16:34.000Z</time>
      </trkpt>
      <trkpt lat="-43.64345" lon="172.64904">
        <ele>12.6</ele>
        <time>2021-01-31T08:16:37.000Z</time>
      </trkpt>
      <trkpt lat="-43.64372" lon="172.64915">
        <ele>14.3</ele>
        <time>2021-01-31T08:16:40.000Z</time>
      </trkpt>
      <trkpt lat="-43.64385" lon="172.64922">
        <ele>15.3</ele>
        <time>2021-01-31T08:16:42.000Z</time>
      </trkpt>
      <trkpt lat="-43.64398" lon="172.64931">
        <ele>16.5</ele>
        <time>2021-01-31T08:16:44.000Z</time>
      </trkpt>
      <trkpt lat="-43.64409" lon="172.64941">
        <ele>17.9</ele>
        <time>2021-01-31T08:16:45.000Z</time>
      </trkpt>
      <trkpt lat="-43.6441" lon="172.64942">
        <ele>18</ele>
        <time>2021-01-31T08:16:45.000Z</time>
      </trkpt>
      <trkpt lat="-43.64411" lon="172.64944">
        <ele>18.2</ele>
        <time>2021-01-31T08:16:45.000Z</time>
      </trkpt>
      <trkpt lat="-43.64418" lon="172.6495799">
        <ele>19.6</ele>
        <time>2021-01-31T08:16:46.000Z</time>
      </trkpt>
      <trkpt lat="-43.64426" lon="172.64974">
        <ele>21.6</ele>
        <time>2021-01-31T08:16:48.000Z</time>
      </trkpt>
      <trkpt lat="-43.6444199" lon="172.65008">
        <ele>25.4</ele>
        <time>2021-01-31T08:16:51.000Z</time>
      </trkpt>
      <trkpt lat="-43.64449" lon="172.65026">
        <ele>26.6</ele>
        <time>2021-01-31T08:16:53.000Z</time>
      </trkpt>
      <trkpt lat="-43.64456" lon="172.65045">
        <ele>27.9</ele>
        <time>2021-01-31T08:16:55.000Z</time>
      </trkpt>
      <trkpt lat="-43.6445999" lon="172.65064">
        <ele>28.9</ele>
        <time>2021-01-31T08:16:57.000Z</time>
      </trkpt>
      <trkpt lat="-43.64464" lon="172.65083">
        <ele>30.1</ele>
        <time>2021-01-31T08:16:59.000Z</time>
      </trkpt>
      <trkpt lat="-43.64466" lon="172.65103">
        <ele>31.8</ele>
        <time>2021-01-31T08:17:01.000Z</time>
      </trkpt>
      <trkpt lat="-43.64467" lon="172.65124">
        <ele>33.4</ele>
        <time>2021-01-31T08:17:03.000Z</time>
      </trkpt>
      <trkpt lat="-43.64466" lon="172.65143">
        <ele>34.5</ele>
        <time>2021-01-31T08:17:05.000Z</time>
      </trkpt>
      <trkpt lat="-43.64462" lon="172.65161">
        <ele>35.1</ele>
        <time>2021-01-31T08:17:07.000Z</time>
      </trkpt>
      <trkpt lat="-43.64456" lon="172.65178">
        <ele>36.2</ele>
        <time>2021-01-31T08:17:09.000Z</time>
      </trkpt>
      <trkpt lat="-43.64448" lon="172.65194">
        <ele>37.5</ele>
        <time>2021-01-31T08:17:11.000Z</time>
      </trkpt>
      <trkpt lat="-43.64436" lon="172.65207">
        <ele>38</ele>
        <time>2021-01-31T08:17:13.000Z</time>
      </trkpt>
      <trkpt lat="-43.64427" lon="172.65224">
        <ele>39.7</ele>
        <time>2021-01-31T08:17:15.000Z</time>
      </trkpt>
      <trkpt lat="-43.64407" lon="172.65246">
        <ele>41.3</ele>
        <time>2021-01-31T08:17:18.000Z</time>
      </trkpt>
      <trkpt lat="-43.64387" lon="172.65268">
        <ele>42.8</ele>
        <time>2021-01-31T08:17:21.000Z</time>
      </trkpt>
      <trkpt lat="-43.64377" lon="172.65279">
        <ele>43.3</ele>
        <time>2021-01-31T08:17:22.000Z</time>
      </trkpt>
      <trkpt lat="-43.64369" lon="172.65291">
        <ele>44</ele>
        <time>2021-01-31T08:17:23.000Z</time>
      </trkpt>
      <trkpt lat="-43.64361" lon="172.65305">
        <ele>44.9</ele>
        <time>2021-01-31T08:17:24.000Z</time>
      </trkpt>
      <trkpt lat="-43.64355" lon="172.6532">
        <ele>46.1</ele>
        <time>2021-01-31T08:17:25.000Z</time>
      </trkpt>
      <trkpt lat="-43.6435" lon="172.65336">
        <ele>47.4</ele>
        <time>2021-01-31T08:17:26.000Z</time>
      </trkpt>
      <trkpt lat="-43.64346" lon="172.65353">
        <ele>49.5</ele>
        <time>2021-01-31T08:17:27.000Z</time>
      </trkpt>
      <trkpt lat="-43.64343" lon="172.65372">
        <ele>52.1</ele>
        <time>2021-01-31T08:17:29.000Z</time>
      </trkpt>
      <trkpt lat="-43.64331" lon="172.65404">
        <ele>55.2</ele>
        <time>2021-01-31T08:17:32.000Z</time>
      </trkpt>
      <trkpt lat="-43.64323" lon="172.65419">
        <ele>55.7</ele>
        <time>2021-01-31T08:17:34.000Z</time>
      </trkpt>
      <trkpt lat="-43.64315" lon="172.6543299">
        <ele>56.1</ele>
        <time>2021-01-31T08:17:35.000Z</time>
      </trkpt>
      <trkpt lat="-43.64305" lon="172.65445">
        <ele>56.1</ele>
        <time>2021-01-31T08:17:36.000Z</time>
      </trkpt>
      <trkpt lat="-43.64295" lon="172.65456">
        <ele>56.2</ele>
        <time>2021-01-31T08:17:37.000Z</time>
      </trkpt>
      <trkpt lat="-43.64273" lon="172.65473">
        <ele>55.8</ele>
        <time>2021-01-31T08:17:40.000Z</time>
      </trkpt>
      <trkpt lat="-43.64262" lon="172.65481">
        <ele>55.8</ele>
        <time>2021-01-31T08:17:41.000Z</time>
      </trkpt>
      <trkpt lat="-43.64243" lon="172.65499">
        <ele>57</ele>
        <time>2021-01-31T08:17:44.000Z</time>
      </trkpt>
      <trkpt lat="-43.64225" lon="172.65517">
        <ele>55.1</ele>
        <time>2021-01-31T08:17:46.000Z</time>
      </trkpt>
      <trkpt lat="-43.64219" lon="172.6553099">
        <ele>55.5</ele>
        <time>2021-01-31T08:17:47.000Z</time>
      </trkpt>
      <trkpt lat="-43.64214" lon="172.65545">
        <ele>56.2</ele>
        <time>2021-01-31T08:17:48.000Z</time>
      </trkpt>
      <trkpt lat="-43.64211" lon="172.65559">
        <ele>57.3</ele>
        <time>2021-01-31T08:17:49.000Z</time>
      </trkpt>
      <trkpt lat="-43.64209" lon="172.65573">
        <ele>58.7</ele>
        <time>2021-01-31T08:17:50.000Z</time>
      </trkpt>
      <trkpt lat="-43.64209" lon="172.65588">
        <ele>60.5</ele>
        <time>2021-01-31T08:17:51.000Z</time>
      </trkpt>
      <trkpt lat="-43.64211" lon="172.65601">
        <ele>61.9</ele>
        <time>2021-01-31T08:17:52.000Z</time>
      </trkpt>
      <trkpt lat="-43.64215" lon="172.65613">
        <ele>63.4</ele>
        <time>2021-01-31T08:17:53.000Z</time>
      </trkpt>
      <trkpt lat="-43.64219" lon="172.65624">
        <ele>64.6</ele>
        <time>2021-01-31T08:17:54.000Z</time>
      </trkpt>
      <trkpt lat="-43.64226" lon="172.65633">
        <ele>66</ele>
        <time>2021-01-31T08:17:55.000Z</time>
      </trkpt>
      <trkpt lat="-43.64242" lon="172.6565">
        <ele>67.9</ele>
        <time>2021-01-31T08:17:57.000Z</time>
      </trkpt>
      <trkpt lat="-43.64251" lon="172.65649">
        <ele>68.4</ele>
        <time>2021-01-31T08:17:58.000Z</time>
      </trkpt>
      <trkpt lat="-43.64262" lon="172.65647">
        <ele>66</ele>
        <time>2021-01-31T08:17:59.000Z</time>
      </trkpt>
      <trkpt lat="-43.64276" lon="172.65641">
        <ele>63.3</ele>
        <time>2021-01-31T08:18:01.000Z</time>
      </trkpt>
      <trkpt lat="-43.64289" lon="172.6562999">
        <ele>61.7</ele>
        <time>2021-01-31T08:18:03.000Z</time>
      </trkpt>
      <trkpt lat="-43.64299" lon="172.6562099">
        <ele>60.9</ele>
        <time>2021-01-31T08:18:04.000Z</time>
      </trkpt>
      <trkpt lat="-43.64316" lon="172.65601">
        <ele>61.1</ele>
        <time>2021-01-31T08:18:06.000Z</time>
      </trkpt>
      <trkpt lat="-43.64324" lon="172.65592">
        <ele>61.5</ele>
        <time>2021-01-31T08:18:07.000Z</time>
      </trkpt>
      <trkpt lat="-43.6434799" lon="172.65575">
        <ele>60.3</ele>
        <time>2021-01-31T08:18:10.000Z</time>
      </trkpt>
      <trkpt lat="-43.64361" lon="172.6556699">
        <ele>59.1</ele>
        <time>2021-01-31T08:18:12.000Z</time>
      </trkpt>
      <trkpt lat="-43.64376" lon="172.65559">
        <ele>57.9</ele>
        <time>2021-01-31T08:18:14.000Z</time>
      </trkpt>
      <trkpt lat="-43.6445099" lon="172.65521">
        <ele>53.8</ele>
        <time>2021-01-31T08:18:23.000Z</time>
      </trkpt>
      <trkpt lat="-43.64497" lon="172.65498">
        <ele>49.9</ele>
        <time>2021-01-31T08:18:28.000Z</time>
      </trkpt>
      <trkpt lat="-43.64511" lon="172.65492">
        <ele>51.2</ele>
        <time>2021-01-31T08:18:30.000Z</time>
      </trkpt>
      <trkpt lat="-43.6452699" lon="172.65489">
        <ele>52.7</ele>
        <time>2021-01-31T08:18:32.000Z</time>
      </trkpt>
      <trkpt lat="-43.64542" lon="172.6549">
        <ele>53.4</ele>
        <time>2021-01-31T08:18:34.000Z</time>
      </trkpt>
      <trkpt lat="-43.64556" lon="172.65497">
        <ele>52.9</ele>
        <time>2021-01-31T08:18:36.000Z</time>
      </trkpt>
      <trkpt lat="-43.64569" lon="172.65507">
        <ele>52</ele>
        <time>2021-01-31T08:18:38.000Z</time>
      </trkpt>
      <trkpt lat="-43.6458" lon="172.65521">
        <ele>50.5</ele>
        <time>2021-01-31T08:18:40.000Z</time>
      </trkpt>
      <trkpt lat="-43.64589" lon="172.65537">
        <ele>49.3</ele>
        <time>2021-01-31T08:18:42.000Z</time>
      </trkpt>
      <trkpt lat="-43.64597" lon="172.65554">
        <ele>48.7</ele>
        <time>2021-01-31T08:18:44.000Z</time>
      </trkpt>
      <trkpt lat="-43.64604" lon="172.65573">
        <ele>48.3</ele>
        <time>2021-01-31T08:18:46.000Z</time>
      </trkpt>
      <trkpt lat="-43.64611" lon="172.65592">
        <ele>48.2</ele>
        <time>2021-01-31T08:18:48.000Z</time>
      </trkpt>
      <trkpt lat="-43.64617" lon="172.65613">
        <ele>47.6</ele>
        <time>2021-01-31T08:18:50.000Z</time>
      </trkpt>
      <trkpt lat="-43.64623" lon="172.65633">
        <ele>47.4</ele>
        <time>2021-01-31T08:18:52.000Z</time>
      </trkpt>
      <trkpt lat="-43.64635" lon="172.65675">
        <ele>46.8</ele>
        <time>2021-01-31T08:18:56.000Z</time>
      </trkpt>
      <trkpt lat="-43.64642" lon="172.65695">
        <ele>45.5</ele>
        <time>2021-01-31T08:18:58.000Z</time>
      </trkpt>
      <trkpt lat="-43.6465" lon="172.65715">
        <ele>44.7</ele>
        <time>2021-01-31T08:19:00.000Z</time>
      </trkpt>
      <trkpt lat="-43.64666" lon="172.65752">
        <ele>43.3</ele>
        <time>2021-01-31T08:19:03.000Z</time>
      </trkpt>
      <trkpt lat="-43.64673" lon="172.65771">
        <ele>40.8</ele>
        <time>2021-01-31T08:19:05.000Z</time>
      </trkpt>
      <trkpt lat="-43.64679" lon="172.65789">
        <ele>38.2</ele>
        <time>2021-01-31T08:19:07.000Z</time>
      </trkpt>
      <trkpt lat="-43.64685" lon="172.65808">
        <ele>35.4</ele>
        <time>2021-01-31T08:19:09.000Z</time>
      </trkpt>
      <trkpt lat="-43.64691" lon="172.65826">
        <ele>32.8</ele>
        <time>2021-01-31T08:19:11.000Z</time>
      </trkpt>
      <trkpt lat="-43.64698" lon="172.65842">
        <ele>31.3</ele>
        <time>2021-01-31T08:19:13.000Z</time>
      </trkpt>
      <trkpt lat="-43.6470399" lon="172.65858">
        <ele>29.9</ele>
        <time>2021-01-31T08:19:14.000Z</time>
      </trkpt>
      <trkpt lat="-43.64712" lon="172.65872">
        <ele>29.4</ele>
        <time>2021-01-31T08:19:15.000Z</time>
      </trkpt>
      <trkpt lat="-43.64717" lon="172.6588">
        <ele>29.3</ele>
        <time>2021-01-31T08:19:16.000Z</time>
      </trkpt>
      <trkpt lat="-43.64719" lon="172.65884">
        <ele>29.1</ele>
        <time>2021-01-31T08:19:16.000Z</time>
      </trkpt>
      <trkpt lat="-43.64728" lon="172.65894">
        <ele>29.7</ele>
        <time>2021-01-31T08:19:17.000Z</time>
      </trkpt>
      <trkpt lat="-43.64738" lon="172.659">
        <ele>31.3</ele>
        <time>2021-01-31T08:19:18.000Z</time>
      </trkpt>
      <trkpt lat="-43.64748" lon="172.65903">
        <ele>33.5</ele>
        <time>2021-01-31T08:19:19.000Z</time>
      </trkpt>
      <trkpt lat="-43.6476" lon="172.65902">
        <ele>32.4</ele>
        <time>2021-01-31T08:19:20.000Z</time>
      </trkpt>
      <trkpt lat="-43.64769" lon="172.65895">
        <ele>31.9</ele>
        <time>2021-01-31T08:19:21.000Z</time>
      </trkpt>
      <trkpt lat="-43.64778" lon="172.65885">
        <ele>31.9</ele>
        <time>2021-01-31T08:19:22.000Z</time>
      </trkpt>
      <trkpt lat="-43.64786" lon="172.65873">
        <ele>32.5</ele>
        <time>2021-01-31T08:19:23.000Z</time>
      </trkpt>
      <trkpt lat="-43.64794" lon="172.65859">
        <ele>33.5</ele>
        <time>2021-01-31T08:19:24.000Z</time>
      </trkpt>
      <trkpt lat="-43.64804" lon="172.6584499">
        <ele>34.3</ele>
        <time>2021-01-31T08:19:26.000Z</time>
      </trkpt>
      <trkpt lat="-43.64814" lon="172.65834">
        <ele>34.7</ele>
        <time>2021-01-31T08:19:27.000Z</time>
      </trkpt>
      <trkpt lat="-43.6482699" lon="172.65826">
        <ele>35</ele>
        <time>2021-01-31T08:19:29.000Z</time>
      </trkpt>
      <trkpt lat="-43.6484" lon="172.65822">
        <ele>34.7</ele>
        <time>2021-01-31T08:19:30.000Z</time>
      </trkpt>
      <trkpt lat="-43.64855" lon="172.65821">
        <ele>33.9</ele>
        <time>2021-01-31T08:19:32.000Z</time>
      </trkpt>
      <trkpt lat="-43.64869" lon="172.65824">
        <ele>32</ele>
        <time>2021-01-31T08:19:34.000Z</time>
      </trkpt>
      <trkpt lat="-43.6488299" lon="172.6582699">
        <ele>30.1</ele>
        <time>2021-01-31T08:19:36.000Z</time>
      </trkpt>
      <trkpt lat="-43.6491" lon="172.65833">
        <ele>26.6</ele>
        <time>2021-01-31T08:19:39.000Z</time>
      </trkpt>
      <trkpt lat="-43.64924" lon="172.65831">
        <ele>25.2</ele>
        <time>2021-01-31T08:19:41.000Z</time>
      </trkpt>
      <trkpt lat="-43.64938" lon="172.65826">
        <ele>23.5</ele>
        <time>2021-01-31T08:19:43.000Z</time>
      </trkpt>
      <trkpt lat="-43.64952" lon="172.6581799">
        <ele>22.2</ele>
        <time>2021-01-31T08:19:45.000Z</time>
      </trkpt>
      <trkpt lat="-43.64964" lon="172.65808">
        <ele>21.4</ele>
        <time>2021-01-31T08:19:47.000Z</time>
      </trkpt>
      <trkpt lat="-43.64976" lon="172.65794">
        <ele>20.8</ele>
        <time>2021-01-31T08:19:49.000Z</time>
      </trkpt>
      <trkpt lat="-43.64987" lon="172.65777">
        <ele>20.4</ele>
        <time>2021-01-31T08:19:51.000Z</time>
      </trkpt>
      <trkpt lat="-43.64999" lon="172.65759">
        <ele>19.2</ele>
        <time>2021-01-31T08:19:53.000Z</time>
      </trkpt>
      <trkpt lat="-43.65034" lon="172.657">
        <ele>15</ele>
        <time>2021-01-31T08:19:59.000Z</time>
      </trkpt>
      <trkpt lat="-43.65046" lon="172.65679">
        <ele>13</ele>
        <time>2021-01-31T08:20:01.000Z</time>
      </trkpt>
      <trkpt lat="-43.65059" lon="172.65659">
        <ele>10.4</ele>
        <time>2021-01-31T08:20:03.000Z</time>
      </trkpt>
      <trkpt lat="-43.65072" lon="172.6563899">
        <ele>7.4</ele>
        <time>2021-01-31T08:20:05.000Z</time>
      </trkpt>
      <trkpt lat="-43.65086" lon="172.6562">
        <ele>4.8</ele>
        <time>2021-01-31T08:20:07.000Z</time>
      </trkpt>
      <trkpt lat="-43.651" lon="172.6560299">
        <ele>4</ele>
        <time>2021-01-31T08:20:09.000Z</time>
      </trkpt>
      <trkpt lat="-43.65116" lon="172.65589">
        <ele>3.3</ele>
        <time>2021-01-31T08:20:11.000Z</time>
      </trkpt>
      <trkpt lat="-43.65134" lon="172.65579">
        <ele>2.8</ele>
        <time>2021-01-31T08:20:13.000Z</time>
      </trkpt>
      <trkpt lat="-43.65152" lon="172.65574">
        <ele>2.3</ele>
        <time>2021-01-31T08:20:15.000Z</time>
      </trkpt>
      <trkpt lat="-43.65172" lon="172.65573">
        <ele>2</ele>
        <time>2021-01-31T08:20:17.000Z</time>
      </trkpt>
      <trkpt lat="-43.65275" lon="172.65574">
        <ele>2.1</ele>
        <time>2021-01-31T08:20:28.000Z</time>
      </trkpt>
      <trkpt lat="-43.6536" lon="172.65575">
        <ele>2</ele>
        <time>2021-01-31T08:20:37.000Z</time>
      </trkpt>
      <trkpt lat="-43.65487" lon="172.6557599">
        <ele>2.9</ele>
        <time>2021-01-31T08:20:51.000Z</time>
      </trkpt>
      <trkpt lat="-43.65593" lon="172.65578">
        <ele>2.4</ele>
        <time>2021-01-31T08:21:03.000Z</time>
      </trkpt>
      <trkpt lat="-43.65656" lon="172.6558">
        <ele>3.2</ele>
        <time>2021-01-31T08:21:10.000Z</time>
      </trkpt>
      <trkpt lat="-43.65677" lon="172.65581">
        <ele>3.1</ele>
        <time>2021-01-31T08:21:12.000Z</time>
      </trkpt>
      <trkpt lat="-43.65825" lon="172.65588">
        <ele>2</ele>
        <time>2021-01-31T08:21:28.000Z</time>
      </trkpt>
      <trkpt lat="-43.66029" lon="172.656">
        <ele>4.6</ele>
        <time>2021-01-31T08:21:51.000Z</time>
      </trkpt>
      <trkpt lat="-43.66049" lon="172.65605">
        <ele>4.9</ele>
        <time>2021-01-31T08:21:53.000Z</time>
      </trkpt>
      <trkpt lat="-43.66067" lon="172.6561199">
        <ele>5.1</ele>
        <time>2021-01-31T08:21:55.000Z</time>
      </trkpt>
      <trkpt lat="-43.6607" lon="172.65614">
        <ele>5.1</ele>
        <time>2021-01-31T08:21:55.000Z</time>
      </trkpt>
      <trkpt lat="-43.6609" lon="172.65628">
        <ele>4.8</ele>
        <time>2021-01-31T08:21:57.000Z</time>
      </trkpt>
      <trkpt lat="-43.66119" lon="172.65646">
        <ele>3.9</ele>
        <time>2021-01-31T08:22:01.000Z</time>
      </trkpt>
      <trkpt lat="-43.66158" lon="172.65671">
        <ele>3.1</ele>
        <time>2021-01-31T08:22:06.000Z</time>
      </trkpt>
      <trkpt lat="-43.6618799" lon="172.6569">
        <ele>2.7</ele>
        <time>2021-01-31T08:22:10.000Z</time>
      </trkpt>
      <trkpt lat="-43.66211" lon="172.65706">
        <ele>2.5</ele>
        <time>2021-01-31T08:22:13.000Z</time>
      </trkpt>
      <trkpt lat="-43.66273" lon="172.65748">
        <ele>2.3</ele>
        <time>2021-01-31T08:22:21.000Z</time>
      </trkpt>
      <trkpt lat="-43.66351" lon="172.65798">
        <ele>3</ele>
        <time>2021-01-31T08:22:31.000Z</time>
      </trkpt>
      <trkpt lat="-43.66482" lon="172.65886">
        <ele>2</ele>
        <time>2021-01-31T08:22:47.000Z</time>
      </trkpt>
      <trkpt lat="-43.66578" lon="172.6595">
        <ele>9.9</ele>
        <time>2021-01-31T08:22:59.000Z</time>
      </trkpt>
      <trkpt lat="-43.66659" lon="172.65999">
        <ele>5.2</ele>
        <time>2021-01-31T08:23:09.000Z</time>
      </trkpt>
      <trkpt lat="-43.66681" lon="172.66012">
        <ele>4.6</ele>
        <time>2021-01-31T08:23:12.000Z</time>
      </trkpt>
      <trkpt lat="-43.66764" lon="172.66065">
        <ele>3.4</ele>
        <time>2021-01-31T08:23:22.000Z</time>
      </trkpt>
      <trkpt lat="-43.66775" lon="172.66072">
        <ele>3.4</ele>
        <time>2021-01-31T08:23:23.000Z</time>
      </trkpt>
      <trkpt lat="-43.66785" lon="172.66079">
        <ele>3.5</ele>
        <time>2021-01-31T08:23:24.000Z</time>
      </trkpt>
      <trkpt lat="-43.66794" lon="172.66087">
        <ele>3.5</ele>
        <time>2021-01-31T08:23:25.000Z</time>
      </trkpt>
      <trkpt lat="-43.66803" lon="172.66094">
        <ele>3.6</ele>
        <time>2021-01-31T08:23:26.000Z</time>
      </trkpt>
      <trkpt lat="-43.66815" lon="172.66106">
        <ele>3.8</ele>
        <time>2021-01-31T08:23:28.000Z</time>
      </trkpt>
      <trkpt lat="-43.6682" lon="172.66111">
        <ele>3.8</ele>
        <time>2021-01-31T08:23:29.000Z</time>
      </trkpt>
      <trkpt lat="-43.66824" lon="172.66116">
        <ele>3.9</ele>
        <time>2021-01-31T08:23:30.000Z</time>
      </trkpt>
      <trkpt lat="-43.66824" lon="172.66116">
        <ele>3.9</ele>
        <time>2021-01-31T08:23:30.000Z</time>
      </trkpt>
      <trkpt lat="-43.66831" lon="172.66126">
        <ele>4</ele>
        <time>2021-01-31T08:23:31.000Z</time>
      </trkpt>
      <trkpt lat="-43.66836" lon="172.66133">
        <ele>4</ele>
        <time>2021-01-31T08:23:32.000Z</time>
      </trkpt>
      <trkpt lat="-43.66841" lon="172.66141">
        <ele>3.9</ele>
        <time>2021-01-31T08:23:33.000Z</time>
      </trkpt>
      <trkpt lat="-43.66847" lon="172.66151">
        <ele>3.9</ele>
        <time>2021-01-31T08:23:34.000Z</time>
      </trkpt>
      <trkpt lat="-43.6685299" lon="172.66163">
        <ele>3.8</ele>
        <time>2021-01-31T08:23:35.000Z</time>
      </trkpt>
      <trkpt lat="-43.66859" lon="172.6617599">
        <ele>3.7</ele>
        <time>2021-01-31T08:23:36.000Z</time>
      </trkpt>
      <trkpt lat="-43.66865" lon="172.6619">
        <ele>3.5</ele>
        <time>2021-01-31T08:23:37.000Z</time>
      </trkpt>
      <trkpt lat="-43.66871" lon="172.66205">
        <ele>3.3</ele>
        <time>2021-01-31T08:23:38.000Z</time>
      </trkpt>
      <trkpt lat="-43.66877" lon="172.6622099">
        <ele>3.1</ele>
        <time>2021-01-31T08:23:39.000Z</time>
      </trkpt>
      <trkpt lat="-43.66916" lon="172.66335">
        <ele>3</ele>
        <time>2021-01-31T08:23:49.000Z</time>
      </trkpt>
      <trkpt lat="-43.66943" lon="172.66416">
        <ele>2.7</ele>
        <time>2021-01-31T08:23:56.000Z</time>
      </trkpt>
      <trkpt lat="-43.66948" lon="172.6643599">
        <ele>3.2</ele>
        <time>2021-01-31T08:23:58.000Z</time>
      </trkpt>
      <trkpt lat="-43.66953" lon="172.66455">
        <ele>3.7</ele>
        <time>2021-01-31T08:24:00.000Z</time>
      </trkpt>
      <trkpt lat="-43.66955" lon="172.66475">
        <ele>4.3</ele>
        <time>2021-01-31T08:24:02.000Z</time>
      </trkpt>
      <trkpt lat="-43.66956" lon="172.66496">
        <ele>4.9</ele>
        <time>2021-01-31T08:24:04.000Z</time>
      </trkpt>
      <trkpt lat="-43.66953" lon="172.66517">
        <ele>6.3</ele>
        <time>2021-01-31T08:24:06.000Z</time>
      </trkpt>
      <trkpt lat="-43.66948" lon="172.66538">
        <ele>7.5</ele>
        <time>2021-01-31T08:24:08.000Z</time>
      </trkpt>
      <trkpt lat="-43.6694" lon="172.66559">
        <ele>8.1</ele>
        <time>2021-01-31T08:24:10.000Z</time>
      </trkpt>
      <trkpt lat="-43.66927" lon="172.66575">
        <ele>7.2</ele>
        <time>2021-01-31T08:24:12.000Z</time>
      </trkpt>
      <trkpt lat="-43.66916" lon="172.66592">
        <ele>7.1</ele>
        <time>2021-01-31T08:24:14.000Z</time>
      </trkpt>
      <trkpt lat="-43.66878" lon="172.66646">
        <ele>9.7</ele>
        <time>2021-01-31T08:24:20.000Z</time>
      </trkpt>
      <trkpt lat="-43.66866" lon="172.66664">
        <ele>9.5</ele>
        <time>2021-01-31T08:24:22.000Z</time>
      </trkpt>
      <trkpt lat="-43.66854" lon="172.66685">
        <ele>9</ele>
        <time>2021-01-31T08:24:24.000Z</time>
      </trkpt>
      <trkpt lat="-43.6684399" lon="172.66706">
        <ele>8.1</ele>
        <time>2021-01-31T08:24:26.000Z</time>
      </trkpt>
      <trkpt lat="-43.66824" lon="172.66751">
        <ele>6.6</ele>
        <time>2021-01-31T08:24:30.000Z</time>
      </trkpt>
      <trkpt lat="-43.66814" lon="172.66773">
        <ele>8.4</ele>
        <time>2021-01-31T08:24:32.000Z</time>
      </trkpt>
      <trkpt lat="-43.66802" lon="172.6679399">
        <ele>9.3</ele>
        <time>2021-01-31T08:24:34.000Z</time>
      </trkpt>
      <trkpt lat="-43.66789" lon="172.66814">
        <ele>9.5</ele>
        <time>2021-01-31T08:24:36.000Z</time>
      </trkpt>
      <trkpt lat="-43.66774" lon="172.66832">
        <ele>8.7</ele>
        <time>2021-01-31T08:24:38.000Z</time>
      </trkpt>
      <trkpt lat="-43.66758" lon="172.66848">
        <ele>8.9</ele>
        <time>2021-01-31T08:24:40.000Z</time>
      </trkpt>
      <trkpt lat="-43.66742" lon="172.66863">
        <ele>9.7</ele>
        <time>2021-01-31T08:24:42.000Z</time>
      </trkpt>
      <trkpt lat="-43.6671" lon="172.66897">
        <ele>10.7</ele>
        <time>2021-01-31T08:24:46.000Z</time>
      </trkpt>
      <trkpt lat="-43.66695" lon="172.66915">
        <ele>10</ele>
        <time>2021-01-31T08:24:48.000Z</time>
      </trkpt>
      <trkpt lat="-43.66682" lon="172.6693699">
        <ele>10.3</ele>
        <time>2021-01-31T08:24:50.000Z</time>
      </trkpt>
      <trkpt lat="-43.6667" lon="172.66959">
        <ele>10.7</ele>
        <time>2021-01-31T08:24:52.000Z</time>
      </trkpt>
      <trkpt lat="-43.6666" lon="172.66985">
        <ele>12.4</ele>
        <time>2021-01-31T08:24:54.000Z</time>
      </trkpt>
      <trkpt lat="-43.66653" lon="172.67012">
        <ele>12.2</ele>
        <time>2021-01-31T08:24:56.000Z</time>
      </trkpt>
      <trkpt lat="-43.6664699" lon="172.6704">
        <ele>9.5</ele>
        <time>2021-01-31T08:24:58.000Z</time>
      </trkpt>
      <trkpt lat="-43.6664" lon="172.6709799">
        <ele>5.6</ele>
        <time>2021-01-31T08:25:03.000Z</time>
      </trkpt>
      <trkpt lat="-43.66635" lon="172.67127">
        <ele>4.4</ele>
        <time>2021-01-31T08:25:05.000Z</time>
      </trkpt>
      <trkpt lat="-43.66626" lon="172.67186">
        <ele>3</ele>
        <time>2021-01-31T08:25:10.000Z</time>
      </trkpt>
      <trkpt lat="-43.66614" lon="172.67264">
        <ele>3.2</ele>
        <time>2021-01-31T08:25:16.000Z</time>
      </trkpt>
      <trkpt lat="-43.66613" lon="172.67274">
        <ele>3.4</ele>
        <time>2021-01-31T08:25:17.000Z</time>
      </trkpt>
      <trkpt lat="-43.66608" lon="172.67302">
        <ele>3.9</ele>
        <time>2021-01-31T08:25:19.000Z</time>
      </trkpt>
      <trkpt lat="-43.66603" lon="172.6733">
        <ele>4.5</ele>
        <time>2021-01-31T08:25:21.000Z</time>
      </trkpt>
      <trkpt lat="-43.66595" lon="172.67355">
        <ele>4.7</ele>
        <time>2021-01-31T08:25:23.000Z</time>
      </trkpt>
      <trkpt lat="-43.66586" lon="172.67379">
        <ele>4.9</ele>
        <time>2021-01-31T08:25:25.000Z</time>
      </trkpt>
      <trkpt lat="-43.66575" lon="172.674">
        <ele>4.9</ele>
        <time>2021-01-31T08:25:27.000Z</time>
      </trkpt>
      <trkpt lat="-43.66563" lon="172.67419">
        <ele>4.7</ele>
        <time>2021-01-31T08:25:29.000Z</time>
      </trkpt>
      <trkpt lat="-43.66549" lon="172.67435">
        <ele>4.5</ele>
        <time>2021-01-31T08:25:31.000Z</time>
      </trkpt>
      <trkpt lat="-43.66533" lon="172.6745">
        <ele>4.5</ele>
        <time>2021-01-31T08:25:33.000Z</time>
      </trkpt>
      <trkpt lat="-43.66517" lon="172.67462">
        <ele>4.5</ele>
        <time>2021-01-31T08:25:35.000Z</time>
      </trkpt>
      <trkpt lat="-43.66499" lon="172.67472">
        <ele>4.7</ele>
        <time>2021-01-31T08:25:37.000Z</time>
      </trkpt>
      <trkpt lat="-43.6648" lon="172.6748">
        <ele>4.9</ele>
        <time>2021-01-31T08:25:39.000Z</time>
      </trkpt>
      <trkpt lat="-43.66469" lon="172.67484">
        <ele>5</ele>
        <time>2021-01-31T08:25:40.000Z</time>
      </trkpt>
      <trkpt lat="-43.66381" lon="172.67514">
        <ele>6.6</ele>
        <time>2021-01-31T08:25:50.000Z</time>
      </trkpt>
      <trkpt lat="-43.6619699" lon="172.67575">
        <ele>7.6</ele>
        <time>2021-01-31T08:26:11.000Z</time>
      </trkpt>
      <trkpt lat="-43.66178" lon="172.6758199">
        <ele>8.6</ele>
        <time>2021-01-31T08:26:13.000Z</time>
      </trkpt>
      <trkpt lat="-43.66161" lon="172.6759">
        <ele>9.7</ele>
        <time>2021-01-31T08:26:15.000Z</time>
      </trkpt>
      <trkpt lat="-43.66144" lon="172.6759999">
        <ele>10.2</ele>
        <time>2021-01-31T08:26:17.000Z</time>
      </trkpt>
      <trkpt lat="-43.6613" lon="172.67614">
        <ele>11.3</ele>
        <time>2021-01-31T08:26:19.000Z</time>
      </trkpt>
      <trkpt lat="-43.66115" lon="172.67627">
        <ele>12.2</ele>
        <time>2021-01-31T08:26:21.000Z</time>
      </trkpt>
      <trkpt lat="-43.661" lon="172.67641">
        <ele>13</ele>
        <time>2021-01-31T08:26:23.000Z</time>
      </trkpt>
      <trkpt lat="-43.66088" lon="172.67661">
        <ele>14.6</ele>
        <time>2021-01-31T08:26:25.000Z</time>
      </trkpt>
      <trkpt lat="-43.6604699" lon="172.67711">
        <ele>17.8</ele>
        <time>2021-01-31T08:26:31.000Z</time>
      </trkpt>
      <trkpt lat="-43.66034" lon="172.67731">
        <ele>19.4</ele>
        <time>2021-01-31T08:26:33.000Z</time>
      </trkpt>
      <trkpt lat="-43.66022" lon="172.67749">
        <ele>20.9</ele>
        <time>2021-01-31T08:26:35.000Z</time>
      </trkpt>
      <trkpt lat="-43.66006" lon="172.6776099">
        <ele>21.4</ele>
        <time>2021-01-31T08:26:37.000Z</time>
      </trkpt>
      <trkpt lat="-43.65992" lon="172.67778">
        <ele>23.3</ele>
        <time>2021-01-31T08:26:39.000Z</time>
      </trkpt>
      <trkpt lat="-43.6598" lon="172.67795">
        <ele>25.5</ele>
        <time>2021-01-31T08:26:41.000Z</time>
      </trkpt>
      <trkpt lat="-43.65966" lon="172.67811">
        <ele>27.5</ele>
        <time>2021-01-31T08:26:43.000Z</time>
      </trkpt>
      <trkpt lat="-43.65954" lon="172.67827">
        <ele>29.5</ele>
        <time>2021-01-31T08:26:45.000Z</time>
      </trkpt>
      <trkpt lat="-43.65941" lon="172.67841">
        <ele>31.2</ele>
        <time>2021-01-31T08:26:47.000Z</time>
      </trkpt>
      <trkpt lat="-43.65929" lon="172.67858">
        <ele>33</ele>
        <time>2021-01-31T08:26:49.000Z</time>
      </trkpt>
      <trkpt lat="-43.65927" lon="172.6786">
        <ele>33.2</ele>
        <time>2021-01-31T08:26:49.000Z</time>
      </trkpt>
      <trkpt lat="-43.65918" lon="172.67875">
        <ele>34.5</ele>
        <time>2021-01-31T08:26:51.000Z</time>
      </trkpt>
      <trkpt lat="-43.65909" lon="172.67893">
        <ele>34.5</ele>
        <time>2021-01-31T08:26:53.000Z</time>
      </trkpt>
      <trkpt lat="-43.65901" lon="172.67912">
        <ele>34.3</ele>
        <time>2021-01-31T08:26:55.000Z</time>
      </trkpt>
      <trkpt lat="-43.65895" lon="172.67936">
        <ele>35.9</ele>
        <time>2021-01-31T08:26:57.000Z</time>
      </trkpt>
      <trkpt lat="-43.6589" lon="172.67955">
        <ele>37.2</ele>
        <time>2021-01-31T08:26:59.000Z</time>
      </trkpt>
      <trkpt lat="-43.65887" lon="172.67977">
        <ele>39.2</ele>
        <time>2021-01-31T08:27:01.000Z</time>
      </trkpt>
      <trkpt lat="-43.65884" lon="172.67999">
        <ele>41.3</ele>
        <time>2021-01-31T08:27:03.000Z</time>
      </trkpt>
      <trkpt lat="-43.65885" lon="172.6802">
        <ele>42.4</ele>
        <time>2021-01-31T08:27:05.000Z</time>
      </trkpt>
      <trkpt lat="-43.65887" lon="172.68042">
        <ele>43.8</ele>
        <time>2021-01-31T08:27:07.000Z</time>
      </trkpt>
      <trkpt lat="-43.6589" lon="172.68062">
        <ele>45.5</ele>
        <time>2021-01-31T08:27:09.000Z</time>
      </trkpt>
      <trkpt lat="-43.65895" lon="172.6808299">
        <ele>48</ele>
        <time>2021-01-31T08:27:11.000Z</time>
      </trkpt>
      <trkpt lat="-43.65909" lon="172.68121">
        <ele>51.8</ele>
        <time>2021-01-31T08:27:14.000Z</time>
      </trkpt>
      <trkpt lat="-43.65918" lon="172.6814">
        <ele>53.9</ele>
        <time>2021-01-31T08:27:16.000Z</time>
      </trkpt>
      <trkpt lat="-43.65936" lon="172.68176">
        <ele>57.1</ele>
        <time>2021-01-31T08:27:20.000Z</time>
      </trkpt>
      <trkpt lat="-43.65946" lon="172.68193">
        <ele>59</ele>
        <time>2021-01-31T08:27:22.000Z</time>
      </trkpt>
      <trkpt lat="-43.65957" lon="172.6821">
        <ele>61.1</ele>
        <time>2021-01-31T08:27:24.000Z</time>
      </trkpt>
      <trkpt lat="-43.6597099" lon="172.68267">
        <ele>65.2</ele>
        <time>2021-01-31T08:27:29.000Z</time>
      </trkpt>
      <trkpt lat="-43.6597" lon="172.68286">
        <ele>66.7</ele>
        <time>2021-01-31T08:27:31.000Z</time>
      </trkpt>
      <trkpt lat="-43.65966" lon="172.68305">
        <ele>67.8</ele>
        <time>2021-01-31T08:27:33.000Z</time>
      </trkpt>
      <trkpt lat="-43.65959" lon="172.68321">
        <ele>68.3</ele>
        <time>2021-01-31T08:27:35.000Z</time>
      </trkpt>
      <trkpt lat="-43.65949" lon="172.68333">
        <ele>68.2</ele>
        <time>2021-01-31T08:27:36.000Z</time>
      </trkpt>
      <trkpt lat="-43.65936" lon="172.6834">
        <ele>68.3</ele>
        <time>2021-01-31T08:27:38.000Z</time>
      </trkpt>
      <trkpt lat="-43.65922" lon="172.68345">
        <ele>67.9</ele>
        <time>2021-01-31T08:27:40.000Z</time>
      </trkpt>
      <trkpt lat="-43.65907" lon="172.68347">
        <ele>68.2</ele>
        <time>2021-01-31T08:27:42.000Z</time>
      </trkpt>
      <trkpt lat="-43.65858" lon="172.68345">
        <ele>70</ele>
        <time>2021-01-31T08:27:47.000Z</time>
      </trkpt>
      <trkpt lat="-43.65806" lon="172.68341">
        <ele>72</ele>
        <time>2021-01-31T08:27:53.000Z</time>
      </trkpt>
      <trkpt lat="-43.65736" lon="172.68333">
        <ele>74.4</ele>
        <time>2021-01-31T08:28:01.000Z</time>
      </trkpt>
      <trkpt lat="-43.65666" lon="172.68331">
        <ele>76.3</ele>
        <time>2021-01-31T08:28:09.000Z</time>
      </trkpt>
      <trkpt lat="-43.65649" lon="172.68331">
        <ele>76.3</ele>
        <time>2021-01-31T08:28:11.000Z</time>
      </trkpt>
      <trkpt lat="-43.65632" lon="172.68332">
        <ele>76.6</ele>
        <time>2021-01-31T08:28:13.000Z</time>
      </trkpt>
      <trkpt lat="-43.65616" lon="172.6833399">
        <ele>77.1</ele>
        <time>2021-01-31T08:28:15.000Z</time>
      </trkpt>
      <trkpt lat="-43.65602" lon="172.6834">
        <ele>77.7</ele>
        <time>2021-01-31T08:28:17.000Z</time>
      </trkpt>
      <trkpt lat="-43.6559" lon="172.68349">
        <ele>78.3</ele>
        <time>2021-01-31T08:28:19.000Z</time>
      </trkpt>
      <trkpt lat="-43.65579" lon="172.6836099">
        <ele>78.8</ele>
        <time>2021-01-31T08:28:21.000Z</time>
      </trkpt>
      <trkpt lat="-43.65571" lon="172.68377">
        <ele>79.4</ele>
        <time>2021-01-31T08:28:23.000Z</time>
      </trkpt>
      <trkpt lat="-43.65566" lon="172.68394">
        <ele>80</ele>
        <time>2021-01-31T08:28:24.000Z</time>
      </trkpt>
      <trkpt lat="-43.65564" lon="172.68413">
        <ele>80.7</ele>
        <time>2021-01-31T08:28:26.000Z</time>
      </trkpt>
      <trkpt lat="-43.65565" lon="172.68431">
        <ele>79.4</ele>
        <time>2021-01-31T08:28:27.000Z</time>
      </trkpt>
      <trkpt lat="-43.6557" lon="172.68448">
        <ele>78.1</ele>
        <time>2021-01-31T08:28:28.000Z</time>
      </trkpt>
      <trkpt lat="-43.6557699" lon="172.68464">
        <ele>77.1</ele>
        <time>2021-01-31T08:28:30.000Z</time>
      </trkpt>
      <trkpt lat="-43.65587" lon="172.6847699">
        <ele>77</ele>
        <time>2021-01-31T08:28:32.000Z</time>
      </trkpt>
      <trkpt lat="-43.65599" lon="172.68488">
        <ele>77.5</ele>
        <time>2021-01-31T08:28:34.000Z</time>
      </trkpt>
      <trkpt lat="-43.65612" lon="172.68498">
        <ele>78.3</ele>
        <time>2021-01-31T08:28:36.000Z</time>
      </trkpt>
      <trkpt lat="-43.65626" lon="172.68509">
        <ele>77.3</ele>
        <time>2021-01-31T08:28:38.000Z</time>
      </trkpt>
      <trkpt lat="-43.65641" lon="172.68519">
        <ele>76.4</ele>
        <time>2021-01-31T08:28:40.000Z</time>
      </trkpt>
      <trkpt lat="-43.65657" lon="172.6853">
        <ele>75.2</ele>
        <time>2021-01-31T08:28:42.000Z</time>
      </trkpt>
      <trkpt lat="-43.65669" lon="172.68542">
        <ele>73.3</ele>
        <time>2021-01-31T08:28:44.000Z</time>
      </trkpt>
      <trkpt lat="-43.65715" lon="172.68575">
        <ele>72.3</ele>
        <time>2021-01-31T08:28:50.000Z</time>
      </trkpt>
      <trkpt lat="-43.65729" lon="172.68587">
        <ele>71.8</ele>
        <time>2021-01-31T08:28:52.000Z</time>
      </trkpt>
      <trkpt lat="-43.65743" lon="172.68598">
        <ele>71.8</ele>
        <time>2021-01-31T08:28:54.000Z</time>
      </trkpt>
      <trkpt lat="-43.6575599" lon="172.68613">
        <ele>71.6</ele>
        <time>2021-01-31T08:28:56.000Z</time>
      </trkpt>
      <trkpt lat="-43.65767" lon="172.6863">
        <ele>71.5</ele>
        <time>2021-01-31T08:28:58.000Z</time>
      </trkpt>
      <trkpt lat="-43.6577399" lon="172.6865">
        <ele>69.7</ele>
        <time>2021-01-31T08:29:00.000Z</time>
      </trkpt>
      <trkpt lat="-43.65779" lon="172.68671">
        <ele>67.9</ele>
        <time>2021-01-31T08:29:02.000Z</time>
      </trkpt>
      <trkpt lat="-43.65781" lon="172.6869199">
        <ele>67.5</ele>
        <time>2021-01-31T08:29:04.000Z</time>
      </trkpt>
      <trkpt lat="-43.6578" lon="172.68713">
        <ele>65.9</ele>
        <time>2021-01-31T08:29:06.000Z</time>
      </trkpt>
      <trkpt lat="-43.65778" lon="172.68734">
        <ele>64</ele>
        <time>2021-01-31T08:29:08.000Z</time>
      </trkpt>
      <trkpt lat="-43.65772" lon="172.68776">
        <ele>59.4</ele>
        <time>2021-01-31T08:29:11.000Z</time>
      </trkpt>
      <trkpt lat="-43.65771" lon="172.68798">
        <ele>57.8</ele>
        <time>2021-01-31T08:29:13.000Z</time>
      </trkpt>
      <trkpt lat="-43.65771" lon="172.6882">
        <ele>56.6</ele>
        <time>2021-01-31T08:29:15.000Z</time>
      </trkpt>
      <trkpt lat="-43.65771" lon="172.68843">
        <ele>54.5</ele>
        <time>2021-01-31T08:29:17.000Z</time>
      </trkpt>
      <trkpt lat="-43.65784" lon="172.68966">
        <ele>40.7</ele>
        <time>2021-01-31T08:29:27.000Z</time>
      </trkpt>
      <trkpt lat="-43.65789" lon="172.68982">
        <ele>39.1</ele>
        <time>2021-01-31T08:29:28.000Z</time>
      </trkpt>
      <trkpt lat="-43.65795" lon="172.68997">
        <ele>37.6</ele>
        <time>2021-01-31T08:29:29.000Z</time>
      </trkpt>
      <trkpt lat="-43.6580299" lon="172.69012">
        <ele>36.6</ele>
        <time>2021-01-31T08:29:31.000Z</time>
      </trkpt>
      <trkpt lat="-43.6582" lon="172.69042">
        <ele>34.4</ele>
        <time>2021-01-31T08:29:34.000Z</time>
      </trkpt>
      <trkpt lat="-43.65828" lon="172.69057">
        <ele>33</ele>
        <time>2021-01-31T08:29:36.000Z</time>
      </trkpt>
      <trkpt lat="-43.65835" lon="172.69072">
        <ele>31.3</ele>
        <time>2021-01-31T08:29:37.000Z</time>
      </trkpt>
      <trkpt lat="-43.65841" lon="172.69088">
        <ele>29.9</ele>
        <time>2021-01-31T08:29:38.000Z</time>
      </trkpt>
      <trkpt lat="-43.65845" lon="172.69105">
        <ele>30.1</ele>
        <time>2021-01-31T08:29:39.000Z</time>
      </trkpt>
      <trkpt lat="-43.65847" lon="172.69123">
        <ele>29.9</ele>
        <time>2021-01-31T08:29:40.000Z</time>
      </trkpt>
      <trkpt lat="-43.65845" lon="172.69141">
        <ele>29.3</ele>
        <time>2021-01-31T08:29:41.000Z</time>
      </trkpt>
      <trkpt lat="-43.6584" lon="172.69157">
        <ele>28.2</ele>
        <time>2021-01-31T08:29:42.000Z</time>
      </trkpt>
      <trkpt lat="-43.65833" lon="172.69173">
        <ele>28</ele>
        <time>2021-01-31T08:29:44.000Z</time>
      </trkpt>
      <trkpt lat="-43.65822" lon="172.69186">
        <ele>28.8</ele>
        <time>2021-01-31T08:29:46.000Z</time>
      </trkpt>
      <trkpt lat="-43.65811" lon="172.692">
        <ele>29.8</ele>
        <time>2021-01-31T08:29:48.000Z</time>
      </trkpt>
      <trkpt lat="-43.65786" lon="172.69225">
        <ele>31</ele>
        <time>2021-01-31T08:29:51.000Z</time>
      </trkpt>
      <trkpt lat="-43.65773" lon="172.69237">
        <ele>31.5</ele>
        <time>2021-01-31T08:29:53.000Z</time>
      </trkpt>
      <trkpt lat="-43.65762" lon="172.6925">
        <ele>32.4</ele>
        <time>2021-01-31T08:29:55.000Z</time>
      </trkpt>
      <trkpt lat="-43.6575" lon="172.69261">
        <ele>33</ele>
        <time>2021-01-31T08:29:57.000Z</time>
      </trkpt>
      <trkpt lat="-43.65737" lon="172.6927399">
        <ele>32.4</ele>
        <time>2021-01-31T08:29:59.000Z</time>
      </trkpt>
      <trkpt lat="-43.65713" lon="172.69299">
        <ele>31.9</ele>
        <time>2021-01-31T08:30:02.000Z</time>
      </trkpt>
      <trkpt lat="-43.65702" lon="172.69313">
        <ele>32.3</ele>
        <time>2021-01-31T08:30:04.000Z</time>
      </trkpt>
      <trkpt lat="-43.65691" lon="172.6932799">
        <ele>32.9</ele>
        <time>2021-01-31T08:30:06.000Z</time>
      </trkpt>
      <trkpt lat="-43.65646" lon="172.69389">
        <ele>34.8</ele>
        <time>2021-01-31T08:30:13.000Z</time>
      </trkpt>
      <trkpt lat="-43.6562399" lon="172.69419">
        <ele>34.4</ele>
        <time>2021-01-31T08:30:16.000Z</time>
      </trkpt>
      <trkpt lat="-43.65604" lon="172.69448">
        <ele>31.4</ele>
        <time>2021-01-31T08:30:19.000Z</time>
      </trkpt>
      <trkpt lat="-43.65594" lon="172.6946199">
        <ele>30.4</ele>
        <time>2021-01-31T08:30:21.000Z</time>
      </trkpt>
      <trkpt lat="-43.6558599" lon="172.69477">
        <ele>30.3</ele>
        <time>2021-01-31T08:30:23.000Z</time>
      </trkpt>
      <trkpt lat="-43.65578" lon="172.69492">
        <ele>29.8</ele>
        <time>2021-01-31T08:30:24.000Z</time>
      </trkpt>
      <trkpt lat="-43.65572" lon="172.69508">
        <ele>28.2</ele>
        <time>2021-01-31T08:30:25.000Z</time>
      </trkpt>
      <trkpt lat="-43.6556799" lon="172.6952499">
        <ele>25.9</ele>
        <time>2021-01-31T08:30:26.000Z</time>
      </trkpt>
      <trkpt lat="-43.65566" lon="172.69544">
        <ele>24.5</ele>
        <time>2021-01-31T08:30:28.000Z</time>
      </trkpt>
      <trkpt lat="-43.65566" lon="172.69564">
        <ele>23.7</ele>
        <time>2021-01-31T08:30:30.000Z</time>
      </trkpt>
      <trkpt lat="-43.65569" lon="172.69583">
        <ele>24</ele>
        <time>2021-01-31T08:30:32.000Z</time>
      </trkpt>
      <trkpt lat="-43.65574" lon="172.69602">
        <ele>22.8</ele>
        <time>2021-01-31T08:30:34.000Z</time>
      </trkpt>
      <trkpt lat="-43.65582" lon="172.6962">
        <ele>22</ele>
        <time>2021-01-31T08:30:36.000Z</time>
      </trkpt>
      <trkpt lat="-43.65591" lon="172.69636">
        <ele>20.1</ele>
        <time>2021-01-31T08:30:38.000Z</time>
      </trkpt>
      <trkpt lat="-43.65592" lon="172.69637">
        <ele>20</ele>
        <time>2021-01-31T08:30:38.000Z</time>
      </trkpt>
      <trkpt lat="-43.65602" lon="172.69651">
        <ele>18.2</ele>
        <time>2021-01-31T08:30:40.000Z</time>
      </trkpt>
      <trkpt lat="-43.65614" lon="172.69665">
        <ele>16.5</ele>
        <time>2021-01-31T08:30:42.000Z</time>
      </trkpt>
      <trkpt lat="-43.65627" lon="172.69678">
        <ele>16.1</ele>
        <time>2021-01-31T08:30:44.000Z</time>
      </trkpt>
      <trkpt lat="-43.6563299" lon="172.69696">
        <ele>14.8</ele>
        <time>2021-01-31T08:30:46.000Z</time>
      </trkpt>
      <trkpt lat="-43.6564" lon="172.6971299">
        <ele>13.8</ele>
        <time>2021-01-31T08:30:48.000Z</time>
      </trkpt>
      <trkpt lat="-43.65646" lon="172.6973">
        <ele>12.8</ele>
        <time>2021-01-31T08:30:50.000Z</time>
      </trkpt>
      <trkpt lat="-43.65649" lon="172.6974899">
        <ele>11.4</ele>
        <time>2021-01-31T08:30:52.000Z</time>
      </trkpt>
      <trkpt lat="-43.65651" lon="172.69768">
        <ele>11.3</ele>
        <time>2021-01-31T08:30:54.000Z</time>
      </trkpt>
      <trkpt lat="-43.6565" lon="172.69787">
        <ele>11</ele>
        <time>2021-01-31T08:30:56.000Z</time>
      </trkpt>
      <trkpt lat="-43.65647" lon="172.69806">
        <ele>10.4</ele>
        <time>2021-01-31T08:30:58.000Z</time>
      </trkpt>
      <trkpt lat="-43.65643" lon="172.69826">
        <ele>9.8</ele>
        <time>2021-01-31T08:31:00.000Z</time>
      </trkpt>
      <trkpt lat="-43.65635" lon="172.69867">
        <ele>9.7</ele>
        <time>2021-01-31T08:31:03.000Z</time>
      </trkpt>
      <trkpt lat="-43.6563" lon="172.69887">
        <ele>9.6</ele>
        <time>2021-01-31T08:31:05.000Z</time>
      </trkpt>
      <trkpt lat="-43.65626" lon="172.69906">
        <ele>9.4</ele>
        <time>2021-01-31T08:31:07.000Z</time>
      </trkpt>
      <trkpt lat="-43.65621" lon="172.6992">
        <ele>8.9</ele>
        <time>2021-01-31T08:31:08.000Z</time>
      </trkpt>
      <trkpt lat="-43.65617" lon="172.69931">
        <ele>8.4</ele>
        <time>2021-01-31T08:31:09.000Z</time>
      </trkpt>
      <trkpt lat="-43.65617" lon="172.69931">
        <ele>8.4</ele>
        <time>2021-01-31T08:31:09.000Z</time>
      </trkpt>
      <trkpt lat="-43.65612" lon="172.69941">
        <ele>7.8</ele>
        <time>2021-01-31T08:31:10.000Z</time>
      </trkpt>
      <trkpt lat="-43.65601" lon="172.69961">
        <ele>6.7</ele>
        <time>2021-01-31T08:31:12.000Z</time>
      </trkpt>
      <trkpt lat="-43.65595" lon="172.6997">
        <ele>6.3</ele>
        <time>2021-01-31T08:31:13.000Z</time>
      </trkpt>
      <trkpt lat="-43.65588" lon="172.69979">
        <ele>5.9</ele>
        <time>2021-01-31T08:31:14.000Z</time>
      </trkpt>
      <trkpt lat="-43.6558" lon="172.69988">
        <ele>5.6</ele>
        <time>2021-01-31T08:31:15.000Z</time>
      </trkpt>
      <trkpt lat="-43.65572" lon="172.69996">
        <ele>5.6</ele>
        <time>2021-01-31T08:31:16.000Z</time>
      </trkpt>
      <trkpt lat="-43.65564" lon="172.70004">
        <ele>5.6</ele>
        <time>2021-01-31T08:31:17.000Z</time>
      </trkpt>
      <trkpt lat="-43.65555" lon="172.70011">
        <ele>5.6</ele>
        <time>2021-01-31T08:31:18.000Z</time>
      </trkpt>
      <trkpt lat="-43.65528" lon="172.70032">
        <ele>5.1</ele>
        <time>2021-01-31T08:31:21.000Z</time>
      </trkpt>
      <trkpt lat="-43.65511" lon="172.70048">
        <ele>4.5</ele>
        <time>2021-01-31T08:31:23.000Z</time>
      </trkpt>
      <trkpt lat="-43.65502" lon="172.70057">
        <ele>4.1</ele>
        <time>2021-01-31T08:31:24.000Z</time>
      </trkpt>
      <trkpt lat="-43.65493" lon="172.70067">
        <ele>4</ele>
        <time>2021-01-31T08:31:25.000Z</time>
      </trkpt>
      <trkpt lat="-43.65486" lon="172.70079">
        <ele>4.1</ele>
        <time>2021-01-31T08:31:26.000Z</time>
      </trkpt>
      <trkpt lat="-43.65479" lon="172.70092">
        <ele>4.4</ele>
        <time>2021-01-31T08:31:27.000Z</time>
      </trkpt>
      <trkpt lat="-43.65472" lon="172.70105">
        <ele>4.8</ele>
        <time>2021-01-31T08:31:28.000Z</time>
      </trkpt>
      <trkpt lat="-43.6546" lon="172.70131">
        <ele>5.3</ele>
        <time>2021-01-31T08:31:30.000Z</time>
      </trkpt>
      <trkpt lat="-43.65442" lon="172.70171">
        <ele>6.2</ele>
        <time>2021-01-31T08:31:34.000Z</time>
      </trkpt>
      <trkpt lat="-43.65419" lon="172.70224">
        <ele>8.1</ele>
        <time>2021-01-31T08:31:39.000Z</time>
      </trkpt>
      <trkpt lat="-43.65383" lon="172.70307">
        <ele>7.4</ele>
        <time>2021-01-31T08:31:47.000Z</time>
      </trkpt>
      <trkpt lat="-43.65369" lon="172.70339">
        <ele>7.1</ele>
        <time>2021-01-31T08:31:50.000Z</time>
      </trkpt>
      <trkpt lat="-43.65329" lon="172.7043">
        <ele>9.5</ele>
        <time>2021-01-31T08:31:59.000Z</time>
      </trkpt>
      <trkpt lat="-43.65301" lon="172.70494">
        <ele>6.7</ele>
        <time>2021-01-31T08:32:05.000Z</time>
      </trkpt>
      <trkpt lat="-43.65287" lon="172.70526">
        <ele>6</ele>
        <time>2021-01-31T08:32:08.000Z</time>
      </trkpt>
      <trkpt lat="-43.6526" lon="172.70587">
        <ele>5.6</ele>
        <time>2021-01-31T08:32:14.000Z</time>
      </trkpt>
      <trkpt lat="-43.65254" lon="172.70601">
        <ele>5.8</ele>
        <time>2021-01-31T08:32:15.000Z</time>
      </trkpt>
      <trkpt lat="-43.65243" lon="172.70622">
        <ele>6.1</ele>
        <time>2021-01-31T08:32:17.000Z</time>
      </trkpt>
      <trkpt lat="-43.65237" lon="172.70631">
        <ele>6.2</ele>
        <time>2021-01-31T08:32:18.000Z</time>
      </trkpt>
      <trkpt lat="-43.65233" lon="172.70639">
        <ele>6.4</ele>
        <time>2021-01-31T08:32:19.000Z</time>
      </trkpt>
      <trkpt lat="-43.6522999" lon="172.70639">
        <ele>6.3</ele>
        <time>2021-01-31T08:32:19.000Z</time>
      </trkpt>
      <trkpt lat="-43.65233" lon="172.70639">
        <ele>6.4</ele>
        <time>2021-01-31T08:32:19.000Z</time>
      </trkpt>
      <trkpt lat="-43.65237" lon="172.70631">
        <ele>6.2</ele>
        <time>2021-01-31T08:32:20.000Z</time>
      </trkpt>
      <trkpt lat="-43.65243" lon="172.70622">
        <ele>6.1</ele>
        <time>2021-01-31T08:32:21.000Z</time>
      </trkpt>
      <trkpt lat="-43.65254" lon="172.70601">
        <ele>5.8</ele>
        <time>2021-01-31T08:32:23.000Z</time>
      </trkpt>
      <trkpt lat="-43.6526" lon="172.70587">
        <ele>5.6</ele>
        <time>2021-01-31T08:32:24.000Z</time>
      </trkpt>
      <trkpt lat="-43.65287" lon="172.70526">
        <ele>6</ele>
        <time>2021-01-31T08:32:30.000Z</time>
      </trkpt>
      <trkpt lat="-43.65301" lon="172.70494">
        <ele>6.7</ele>
        <time>2021-01-31T08:32:33.000Z</time>
      </trkpt>
      <trkpt lat="-43.65329" lon="172.7043">
        <ele>9.5</ele>
        <time>2021-01-31T08:32:39.000Z</time>
      </trkpt>
      <trkpt lat="-43.65383" lon="172.70307">
        <ele>7.4</ele>
        <time>2021-01-31T08:32:51.000Z</time>
      </trkpt>
      <trkpt lat="-43.65419" lon="172.70224">
        <ele>8.1</ele>
        <time>2021-01-31T08:32:59.000Z</time>
      </trkpt>
      <trkpt lat="-43.65442" lon="172.70171">
        <ele>6.2</ele>
        <time>2021-01-31T08:33:04.000Z</time>
      </trkpt>
      <trkpt lat="-43.6546" lon="172.70131">
        <ele>5.3</ele>
        <time>2021-01-31T08:33:08.000Z</time>
      </trkpt>
      <trkpt lat="-43.65472" lon="172.70105">
        <ele>4.8</ele>
        <time>2021-01-31T08:33:10.000Z</time>
      </trkpt>
      <trkpt lat="-43.65479" lon="172.70092">
        <ele>4.4</ele>
        <time>2021-01-31T08:33:11.000Z</time>
      </trkpt>
      <trkpt lat="-43.65486" lon="172.70079">
        <ele>4.1</ele>
        <time>2021-01-31T08:33:12.000Z</time>
      </trkpt>
      <trkpt lat="-43.65493" lon="172.70067">
        <ele>4</ele>
        <time>2021-01-31T08:33:13.000Z</time>
      </trkpt>
      <trkpt lat="-43.65502" lon="172.70057">
        <ele>4.1</ele>
        <time>2021-01-31T08:33:14.000Z</time>
      </trkpt>
      <trkpt lat="-43.65511" lon="172.70048">
        <ele>4.5</ele>
        <time>2021-01-31T08:33:15.000Z</time>
      </trkpt>
      <trkpt lat="-43.65528" lon="172.70032">
        <ele>5.1</ele>
        <time>2021-01-31T08:33:17.000Z</time>
      </trkpt>
      <trkpt lat="-43.65555" lon="172.70011">
        <ele>5.6</ele>
        <time>2021-01-31T08:33:20.000Z</time>
      </trkpt>
      <trkpt lat="-43.65564" lon="172.70004">
        <ele>5.6</ele>
        <time>2021-01-31T08:33:21.000Z</time>
      </trkpt>
      <trkpt lat="-43.65572" lon="172.69996">
        <ele>5.6</ele>
        <time>2021-01-31T08:33:22.000Z</time>
      </trkpt>
      <trkpt lat="-43.6558" lon="172.69988">
        <ele>5.6</ele>
        <time>2021-01-31T08:33:23.000Z</time>
      </trkpt>
      <trkpt lat="-43.65588" lon="172.69979">
        <ele>5.9</ele>
        <time>2021-01-31T08:33:24.000Z</time>
      </trkpt>
      <trkpt lat="-43.65595" lon="172.6997">
        <ele>6.3</ele>
        <time>2021-01-31T08:33:25.000Z</time>
      </trkpt>
      <trkpt lat="-43.65601" lon="172.69961">
        <ele>6.7</ele>
        <time>2021-01-31T08:33:26.000Z</time>
      </trkpt>
      <trkpt lat="-43.65612" lon="172.69941">
        <ele>7.8</ele>
        <time>2021-01-31T08:33:28.000Z</time>
      </trkpt>
      <trkpt lat="-43.65617" lon="172.69931">
        <ele>8.4</ele>
        <time>2021-01-31T08:33:29.000Z</time>
      </trkpt>
      <trkpt lat="-43.65617" lon="172.69931">
        <ele>8.4</ele>
        <time>2021-01-31T08:33:29.000Z</time>
      </trkpt>
      <trkpt lat="-43.65621" lon="172.6992">
        <ele>8.9</ele>
        <time>2021-01-31T08:33:30.000Z</time>
      </trkpt>
      <trkpt lat="-43.65626" lon="172.69906">
        <ele>9.4</ele>
        <time>2021-01-31T08:33:31.000Z</time>
      </trkpt>
      <trkpt lat="-43.6563" lon="172.69887">
        <ele>9.6</ele>
        <time>2021-01-31T08:33:33.000Z</time>
      </trkpt>
      <trkpt lat="-43.65635" lon="172.69867">
        <ele>9.7</ele>
        <time>2021-01-31T08:33:35.000Z</time>
      </trkpt>
      <trkpt lat="-43.65643" lon="172.69826">
        <ele>9.8</ele>
        <time>2021-01-31T08:33:38.000Z</time>
      </trkpt>
      <trkpt lat="-43.65647" lon="172.69806">
        <ele>10.4</ele>
        <time>2021-01-31T08:33:40.000Z</time>
      </trkpt>
      <trkpt lat="-43.6565" lon="172.69787">
        <ele>11</ele>
        <time>2021-01-31T08:33:42.000Z</time>
      </trkpt>
      <trkpt lat="-43.65651" lon="172.69768">
        <ele>11.3</ele>
        <time>2021-01-31T08:33:44.000Z</time>
      </trkpt>
      <trkpt lat="-43.65649" lon="172.6974899">
        <ele>11.4</ele>
        <time>2021-01-31T08:33:46.000Z</time>
      </trkpt>
      <trkpt lat="-43.65646" lon="172.6973">
        <ele>12.8</ele>
        <time>2021-01-31T08:33:48.000Z</time>
      </trkpt>
      <trkpt lat="-43.6564" lon="172.6971299">
        <ele>13.8</ele>
        <time>2021-01-31T08:33:50.000Z</time>
      </trkpt>
      <trkpt lat="-43.6563299" lon="172.69696">
        <ele>14.8</ele>
        <time>2021-01-31T08:33:52.000Z</time>
      </trkpt>
      <trkpt lat="-43.65627" lon="172.69678">
        <ele>16.1</ele>
        <time>2021-01-31T08:33:54.000Z</time>
      </trkpt>
      <trkpt lat="-43.65614" lon="172.69665">
        <ele>16.5</ele>
        <time>2021-01-31T08:33:56.000Z</time>
      </trkpt>
      <trkpt lat="-43.65602" lon="172.69651">
        <ele>18.2</ele>
        <time>2021-01-31T08:33:58.000Z</time>
      </trkpt>
      <trkpt lat="-43.65591" lon="172.69636">
        <ele>20.1</ele>
        <time>2021-01-31T08:34:00.000Z</time>
      </trkpt>
      <trkpt lat="-43.65582" lon="172.6962">
        <ele>22</ele>
        <time>2021-01-31T08:34:02.000Z</time>
      </trkpt>
      <trkpt lat="-43.65574" lon="172.69602">
        <ele>22.8</ele>
        <time>2021-01-31T08:34:04.000Z</time>
      </trkpt>
      <trkpt lat="-43.65569" lon="172.69583">
        <ele>24</ele>
        <time>2021-01-31T08:34:06.000Z</time>
      </trkpt>
      <trkpt lat="-43.65566" lon="172.69564">
        <ele>23.7</ele>
        <time>2021-01-31T08:34:08.000Z</time>
      </trkpt>
      <trkpt lat="-43.65566" lon="172.69544">
        <ele>24.5</ele>
        <time>2021-01-31T08:34:10.000Z</time>
      </trkpt>
      <trkpt lat="-43.6556799" lon="172.6952499">
        <ele>25.9</ele>
        <time>2021-01-31T08:34:12.000Z</time>
      </trkpt>
      <trkpt lat="-43.65572" lon="172.69508">
        <ele>28.2</ele>
        <time>2021-01-31T08:34:13.000Z</time>
      </trkpt>
      <trkpt lat="-43.65578" lon="172.69492">
        <ele>29.8</ele>
        <time>2021-01-31T08:34:14.000Z</time>
      </trkpt>
      <trkpt lat="-43.6558599" lon="172.69477">
        <ele>30.3</ele>
        <time>2021-01-31T08:34:15.000Z</time>
      </trkpt>
      <trkpt lat="-43.65594" lon="172.6946199">
        <ele>30.4</ele>
        <time>2021-01-31T08:34:17.000Z</time>
      </trkpt>
      <trkpt lat="-43.65604" lon="172.69448">
        <ele>31.4</ele>
        <time>2021-01-31T08:34:19.000Z</time>
      </trkpt>
      <trkpt lat="-43.6562399" lon="172.69419">
        <ele>34.4</ele>
        <time>2021-01-31T08:34:22.000Z</time>
      </trkpt>
      <trkpt lat="-43.65646" lon="172.69389">
        <ele>34.8</ele>
        <time>2021-01-31T08:34:25.000Z</time>
      </trkpt>
      <trkpt lat="-43.65691" lon="172.6932799">
        <ele>32.9</ele>
        <time>2021-01-31T08:34:32.000Z</time>
      </trkpt>
      <trkpt lat="-43.65702" lon="172.69313">
        <ele>32.3</ele>
        <time>2021-01-31T08:34:34.000Z</time>
      </trkpt>
      <trkpt lat="-43.65713" lon="172.69299">
        <ele>31.9</ele>
        <time>2021-01-31T08:34:36.000Z</time>
      </trkpt>
      <trkpt lat="-43.65737" lon="172.6927399">
        <ele>32.4</ele>
        <time>2021-01-31T08:34:39.000Z</time>
      </trkpt>
      <trkpt lat="-43.6575" lon="172.69261">
        <ele>33</ele>
        <time>2021-01-31T08:34:41.000Z</time>
      </trkpt>
      <trkpt lat="-43.65762" lon="172.6925">
        <ele>32.4</ele>
        <time>2021-01-31T08:34:43.000Z</time>
      </trkpt>
      <trkpt lat="-43.65773" lon="172.69237">
        <ele>31.5</ele>
        <time>2021-01-31T08:34:45.000Z</time>
      </trkpt>
      <trkpt lat="-43.65786" lon="172.69225">
        <ele>31</ele>
        <time>2021-01-31T08:34:47.000Z</time>
      </trkpt>
      <trkpt lat="-43.65811" lon="172.692">
        <ele>29.8</ele>
        <time>2021-01-31T08:34:50.000Z</time>
      </trkpt>
      <trkpt lat="-43.65822" lon="172.69186">
        <ele>28.8</ele>
        <time>2021-01-31T08:34:52.000Z</time>
      </trkpt>
      <trkpt lat="-43.65833" lon="172.69173">
        <ele>28</ele>
        <time>2021-01-31T08:34:54.000Z</time>
      </trkpt>
      <trkpt lat="-43.6584" lon="172.69157">
        <ele>28.2</ele>
        <time>2021-01-31T08:34:56.000Z</time>
      </trkpt>
      <trkpt lat="-43.65845" lon="172.69141">
        <ele>29.3</ele>
        <time>2021-01-31T08:34:57.000Z</time>
      </trkpt>
      <trkpt lat="-43.65847" lon="172.69123">
        <ele>29.9</ele>
        <time>2021-01-31T08:34:58.000Z</time>
      </trkpt>
      <trkpt lat="-43.65845" lon="172.69105">
        <ele>30.1</ele>
        <time>2021-01-31T08:34:59.000Z</time>
      </trkpt>
      <trkpt lat="-43.65841" lon="172.69088">
        <ele>29.9</ele>
        <time>2021-01-31T08:35:00.000Z</time>
      </trkpt>
      <trkpt lat="-43.65835" lon="172.69072">
        <ele>31.3</ele>
        <time>2021-01-31T08:35:01.000Z</time>
      </trkpt>
      <trkpt lat="-43.65828" lon="172.69057">
        <ele>33</ele>
        <time>2021-01-31T08:35:02.000Z</time>
      </trkpt>
      <trkpt lat="-43.6582" lon="172.69042">
        <ele>34.4</ele>
        <time>2021-01-31T08:35:04.000Z</time>
      </trkpt>
      <trkpt lat="-43.6580299" lon="172.69012">
        <ele>36.6</ele>
        <time>2021-01-31T08:35:07.000Z</time>
      </trkpt>
      <trkpt lat="-43.65795" lon="172.68997">
        <ele>37.6</ele>
        <time>2021-01-31T08:35:09.000Z</time>
      </trkpt>
      <trkpt lat="-43.65789" lon="172.68982">
        <ele>39.1</ele>
        <time>2021-01-31T08:35:10.000Z</time>
      </trkpt>
      <trkpt lat="-43.65784" lon="172.68966">
        <ele>40.7</ele>
        <time>2021-01-31T08:35:11.000Z</time>
      </trkpt>
      <trkpt lat="-43.65771" lon="172.68843">
        <ele>54.5</ele>
        <time>2021-01-31T08:35:21.000Z</time>
      </trkpt>
      <trkpt lat="-43.65771" lon="172.6882">
        <ele>56.6</ele>
        <time>2021-01-31T08:35:23.000Z</time>
      </trkpt>
      <trkpt lat="-43.65771" lon="172.68798">
        <ele>57.8</ele>
        <time>2021-01-31T08:35:25.000Z</time>
      </trkpt>
      <trkpt lat="-43.65772" lon="172.68776">
        <ele>59.4</ele>
        <time>2021-01-31T08:35:27.000Z</time>
      </trkpt>
      <trkpt lat="-43.65778" lon="172.68734">
        <ele>64</ele>
        <time>2021-01-31T08:35:30.000Z</time>
      </trkpt>
      <trkpt lat="-43.6578" lon="172.68713">
        <ele>65.9</ele>
        <time>2021-01-31T08:35:32.000Z</time>
      </trkpt>
      <trkpt lat="-43.65781" lon="172.6869199">
        <ele>67.5</ele>
        <time>2021-01-31T08:35:34.000Z</time>
      </trkpt>
      <trkpt lat="-43.65779" lon="172.68671">
        <ele>67.9</ele>
        <time>2021-01-31T08:35:36.000Z</time>
      </trkpt>
      <trkpt lat="-43.6577399" lon="172.6865">
        <ele>69.7</ele>
        <time>2021-01-31T08:35:38.000Z</time>
      </trkpt>
      <trkpt lat="-43.65767" lon="172.6863">
        <ele>71.5</ele>
        <time>2021-01-31T08:35:40.000Z</time>
      </trkpt>
      <trkpt lat="-43.6575599" lon="172.68613">
        <ele>71.6</ele>
        <time>2021-01-31T08:35:42.000Z</time>
      </trkpt>
      <trkpt lat="-43.65743" lon="172.68598">
        <ele>71.8</ele>
        <time>2021-01-31T08:35:44.000Z</time>
      </trkpt>
      <trkpt lat="-43.65729" lon="172.68587">
        <ele>71.8</ele>
        <time>2021-01-31T08:35:46.000Z</time>
      </trkpt>
      <trkpt lat="-43.65715" lon="172.68575">
        <ele>72.3</ele>
        <time>2021-01-31T08:35:48.000Z</time>
      </trkpt>
      <trkpt lat="-43.65669" lon="172.68542">
        <ele>73.3</ele>
        <time>2021-01-31T08:35:54.000Z</time>
      </trkpt>
      <trkpt lat="-43.65657" lon="172.6853">
        <ele>75.2</ele>
        <time>2021-01-31T08:35:56.000Z</time>
      </trkpt>
      <trkpt lat="-43.65641" lon="172.68519">
        <ele>76.4</ele>
        <time>2021-01-31T08:35:58.000Z</time>
      </trkpt>
      <trkpt lat="-43.65626" lon="172.68509">
        <ele>77.3</ele>
        <time>2021-01-31T08:36:00.000Z</time>
      </trkpt>
      <trkpt lat="-43.65612" lon="172.68498">
        <ele>78.3</ele>
        <time>2021-01-31T08:36:02.000Z</time>
      </trkpt>
      <trkpt lat="-43.65599" lon="172.68488">
        <ele>77.5</ele>
        <time>2021-01-31T08:36:04.000Z</time>
      </trkpt>
      <trkpt lat="-43.65587" lon="172.6847699">
        <ele>77</ele>
        <time>2021-01-31T08:36:06.000Z</time>
      </trkpt>
      <trkpt lat="-43.6557699" lon="172.68464">
        <ele>77.1</ele>
        <time>2021-01-31T08:36:08.000Z</time>
      </trkpt>
      <trkpt lat="-43.6557" lon="172.68448">
        <ele>78.1</ele>
        <time>2021-01-31T08:36:10.000Z</time>
      </trkpt>
      <trkpt lat="-43.65565" lon="172.68431">
        <ele>79.4</ele>
        <time>2021-01-31T08:36:11.000Z</time>
      </trkpt>
      <trkpt lat="-43.65564" lon="172.68413">
        <ele>80.7</ele>
        <time>2021-01-31T08:36:12.000Z</time>
      </trkpt>
      <trkpt lat="-43.65566" lon="172.68394">
        <ele>80</ele>
        <time>2021-01-31T08:36:14.000Z</time>
      </trkpt>
      <trkpt lat="-43.65571" lon="172.68377">
        <ele>79.4</ele>
        <time>2021-01-31T08:36:15.000Z</time>
      </trkpt>
      <trkpt lat="-43.65579" lon="172.6836099">
        <ele>78.8</ele>
        <time>2021-01-31T08:36:17.000Z</time>
      </trkpt>
      <trkpt lat="-43.6559" lon="172.68349">
        <ele>78.3</ele>
        <time>2021-01-31T08:36:19.000Z</time>
      </trkpt>
      <trkpt lat="-43.65602" lon="172.6834">
        <ele>77.7</ele>
        <time>2021-01-31T08:36:21.000Z</time>
      </trkpt>
      <trkpt lat="-43.65616" lon="172.6833399">
        <ele>77.1</ele>
        <time>2021-01-31T08:36:23.000Z</time>
      </trkpt>
      <trkpt lat="-43.65632" lon="172.68332">
        <ele>76.6</ele>
        <time>2021-01-31T08:36:25.000Z</time>
      </trkpt>
      <trkpt lat="-43.65649" lon="172.68331">
        <ele>76.3</ele>
        <time>2021-01-31T08:36:27.000Z</time>
      </trkpt>
      <trkpt lat="-43.65666" lon="172.68331">
        <ele>76.3</ele>
        <time>2021-01-31T08:36:29.000Z</time>
      </trkpt>
      <trkpt lat="-43.65736" lon="172.68333">
        <ele>74.4</ele>
        <time>2021-01-31T08:36:37.000Z</time>
      </trkpt>
      <trkpt lat="-43.65806" lon="172.68341">
        <ele>72</ele>
        <time>2021-01-31T08:36:45.000Z</time>
      </trkpt>
      <trkpt lat="-43.65858" lon="172.68345">
        <ele>70</ele>
        <time>2021-01-31T08:36:51.000Z</time>
      </trkpt>
      <trkpt lat="-43.65907" lon="172.68347">
        <ele>68.2</ele>
        <time>2021-01-31T08:36:56.000Z</time>
      </trkpt>
      <trkpt lat="-43.65922" lon="172.68345">
        <ele>67.9</ele>
        <time>2021-01-31T08:36:58.000Z</time>
      </trkpt>
      <trkpt lat="-43.65936" lon="172.6834">
        <ele>68.3</ele>
        <time>2021-01-31T08:37:00.000Z</time>
      </trkpt>
      <trkpt lat="-43.65949" lon="172.68333">
        <ele>68.2</ele>
        <time>2021-01-31T08:37:02.000Z</time>
      </trkpt>
      <trkpt lat="-43.65959" lon="172.68321">
        <ele>68.3</ele>
        <time>2021-01-31T08:37:03.000Z</time>
      </trkpt>
      <trkpt lat="-43.65966" lon="172.68305">
        <ele>67.8</ele>
        <time>2021-01-31T08:37:05.000Z</time>
      </trkpt>
      <trkpt lat="-43.6597" lon="172.68286">
        <ele>66.7</ele>
        <time>2021-01-31T08:37:07.000Z</time>
      </trkpt>
      <trkpt lat="-43.6597099" lon="172.68267">
        <ele>65.2</ele>
        <time>2021-01-31T08:37:09.000Z</time>
      </trkpt>
      <trkpt lat="-43.65957" lon="172.6821">
        <ele>61.1</ele>
        <time>2021-01-31T08:37:14.000Z</time>
      </trkpt>
      <trkpt lat="-43.65946" lon="172.68193">
        <ele>59</ele>
        <time>2021-01-31T08:37:16.000Z</time>
      </trkpt>
      <trkpt lat="-43.65936" lon="172.68176">
        <ele>57.1</ele>
        <time>2021-01-31T08:37:18.000Z</time>
      </trkpt>
      <trkpt lat="-43.65918" lon="172.6814">
        <ele>53.9</ele>
        <time>2021-01-31T08:37:22.000Z</time>
      </trkpt>
      <trkpt lat="-43.65909" lon="172.68121">
        <ele>51.8</ele>
        <time>2021-01-31T08:37:24.000Z</time>
      </trkpt>
      <trkpt lat="-43.65895" lon="172.6808299">
        <ele>48</ele>
        <time>2021-01-31T08:37:27.000Z</time>
      </trkpt>
      <trkpt lat="-43.6589" lon="172.68062">
        <ele>45.5</ele>
        <time>2021-01-31T08:37:29.000Z</time>
      </trkpt>
      <trkpt lat="-43.65887" lon="172.68042">
        <ele>43.8</ele>
        <time>2021-01-31T08:37:31.000Z</time>
      </trkpt>
      <trkpt lat="-43.65885" lon="172.6802">
        <ele>42.4</ele>
        <time>2021-01-31T08:37:33.000Z</time>
      </trkpt>
      <trkpt lat="-43.65884" lon="172.67999">
        <ele>41.3</ele>
        <time>2021-01-31T08:37:35.000Z</time>
      </trkpt>
      <trkpt lat="-43.65887" lon="172.67977">
        <ele>39.2</ele>
        <time>2021-01-31T08:37:37.000Z</time>
      </trkpt>
      <trkpt lat="-43.6589" lon="172.67955">
        <ele>37.2</ele>
        <time>2021-01-31T08:37:39.000Z</time>
      </trkpt>
      <trkpt lat="-43.65895" lon="172.67936">
        <ele>35.9</ele>
        <time>2021-01-31T08:37:41.000Z</time>
      </trkpt>
      <trkpt lat="-43.65901" lon="172.67912">
        <ele>34.3</ele>
        <time>2021-01-31T08:37:43.000Z</time>
      </trkpt>
      <trkpt lat="-43.65909" lon="172.67893">
        <ele>34.5</ele>
        <time>2021-01-31T08:37:45.000Z</time>
      </trkpt>
      <trkpt lat="-43.65918" lon="172.67875">
        <ele>34.5</ele>
        <time>2021-01-31T08:37:47.000Z</time>
      </trkpt>
      <trkpt lat="-43.65929" lon="172.67858">
        <ele>33</ele>
        <time>2021-01-31T08:37:49.000Z</time>
      </trkpt>
      <trkpt lat="-43.65941" lon="172.67841">
        <ele>31.2</ele>
        <time>2021-01-31T08:37:51.000Z</time>
      </trkpt>
      <trkpt lat="-43.65954" lon="172.67827">
        <ele>29.5</ele>
        <time>2021-01-31T08:37:53.000Z</time>
      </trkpt>
      <trkpt lat="-43.65966" lon="172.67811">
        <ele>27.5</ele>
        <time>2021-01-31T08:37:55.000Z</time>
      </trkpt>
      <trkpt lat="-43.6598" lon="172.67795">
        <ele>25.5</ele>
        <time>2021-01-31T08:37:57.000Z</time>
      </trkpt>
      <trkpt lat="-43.65992" lon="172.67778">
        <ele>23.3</ele>
        <time>2021-01-31T08:37:59.000Z</time>
      </trkpt>
      <trkpt lat="-43.66006" lon="172.6776099">
        <ele>21.4</ele>
        <time>2021-01-31T08:38:01.000Z</time>
      </trkpt>
      <trkpt lat="-43.66022" lon="172.67749">
        <ele>20.9</ele>
        <time>2021-01-31T08:38:03.000Z</time>
      </trkpt>
      <trkpt lat="-43.66025" lon="172.67744">
        <ele>20.5</ele>
        <time>2021-01-31T08:38:04.000Z</time>
      </trkpt>
      <trkpt lat="-43.66034" lon="172.67731">
        <ele>19.4</ele>
        <time>2021-01-31T08:38:05.000Z</time>
      </trkpt>
      <trkpt lat="-43.6604699" lon="172.67711">
        <ele>17.8</ele>
        <time>2021-01-31T08:38:07.000Z</time>
      </trkpt>
      <trkpt lat="-43.66088" lon="172.67661">
        <ele>14.6</ele>
        <time>2021-01-31T08:38:13.000Z</time>
      </trkpt>
      <trkpt lat="-43.661" lon="172.67641">
        <ele>13</ele>
        <time>2021-01-31T08:38:15.000Z</time>
      </trkpt>
      <trkpt lat="-43.66115" lon="172.67627">
        <ele>12.2</ele>
        <time>2021-01-31T08:38:17.000Z</time>
      </trkpt>
      <trkpt lat="-43.6613" lon="172.67614">
        <ele>11.3</ele>
        <time>2021-01-31T08:38:19.000Z</time>
      </trkpt>
      <trkpt lat="-43.66144" lon="172.6759999">
        <ele>10.2</ele>
        <time>2021-01-31T08:38:21.000Z</time>
      </trkpt>
      <trkpt lat="-43.66161" lon="172.6759">
        <ele>9.7</ele>
        <time>2021-01-31T08:38:23.000Z</time>
      </trkpt>
      <trkpt lat="-43.66178" lon="172.6758199">
        <ele>8.6</ele>
        <time>2021-01-31T08:38:25.000Z</time>
      </trkpt>
      <trkpt lat="-43.6619699" lon="172.67575">
        <ele>7.6</ele>
        <time>2021-01-31T08:38:27.000Z</time>
      </trkpt>
      <trkpt lat="-43.66381" lon="172.67514">
        <ele>6.6</ele>
        <time>2021-01-31T08:38:48.000Z</time>
      </trkpt>
      <trkpt lat="-43.66469" lon="172.67484">
        <ele>5</ele>
        <time>2021-01-31T08:38:58.000Z</time>
      </trkpt>
      <trkpt lat="-43.6648" lon="172.6748">
        <ele>4.9</ele>
        <time>2021-01-31T08:38:59.000Z</time>
      </trkpt>
      <trkpt lat="-43.66499" lon="172.67472">
        <ele>4.7</ele>
        <time>2021-01-31T08:39:01.000Z</time>
      </trkpt>
      <trkpt lat="-43.66517" lon="172.67462">
        <ele>4.5</ele>
        <time>2021-01-31T08:39:03.000Z</time>
      </trkpt>
      <trkpt lat="-43.66533" lon="172.6745">
        <ele>4.5</ele>
        <time>2021-01-31T08:39:05.000Z</time>
      </trkpt>
      <trkpt lat="-43.66549" lon="172.67435">
        <ele>4.5</ele>
        <time>2021-01-31T08:39:07.000Z</time>
      </trkpt>
      <trkpt lat="-43.66563" lon="172.67419">
        <ele>4.7</ele>
        <time>2021-01-31T08:39:09.000Z</time>
      </trkpt>
      <trkpt lat="-43.66575" lon="172.674">
        <ele>4.9</ele>
        <time>2021-01-31T08:39:11.000Z</time>
      </trkpt>
      <trkpt lat="-43.66586" lon="172.67379">
        <ele>4.9</ele>
        <time>2021-01-31T08:39:13.000Z</time>
      </trkpt>
      <trkpt lat="-43.66595" lon="172.67355">
        <ele>4.7</ele>
        <time>2021-01-31T08:39:15.000Z</time>
      </trkpt>
      <trkpt lat="-43.66603" lon="172.6733">
        <ele>4.5</ele>
        <time>2021-01-31T08:39:17.000Z</time>
      </trkpt>
      <trkpt lat="-43.66608" lon="172.67302">
        <ele>3.9</ele>
        <time>2021-01-31T08:39:19.000Z</time>
      </trkpt>
      <trkpt lat="-43.66613" lon="172.67274">
        <ele>3.4</ele>
        <time>2021-01-31T08:39:21.000Z</time>
      </trkpt>
      <trkpt lat="-43.66614" lon="172.67264">
        <ele>3.2</ele>
        <time>2021-01-31T08:39:22.000Z</time>
      </trkpt>
      <trkpt lat="-43.66626" lon="172.67186">
        <ele>3</ele>
        <time>2021-01-31T08:39:28.000Z</time>
      </trkpt>
      <trkpt lat="-43.66635" lon="172.67127">
        <ele>4.4</ele>
        <time>2021-01-31T08:39:33.000Z</time>
      </trkpt>
      <trkpt lat="-43.6664" lon="172.6709799">
        <ele>5.6</ele>
        <time>2021-01-31T08:39:35.000Z</time>
      </trkpt>
      <trkpt lat="-43.6664699" lon="172.6704">
        <ele>9.5</ele>
        <time>2021-01-31T08:39:40.000Z</time>
      </trkpt>
      <trkpt lat="-43.66653" lon="172.67012">
        <ele>12.2</ele>
        <time>2021-01-31T08:39:42.000Z</time>
      </trkpt>
      <trkpt lat="-43.6666" lon="172.66985">
        <ele>12.4</ele>
        <time>2021-01-31T08:39:44.000Z</time>
      </trkpt>
      <trkpt lat="-43.6667" lon="172.66959">
        <ele>10.7</ele>
        <time>2021-01-31T08:39:46.000Z</time>
      </trkpt>
      <trkpt lat="-43.66682" lon="172.6693699">
        <ele>10.3</ele>
        <time>2021-01-31T08:39:48.000Z</time>
      </trkpt>
      <trkpt lat="-43.66695" lon="172.66915">
        <ele>10</ele>
        <time>2021-01-31T08:39:50.000Z</time>
      </trkpt>
      <trkpt lat="-43.6671" lon="172.66897">
        <ele>10.7</ele>
        <time>2021-01-31T08:39:52.000Z</time>
      </trkpt>
      <trkpt lat="-43.66742" lon="172.66863">
        <ele>9.7</ele>
        <time>2021-01-31T08:39:56.000Z</time>
      </trkpt>
      <trkpt lat="-43.66758" lon="172.66848">
        <ele>8.9</ele>
        <time>2021-01-31T08:39:58.000Z</time>
      </trkpt>
      <trkpt lat="-43.66774" lon="172.66832">
        <ele>8.7</ele>
        <time>2021-01-31T08:40:00.000Z</time>
      </trkpt>
      <trkpt lat="-43.66789" lon="172.66814">
        <ele>9.5</ele>
        <time>2021-01-31T08:40:02.000Z</time>
      </trkpt>
      <trkpt lat="-43.66802" lon="172.6679399">
        <ele>9.3</ele>
        <time>2021-01-31T08:40:04.000Z</time>
      </trkpt>
      <trkpt lat="-43.66814" lon="172.66773">
        <ele>8.4</ele>
        <time>2021-01-31T08:40:06.000Z</time>
      </trkpt>
      <trkpt lat="-43.66824" lon="172.66751">
        <ele>6.6</ele>
        <time>2021-01-31T08:40:08.000Z</time>
      </trkpt>
      <trkpt lat="-43.6684399" lon="172.66706">
        <ele>8.1</ele>
        <time>2021-01-31T08:40:12.000Z</time>
      </trkpt>
      <trkpt lat="-43.66854" lon="172.66685">
        <ele>9</ele>
        <time>2021-01-31T08:40:14.000Z</time>
      </trkpt>
      <trkpt lat="-43.66866" lon="172.66664">
        <ele>9.5</ele>
        <time>2021-01-31T08:40:16.000Z</time>
      </trkpt>
      <trkpt lat="-43.66878" lon="172.66646">
        <ele>9.7</ele>
        <time>2021-01-31T08:40:18.000Z</time>
      </trkpt>
      <trkpt lat="-43.66916" lon="172.66592">
        <ele>7.1</ele>
        <time>2021-01-31T08:40:24.000Z</time>
      </trkpt>
      <trkpt lat="-43.66927" lon="172.66575">
        <ele>7.2</ele>
        <time>2021-01-31T08:40:26.000Z</time>
      </trkpt>
      <trkpt lat="-43.6694" lon="172.66559">
        <ele>8.1</ele>
        <time>2021-01-31T08:40:28.000Z</time>
      </trkpt>
      <trkpt lat="-43.66948" lon="172.66538">
        <ele>7.5</ele>
        <time>2021-01-31T08:40:30.000Z</time>
      </trkpt>
      <trkpt lat="-43.66953" lon="172.66517">
        <ele>6.3</ele>
        <time>2021-01-31T08:40:32.000Z</time>
      </trkpt>
      <trkpt lat="-43.66956" lon="172.66496">
        <ele>4.9</ele>
        <time>2021-01-31T08:40:34.000Z</time>
      </trkpt>
      <trkpt lat="-43.66955" lon="172.66475">
        <ele>4.3</ele>
        <time>2021-01-31T08:40:36.000Z</time>
      </trkpt>
      <trkpt lat="-43.66953" lon="172.66455">
        <ele>3.7</ele>
        <time>2021-01-31T08:40:38.000Z</time>
      </trkpt>
      <trkpt lat="-43.66948" lon="172.6643599">
        <ele>3.2</ele>
        <time>2021-01-31T08:40:40.000Z</time>
      </trkpt>
      <trkpt lat="-43.66943" lon="172.66416">
        <ele>2.7</ele>
        <time>2021-01-31T08:40:42.000Z</time>
      </trkpt>
      <trkpt lat="-43.66916" lon="172.66335">
        <ele>3</ele>
        <time>2021-01-31T08:40:49.000Z</time>
      </trkpt>
      <trkpt lat="-43.66877" lon="172.6622099">
        <ele>3.1</ele>
        <time>2021-01-31T08:40:59.000Z</time>
      </trkpt>
      <trkpt lat="-43.66871" lon="172.66205">
        <ele>3.3</ele>
        <time>2021-01-31T08:41:00.000Z</time>
      </trkpt>
      <trkpt lat="-43.66865" lon="172.6619">
        <ele>3.5</ele>
        <time>2021-01-31T08:41:01.000Z</time>
      </trkpt>
      <trkpt lat="-43.66859" lon="172.6617599">
        <ele>3.7</ele>
        <time>2021-01-31T08:41:02.000Z</time>
      </trkpt>
      <trkpt lat="-43.6685299" lon="172.66163">
        <ele>3.8</ele>
        <time>2021-01-31T08:41:03.000Z</time>
      </trkpt>
      <trkpt lat="-43.66847" lon="172.66151">
        <ele>3.9</ele>
        <time>2021-01-31T08:41:04.000Z</time>
      </trkpt>
      <trkpt lat="-43.66841" lon="172.66141">
        <ele>3.9</ele>
        <time>2021-01-31T08:41:05.000Z</time>
      </trkpt>
      <trkpt lat="-43.66836" lon="172.66133">
        <ele>4</ele>
        <time>2021-01-31T08:41:06.000Z</time>
      </trkpt>
      <trkpt lat="-43.66831" lon="172.66126">
        <ele>4</ele>
        <time>2021-01-31T08:41:07.000Z</time>
      </trkpt>
      <trkpt lat="-43.66824" lon="172.66116">
        <ele>3.9</ele>
        <time>2021-01-31T08:41:08.000Z</time>
      </trkpt>
      <trkpt lat="-43.66824" lon="172.66116">
        <ele>3.9</ele>
        <time>2021-01-31T08:41:08.000Z</time>
      </trkpt>
      <trkpt lat="-43.6682" lon="172.66111">
        <ele>3.8</ele>
        <time>2021-01-31T08:41:09.000Z</time>
      </trkpt>
      <trkpt lat="-43.66815" lon="172.66106">
        <ele>3.8</ele>
        <time>2021-01-31T08:41:10.000Z</time>
      </trkpt>
      <trkpt lat="-43.66803" lon="172.66094">
        <ele>3.6</ele>
        <time>2021-01-31T08:41:12.000Z</time>
      </trkpt>
      <trkpt lat="-43.66794" lon="172.66087">
        <ele>3.5</ele>
        <time>2021-01-31T08:41:13.000Z</time>
      </trkpt>
      <trkpt lat="-43.66785" lon="172.66079">
        <ele>3.5</ele>
        <time>2021-01-31T08:41:14.000Z</time>
      </trkpt>
      <trkpt lat="-43.66775" lon="172.66072">
        <ele>3.4</ele>
        <time>2021-01-31T08:41:15.000Z</time>
      </trkpt>
      <trkpt lat="-43.66764" lon="172.66065">
        <ele>3.4</ele>
        <time>2021-01-31T08:41:16.000Z</time>
      </trkpt>
      <trkpt lat="-43.66681" lon="172.66012">
        <ele>4.6</ele>
        <time>2021-01-31T08:41:26.000Z</time>
      </trkpt>
      <trkpt lat="-43.66659" lon="172.65999">
        <ele>5.2</ele>
        <time>2021-01-31T08:41:29.000Z</time>
      </trkpt>
      <trkpt lat="-43.66578" lon="172.6595">
        <ele>9.9</ele>
        <time>2021-01-31T08:41:39.000Z</time>
      </trkpt>
      <trkpt lat="-43.66482" lon="172.65886">
        <ele>2</ele>
        <time>2021-01-31T08:41:51.000Z</time>
      </trkpt>
      <trkpt lat="-43.66351" lon="172.65798">
        <ele>3</ele>
        <time>2021-01-31T08:42:07.000Z</time>
      </trkpt>
      <trkpt lat="-43.66273" lon="172.65748">
        <ele>2.3</ele>
        <time>2021-01-31T08:42:17.000Z</time>
      </trkpt>
      <trkpt lat="-43.66211" lon="172.65706">
        <ele>2.5</ele>
        <time>2021-01-31T08:42:25.000Z</time>
      </trkpt>
      <trkpt lat="-43.6618799" lon="172.6569">
        <ele>2.7</ele>
        <time>2021-01-31T08:42:28.000Z</time>
      </trkpt>
      <trkpt lat="-43.66158" lon="172.65671">
        <ele>3.1</ele>
        <time>2021-01-31T08:42:32.000Z</time>
      </trkpt>
      <trkpt lat="-43.66119" lon="172.65646">
        <ele>3.9</ele>
        <time>2021-01-31T08:42:37.000Z</time>
      </trkpt>
      <trkpt lat="-43.6609" lon="172.65628">
        <ele>4.8</ele>
        <time>2021-01-31T08:42:41.000Z</time>
      </trkpt>
      <trkpt lat="-43.6607" lon="172.65614">
        <ele>5.1</ele>
        <time>2021-01-31T08:42:43.000Z</time>
      </trkpt>
      <trkpt lat="-43.66067" lon="172.6561199">
        <ele>5.1</ele>
        <time>2021-01-31T08:42:43.000Z</time>
      </trkpt>
      <trkpt lat="-43.66049" lon="172.65605">
        <ele>4.9</ele>
        <time>2021-01-31T08:42:45.000Z</time>
      </trkpt>
      <trkpt lat="-43.66029" lon="172.656">
        <ele>4.6</ele>
        <time>2021-01-31T08:42:47.000Z</time>
      </trkpt>
      <trkpt lat="-43.65929" lon="172.6559399">
        <ele>3.1</ele>
        <time>2021-01-31T08:42:58.000Z</time>
      </trkpt>
      <trkpt lat="-43.65825" lon="172.65588">
        <ele>2</ele>
        <time>2021-01-31T08:43:10.000Z</time>
      </trkpt>
      <trkpt lat="-43.65677" lon="172.65581">
        <ele>3.1</ele>
        <time>2021-01-31T08:43:26.000Z</time>
      </trkpt>
      <trkpt lat="-43.65656" lon="172.6558">
        <ele>3.2</ele>
        <time>2021-01-31T08:43:28.000Z</time>
      </trkpt>
      <trkpt lat="-43.65593" lon="172.65578">
        <ele>2.4</ele>
        <time>2021-01-31T08:43:35.000Z</time>
      </trkpt>
      <trkpt lat="-43.65487" lon="172.6557599">
        <ele>2.9</ele>
        <time>2021-01-31T08:43:47.000Z</time>
      </trkpt>
      <trkpt lat="-43.6536" lon="172.65575">
        <ele>2</ele>
        <time>2021-01-31T08:44:01.000Z</time>
      </trkpt>
      <trkpt lat="-43.65275" lon="172.65574">
        <ele>2.1</ele>
        <time>2021-01-31T08:44:10.000Z</time>
      </trkpt>
      <trkpt lat="-43.65172" lon="172.65573">
        <ele>2</ele>
        <time>2021-01-31T08:44:21.000Z</time>
      </trkpt>
      <trkpt lat="-43.65152" lon="172.65574">
        <ele>2.3</ele>
        <time>2021-01-31T08:44:23.000Z</time>
      </trkpt>
      <trkpt lat="-43.65134" lon="172.65579">
        <ele>2.8</ele>
        <time>2021-01-31T08:44:25.000Z</time>
      </trkpt>
      <trkpt lat="-43.65116" lon="172.65589">
        <ele>3.3</ele>
        <time>2021-01-31T08:44:27.000Z</time>
      </trkpt>
      <trkpt lat="-43.651" lon="172.6560299">
        <ele>4</ele>
        <time>2021-01-31T08:44:29.000Z</time>
      </trkpt>
      <trkpt lat="-43.65086" lon="172.6562">
        <ele>4.8</ele>
        <time>2021-01-31T08:44:31.000Z</time>
      </trkpt>
      <trkpt lat="-43.65072" lon="172.6563899">
        <ele>7.4</ele>
        <time>2021-01-31T08:44:33.000Z</time>
      </trkpt>
      <trkpt lat="-43.65059" lon="172.65659">
        <ele>10.4</ele>
        <time>2021-01-31T08:44:35.000Z</time>
      </trkpt>
      <trkpt lat="-43.65046" lon="172.65679">
        <ele>13</ele>
        <time>2021-01-31T08:44:37.000Z</time>
      </trkpt>
      <trkpt lat="-43.65034" lon="172.657">
        <ele>15</ele>
        <time>2021-01-31T08:44:39.000Z</time>
      </trkpt>
      <trkpt lat="-43.64999" lon="172.65759">
        <ele>19.2</ele>
        <time>2021-01-31T08:44:45.000Z</time>
      </trkpt>
      <trkpt lat="-43.64987" lon="172.65777">
        <ele>20.4</ele>
        <time>2021-01-31T08:44:47.000Z</time>
      </trkpt>
      <trkpt lat="-43.64976" lon="172.65794">
        <ele>20.8</ele>
        <time>2021-01-31T08:44:49.000Z</time>
      </trkpt>
      <trkpt lat="-43.64964" lon="172.65808">
        <ele>21.4</ele>
        <time>2021-01-31T08:44:51.000Z</time>
      </trkpt>
      <trkpt lat="-43.64952" lon="172.6581799">
        <ele>22.2</ele>
        <time>2021-01-31T08:44:53.000Z</time>
      </trkpt>
      <trkpt lat="-43.64938" lon="172.65826">
        <ele>23.5</ele>
        <time>2021-01-31T08:44:55.000Z</time>
      </trkpt>
      <trkpt lat="-43.64924" lon="172.65831">
        <ele>25.2</ele>
        <time>2021-01-31T08:44:57.000Z</time>
      </trkpt>
      <trkpt lat="-43.6491" lon="172.65833">
        <ele>26.6</ele>
        <time>2021-01-31T08:44:59.000Z</time>
      </trkpt>
      <trkpt lat="-43.6488299" lon="172.6582699">
        <ele>30.1</ele>
        <time>2021-01-31T08:45:02.000Z</time>
      </trkpt>
      <trkpt lat="-43.64869" lon="172.65824">
        <ele>32</ele>
        <time>2021-01-31T08:45:04.000Z</time>
      </trkpt>
      <trkpt lat="-43.64855" lon="172.65821">
        <ele>33.9</ele>
        <time>2021-01-31T08:45:06.000Z</time>
      </trkpt>
      <trkpt lat="-43.6484" lon="172.65822">
        <ele>34.7</ele>
        <time>2021-01-31T08:45:08.000Z</time>
      </trkpt>
      <trkpt lat="-43.6482699" lon="172.65826">
        <ele>35</ele>
        <time>2021-01-31T08:45:09.000Z</time>
      </trkpt>
      <trkpt lat="-43.64814" lon="172.65834">
        <ele>34.7</ele>
        <time>2021-01-31T08:45:11.000Z</time>
      </trkpt>
      <trkpt lat="-43.64804" lon="172.6584499">
        <ele>34.3</ele>
        <time>2021-01-31T08:45:12.000Z</time>
      </trkpt>
      <trkpt lat="-43.64794" lon="172.65859">
        <ele>33.5</ele>
        <time>2021-01-31T08:45:14.000Z</time>
      </trkpt>
      <trkpt lat="-43.64786" lon="172.65873">
        <ele>32.5</ele>
        <time>2021-01-31T08:45:15.000Z</time>
      </trkpt>
      <trkpt lat="-43.64778" lon="172.65885">
        <ele>31.9</ele>
        <time>2021-01-31T08:45:16.000Z</time>
      </trkpt>
      <trkpt lat="-43.64769" lon="172.65895">
        <ele>31.9</ele>
        <time>2021-01-31T08:45:17.000Z</time>
      </trkpt>
      <trkpt lat="-43.6476" lon="172.65902">
        <ele>32.4</ele>
        <time>2021-01-31T08:45:18.000Z</time>
      </trkpt>
      <trkpt lat="-43.64748" lon="172.65903">
        <ele>33.5</ele>
        <time>2021-01-31T08:45:19.000Z</time>
      </trkpt>
      <trkpt lat="-43.64738" lon="172.659">
        <ele>31.3</ele>
        <time>2021-01-31T08:45:20.000Z</time>
      </trkpt>
      <trkpt lat="-43.64728" lon="172.65894">
        <ele>29.7</ele>
        <time>2021-01-31T08:45:21.000Z</time>
      </trkpt>
      <trkpt lat="-43.64719" lon="172.65884">
        <ele>29.1</ele>
        <time>2021-01-31T08:45:22.000Z</time>
      </trkpt>
      <trkpt lat="-43.64712" lon="172.65872">
        <ele>29.4</ele>
        <time>2021-01-31T08:45:23.000Z</time>
      </trkpt>
      <trkpt lat="-43.6470399" lon="172.65858">
        <ele>29.9</ele>
        <time>2021-01-31T08:45:24.000Z</time>
      </trkpt>
      <trkpt lat="-43.64698" lon="172.65842">
        <ele>31.3</ele>
        <time>2021-01-31T08:45:25.000Z</time>
      </trkpt>
      <trkpt lat="-43.64691" lon="172.65826">
        <ele>32.8</ele>
        <time>2021-01-31T08:45:27.000Z</time>
      </trkpt>
      <trkpt lat="-43.64685" lon="172.65808">
        <ele>35.4</ele>
        <time>2021-01-31T08:45:29.000Z</time>
      </trkpt>
      <trkpt lat="-43.64679" lon="172.65789">
        <ele>38.2</ele>
        <time>2021-01-31T08:45:31.000Z</time>
      </trkpt>
      <trkpt lat="-43.64673" lon="172.65771">
        <ele>40.8</ele>
        <time>2021-01-31T08:45:33.000Z</time>
      </trkpt>
      <trkpt lat="-43.64666" lon="172.65752">
        <ele>43.3</ele>
        <time>2021-01-31T08:45:35.000Z</time>
      </trkpt>
      <trkpt lat="-43.6465" lon="172.65715">
        <ele>44.7</ele>
        <time>2021-01-31T08:45:38.000Z</time>
      </trkpt>
      <trkpt lat="-43.64642" lon="172.65695">
        <ele>45.5</ele>
        <time>2021-01-31T08:45:40.000Z</time>
      </trkpt>
      <trkpt lat="-43.64635" lon="172.65675">
        <ele>46.8</ele>
        <time>2021-01-31T08:45:42.000Z</time>
      </trkpt>
      <trkpt lat="-43.64623" lon="172.65633">
        <ele>47.4</ele>
        <time>2021-01-31T08:45:46.000Z</time>
      </trkpt>
      <trkpt lat="-43.64617" lon="172.65613">
        <ele>47.6</ele>
        <time>2021-01-31T08:45:48.000Z</time>
      </trkpt>
      <trkpt lat="-43.64611" lon="172.65592">
        <ele>48.2</ele>
        <time>2021-01-31T08:45:50.000Z</time>
      </trkpt>
      <trkpt lat="-43.64604" lon="172.65573">
        <ele>48.3</ele>
        <time>2021-01-31T08:45:52.000Z</time>
      </trkpt>
      <trkpt lat="-43.64597" lon="172.65554">
        <ele>48.7</ele>
        <time>2021-01-31T08:45:54.000Z</time>
      </trkpt>
      <trkpt lat="-43.64589" lon="172.65537">
        <ele>49.3</ele>
        <time>2021-01-31T08:45:56.000Z</time>
      </trkpt>
      <trkpt lat="-43.6458" lon="172.65521">
        <ele>50.5</ele>
        <time>2021-01-31T08:45:58.000Z</time>
      </trkpt>
      <trkpt lat="-43.64569" lon="172.65507">
        <ele>52</ele>
        <time>2021-01-31T08:46:00.000Z</time>
      </trkpt>
      <trkpt lat="-43.64556" lon="172.65497">
        <ele>52.9</ele>
        <time>2021-01-31T08:46:02.000Z</time>
      </trkpt>
      <trkpt lat="-43.64542" lon="172.6549">
        <ele>53.4</ele>
        <time>2021-01-31T08:46:04.000Z</time>
      </trkpt>
      <trkpt lat="-43.6452699" lon="172.65489">
        <ele>52.7</ele>
        <time>2021-01-31T08:46:06.000Z</time>
      </trkpt>
      <trkpt lat="-43.64511" lon="172.65492">
        <ele>51.2</ele>
        <time>2021-01-31T08:46:08.000Z</time>
      </trkpt>
      <trkpt lat="-43.64497" lon="172.65498">
        <ele>49.9</ele>
        <time>2021-01-31T08:46:10.000Z</time>
      </trkpt>
      <trkpt lat="-43.6445099" lon="172.65521">
        <ele>53.8</ele>
        <time>2021-01-31T08:46:15.000Z</time>
      </trkpt>
      <trkpt lat="-43.64376" lon="172.65559">
        <ele>57.9</ele>
        <time>2021-01-31T08:46:24.000Z</time>
      </trkpt>
      <trkpt lat="-43.64361" lon="172.6556699">
        <ele>59.1</ele>
        <time>2021-01-31T08:46:26.000Z</time>
      </trkpt>
      <trkpt lat="-43.6434799" lon="172.65575">
        <ele>60.3</ele>
        <time>2021-01-31T08:46:28.000Z</time>
      </trkpt>
      <trkpt lat="-43.64324" lon="172.65592">
        <ele>61.5</ele>
        <time>2021-01-31T08:46:31.000Z</time>
      </trkpt>
      <trkpt lat="-43.64316" lon="172.65601">
        <ele>61.1</ele>
        <time>2021-01-31T08:46:32.000Z</time>
      </trkpt>
      <trkpt lat="-43.64299" lon="172.6562099">
        <ele>60.9</ele>
        <time>2021-01-31T08:46:34.000Z</time>
      </trkpt>
      <trkpt lat="-43.64289" lon="172.6562999">
        <ele>61.7</ele>
        <time>2021-01-31T08:46:35.000Z</time>
      </trkpt>
      <trkpt lat="-43.64276" lon="172.65641">
        <ele>63.3</ele>
        <time>2021-01-31T08:46:37.000Z</time>
      </trkpt>
      <trkpt lat="-43.64262" lon="172.65647">
        <ele>66</ele>
        <time>2021-01-31T08:46:39.000Z</time>
      </trkpt>
      <trkpt lat="-43.64251" lon="172.65649">
        <ele>68.4</ele>
        <time>2021-01-31T08:46:40.000Z</time>
      </trkpt>
      <trkpt lat="-43.64242" lon="172.6565">
        <ele>67.9</ele>
        <time>2021-01-31T08:46:41.000Z</time>
      </trkpt>
      <trkpt lat="-43.64226" lon="172.65633">
        <ele>66</ele>
        <time>2021-01-31T08:46:43.000Z</time>
      </trkpt>
      <trkpt lat="-43.64219" lon="172.65624">
        <ele>64.6</ele>
        <time>2021-01-31T08:46:44.000Z</time>
      </trkpt>
      <trkpt lat="-43.64215" lon="172.65613">
        <ele>63.4</ele>
        <time>2021-01-31T08:46:45.000Z</time>
      </trkpt>
      <trkpt lat="-43.64211" lon="172.65601">
        <ele>61.9</ele>
        <time>2021-01-31T08:46:46.000Z</time>
      </trkpt>
      <trkpt lat="-43.64209" lon="172.65588">
        <ele>60.5</ele>
        <time>2021-01-31T08:46:47.000Z</time>
      </trkpt>
      <trkpt lat="-43.64209" lon="172.65573">
        <ele>58.7</ele>
        <time>2021-01-31T08:46:48.000Z</time>
      </trkpt>
      <trkpt lat="-43.64211" lon="172.65559">
        <ele>57.3</ele>
        <time>2021-01-31T08:46:49.000Z</time>
      </trkpt>
      <trkpt lat="-43.64214" lon="172.65545">
        <ele>56.2</ele>
        <time>2021-01-31T08:46:50.000Z</time>
      </trkpt>
      <trkpt lat="-43.64219" lon="172.6553099">
        <ele>55.5</ele>
        <time>2021-01-31T08:46:51.000Z</time>
      </trkpt>
      <trkpt lat="-43.64225" lon="172.65517">
        <ele>55.1</ele>
        <time>2021-01-31T08:46:52.000Z</time>
      </trkpt>
      <trkpt lat="-43.64243" lon="172.65499">
        <ele>57</ele>
        <time>2021-01-31T08:46:54.000Z</time>
      </trkpt>
      <trkpt lat="-43.64262" lon="172.65481">
        <ele>55.8</ele>
        <time>2021-01-31T08:46:57.000Z</time>
      </trkpt>
      <trkpt lat="-43.64273" lon="172.65473">
        <ele>55.8</ele>
        <time>2021-01-31T08:46:58.000Z</time>
      </trkpt>
      <trkpt lat="-43.64295" lon="172.65456">
        <ele>56.2</ele>
        <time>2021-01-31T08:47:01.000Z</time>
      </trkpt>
      <trkpt lat="-43.64305" lon="172.65445">
        <ele>56.1</ele>
        <time>2021-01-31T08:47:02.000Z</time>
      </trkpt>
      <trkpt lat="-43.64315" lon="172.6543299">
        <ele>56.1</ele>
        <time>2021-01-31T08:47:03.000Z</time>
      </trkpt>
      <trkpt lat="-43.64323" lon="172.65419">
        <ele>55.7</ele>
        <time>2021-01-31T08:47:04.000Z</time>
      </trkpt>
      <trkpt lat="-43.64331" lon="172.65404">
        <ele>55.2</ele>
        <time>2021-01-31T08:47:06.000Z</time>
      </trkpt>
      <trkpt lat="-43.64343" lon="172.65372">
        <ele>52.1</ele>
        <time>2021-01-31T08:47:09.000Z</time>
      </trkpt>
      <trkpt lat="-43.64346" lon="172.65353">
        <ele>49.5</ele>
        <time>2021-01-31T08:47:11.000Z</time>
      </trkpt>
      <trkpt lat="-43.6435" lon="172.65336">
        <ele>47.4</ele>
        <time>2021-01-31T08:47:12.000Z</time>
      </trkpt>
      <trkpt lat="-43.64355" lon="172.6532">
        <ele>46.1</ele>
        <time>2021-01-31T08:47:13.000Z</time>
      </trkpt>
      <trkpt lat="-43.64361" lon="172.65305">
        <ele>44.9</ele>
        <time>2021-01-31T08:47:14.000Z</time>
      </trkpt>
      <trkpt lat="-43.64369" lon="172.65291">
        <ele>44</ele>
        <time>2021-01-31T08:47:15.000Z</time>
      </trkpt>
      <trkpt lat="-43.64377" lon="172.65279">
        <ele>43.3</ele>
        <time>2021-01-31T08:47:16.000Z</time>
      </trkpt>
      <trkpt lat="-43.64387" lon="172.65268">
        <ele>42.8</ele>
        <time>2021-01-31T08:47:17.000Z</time>
      </trkpt>
      <trkpt lat="-43.64407" lon="172.65246">
        <ele>41.3</ele>
        <time>2021-01-31T08:47:20.000Z</time>
      </trkpt>
      <trkpt lat="-43.64427" lon="172.65224">
        <ele>39.7</ele>
        <time>2021-01-31T08:47:23.000Z</time>
      </trkpt>
      <trkpt lat="-43.64436" lon="172.65207">
        <ele>38</ele>
        <time>2021-01-31T08:47:25.000Z</time>
      </trkpt>
      <trkpt lat="-43.64448" lon="172.65194">
        <ele>37.5</ele>
        <time>2021-01-31T08:47:27.000Z</time>
      </trkpt>
      <trkpt lat="-43.64456" lon="172.65178">
        <ele>36.2</ele>
        <time>2021-01-31T08:47:29.000Z</time>
      </trkpt>
      <trkpt lat="-43.64462" lon="172.65161">
        <ele>35.1</ele>
        <time>2021-01-31T08:47:31.000Z</time>
      </trkpt>
      <trkpt lat="-43.64466" lon="172.65143">
        <ele>34.5</ele>
        <time>2021-01-31T08:47:33.000Z</time>
      </trkpt>
      <trkpt lat="-43.64467" lon="172.65124">
        <ele>33.4</ele>
        <time>2021-01-31T08:47:35.000Z</time>
      </trkpt>
      <trkpt lat="-43.64466" lon="172.65103">
        <ele>31.8</ele>
        <time>2021-01-31T08:47:37.000Z</time>
      </trkpt>
      <trkpt lat="-43.64464" lon="172.65083">
        <ele>30.1</ele>
        <time>2021-01-31T08:47:39.000Z</time>
      </trkpt>
      <trkpt lat="-43.6445999" lon="172.65064">
        <ele>28.9</ele>
        <time>2021-01-31T08:47:41.000Z</time>
      </trkpt>
      <trkpt lat="-43.64456" lon="172.65045">
        <ele>27.9</ele>
        <time>2021-01-31T08:47:43.000Z</time>
      </trkpt>
      <trkpt lat="-43.64449" lon="172.65026">
        <ele>26.6</ele>
        <time>2021-01-31T08:47:45.000Z</time>
      </trkpt>
      <trkpt lat="-43.6444199" lon="172.65008">
        <ele>25.4</ele>
        <time>2021-01-31T08:47:47.000Z</time>
      </trkpt>
      <trkpt lat="-43.64426" lon="172.64974">
        <ele>21.6</ele>
        <time>2021-01-31T08:47:50.000Z</time>
      </trkpt>
      <trkpt lat="-43.64418" lon="172.6495799">
        <ele>19.6</ele>
        <time>2021-01-31T08:47:52.000Z</time>
      </trkpt>
      <trkpt lat="-43.64411" lon="172.64944">
        <ele>18.2</ele>
        <time>2021-01-31T08:47:53.000Z</time>
      </trkpt>
      <trkpt lat="-43.6441" lon="172.64942">
        <ele>18</ele>
        <time>2021-01-31T08:47:53.000Z</time>
      </trkpt>
      <trkpt lat="-43.64409" lon="172.64941">
        <ele>17.9</ele>
        <time>2021-01-31T08:47:53.000Z</time>
      </trkpt>
      <trkpt lat="-43.64398" lon="172.64931">
        <ele>16.5</ele>
        <time>2021-01-31T08:47:54.000Z</time>
      </trkpt>
      <trkpt lat="-43.64385" lon="172.64922">
        <ele>15.3</ele>
        <time>2021-01-31T08:47:56.000Z</time>
      </trkpt>
      <trkpt lat="-43.64372" lon="172.64915">
        <ele>14.3</ele>
        <time>2021-01-31T08:47:58.000Z</time>
      </trkpt>
      <trkpt lat="-43.64345" lon="172.64904">
        <ele>12.6</ele>
        <time>2021-01-31T08:48:01.000Z</time>
      </trkpt>
      <trkpt lat="-43.6432" lon="172.64894">
        <ele>11.2</ele>
        <time>2021-01-31T08:48:04.000Z</time>
      </trkpt>
      <trkpt lat="-43.64307" lon="172.6489">
        <ele>10.4</ele>
        <time>2021-01-31T08:48:05.000Z</time>
      </trkpt>
      <trkpt lat="-43.64294" lon="172.64889">
        <ele>9.6</ele>
        <time>2021-01-31T08:48:06.000Z</time>
      </trkpt>
      <trkpt lat="-43.64281" lon="172.6489">
        <ele>8.9</ele>
        <time>2021-01-31T08:48:07.000Z</time>
      </trkpt>
      <trkpt lat="-43.64268" lon="172.64893">
        <ele>8.1</ele>
        <time>2021-01-31T08:48:08.000Z</time>
      </trkpt>
      <trkpt lat="-43.6424" lon="172.64906">
        <ele>7</ele>
        <time>2021-01-31T08:48:11.000Z</time>
      </trkpt>
      <trkpt lat="-43.64225" lon="172.64913">
        <ele>7</ele>
        <time>2021-01-31T08:48:13.000Z</time>
      </trkpt>
      <trkpt lat="-43.64211" lon="172.64919">
        <ele>7</ele>
        <time>2021-01-31T08:48:15.000Z</time>
      </trkpt>
      <trkpt lat="-43.64181" lon="172.64933">
        <ele>7</ele>
        <time>2021-01-31T08:48:19.000Z</time>
      </trkpt>
      <trkpt lat="-43.64167" lon="172.64939">
        <ele>7</ele>
        <time>2021-01-31T08:48:21.000Z</time>
      </trkpt>
      <trkpt lat="-43.64152" lon="172.64944">
        <ele>7.3</ele>
        <time>2021-01-31T08:48:23.000Z</time>
      </trkpt>
      <trkpt lat="-43.64138" lon="172.64948">
        <ele>7.6</ele>
        <time>2021-01-31T08:48:25.000Z</time>
      </trkpt>
      <trkpt lat="-43.64123" lon="172.6495">
        <ele>7.8</ele>
        <time>2021-01-31T08:48:27.000Z</time>
      </trkpt>
      <trkpt lat="-43.64108" lon="172.6494899">
        <ele>8.1</ele>
        <time>2021-01-31T08:48:29.000Z</time>
      </trkpt>
      <trkpt lat="-43.64094" lon="172.64947">
        <ele>8.4</ele>
        <time>2021-01-31T08:48:31.000Z</time>
      </trkpt>
      <trkpt lat="-43.6408" lon="172.64943">
        <ele>8.6</ele>
        <time>2021-01-31T08:48:33.000Z</time>
      </trkpt>
      <trkpt lat="-43.64067" lon="172.64939">
        <ele>8.4</ele>
        <time>2021-01-31T08:48:34.000Z</time>
      </trkpt>
      <trkpt lat="-43.64055" lon="172.64935">
        <ele>8.2</ele>
        <time>2021-01-31T08:48:35.000Z</time>
      </trkpt>
      <trkpt lat="-43.64044" lon="172.64928">
        <ele>8.2</ele>
        <time>2021-01-31T08:48:36.000Z</time>
      </trkpt>
      <trkpt lat="-43.64035" lon="172.64918">
        <ele>8.4</ele>
        <time>2021-01-31T08:48:37.000Z</time>
      </trkpt>
      <trkpt lat="-43.64028" lon="172.64906">
        <ele>8.9</ele>
        <time>2021-01-31T08:48:38.000Z</time>
      </trkpt>
      <trkpt lat="-43.64023" lon="172.64892">
        <ele>9.7</ele>
        <time>2021-01-31T08:48:39.000Z</time>
      </trkpt>
      <trkpt lat="-43.64022" lon="172.6487799">
        <ele>10.5</ele>
        <time>2021-01-31T08:48:40.000Z</time>
      </trkpt>
      <trkpt lat="-43.64022" lon="172.64873">
        <ele>10.7</ele>
        <time>2021-01-31T08:48:40.000Z</time>
      </trkpt>
      <trkpt lat="-43.64024" lon="172.64864">
        <ele>11.3</ele>
        <time>2021-01-31T08:48:41.000Z</time>
      </trkpt>
      <trkpt lat="-43.64028" lon="172.64852">
        <ele>12</ele>
        <time>2021-01-31T08:48:42.000Z</time>
      </trkpt>
      <trkpt lat="-43.64034" lon="172.64841">
        <ele>12.6</ele>
        <time>2021-01-31T08:48:43.000Z</time>
      </trkpt>
      <trkpt lat="-43.64049" lon="172.6482399">
        <ele>14</ele>
        <time>2021-01-31T08:48:45.000Z</time>
      </trkpt>
      <trkpt lat="-43.6405699" lon="172.64814">
        <ele>14.9</ele>
        <time>2021-01-31T08:48:46.000Z</time>
      </trkpt>
      <trkpt lat="-43.64063" lon="172.64802">
        <ele>15.9</ele>
        <time>2021-01-31T08:48:47.000Z</time>
      </trkpt>
      <trkpt lat="-43.64067" lon="172.6479">
        <ele>16.8</ele>
        <time>2021-01-31T08:48:48.000Z</time>
      </trkpt>
      <trkpt lat="-43.64069" lon="172.64776">
        <ele>18</ele>
        <time>2021-01-31T08:48:49.000Z</time>
      </trkpt>
      <trkpt lat="-43.64068" lon="172.6476099">
        <ele>19.3</ele>
        <time>2021-01-31T08:48:50.000Z</time>
      </trkpt>
      <trkpt lat="-43.64064" lon="172.64748">
        <ele>20.8</ele>
        <time>2021-01-31T08:48:51.000Z</time>
      </trkpt>
      <trkpt lat="-43.64058" lon="172.64736">
        <ele>22.6</ele>
        <time>2021-01-31T08:48:52.000Z</time>
      </trkpt>
      <trkpt lat="-43.6405" lon="172.64726">
        <ele>24.7</ele>
        <time>2021-01-31T08:48:53.000Z</time>
      </trkpt>
      <trkpt lat="-43.64041" lon="172.64717">
        <ele>26.9</ele>
        <time>2021-01-31T08:48:54.000Z</time>
      </trkpt>
      <trkpt lat="-43.64031" lon="172.6471">
        <ele>29.3</ele>
        <time>2021-01-31T08:48:55.000Z</time>
      </trkpt>
      <trkpt lat="-43.6402" lon="172.64704">
        <ele>31.8</ele>
        <time>2021-01-31T08:48:56.000Z</time>
      </trkpt>
      <trkpt lat="-43.64009" lon="172.64699">
        <ele>34.4</ele>
        <time>2021-01-31T08:48:57.000Z</time>
      </trkpt>
      <trkpt lat="-43.63997" lon="172.64694">
        <ele>36.8</ele>
        <time>2021-01-31T08:48:58.000Z</time>
      </trkpt>
      <trkpt lat="-43.63974" lon="172.64682">
        <ele>39.6</ele>
        <time>2021-01-31T08:49:01.000Z</time>
      </trkpt>
      <trkpt lat="-43.63926" lon="172.64658">
        <ele>46.3</ele>
        <time>2021-01-31T08:49:07.000Z</time>
      </trkpt>
      <trkpt lat="-43.63914" lon="172.64653">
        <ele>48.4</ele>
        <time>2021-01-31T08:49:08.000Z</time>
      </trkpt>
      <trkpt lat="-43.63902" lon="172.64651">
        <ele>50.4</ele>
        <time>2021-01-31T08:49:09.000Z</time>
      </trkpt>
      <trkpt lat="-43.6389" lon="172.64653">
        <ele>51.4</ele>
        <time>2021-01-31T08:49:10.000Z</time>
      </trkpt>
      <trkpt lat="-43.63884" lon="172.64656">
        <ele>51.4</ele>
        <time>2021-01-31T08:49:11.000Z</time>
      </trkpt>
      <trkpt lat="-43.63879" lon="172.64658">
        <ele>51.5</ele>
        <time>2021-01-31T08:49:12.000Z</time>
      </trkpt>
      <trkpt lat="-43.6386899" lon="172.64666">
        <ele>51</ele>
        <time>2021-01-31T08:49:13.000Z</time>
      </trkpt>
      <trkpt lat="-43.6385999" lon="172.64674">
        <ele>50.6</ele>
        <time>2021-01-31T08:49:14.000Z</time>
      </trkpt>
      <trkpt lat="-43.6385" lon="172.6468099">
        <ele>50.5</ele>
        <time>2021-01-31T08:49:15.000Z</time>
      </trkpt>
      <trkpt lat="-43.63839" lon="172.64687">
        <ele>50.8</ele>
        <time>2021-01-31T08:49:16.000Z</time>
      </trkpt>
      <trkpt lat="-43.63828" lon="172.64691">
        <ele>50.8</ele>
        <time>2021-01-31T08:49:17.000Z</time>
      </trkpt>
      <trkpt lat="-43.63815" lon="172.64693">
        <ele>50.6</ele>
        <time>2021-01-31T08:49:18.000Z</time>
      </trkpt>
      <trkpt lat="-43.63783" lon="172.64691">
        <ele>51.5</ele>
        <time>2021-01-31T08:49:22.000Z</time>
      </trkpt>
      <trkpt lat="-43.63752" lon="172.64695">
        <ele>50.8</ele>
        <time>2021-01-31T08:49:25.000Z</time>
      </trkpt>
      <trkpt lat="-43.63742" lon="172.64695">
        <ele>49.4</ele>
        <time>2021-01-31T08:49:26.000Z</time>
      </trkpt>
      <trkpt lat="-43.63732" lon="172.64693">
        <ele>48.2</ele>
        <time>2021-01-31T08:49:27.000Z</time>
      </trkpt>
      <trkpt lat="-43.63722" lon="172.6468999">
        <ele>47.2</ele>
        <time>2021-01-31T08:49:28.000Z</time>
      </trkpt>
      <trkpt lat="-43.63712" lon="172.64684">
        <ele>47.2</ele>
        <time>2021-01-31T08:49:29.000Z</time>
      </trkpt>
      <trkpt lat="-43.63702" lon="172.64677">
        <ele>47.4</ele>
        <time>2021-01-31T08:49:30.000Z</time>
      </trkpt>
      <trkpt lat="-43.6366" lon="172.64638">
        <ele>48.7</ele>
        <time>2021-01-31T08:49:36.000Z</time>
      </trkpt>
      <trkpt lat="-43.63637" lon="172.6461799">
        <ele>47.7</ele>
        <time>2021-01-31T08:49:39.000Z</time>
      </trkpt>
      <trkpt lat="-43.63623" lon="172.6461">
        <ele>46.1</ele>
        <time>2021-01-31T08:49:41.000Z</time>
      </trkpt>
      <trkpt lat="-43.63612" lon="172.6459999">
        <ele>45.5</ele>
        <time>2021-01-31T08:49:42.000Z</time>
      </trkpt>
      <trkpt lat="-43.63603" lon="172.64587">
        <ele>46</ele>
        <time>2021-01-31T08:49:43.000Z</time>
      </trkpt>
      <trkpt lat="-43.63543" lon="172.64534">
        <ele>40.4</ele>
        <time>2021-01-31T08:49:51.000Z</time>
      </trkpt>
      <trkpt lat="-43.63519" lon="172.64513">
        <ele>37.3</ele>
        <time>2021-01-31T08:49:54.000Z</time>
      </trkpt>
      <trkpt lat="-43.63507" lon="172.64503">
        <ele>35.5</ele>
        <time>2021-01-31T08:49:56.000Z</time>
      </trkpt>
      <trkpt lat="-43.63496" lon="172.64495">
        <ele>33.9</ele>
        <time>2021-01-31T08:49:57.000Z</time>
      </trkpt>
      <trkpt lat="-43.63485" lon="172.64488">
        <ele>33.3</ele>
        <time>2021-01-31T08:49:58.000Z</time>
      </trkpt>
      <trkpt lat="-43.63474" lon="172.64483">
        <ele>32.5</ele>
        <time>2021-01-31T08:49:59.000Z</time>
      </trkpt>
      <trkpt lat="-43.63465" lon="172.6448">
        <ele>31.9</ele>
        <time>2021-01-31T08:50:00.000Z</time>
      </trkpt>
      <trkpt lat="-43.63454" lon="172.64479">
        <ele>30.8</ele>
        <time>2021-01-31T08:50:01.000Z</time>
      </trkpt>
      <trkpt lat="-43.63443" lon="172.6448">
        <ele>29.6</ele>
        <time>2021-01-31T08:50:02.000Z</time>
      </trkpt>
      <trkpt lat="-43.63432" lon="172.64483">
        <ele>28.2</ele>
        <time>2021-01-31T08:50:03.000Z</time>
      </trkpt>
      <trkpt lat="-43.63421" lon="172.64488">
        <ele>26.6</ele>
        <time>2021-01-31T08:50:04.000Z</time>
      </trkpt>
      <trkpt lat="-43.634" lon="172.645">
        <ele>25.8</ele>
        <time>2021-01-31T08:50:07.000Z</time>
      </trkpt>
      <trkpt lat="-43.63366" lon="172.64522">
        <ele>26.1</ele>
        <time>2021-01-31T08:50:11.000Z</time>
      </trkpt>
      <trkpt lat="-43.63342" lon="172.64538">
        <ele>26.3</ele>
        <time>2021-01-31T08:50:14.000Z</time>
      </trkpt>
      <trkpt lat="-43.6333" lon="172.64546">
        <ele>26.4</ele>
        <time>2021-01-31T08:50:15.000Z</time>
      </trkpt>
      <trkpt lat="-43.63319" lon="172.64557">
        <ele>26.4</ele>
        <time>2021-01-31T08:50:17.000Z</time>
      </trkpt>
      <trkpt lat="-43.63297" lon="172.6457299">
        <ele>26.5</ele>
        <time>2021-01-31T08:50:20.000Z</time>
      </trkpt>
      <trkpt lat="-43.63267" lon="172.64598">
        <ele>26.5</ele>
        <time>2021-01-31T08:50:24.000Z</time>
      </trkpt>
      <trkpt lat="-43.63245" lon="172.64615">
        <ele>26.7</ele>
        <time>2021-01-31T08:50:27.000Z</time>
      </trkpt>
      <trkpt lat="-43.6323099" lon="172.64624">
        <ele>26.9</ele>
        <time>2021-01-31T08:50:29.000Z</time>
      </trkpt>
      <trkpt lat="-43.6322" lon="172.6463">
        <ele>27.3</ele>
        <time>2021-01-31T08:50:30.000Z</time>
      </trkpt>
      <trkpt lat="-43.63207" lon="172.64637">
        <ele>27.8</ele>
        <time>2021-01-31T08:50:32.000Z</time>
      </trkpt>
      <trkpt lat="-43.6319299" lon="172.64641">
        <ele>28.5</ele>
        <time>2021-01-31T08:50:34.000Z</time>
      </trkpt>
      <trkpt lat="-43.6318" lon="172.64644">
        <ele>29.2</ele>
        <time>2021-01-31T08:50:35.000Z</time>
      </trkpt>
      <trkpt lat="-43.63168" lon="172.6464499">
        <ele>29.9</ele>
        <time>2021-01-31T08:50:36.000Z</time>
      </trkpt>
      <trkpt lat="-43.63157" lon="172.64647">
        <ele>30.4</ele>
        <time>2021-01-31T08:50:37.000Z</time>
      </trkpt>
      <trkpt lat="-43.63147" lon="172.6465">
        <ele>30.9</ele>
        <time>2021-01-31T08:50:38.000Z</time>
      </trkpt>
      <trkpt lat="-43.6313699" lon="172.64653">
        <ele>31.4</ele>
        <time>2021-01-31T08:50:39.000Z</time>
      </trkpt>
      <trkpt lat="-43.6313" lon="172.64658">
        <ele>31.7</ele>
        <time>2021-01-31T08:50:40.000Z</time>
      </trkpt>
      <trkpt lat="-43.63124" lon="172.64664">
        <ele>32</ele>
        <time>2021-01-31T08:50:41.000Z</time>
      </trkpt>
      <trkpt lat="-43.6311899" lon="172.6467199">
        <ele>32.8</ele>
        <time>2021-01-31T08:50:42.000Z</time>
      </trkpt>
      <trkpt lat="-43.63117" lon="172.64682">
        <ele>33.9</ele>
        <time>2021-01-31T08:50:43.000Z</time>
      </trkpt>
      <trkpt lat="-43.63116" lon="172.64694">
        <ele>35.2</ele>
        <time>2021-01-31T08:50:44.000Z</time>
      </trkpt>
      <trkpt lat="-43.63116" lon="172.64694">
        <ele>35.2</ele>
        <time>2021-01-31T08:50:44.000Z</time>
      </trkpt>
      <trkpt lat="-43.63116" lon="172.64703">
        <ele>36.1</ele>
        <time>2021-01-31T08:50:45.000Z</time>
      </trkpt>
      <trkpt lat="-43.63117" lon="172.64712">
        <ele>36.9</ele>
        <time>2021-01-31T08:50:46.000Z</time>
      </trkpt>
      <trkpt lat="-43.63126" lon="172.64741">
        <ele>38.5</ele>
        <time>2021-01-31T08:50:49.000Z</time>
      </trkpt>
      <trkpt lat="-43.63131" lon="172.6476099">
        <ele>39.8</ele>
        <time>2021-01-31T08:50:51.000Z</time>
      </trkpt>
      <trkpt lat="-43.63134" lon="172.64781">
        <ele>41.6</ele>
        <time>2021-01-31T08:50:53.000Z</time>
      </trkpt>
      <trkpt lat="-43.63135" lon="172.6479">
        <ele>42.4</ele>
        <time>2021-01-31T08:50:54.000Z</time>
      </trkpt>
      <trkpt lat="-43.63135" lon="172.64809">
        <ele>44.6</ele>
        <time>2021-01-31T08:50:56.000Z</time>
      </trkpt>
      <trkpt lat="-43.63133" lon="172.64826">
        <ele>46.8</ele>
        <time>2021-01-31T08:50:57.000Z</time>
      </trkpt>
      <trkpt lat="-43.63131" lon="172.64835">
        <ele>48.2</ele>
        <time>2021-01-31T08:50:58.000Z</time>
      </trkpt>
      <trkpt lat="-43.63129" lon="172.64844">
        <ele>49.3</ele>
        <time>2021-01-31T08:50:59.000Z</time>
      </trkpt>
      <trkpt lat="-43.63126" lon="172.64852">
        <ele>50.5</ele>
        <time>2021-01-31T08:51:00.000Z</time>
      </trkpt>
      <trkpt lat="-43.6312" lon="172.6486899">
        <ele>52.9</ele>
        <time>2021-01-31T08:51:02.000Z</time>
      </trkpt>
      <trkpt lat="-43.63112" lon="172.64885">
        <ele>55.2</ele>
        <time>2021-01-31T08:51:04.000Z</time>
      </trkpt>
      <trkpt lat="-43.63108" lon="172.64892">
        <ele>56.1</ele>
        <time>2021-01-31T08:51:05.000Z</time>
      </trkpt>
      <trkpt lat="-43.63104" lon="172.64899">
        <ele>57</ele>
        <time>2021-01-31T08:51:06.000Z</time>
      </trkpt>
      <trkpt lat="-43.63099" lon="172.64905">
        <ele>57.9</ele>
        <time>2021-01-31T08:51:07.000Z</time>
      </trkpt>
      <trkpt lat="-43.63094" lon="172.6491">
        <ele>58.7</ele>
        <time>2021-01-31T08:51:08.000Z</time>
      </trkpt>
      <trkpt lat="-43.63088" lon="172.64915">
        <ele>59.5</ele>
        <time>2021-01-31T08:51:09.000Z</time>
      </trkpt>
      <trkpt lat="-43.63082" lon="172.6492">
        <ele>60.1</ele>
        <time>2021-01-31T08:51:10.000Z</time>
      </trkpt>
      <trkpt lat="-43.63075" lon="172.64924">
        <ele>60.7</ele>
        <time>2021-01-31T08:51:11.000Z</time>
      </trkpt>
      <trkpt lat="-43.63069" lon="172.64928">
        <ele>61.1</ele>
        <time>2021-01-31T08:51:12.000Z</time>
      </trkpt>
      <trkpt lat="-43.63062" lon="172.64931">
        <ele>61.6</ele>
        <time>2021-01-31T08:51:13.000Z</time>
      </trkpt>
      <trkpt lat="-43.63055" lon="172.64933">
        <ele>62</ele>
        <time>2021-01-31T08:51:14.000Z</time>
      </trkpt>
      <trkpt lat="-43.6304" lon="172.64937">
        <ele>62.8</ele>
        <time>2021-01-31T08:51:16.000Z</time>
      </trkpt>
      <trkpt lat="-43.63032" lon="172.64938">
        <ele>63.2</ele>
        <time>2021-01-31T08:51:17.000Z</time>
      </trkpt>
      <trkpt lat="-43.63024" lon="172.64938">
        <ele>63.8</ele>
        <time>2021-01-31T08:51:18.000Z</time>
      </trkpt>
      <trkpt lat="-43.6301599" lon="172.64938">
        <ele>64.3</ele>
        <time>2021-01-31T08:51:19.000Z</time>
      </trkpt>
      <trkpt lat="-43.63008" lon="172.64939">
        <ele>64.7</ele>
        <time>2021-01-31T08:51:20.000Z</time>
      </trkpt>
      <trkpt lat="-43.63" lon="172.64941">
        <ele>64.9</ele>
        <time>2021-01-31T08:51:21.000Z</time>
      </trkpt>
      <trkpt lat="-43.62993" lon="172.64944">
        <ele>65</ele>
        <time>2021-01-31T08:51:22.000Z</time>
      </trkpt>
      <trkpt lat="-43.62985" lon="172.6494899">
        <ele>64.8</ele>
        <time>2021-01-31T08:51:23.000Z</time>
      </trkpt>
      <trkpt lat="-43.62971" lon="172.64961">
        <ele>63.8</ele>
        <time>2021-01-31T08:51:25.000Z</time>
      </trkpt>
      <trkpt lat="-43.62963" lon="172.64965">
        <ele>63.6</ele>
        <time>2021-01-31T08:51:26.000Z</time>
      </trkpt>
      <trkpt lat="-43.62954" lon="172.6497">
        <ele>63.2</ele>
        <time>2021-01-31T08:51:27.000Z</time>
      </trkpt>
      <trkpt lat="-43.62946" lon="172.64973">
        <ele>63.2</ele>
        <time>2021-01-31T08:51:28.000Z</time>
      </trkpt>
      <trkpt lat="-43.6292" lon="172.64975">
        <ele>64.5</ele>
        <time>2021-01-31T08:51:31.000Z</time>
      </trkpt>
      <trkpt lat="-43.62912" lon="172.64975">
        <ele>64.4</ele>
        <time>2021-01-31T08:51:32.000Z</time>
      </trkpt>
      <trkpt lat="-43.62905" lon="172.64974">
        <ele>64.2</ele>
        <time>2021-01-31T08:51:33.000Z</time>
      </trkpt>
      <trkpt lat="-43.62872" lon="172.6494899">
        <ele>68.5</ele>
        <time>2021-01-31T08:51:37.000Z</time>
      </trkpt>
      <trkpt lat="-43.62849" lon="172.64926">
        <ele>73.8</ele>
        <time>2021-01-31T08:51:40.000Z</time>
      </trkpt>
      <trkpt lat="-43.62836" lon="172.64914">
        <ele>76.4</ele>
        <time>2021-01-31T08:51:42.000Z</time>
      </trkpt>
      <trkpt lat="-43.62829" lon="172.64909">
        <ele>76.8</ele>
        <time>2021-01-31T08:51:43.000Z</time>
      </trkpt>
      <trkpt lat="-43.62822" lon="172.64903">
        <ele>77.4</ele>
        <time>2021-01-31T08:51:44.000Z</time>
      </trkpt>
      <trkpt lat="-43.62737" lon="172.64854">
        <ele>82.7</ele>
        <time>2021-01-31T08:51:54.000Z</time>
      </trkpt>
      <trkpt lat="-43.62717" lon="172.64839">
        <ele>83.1</ele>
        <time>2021-01-31T08:51:57.000Z</time>
      </trkpt>
      <trkpt lat="-43.62714" lon="172.64837">
        <ele>83</ele>
        <time>2021-01-31T08:51:57.000Z</time>
      </trkpt>
      <trkpt lat="-43.62711" lon="172.64835">
        <ele>83</ele>
        <time>2021-01-31T08:51:57.000Z</time>
      </trkpt>
      <trkpt lat="-43.62704" lon="172.64826">
        <ele>83</ele>
        <time>2021-01-31T08:51:58.000Z</time>
      </trkpt>
      <trkpt lat="-43.62701" lon="172.64823">
        <ele>83</ele>
        <time>2021-01-31T08:51:58.000Z</time>
      </trkpt>
      <trkpt lat="-43.62699" lon="172.6482">
        <ele>83</ele>
        <time>2021-01-31T08:51:58.000Z</time>
      </trkpt>
      <trkpt lat="-43.6269599" lon="172.64817">
        <ele>82.9</ele>
        <time>2021-01-31T08:51:58.000Z</time>
      </trkpt>
      <trkpt lat="-43.62673" lon="172.6478">
        <ele>83.9</ele>
        <time>2021-01-31T08:52:02.000Z</time>
      </trkpt>
      <trkpt lat="-43.62671" lon="172.64777">
        <ele>84</ele>
        <time>2021-01-31T08:52:02.000Z</time>
      </trkpt>
      <trkpt lat="-43.62669" lon="172.64775">
        <ele>84</ele>
        <time>2021-01-31T08:52:02.000Z</time>
      </trkpt>
      <trkpt lat="-43.62667" lon="172.64772">
        <ele>84.2</ele>
        <time>2021-01-31T08:52:02.000Z</time>
      </trkpt>
      <trkpt lat="-43.62664" lon="172.64768">
        <ele>84.2</ele>
        <time>2021-01-31T08:52:02.000Z</time>
      </trkpt>
      <trkpt lat="-43.62661" lon="172.64764">
        <ele>84.2</ele>
        <time>2021-01-31T08:52:02.000Z</time>
      </trkpt>
      <trkpt lat="-43.62656" lon="172.6476099">
        <ele>83.9</ele>
        <time>2021-01-31T08:52:03.000Z</time>
      </trkpt>
      <trkpt lat="-43.62651" lon="172.64756">
        <ele>83.8</ele>
        <time>2021-01-31T08:52:04.000Z</time>
      </trkpt>
      <trkpt lat="-43.62647" lon="172.64753">
        <ele>83.6</ele>
        <time>2021-01-31T08:52:05.000Z</time>
      </trkpt>
      <trkpt lat="-43.62643" lon="172.6475">
        <ele>83.4</ele>
        <time>2021-01-31T08:52:06.000Z</time>
      </trkpt>
      <trkpt lat="-43.6261" lon="172.64728">
        <ele>82.5</ele>
        <time>2021-01-31T08:52:10.000Z</time>
      </trkpt>
      <trkpt lat="-43.62607" lon="172.64726">
        <ele>82.5</ele>
        <time>2021-01-31T08:52:10.000Z</time>
      </trkpt>
      <trkpt lat="-43.62605" lon="172.64725">
        <ele>82.5</ele>
        <time>2021-01-31T08:52:10.000Z</time>
      </trkpt>
      <trkpt lat="-43.62601" lon="172.64723">
        <ele>82.4</ele>
        <time>2021-01-31T08:52:10.000Z</time>
      </trkpt>
      <trkpt lat="-43.62598" lon="172.64721">
        <ele>82.5</ele>
        <time>2021-01-31T08:52:10.000Z</time>
      </trkpt>
      <trkpt lat="-43.62595" lon="172.64721">
        <ele>82.3</ele>
        <time>2021-01-31T08:52:10.000Z</time>
      </trkpt>
      <trkpt lat="-43.62591" lon="172.6472">
        <ele>82.2</ele>
        <time>2021-01-31T08:52:10.000Z</time>
      </trkpt>
      <trkpt lat="-43.62588" lon="172.64721">
        <ele>81.8</ele>
        <time>2021-01-31T08:52:10.000Z</time>
      </trkpt>
      <trkpt lat="-43.6258399" lon="172.64721">
        <ele>81.6</ele>
        <time>2021-01-31T08:52:10.000Z</time>
      </trkpt>
      <trkpt lat="-43.6258" lon="172.64723">
        <ele>81</ele>
        <time>2021-01-31T08:52:10.000Z</time>
      </trkpt>
      <trkpt lat="-43.62577" lon="172.64724">
        <ele>80.7</ele>
        <time>2021-01-31T08:52:10.000Z</time>
      </trkpt>
      <trkpt lat="-43.62573" lon="172.64726">
        <ele>80.2</ele>
        <time>2021-01-31T08:52:10.000Z</time>
      </trkpt>
      <trkpt lat="-43.62534" lon="172.64748">
        <ele>74.4</ele>
        <time>2021-01-31T08:52:15.000Z</time>
      </trkpt>
      <trkpt lat="-43.62531" lon="172.6475">
        <ele>73.9</ele>
        <time>2021-01-31T08:52:15.000Z</time>
      </trkpt>
      <trkpt lat="-43.6252799" lon="172.64751">
        <ele>73.6</ele>
        <time>2021-01-31T08:52:15.000Z</time>
      </trkpt>
      <trkpt lat="-43.62524" lon="172.6475199">
        <ele>73.2</ele>
        <time>2021-01-31T08:52:15.000Z</time>
      </trkpt>
      <trkpt lat="-43.62522" lon="172.64753">
        <ele>73</ele>
        <time>2021-01-31T08:52:15.000Z</time>
      </trkpt>
      <trkpt lat="-43.62518" lon="172.64753">
        <ele>72.8</ele>
        <time>2021-01-31T08:52:15.000Z</time>
      </trkpt>
      <trkpt lat="-43.62515" lon="172.64753">
        <ele>72.6</ele>
        <time>2021-01-31T08:52:15.000Z</time>
      </trkpt>
      <trkpt lat="-43.62512" lon="172.64753">
        <ele>72.4</ele>
        <time>2021-01-31T08:52:15.000Z</time>
      </trkpt>
      <trkpt lat="-43.62509" lon="172.64753">
        <ele>72.2</ele>
        <time>2021-01-31T08:52:15.000Z</time>
      </trkpt>
      <trkpt lat="-43.62506" lon="172.6475199">
        <ele>72.1</ele>
        <time>2021-01-31T08:52:15.000Z</time>
      </trkpt>
      <trkpt lat="-43.62503" lon="172.64751">
        <ele>72.1</ele>
        <time>2021-01-31T08:52:15.000Z</time>
      </trkpt>
      <trkpt lat="-43.62485" lon="172.64746">
        <ele>72.6</ele>
        <time>2021-01-31T08:52:17.000Z</time>
      </trkpt>
      <trkpt lat="-43.62483" lon="172.64745">
        <ele>72.8</ele>
        <time>2021-01-31T08:52:17.000Z</time>
      </trkpt>
      <trkpt lat="-43.6248099" lon="172.64745">
        <ele>72.8</ele>
        <time>2021-01-31T08:52:17.000Z</time>
      </trkpt>
      <trkpt lat="-43.62478" lon="172.64745">
        <ele>72.7</ele>
        <time>2021-01-31T08:52:17.000Z</time>
      </trkpt>
      <trkpt lat="-43.62475" lon="172.64745">
        <ele>72.7</ele>
        <time>2021-01-31T08:52:17.000Z</time>
      </trkpt>
      <trkpt lat="-43.62473" lon="172.64746">
        <ele>72.5</ele>
        <time>2021-01-31T08:52:17.000Z</time>
      </trkpt>
      <trkpt lat="-43.62471" lon="172.64746">
        <ele>72.5</ele>
        <time>2021-01-31T08:52:17.000Z</time>
      </trkpt>
      <trkpt lat="-43.62469" lon="172.64747">
        <ele>72.2</ele>
        <time>2021-01-31T08:52:17.000Z</time>
      </trkpt>
      <trkpt lat="-43.62468" lon="172.64748">
        <ele>72</ele>
        <time>2021-01-31T08:52:17.000Z</time>
      </trkpt>
      <trkpt lat="-43.62466" lon="172.64749">
        <ele>71.8</ele>
        <time>2021-01-31T08:52:17.000Z</time>
      </trkpt>
      <trkpt lat="-43.62464" lon="172.64751">
        <ele>71.4</ele>
        <time>2021-01-31T08:52:17.000Z</time>
      </trkpt>
      <trkpt lat="-43.62456" lon="172.6476">
        <ele>70.2</ele>
        <time>2021-01-31T08:52:18.000Z</time>
      </trkpt>
      <trkpt lat="-43.6245" lon="172.64768">
        <ele>69.1</ele>
        <time>2021-01-31T08:52:19.000Z</time>
      </trkpt>
      <trkpt lat="-43.62444" lon="172.64775">
        <ele>68</ele>
        <time>2021-01-31T08:52:20.000Z</time>
      </trkpt>
      <trkpt lat="-43.62438" lon="172.64784">
        <ele>66.7</ele>
        <time>2021-01-31T08:52:21.000Z</time>
      </trkpt>
      <trkpt lat="-43.62431" lon="172.64795">
        <ele>65</ele>
        <time>2021-01-31T08:52:22.000Z</time>
      </trkpt>
      <trkpt lat="-43.62425" lon="172.64803">
        <ele>63.7</ele>
        <time>2021-01-31T08:52:23.000Z</time>
      </trkpt>
      <trkpt lat="-43.62417" lon="172.64813">
        <ele>61.9</ele>
        <time>2021-01-31T08:52:24.000Z</time>
      </trkpt>
      <trkpt lat="-43.62411" lon="172.64821">
        <ele>60.6</ele>
        <time>2021-01-31T08:52:25.000Z</time>
      </trkpt>
      <trkpt lat="-43.62407" lon="172.64825">
        <ele>59.9</ele>
        <time>2021-01-31T08:52:26.000Z</time>
      </trkpt>
      <trkpt lat="-43.62404" lon="172.64829">
        <ele>59.3</ele>
        <time>2021-01-31T08:52:26.000Z</time>
      </trkpt>
      <trkpt lat="-43.62402" lon="172.64832">
        <ele>58.8</ele>
        <time>2021-01-31T08:52:26.000Z</time>
      </trkpt>
      <trkpt lat="-43.62399" lon="172.64834">
        <ele>58.5</ele>
        <time>2021-01-31T08:52:26.000Z</time>
      </trkpt>
      <trkpt lat="-43.62397" lon="172.64835">
        <ele>58.3</ele>
        <time>2021-01-31T08:52:26.000Z</time>
      </trkpt>
      <trkpt lat="-43.62393" lon="172.64837">
        <ele>58</ele>
        <time>2021-01-31T08:52:26.000Z</time>
      </trkpt>
      <trkpt lat="-43.62391" lon="172.64838">
        <ele>57.8</ele>
        <time>2021-01-31T08:52:26.000Z</time>
      </trkpt>
      <trkpt lat="-43.6238699" lon="172.64839">
        <ele>57.6</ele>
        <time>2021-01-31T08:52:26.000Z</time>
      </trkpt>
      <trkpt lat="-43.62384" lon="172.6484">
        <ele>57.4</ele>
        <time>2021-01-31T08:52:26.000Z</time>
      </trkpt>
      <trkpt lat="-43.62381" lon="172.6484">
        <ele>57.4</ele>
        <time>2021-01-31T08:52:26.000Z</time>
      </trkpt>
      <trkpt lat="-43.6237799" lon="172.6484">
        <ele>57.3</ele>
        <time>2021-01-31T08:52:26.000Z</time>
      </trkpt>
      <trkpt lat="-43.62376" lon="172.6484">
        <ele>57.3</ele>
        <time>2021-01-31T08:52:26.000Z</time>
      </trkpt>
      <trkpt lat="-43.62373" lon="172.6484">
        <ele>57.2</ele>
        <time>2021-01-31T08:52:26.000Z</time>
      </trkpt>
      <trkpt lat="-43.6237" lon="172.6484">
        <ele>57.1</ele>
        <time>2021-01-31T08:52:26.000Z</time>
      </trkpt>
      <trkpt lat="-43.62364" lon="172.64838">
        <ele>57.2</ele>
        <time>2021-01-31T08:52:27.000Z</time>
      </trkpt>
      <trkpt lat="-43.6236" lon="172.64837">
        <ele>57.2</ele>
        <time>2021-01-31T08:52:27.000Z</time>
      </trkpt>
      <trkpt lat="-43.62355" lon="172.64835">
        <ele>57.3</ele>
        <time>2021-01-31T08:52:28.000Z</time>
      </trkpt>
      <trkpt lat="-43.62351" lon="172.6483299">
        <ele>57.5</ele>
        <time>2021-01-31T08:52:28.000Z</time>
      </trkpt>
      <trkpt lat="-43.62344" lon="172.64831">
        <ele>57.5</ele>
        <time>2021-01-31T08:52:29.000Z</time>
      </trkpt>
      <trkpt lat="-43.62336" lon="172.64827">
        <ele>57.8</ele>
        <time>2021-01-31T08:52:30.000Z</time>
      </trkpt>
      <trkpt lat="-43.62329" lon="172.6482399">
        <ele>58.3</ele>
        <time>2021-01-31T08:52:31.000Z</time>
      </trkpt>
      <trkpt lat="-43.62327" lon="172.64823">
        <ele>58.6</ele>
        <time>2021-01-31T08:52:31.000Z</time>
      </trkpt>
      <trkpt lat="-43.62325" lon="172.64822">
        <ele>58.9</ele>
        <time>2021-01-31T08:52:31.000Z</time>
      </trkpt>
      <trkpt lat="-43.62322" lon="172.64821">
        <ele>59.2</ele>
        <time>2021-01-31T08:52:31.000Z</time>
      </trkpt>
      <trkpt lat="-43.6232" lon="172.64821">
        <ele>59.4</ele>
        <time>2021-01-31T08:52:31.000Z</time>
      </trkpt>
      <trkpt lat="-43.62318" lon="172.64821">
        <ele>59.5</ele>
        <time>2021-01-31T08:52:31.000Z</time>
      </trkpt>
      <trkpt lat="-43.62317" lon="172.64821">
        <ele>59.6</ele>
        <time>2021-01-31T08:52:31.000Z</time>
      </trkpt>
      <trkpt lat="-43.62315" lon="172.64822">
        <ele>59.7</ele>
        <time>2021-01-31T08:52:31.000Z</time>
      </trkpt>
      <trkpt lat="-43.62314" lon="172.64822">
        <ele>59.7</ele>
        <time>2021-01-31T08:52:31.000Z</time>
      </trkpt>
      <trkpt lat="-43.62312" lon="172.64823">
        <ele>59.8</ele>
        <time>2021-01-31T08:52:31.000Z</time>
      </trkpt>
      <trkpt lat="-43.6231" lon="172.64825">
        <ele>59.7</ele>
        <time>2021-01-31T08:52:31.000Z</time>
      </trkpt>
      <trkpt lat="-43.62308" lon="172.64827">
        <ele>59.6</ele>
        <time>2021-01-31T08:52:31.000Z</time>
      </trkpt>
      <trkpt lat="-43.62301" lon="172.64835">
        <ele>59.1</ele>
        <time>2021-01-31T08:52:32.000Z</time>
      </trkpt>
      <trkpt lat="-43.62295" lon="172.64844">
        <ele>58.3</ele>
        <time>2021-01-31T08:52:33.000Z</time>
      </trkpt>
      <trkpt lat="-43.62288" lon="172.64856">
        <ele>57.1</ele>
        <time>2021-01-31T08:52:34.000Z</time>
      </trkpt>
      <trkpt lat="-43.62283" lon="172.64865">
        <ele>56.1</ele>
        <time>2021-01-31T08:52:35.000Z</time>
      </trkpt>
      <trkpt lat="-43.62269" lon="172.64891">
        <ele>52.7</ele>
        <time>2021-01-31T08:52:38.000Z</time>
      </trkpt>
      <trkpt lat="-43.62267" lon="172.64894">
        <ele>52.3</ele>
        <time>2021-01-31T08:52:38.000Z</time>
      </trkpt>
      <trkpt lat="-43.6226399" lon="172.64897">
        <ele>51.9</ele>
        <time>2021-01-31T08:52:38.000Z</time>
      </trkpt>
      <trkpt lat="-43.62262" lon="172.64899">
        <ele>51.7</ele>
        <time>2021-01-31T08:52:38.000Z</time>
      </trkpt>
      <trkpt lat="-43.62257" lon="172.64903">
        <ele>51.1</ele>
        <time>2021-01-31T08:52:39.000Z</time>
      </trkpt>
      <trkpt lat="-43.62254" lon="172.64905">
        <ele>50.9</ele>
        <time>2021-01-31T08:52:39.000Z</time>
      </trkpt>
      <trkpt lat="-43.6225" lon="172.64907">
        <ele>50.6</ele>
        <time>2021-01-31T08:52:39.000Z</time>
      </trkpt>
      <trkpt lat="-43.62247" lon="172.64908">
        <ele>50.3</ele>
        <time>2021-01-31T08:52:39.000Z</time>
      </trkpt>
      <trkpt lat="-43.62238" lon="172.6491">
        <ele>49.6</ele>
        <time>2021-01-31T08:52:40.000Z</time>
      </trkpt>
      <trkpt lat="-43.62234" lon="172.64911">
        <ele>49.2</ele>
        <time>2021-01-31T08:52:40.000Z</time>
      </trkpt>
      <trkpt lat="-43.62226" lon="172.64911">
        <ele>48.9</ele>
        <time>2021-01-31T08:52:41.000Z</time>
      </trkpt>
      <trkpt lat="-43.62221" lon="172.64911">
        <ele>48.7</ele>
        <time>2021-01-31T08:52:42.000Z</time>
      </trkpt>
      <trkpt lat="-43.62215" lon="172.64911">
        <ele>48.4</ele>
        <time>2021-01-31T08:52:43.000Z</time>
      </trkpt>
      <trkpt lat="-43.62207" lon="172.6491">
        <ele>48.2</ele>
        <time>2021-01-31T08:52:44.000Z</time>
      </trkpt>
      <trkpt lat="-43.622" lon="172.64908">
        <ele>48.3</ele>
        <time>2021-01-31T08:52:45.000Z</time>
      </trkpt>
      <trkpt lat="-43.62173" lon="172.64904">
        <ele>48</ele>
        <time>2021-01-31T08:52:48.000Z</time>
      </trkpt>
      <trkpt lat="-43.62166" lon="172.64903">
        <ele>47.9</ele>
        <time>2021-01-31T08:52:49.000Z</time>
      </trkpt>
      <trkpt lat="-43.6216099" lon="172.64902">
        <ele>48.1</ele>
        <time>2021-01-31T08:52:50.000Z</time>
      </trkpt>
      <trkpt lat="-43.62153" lon="172.64902">
        <ele>47.9</ele>
        <time>2021-01-31T08:52:51.000Z</time>
      </trkpt>
      <trkpt lat="-43.62145" lon="172.64903">
        <ele>47.6</ele>
        <time>2021-01-31T08:52:52.000Z</time>
      </trkpt>
      <trkpt lat="-43.6211" lon="172.64907">
        <ele>46.2</ele>
        <time>2021-01-31T08:52:56.000Z</time>
      </trkpt>
      <trkpt lat="-43.62101" lon="172.64909">
        <ele>45.6</ele>
        <time>2021-01-31T08:52:57.000Z</time>
      </trkpt>
      <trkpt lat="-43.62089" lon="172.64911">
        <ele>45.1</ele>
        <time>2021-01-31T08:52:58.000Z</time>
      </trkpt>
      <trkpt lat="-43.62081" lon="172.64913">
        <ele>44.8</ele>
        <time>2021-01-31T08:52:59.000Z</time>
      </trkpt>
      <trkpt lat="-43.62059" lon="172.6492">
        <ele>44.8</ele>
        <time>2021-01-31T08:53:02.000Z</time>
      </trkpt>
      <trkpt lat="-43.62039" lon="172.64927">
        <ele>45.2</ele>
        <time>2021-01-31T08:53:04.000Z</time>
      </trkpt>
      <trkpt lat="-43.62027" lon="172.64931">
        <ele>45.5</ele>
        <time>2021-01-31T08:53:05.000Z</time>
      </trkpt>
      <trkpt lat="-43.62013" lon="172.64936">
        <ele>45.9</ele>
        <time>2021-01-31T08:53:07.000Z</time>
      </trkpt>
      <trkpt lat="-43.62006" lon="172.6494">
        <ele>46</ele>
        <time>2021-01-31T08:53:08.000Z</time>
      </trkpt>
      <trkpt lat="-43.61998" lon="172.64944">
        <ele>46.2</ele>
        <time>2021-01-31T08:53:09.000Z</time>
      </trkpt>
      <trkpt lat="-43.61985" lon="172.64951">
        <ele>47</ele>
        <time>2021-01-31T08:53:11.000Z</time>
      </trkpt>
      <trkpt lat="-43.61982" lon="172.64953">
        <ele>47.2</ele>
        <time>2021-01-31T08:53:11.000Z</time>
      </trkpt>
      <trkpt lat="-43.6198" lon="172.64955">
        <ele>47.3</ele>
        <time>2021-01-31T08:53:11.000Z</time>
      </trkpt>
      <trkpt lat="-43.61976" lon="172.64957">
        <ele>47.7</ele>
        <time>2021-01-31T08:53:11.000Z</time>
      </trkpt>
      <trkpt lat="-43.61974" lon="172.6496">
        <ele>47.7</ele>
        <time>2021-01-31T08:53:11.000Z</time>
      </trkpt>
      <trkpt lat="-43.61972" lon="172.64962">
        <ele>47.9</ele>
        <time>2021-01-31T08:53:11.000Z</time>
      </trkpt>
      <trkpt lat="-43.61968" lon="172.64966">
        <ele>48.2</ele>
        <time>2021-01-31T08:53:12.000Z</time>
      </trkpt>
      <trkpt lat="-43.61966" lon="172.64969">
        <ele>48.3</ele>
        <time>2021-01-31T08:53:12.000Z</time>
      </trkpt>
      <trkpt lat="-43.6196399" lon="172.64973">
        <ele>48.4</ele>
        <time>2021-01-31T08:53:12.000Z</time>
      </trkpt>
      <trkpt lat="-43.61962" lon="172.6497599">
        <ele>48.6</ele>
        <time>2021-01-31T08:53:12.000Z</time>
      </trkpt>
      <trkpt lat="-43.6196" lon="172.64981">
        <ele>48.7</ele>
        <time>2021-01-31T08:53:12.000Z</time>
      </trkpt>
      <trkpt lat="-43.61959" lon="172.64987">
        <ele>48.7</ele>
        <time>2021-01-31T08:53:12.000Z</time>
      </trkpt>
      <trkpt lat="-43.61959" lon="172.64987">
        <ele>48.7</ele>
        <time>2021-01-31T08:53:12.000Z</time>
      </trkpt>
      <trkpt lat="-43.61965" lon="172.64992">
        <ele>47.7</ele>
        <time>2021-01-31T08:53:13.000Z</time>
      </trkpt>
      <trkpt lat="-43.61966" lon="172.6499399">
        <ele>47.5</ele>
        <time>2021-01-31T08:53:13.000Z</time>
      </trkpt>
      <trkpt lat="-43.61968" lon="172.64997">
        <ele>47.1</ele>
        <time>2021-01-31T08:53:13.000Z</time>
      </trkpt>
      <trkpt lat="-43.61968" lon="172.64999">
        <ele>47</ele>
        <time>2021-01-31T08:53:13.000Z</time>
      </trkpt>
      <trkpt lat="-43.61969" lon="172.65001">
        <ele>46.9</ele>
        <time>2021-01-31T08:53:13.000Z</time>
      </trkpt>
      <trkpt lat="-43.6197" lon="172.65007">
        <ele>46.8</ele>
        <time>2021-01-31T08:53:13.000Z</time>
      </trkpt>
      <trkpt lat="-43.61971" lon="172.65011">
        <ele>46.6</ele>
        <time>2021-01-31T08:53:13.000Z</time>
      </trkpt>
      <trkpt lat="-43.61974" lon="172.65034">
        <ele>46.2</ele>
        <time>2021-01-31T08:53:15.000Z</time>
      </trkpt>
      <trkpt lat="-43.61979" lon="172.65072">
        <ele>45.1</ele>
        <time>2021-01-31T08:53:18.000Z</time>
      </trkpt>
      <trkpt lat="-43.61982" lon="172.65101">
        <ele>43.9</ele>
        <time>2021-01-31T08:53:20.000Z</time>
      </trkpt>
      <trkpt lat="-43.61983" lon="172.65115">
        <ele>43.4</ele>
        <time>2021-01-31T08:53:21.000Z</time>
      </trkpt>
      <trkpt lat="-43.61984" lon="172.65133">
        <ele>42.7</ele>
        <time>2021-01-31T08:53:22.000Z</time>
      </trkpt>
      <trkpt lat="-43.61985" lon="172.65151">
        <ele>42.1</ele>
        <time>2021-01-31T08:53:23.000Z</time>
      </trkpt>
      <trkpt lat="-43.61984" lon="172.65169">
        <ele>42</ele>
        <time>2021-01-31T08:53:24.000Z</time>
      </trkpt>
      <trkpt lat="-43.61984" lon="172.65181">
        <ele>41.2</ele>
        <time>2021-01-31T08:53:25.000Z</time>
      </trkpt>
      <trkpt lat="-43.61983" lon="172.65193">
        <ele>40.8</ele>
        <time>2021-01-31T08:53:26.000Z</time>
      </trkpt>
      <trkpt lat="-43.61982" lon="172.65208">
        <ele>40.2</ele>
        <time>2021-01-31T08:53:27.000Z</time>
      </trkpt>
      <trkpt lat="-43.61981" lon="172.65215">
        <ele>40.1</ele>
        <time>2021-01-31T08:53:28.000Z</time>
      </trkpt>
      <trkpt lat="-43.61979" lon="172.65224">
        <ele>40.3</ele>
        <time>2021-01-31T08:53:29.000Z</time>
      </trkpt>
      <trkpt lat="-43.61977" lon="172.65235">
        <ele>40.3</ele>
        <time>2021-01-31T08:53:30.000Z</time>
      </trkpt>
      <trkpt lat="-43.61974" lon="172.65248">
        <ele>40.5</ele>
        <time>2021-01-31T08:53:31.000Z</time>
      </trkpt>
      <trkpt lat="-43.6197" lon="172.6526299">
        <ele>40</ele>
        <time>2021-01-31T08:53:32.000Z</time>
      </trkpt>
      <trkpt lat="-43.61966" lon="172.65274">
        <ele>39.8</ele>
        <time>2021-01-31T08:53:33.000Z</time>
      </trkpt>
      <trkpt lat="-43.61961" lon="172.65288">
        <ele>39.4</ele>
        <time>2021-01-31T08:53:34.000Z</time>
      </trkpt>
      <trkpt lat="-43.61956" lon="172.65301">
        <ele>39.1</ele>
        <time>2021-01-31T08:53:35.000Z</time>
      </trkpt>
      <trkpt lat="-43.61951" lon="172.65313">
        <ele>38.7</ele>
        <time>2021-01-31T08:53:36.000Z</time>
      </trkpt>
      <trkpt lat="-43.61945" lon="172.65326">
        <ele>38.4</ele>
        <time>2021-01-31T08:53:37.000Z</time>
      </trkpt>
      <trkpt lat="-43.61939" lon="172.65335">
        <ele>38.6</ele>
        <time>2021-01-31T08:53:38.000Z</time>
      </trkpt>
      <trkpt lat="-43.61935" lon="172.65341">
        <ele>38.6</ele>
        <time>2021-01-31T08:53:39.000Z</time>
      </trkpt>
      <trkpt lat="-43.61926" lon="172.65353">
        <ele>38.9</ele>
        <time>2021-01-31T08:53:40.000Z</time>
      </trkpt>
      <trkpt lat="-43.61913" lon="172.65372">
        <ele>38.3</ele>
        <time>2021-01-31T08:53:42.000Z</time>
      </trkpt>
      <trkpt lat="-43.61904" lon="172.65383">
        <ele>37.9</ele>
        <time>2021-01-31T08:53:43.000Z</time>
      </trkpt>
      <trkpt lat="-43.619" lon="172.65386">
        <ele>38</ele>
        <time>2021-01-31T08:53:44.000Z</time>
      </trkpt>
      <trkpt lat="-43.61896" lon="172.6539">
        <ele>37.9</ele>
        <time>2021-01-31T08:53:45.000Z</time>
      </trkpt>
      <trkpt lat="-43.6186999" lon="172.65412">
        <ele>37.4</ele>
        <time>2021-01-31T08:53:48.000Z</time>
      </trkpt>
      <trkpt lat="-43.61864" lon="172.65416">
        <ele>37.4</ele>
        <time>2021-01-31T08:53:49.000Z</time>
      </trkpt>
      <trkpt lat="-43.61851" lon="172.6542399">
        <ele>38.1</ele>
        <time>2021-01-31T08:53:51.000Z</time>
      </trkpt>
      <trkpt lat="-43.61833" lon="172.6543299">
        <ele>39.3</ele>
        <time>2021-01-31T08:53:53.000Z</time>
      </trkpt>
      <trkpt lat="-43.61804" lon="172.65446">
        <ele>41.2</ele>
        <time>2021-01-31T08:53:56.000Z</time>
      </trkpt>
      <trkpt lat="-43.61795" lon="172.6545099">
        <ele>41.5</ele>
        <time>2021-01-31T08:53:57.000Z</time>
      </trkpt>
      <trkpt lat="-43.61783" lon="172.65457">
        <ele>41.9</ele>
        <time>2021-01-31T08:53:58.000Z</time>
      </trkpt>
      <trkpt lat="-43.6176699" lon="172.65468">
        <ele>41.8</ele>
        <time>2021-01-31T08:54:00.000Z</time>
      </trkpt>
      <trkpt lat="-43.61766" lon="172.6546899">
        <ele>41.7</ele>
        <time>2021-01-31T08:54:00.000Z</time>
      </trkpt>
      <trkpt lat="-43.61722" lon="172.655">
        <ele>39.4</ele>
        <time>2021-01-31T08:54:05.000Z</time>
      </trkpt>
      <trkpt lat="-43.61714" lon="172.65506">
        <ele>40.4</ele>
        <time>2021-01-31T08:54:06.000Z</time>
      </trkpt>
      <trkpt lat="-43.6171" lon="172.65509">
        <ele>41</ele>
        <time>2021-01-31T08:54:07.000Z</time>
      </trkpt>
      <trkpt lat="-43.61706" lon="172.65513">
        <ele>41.6</ele>
        <time>2021-01-31T08:54:08.000Z</time>
      </trkpt>
      <trkpt lat="-43.61703" lon="172.65517">
        <ele>42.1</ele>
        <time>2021-01-31T08:54:08.000Z</time>
      </trkpt>
      <trkpt lat="-43.61701" lon="172.65521">
        <ele>42.5</ele>
        <time>2021-01-31T08:54:08.000Z</time>
      </trkpt>
      <trkpt lat="-43.61698" lon="172.65526">
        <ele>43</ele>
        <time>2021-01-31T08:54:09.000Z</time>
      </trkpt>
      <trkpt lat="-43.61696" lon="172.6553099">
        <ele>43.5</ele>
        <time>2021-01-31T08:54:09.000Z</time>
      </trkpt>
      <trkpt lat="-43.61695" lon="172.65537">
        <ele>44</ele>
        <time>2021-01-31T08:54:09.000Z</time>
      </trkpt>
      <trkpt lat="-43.61694" lon="172.65542">
        <ele>44.4</ele>
        <time>2021-01-31T08:54:09.000Z</time>
      </trkpt>
      <trkpt lat="-43.61694" lon="172.65547">
        <ele>44.7</ele>
        <time>2021-01-31T08:54:09.000Z</time>
      </trkpt>
      <trkpt lat="-43.61695" lon="172.65554">
        <ele>45.1</ele>
        <time>2021-01-31T08:54:10.000Z</time>
      </trkpt>
      <trkpt lat="-43.61696" lon="172.65559">
        <ele>45.3</ele>
        <time>2021-01-31T08:54:10.000Z</time>
      </trkpt>
      <trkpt lat="-43.61698" lon="172.65564">
        <ele>45.5</ele>
        <time>2021-01-31T08:54:10.000Z</time>
      </trkpt>
      <trkpt lat="-43.617" lon="172.6556699">
        <ele>45.5</ele>
        <time>2021-01-31T08:54:10.000Z</time>
      </trkpt>
      <trkpt lat="-43.6170199" lon="172.6557">
        <ele>45.6</ele>
        <time>2021-01-31T08:54:10.000Z</time>
      </trkpt>
      <trkpt lat="-43.61705" lon="172.65573">
        <ele>45.6</ele>
        <time>2021-01-31T08:54:10.000Z</time>
      </trkpt>
      <trkpt lat="-43.61708" lon="172.6557599">
        <ele>45.5</ele>
        <time>2021-01-31T08:54:10.000Z</time>
      </trkpt>
      <trkpt lat="-43.61718" lon="172.65581">
        <ele>45.1</ele>
        <time>2021-01-31T08:54:11.000Z</time>
      </trkpt>
      <trkpt lat="-43.61726" lon="172.6558499">
        <ele>45.2</ele>
        <time>2021-01-31T08:54:12.000Z</time>
      </trkpt>
      <trkpt lat="-43.61734" lon="172.6559">
        <ele>45.8</ele>
        <time>2021-01-31T08:54:13.000Z</time>
      </trkpt>
      <trkpt lat="-43.61755" lon="172.6560299">
        <ele>46.6</ele>
        <time>2021-01-31T08:54:16.000Z</time>
      </trkpt>
      <trkpt lat="-43.61759" lon="172.65606">
        <ele>46.5</ele>
        <time>2021-01-31T08:54:17.000Z</time>
      </trkpt>
      <trkpt lat="-43.61764" lon="172.6561">
        <ele>46.5</ele>
        <time>2021-01-31T08:54:18.000Z</time>
      </trkpt>
      <trkpt lat="-43.61768" lon="172.65614">
        <ele>46.6</ele>
        <time>2021-01-31T08:54:19.000Z</time>
      </trkpt>
      <trkpt lat="-43.61771" lon="172.65618">
        <ele>46.8</ele>
        <time>2021-01-31T08:54:19.000Z</time>
      </trkpt>
      <trkpt lat="-43.61777" lon="172.65625">
        <ele>47</ele>
        <time>2021-01-31T08:54:20.000Z</time>
      </trkpt>
      <trkpt lat="-43.6178" lon="172.65629">
        <ele>47.2</ele>
        <time>2021-01-31T08:54:20.000Z</time>
      </trkpt>
      <trkpt lat="-43.61783" lon="172.65633">
        <ele>47.3</ele>
        <time>2021-01-31T08:54:20.000Z</time>
      </trkpt>
      <trkpt lat="-43.61786" lon="172.65637">
        <ele>47.4</ele>
        <time>2021-01-31T08:54:20.000Z</time>
      </trkpt>
      <trkpt lat="-43.61789" lon="172.65643">
        <ele>47.8</ele>
        <time>2021-01-31T08:54:21.000Z</time>
      </trkpt>
      <trkpt lat="-43.61795" lon="172.65654">
        <ele>48.4</ele>
        <time>2021-01-31T08:54:22.000Z</time>
      </trkpt>
      <trkpt lat="-43.61812" lon="172.65692">
        <ele>51.7</ele>
        <time>2021-01-31T08:54:26.000Z</time>
      </trkpt>
      <trkpt lat="-43.61822" lon="172.65716">
        <ele>54.1</ele>
        <time>2021-01-31T08:54:28.000Z</time>
      </trkpt>
      <trkpt lat="-43.61825" lon="172.65723">
        <ele>54.7</ele>
        <time>2021-01-31T08:54:29.000Z</time>
      </trkpt>
      <trkpt lat="-43.61829" lon="172.65732">
        <ele>55.5</ele>
        <time>2021-01-31T08:54:30.000Z</time>
      </trkpt>
      <trkpt lat="-43.61839" lon="172.65752">
        <ele>56.4</ele>
        <time>2021-01-31T08:54:32.000Z</time>
      </trkpt>
      <trkpt lat="-43.6185" lon="172.6577299">
        <ele>56.4</ele>
        <time>2021-01-31T08:54:34.000Z</time>
      </trkpt>
      <trkpt lat="-43.61856" lon="172.65785">
        <ele>56.4</ele>
        <time>2021-01-31T08:54:35.000Z</time>
      </trkpt>
      <trkpt lat="-43.6186099" lon="172.65795">
        <ele>56.3</ele>
        <time>2021-01-31T08:54:36.000Z</time>
      </trkpt>
      <trkpt lat="-43.61864" lon="172.65802">
        <ele>56.4</ele>
        <time>2021-01-31T08:54:37.000Z</time>
      </trkpt>
      <trkpt lat="-43.61869" lon="172.65815">
        <ele>56.7</ele>
        <time>2021-01-31T08:54:38.000Z</time>
      </trkpt>
      <trkpt lat="-43.61872" lon="172.65824">
        <ele>57.1</ele>
        <time>2021-01-31T08:54:39.000Z</time>
      </trkpt>
      <trkpt lat="-43.61874" lon="172.65833">
        <ele>57.8</ele>
        <time>2021-01-31T08:54:40.000Z</time>
      </trkpt>
      <trkpt lat="-43.61876" lon="172.65842">
        <ele>57.9</ele>
        <time>2021-01-31T08:54:41.000Z</time>
      </trkpt>
      <trkpt lat="-43.61877" lon="172.65853">
        <ele>58.5</ele>
        <time>2021-01-31T08:54:42.000Z</time>
      </trkpt>
      <trkpt lat="-43.61879" lon="172.65864">
        <ele>58.8</ele>
        <time>2021-01-31T08:54:43.000Z</time>
      </trkpt>
      <trkpt lat="-43.61879" lon="172.65873">
        <ele>59.6</ele>
        <time>2021-01-31T08:54:44.000Z</time>
      </trkpt>
      <trkpt lat="-43.61879" lon="172.65879">
        <ele>60.2</ele>
        <time>2021-01-31T08:54:44.000Z</time>
      </trkpt>
      <trkpt lat="-43.61879" lon="172.65887">
        <ele>60.9</ele>
        <time>2021-01-31T08:54:45.000Z</time>
      </trkpt>
      <trkpt lat="-43.61878" lon="172.65893">
        <ele>61.8</ele>
        <time>2021-01-31T08:54:46.000Z</time>
      </trkpt>
      <trkpt lat="-43.61878" lon="172.65898">
        <ele>62.3</ele>
        <time>2021-01-31T08:54:46.000Z</time>
      </trkpt>
      <trkpt lat="-43.61876" lon="172.65905">
        <ele>63.6</ele>
        <time>2021-01-31T08:54:47.000Z</time>
      </trkpt>
      <trkpt lat="-43.61875" lon="172.6591">
        <ele>64.4</ele>
        <time>2021-01-31T08:54:47.000Z</time>
      </trkpt>
      <trkpt lat="-43.61873" lon="172.65917">
        <ele>65.6</ele>
        <time>2021-01-31T08:54:48.000Z</time>
      </trkpt>
      <trkpt lat="-43.61872" lon="172.65919">
        <ele>65.8</ele>
        <time>2021-01-31T08:54:48.000Z</time>
      </trkpt>
      <trkpt lat="-43.61863" lon="172.6594">
        <ele>66.5</ele>
        <time>2021-01-31T08:54:50.000Z</time>
      </trkpt>
      <trkpt lat="-43.61856" lon="172.65954">
        <ele>67.4</ele>
        <time>2021-01-31T08:54:51.000Z</time>
      </trkpt>
      <trkpt lat="-43.61848" lon="172.65969">
        <ele>68.4</ele>
        <time>2021-01-31T08:54:53.000Z</time>
      </trkpt>
      <trkpt lat="-43.61835" lon="172.65996">
        <ele>69.9</ele>
        <time>2021-01-31T08:54:56.000Z</time>
      </trkpt>
      <trkpt lat="-43.6183" lon="172.66007">
        <ele>70.2</ele>
        <time>2021-01-31T08:54:57.000Z</time>
      </trkpt>
      <trkpt lat="-43.61818" lon="172.66031">
        <ele>71</ele>
        <time>2021-01-31T08:54:59.000Z</time>
      </trkpt>
      <trkpt lat="-43.61815" lon="172.66036">
        <ele>71.3</ele>
        <time>2021-01-31T08:55:00.000Z</time>
      </trkpt>
      <trkpt lat="-43.61813" lon="172.66041">
        <ele>71.2</ele>
        <time>2021-01-31T08:55:00.000Z</time>
      </trkpt>
      <trkpt lat="-43.61802" lon="172.66056">
        <ele>72.6</ele>
        <time>2021-01-31T08:55:02.000Z</time>
      </trkpt>
      <trkpt lat="-43.6179" lon="172.66071">
        <ele>74.1</ele>
        <time>2021-01-31T08:55:04.000Z</time>
      </trkpt>
      <trkpt lat="-43.6177599" lon="172.66087">
        <ele>75.4</ele>
        <time>2021-01-31T08:55:06.000Z</time>
      </trkpt>
      <trkpt lat="-43.61763" lon="172.66101">
        <ele>75.1</ele>
        <time>2021-01-31T08:55:08.000Z</time>
      </trkpt>
      <trkpt lat="-43.61756" lon="172.66108">
        <ele>75.1</ele>
        <time>2021-01-31T08:55:09.000Z</time>
      </trkpt>
      <trkpt lat="-43.61748" lon="172.66115">
        <ele>75.1</ele>
        <time>2021-01-31T08:55:10.000Z</time>
      </trkpt>
      <trkpt lat="-43.6174" lon="172.66121">
        <ele>74.8</ele>
        <time>2021-01-31T08:55:11.000Z</time>
      </trkpt>
      <trkpt lat="-43.61733" lon="172.66127">
        <ele>74.3</ele>
        <time>2021-01-31T08:55:12.000Z</time>
      </trkpt>
      <trkpt lat="-43.61726" lon="172.66132">
        <ele>74.2</ele>
        <time>2021-01-31T08:55:13.000Z</time>
      </trkpt>
      <trkpt lat="-43.61717" lon="172.66138">
        <ele>74.2</ele>
        <time>2021-01-31T08:55:14.000Z</time>
      </trkpt>
      <trkpt lat="-43.61712" lon="172.6613999">
        <ele>74.7</ele>
        <time>2021-01-31T08:55:15.000Z</time>
      </trkpt>
      <trkpt lat="-43.61706" lon="172.66143">
        <ele>75.2</ele>
        <time>2021-01-31T08:55:16.000Z</time>
      </trkpt>
      <trkpt lat="-43.61701" lon="172.66146">
        <ele>75.3</ele>
        <time>2021-01-31T08:55:17.000Z</time>
      </trkpt>
      <trkpt lat="-43.61688" lon="172.66151">
        <ele>76.8</ele>
        <time>2021-01-31T08:55:19.000Z</time>
      </trkpt>
      <trkpt lat="-43.61676" lon="172.66155">
        <ele>78.5</ele>
        <time>2021-01-31T08:55:20.000Z</time>
      </trkpt>
      <trkpt lat="-43.61672" lon="172.66156">
        <ele>79.1</ele>
        <time>2021-01-31T08:55:20.000Z</time>
      </trkpt>
      <trkpt lat="-43.61667" lon="172.66159">
        <ele>79.4</ele>
        <time>2021-01-31T08:55:21.000Z</time>
      </trkpt>
      <trkpt lat="-43.61663" lon="172.66161">
        <ele>80</ele>
        <time>2021-01-31T08:55:21.000Z</time>
      </trkpt>
      <trkpt lat="-43.61658" lon="172.66165">
        <ele>80.2</ele>
        <time>2021-01-31T08:55:22.000Z</time>
      </trkpt>
      <trkpt lat="-43.61652" lon="172.66169">
        <ele>80.9</ele>
        <time>2021-01-31T08:55:23.000Z</time>
      </trkpt>
      <trkpt lat="-43.61647" lon="172.66174">
        <ele>81</ele>
        <time>2021-01-31T08:55:24.000Z</time>
      </trkpt>
      <trkpt lat="-43.61643" lon="172.66178">
        <ele>81.1</ele>
        <time>2021-01-31T08:55:25.000Z</time>
      </trkpt>
      <trkpt lat="-43.61641" lon="172.66182">
        <ele>80.6</ele>
        <time>2021-01-31T08:55:25.000Z</time>
      </trkpt>
      <trkpt lat="-43.61637" lon="172.66188">
        <ele>80.1</ele>
        <time>2021-01-31T08:55:26.000Z</time>
      </trkpt>
      <trkpt lat="-43.61633" lon="172.66195">
        <ele>79.4</ele>
        <time>2021-01-31T08:55:27.000Z</time>
      </trkpt>
      <trkpt lat="-43.61629" lon="172.66205">
        <ele>77.9</ele>
        <time>2021-01-31T08:55:28.000Z</time>
      </trkpt>
      <trkpt lat="-43.61624" lon="172.66218">
        <ele>75.9</ele>
        <time>2021-01-31T08:55:29.000Z</time>
      </trkpt>
      <trkpt lat="-43.61622" lon="172.6622099">
        <ele>75.7</ele>
        <time>2021-01-31T08:55:29.000Z</time>
      </trkpt>
      <trkpt lat="-43.6162" lon="172.66227">
        <ele>74.7</ele>
        <time>2021-01-31T08:55:30.000Z</time>
      </trkpt>
      <trkpt lat="-43.61607" lon="172.6624799">
        <ele>73.3</ele>
        <time>2021-01-31T08:55:32.000Z</time>
      </trkpt>
      <trkpt lat="-43.61582" lon="172.66285">
        <ele>72.1</ele>
        <time>2021-01-31T08:55:36.000Z</time>
      </trkpt>
      <trkpt lat="-43.61576" lon="172.66295">
        <ele>70.9</ele>
        <time>2021-01-31T08:55:37.000Z</time>
      </trkpt>
      <trkpt lat="-43.61565" lon="172.66309">
        <ele>69.8</ele>
        <time>2021-01-31T08:55:39.000Z</time>
      </trkpt>
      <trkpt lat="-43.61555" lon="172.66321">
        <ele>68.9</ele>
        <time>2021-01-31T08:55:40.000Z</time>
      </trkpt>
      <trkpt lat="-43.61543" lon="172.66333">
        <ele>68.3</ele>
        <time>2021-01-31T08:55:42.000Z</time>
      </trkpt>
      <trkpt lat="-43.61536" lon="172.6634">
        <ele>67.8</ele>
        <time>2021-01-31T08:55:43.000Z</time>
      </trkpt>
      <trkpt lat="-43.6153" lon="172.66345">
        <ele>67.8</ele>
        <time>2021-01-31T08:55:44.000Z</time>
      </trkpt>
      <trkpt lat="-43.61525" lon="172.66349">
        <ele>67.8</ele>
        <time>2021-01-31T08:55:45.000Z</time>
      </trkpt>
      <trkpt lat="-43.61518" lon="172.66354">
        <ele>68</ele>
        <time>2021-01-31T08:55:46.000Z</time>
      </trkpt>
      <trkpt lat="-43.61511" lon="172.66359">
        <ele>68.3</ele>
        <time>2021-01-31T08:55:47.000Z</time>
      </trkpt>
      <trkpt lat="-43.6150499" lon="172.66363">
        <ele>68.6</ele>
        <time>2021-01-31T08:55:48.000Z</time>
      </trkpt>
      <trkpt lat="-43.615" lon="172.66366">
        <ele>69</ele>
        <time>2021-01-31T08:55:49.000Z</time>
      </trkpt>
      <trkpt lat="-43.61495" lon="172.66368">
        <ele>68.6</ele>
        <time>2021-01-31T08:55:50.000Z</time>
      </trkpt>
      <trkpt lat="-43.61488" lon="172.6637">
        <ele>68.4</ele>
        <time>2021-01-31T08:55:51.000Z</time>
      </trkpt>
      <trkpt lat="-43.61481" lon="172.66372">
        <ele>68.2</ele>
        <time>2021-01-31T08:55:52.000Z</time>
      </trkpt>
      <trkpt lat="-43.61475" lon="172.6637299">
        <ele>68.2</ele>
        <time>2021-01-31T08:55:53.000Z</time>
      </trkpt>
      <trkpt lat="-43.6146699" lon="172.66374">
        <ele>68.3</ele>
        <time>2021-01-31T08:55:54.000Z</time>
      </trkpt>
      <trkpt lat="-43.61463" lon="172.66374">
        <ele>68.5</ele>
        <time>2021-01-31T08:55:54.000Z</time>
      </trkpt>
      <trkpt lat="-43.6146" lon="172.66374">
        <ele>68.7</ele>
        <time>2021-01-31T08:55:54.000Z</time>
      </trkpt>
      <trkpt lat="-43.61447" lon="172.66374">
        <ele>69.3</ele>
        <time>2021-01-31T08:55:55.000Z</time>
      </trkpt>
      <trkpt lat="-43.61443" lon="172.6637299">
        <ele>69.7</ele>
        <time>2021-01-31T08:55:55.000Z</time>
      </trkpt>
      <trkpt lat="-43.6142899" lon="172.66372">
        <ele>70.5</ele>
        <time>2021-01-31T08:55:57.000Z</time>
      </trkpt>
      <trkpt lat="-43.61421" lon="172.66371">
        <ele>71.1</ele>
        <time>2021-01-31T08:55:58.000Z</time>
      </trkpt>
      <trkpt lat="-43.61415" lon="172.66371">
        <ele>71.5</ele>
        <time>2021-01-31T08:55:59.000Z</time>
      </trkpt>
      <trkpt lat="-43.6141099" lon="172.66371">
        <ele>72</ele>
        <time>2021-01-31T08:55:59.000Z</time>
      </trkpt>
      <trkpt lat="-43.61408" lon="172.66372">
        <ele>72.1</ele>
        <time>2021-01-31T08:55:59.000Z</time>
      </trkpt>
      <trkpt lat="-43.61403" lon="172.66372">
        <ele>72.7</ele>
        <time>2021-01-31T08:56:00.000Z</time>
      </trkpt>
      <trkpt lat="-43.61398" lon="172.66374">
        <ele>72.9</ele>
        <time>2021-01-31T08:56:01.000Z</time>
      </trkpt>
      <trkpt lat="-43.61393" lon="172.66376">
        <ele>73.2</ele>
        <time>2021-01-31T08:56:02.000Z</time>
      </trkpt>
      <trkpt lat="-43.61388" lon="172.66378">
        <ele>73.4</ele>
        <time>2021-01-31T08:56:03.000Z</time>
      </trkpt>
      <trkpt lat="-43.61383" lon="172.6638">
        <ele>73.7</ele>
        <time>2021-01-31T08:56:04.000Z</time>
      </trkpt>
      <trkpt lat="-43.61379" lon="172.66383">
        <ele>73.6</ele>
        <time>2021-01-31T08:56:05.000Z</time>
      </trkpt>
      <trkpt lat="-43.61375" lon="172.66386">
        <ele>73.7</ele>
        <time>2021-01-31T08:56:06.000Z</time>
      </trkpt>
      <trkpt lat="-43.6137" lon="172.6639">
        <ele>73.6</ele>
        <time>2021-01-31T08:56:07.000Z</time>
      </trkpt>
      <trkpt lat="-43.61367" lon="172.66394">
        <ele>73.4</ele>
        <time>2021-01-31T08:56:07.000Z</time>
      </trkpt>
      <trkpt lat="-43.6136399" lon="172.66397">
        <ele>73.3</ele>
        <time>2021-01-31T08:56:07.000Z</time>
      </trkpt>
      <trkpt lat="-43.61361" lon="172.66403">
        <ele>72.8</ele>
        <time>2021-01-31T08:56:08.000Z</time>
      </trkpt>
      <trkpt lat="-43.61358" lon="172.66407">
        <ele>72.6</ele>
        <time>2021-01-31T08:56:08.000Z</time>
      </trkpt>
      <trkpt lat="-43.61356" lon="172.66413">
        <ele>72</ele>
        <time>2021-01-31T08:56:09.000Z</time>
      </trkpt>
      <trkpt lat="-43.6135499" lon="172.6641799">
        <ele>71.6</ele>
        <time>2021-01-31T08:56:09.000Z</time>
      </trkpt>
      <trkpt lat="-43.61354" lon="172.66423">
        <ele>71.7</ele>
        <time>2021-01-31T08:56:09.000Z</time>
      </trkpt>
      <trkpt lat="-43.61354" lon="172.66429">
        <ele>71.6</ele>
        <time>2021-01-31T08:56:09.000Z</time>
      </trkpt>
      <trkpt lat="-43.61354" lon="172.66434">
        <ele>71.6</ele>
        <time>2021-01-31T08:56:09.000Z</time>
      </trkpt>
      <trkpt lat="-43.6135499" lon="172.66441">
        <ele>71.3</ele>
        <time>2021-01-31T08:56:10.000Z</time>
      </trkpt>
      <trkpt lat="-43.61356" lon="172.66447">
        <ele>71</ele>
        <time>2021-01-31T08:56:10.000Z</time>
      </trkpt>
      <trkpt lat="-43.61357" lon="172.66453">
        <ele>70.6</ele>
        <time>2021-01-31T08:56:10.000Z</time>
      </trkpt>
      <trkpt lat="-43.61359" lon="172.6646">
        <ele>70</ele>
        <time>2021-01-31T08:56:11.000Z</time>
      </trkpt>
      <trkpt lat="-43.6136399" lon="172.66477">
        <ele>68.1</ele>
        <time>2021-01-31T08:56:12.000Z</time>
      </trkpt>
      <trkpt lat="-43.61366" lon="172.66485">
        <ele>67.2</ele>
        <time>2021-01-31T08:56:13.000Z</time>
      </trkpt>
      <trkpt lat="-43.61367" lon="172.66494">
        <ele>66.5</ele>
        <time>2021-01-31T08:56:14.000Z</time>
      </trkpt>
      <trkpt lat="-43.61368" lon="172.66499">
        <ele>66</ele>
        <time>2021-01-31T08:56:14.000Z</time>
      </trkpt>
      <trkpt lat="-43.61368" lon="172.66505">
        <ele>64.9</ele>
        <time>2021-01-31T08:56:14.000Z</time>
      </trkpt>
      <trkpt lat="-43.61368" lon="172.66512">
        <ele>63.5</ele>
        <time>2021-01-31T08:56:15.000Z</time>
      </trkpt>
      <trkpt lat="-43.61368" lon="172.66521">
        <ele>61.8</ele>
        <time>2021-01-31T08:56:16.000Z</time>
      </trkpt>
      <trkpt lat="-43.61367" lon="172.66528">
        <ele>60.7</ele>
        <time>2021-01-31T08:56:17.000Z</time>
      </trkpt>
      <trkpt lat="-43.61366" lon="172.66533">
        <ele>60.1</ele>
        <time>2021-01-31T08:56:17.000Z</time>
      </trkpt>
      <trkpt lat="-43.6136399" lon="172.66538">
        <ele>59.7</ele>
        <time>2021-01-31T08:56:17.000Z</time>
      </trkpt>
      <trkpt lat="-43.61362" lon="172.6654299">
        <ele>59.4</ele>
        <time>2021-01-31T08:56:17.000Z</time>
      </trkpt>
      <trkpt lat="-43.61361" lon="172.66546">
        <ele>59.2</ele>
        <time>2021-01-31T08:56:17.000Z</time>
      </trkpt>
      <trkpt lat="-43.61359" lon="172.6655">
        <ele>59.1</ele>
        <time>2021-01-31T08:56:17.000Z</time>
      </trkpt>
      <trkpt lat="-43.61357" lon="172.66553">
        <ele>59.1</ele>
        <time>2021-01-31T08:56:17.000Z</time>
      </trkpt>
      <trkpt lat="-43.6135499" lon="172.66556">
        <ele>59.2</ele>
        <time>2021-01-31T08:56:17.000Z</time>
      </trkpt>
      <trkpt lat="-43.61352" lon="172.6656">
        <ele>59.4</ele>
        <time>2021-01-31T08:56:17.000Z</time>
      </trkpt>
      <trkpt lat="-43.61348" lon="172.66565">
        <ele>59.8</ele>
        <time>2021-01-31T08:56:18.000Z</time>
      </trkpt>
      <trkpt lat="-43.61345" lon="172.66568">
        <ele>60.2</ele>
        <time>2021-01-31T08:56:18.000Z</time>
      </trkpt>
      <trkpt lat="-43.61341" lon="172.66571">
        <ele>60.9</ele>
        <time>2021-01-31T08:56:19.000Z</time>
      </trkpt>
      <trkpt lat="-43.61338" lon="172.66573">
        <ele>61.5</ele>
        <time>2021-01-31T08:56:19.000Z</time>
      </trkpt>
      <trkpt lat="-43.61336" lon="172.66575">
        <ele>61.8</ele>
        <time>2021-01-31T08:56:19.000Z</time>
      </trkpt>
      <trkpt lat="-43.61332" lon="172.66578">
        <ele>62.4</ele>
        <time>2021-01-31T08:56:20.000Z</time>
      </trkpt>
      <trkpt lat="-43.61327" lon="172.66581">
        <ele>63.1</ele>
        <time>2021-01-31T08:56:21.000Z</time>
      </trkpt>
      <trkpt lat="-43.6132" lon="172.66585">
        <ele>63.9</ele>
        <time>2021-01-31T08:56:22.000Z</time>
      </trkpt>
      <trkpt lat="-43.61316" lon="172.66587">
        <ele>64.3</ele>
        <time>2021-01-31T08:56:22.000Z</time>
      </trkpt>
      <trkpt lat="-43.61287" lon="172.66603">
        <ele>66.2</ele>
        <time>2021-01-31T08:56:25.000Z</time>
      </trkpt>
      <trkpt lat="-43.61252" lon="172.66622">
        <ele>67.6</ele>
        <time>2021-01-31T08:56:29.000Z</time>
      </trkpt>
      <trkpt lat="-43.61226" lon="172.66636">
        <ele>66.7</ele>
        <time>2021-01-31T08:56:32.000Z</time>
      </trkpt>
      <trkpt lat="-43.6118499" lon="172.66656">
        <ele>64.9</ele>
        <time>2021-01-31T08:56:37.000Z</time>
      </trkpt>
      <trkpt lat="-43.61169" lon="172.66665">
        <ele>63.4</ele>
        <time>2021-01-31T08:56:39.000Z</time>
      </trkpt>
      <trkpt lat="-43.61152" lon="172.66674">
        <ele>64</ele>
        <time>2021-01-31T08:56:41.000Z</time>
      </trkpt>
      <trkpt lat="-43.61134" lon="172.66684">
        <ele>65</ele>
        <time>2021-01-31T08:56:43.000Z</time>
      </trkpt>
      <trkpt lat="-43.61116" lon="172.66693">
        <ele>66.2</ele>
        <time>2021-01-31T08:56:45.000Z</time>
      </trkpt>
      <trkpt lat="-43.61112" lon="172.66695">
        <ele>66.5</ele>
        <time>2021-01-31T08:56:45.000Z</time>
      </trkpt>
      <trkpt lat="-43.61104" lon="172.66699">
        <ele>67</ele>
        <time>2021-01-31T08:56:46.000Z</time>
      </trkpt>
      <trkpt lat="-43.611" lon="172.66701">
        <ele>67.3</ele>
        <time>2021-01-31T08:56:46.000Z</time>
      </trkpt>
      <trkpt lat="-43.61098" lon="172.66703">
        <ele>67.3</ele>
        <time>2021-01-31T08:56:46.000Z</time>
      </trkpt>
      <trkpt lat="-43.61094" lon="172.66706">
        <ele>67.5</ele>
        <time>2021-01-31T08:56:47.000Z</time>
      </trkpt>
      <trkpt lat="-43.6109099" lon="172.66709">
        <ele>67.5</ele>
        <time>2021-01-31T08:56:47.000Z</time>
      </trkpt>
      <trkpt lat="-43.61089" lon="172.6671299">
        <ele>67.3</ele>
        <time>2021-01-31T08:56:47.000Z</time>
      </trkpt>
      <trkpt lat="-43.61087" lon="172.66719">
        <ele>66.9</ele>
        <time>2021-01-31T08:56:48.000Z</time>
      </trkpt>
      <trkpt lat="-43.61085" lon="172.66725">
        <ele>66.5</ele>
        <time>2021-01-31T08:56:49.000Z</time>
      </trkpt>
      <trkpt lat="-43.61084" lon="172.6673">
        <ele>66.1</ele>
        <time>2021-01-31T08:56:49.000Z</time>
      </trkpt>
      <trkpt lat="-43.61084" lon="172.66738">
        <ele>65.2</ele>
        <time>2021-01-31T08:56:50.000Z</time>
      </trkpt>
      <trkpt lat="-43.61084" lon="172.66744">
        <ele>64.6</ele>
        <time>2021-01-31T08:56:50.000Z</time>
      </trkpt>
      <trkpt lat="-43.61086" lon="172.6675">
        <ele>63.7</ele>
        <time>2021-01-31T08:56:51.000Z</time>
      </trkpt>
      <trkpt lat="-43.61088" lon="172.66757">
        <ele>64.5</ele>
        <time>2021-01-31T08:56:52.000Z</time>
      </trkpt>
      <trkpt lat="-43.6109099" lon="172.66762">
        <ele>64.9</ele>
        <time>2021-01-31T08:56:53.000Z</time>
      </trkpt>
      <trkpt lat="-43.61094" lon="172.6676699">
        <ele>65.3</ele>
        <time>2021-01-31T08:56:54.000Z</time>
      </trkpt>
      <trkpt lat="-43.61097" lon="172.66771">
        <ele>65.6</ele>
        <time>2021-01-31T08:56:54.000Z</time>
      </trkpt>
      <trkpt lat="-43.611" lon="172.66774">
        <ele>65.7</ele>
        <time>2021-01-31T08:56:54.000Z</time>
      </trkpt>
      <trkpt lat="-43.61102" lon="172.66775">
        <ele>65.7</ele>
        <time>2021-01-31T08:56:54.000Z</time>
      </trkpt>
      <trkpt lat="-43.61105" lon="172.66777">
        <ele>65.7</ele>
        <time>2021-01-31T08:56:54.000Z</time>
      </trkpt>
      <trkpt lat="-43.61112" lon="172.6678">
        <ele>65.5</ele>
        <time>2021-01-31T08:56:55.000Z</time>
      </trkpt>
      <trkpt lat="-43.61122" lon="172.66782">
        <ele>64.9</ele>
        <time>2021-01-31T08:56:56.000Z</time>
      </trkpt>
      <trkpt lat="-43.61169" lon="172.66793">
        <ele>62.4</ele>
        <time>2021-01-31T08:57:01.000Z</time>
      </trkpt>
      <trkpt lat="-43.61175" lon="172.66795">
        <ele>61.9</ele>
        <time>2021-01-31T08:57:02.000Z</time>
      </trkpt>
      <trkpt lat="-43.6118" lon="172.66797">
        <ele>61.5</ele>
        <time>2021-01-31T08:57:03.000Z</time>
      </trkpt>
      <trkpt lat="-43.61187" lon="172.668">
        <ele>61</ele>
        <time>2021-01-31T08:57:04.000Z</time>
      </trkpt>
      <trkpt lat="-43.61193" lon="172.6680299">
        <ele>60.6</ele>
        <time>2021-01-31T08:57:05.000Z</time>
      </trkpt>
      <trkpt lat="-43.61198" lon="172.66807">
        <ele>60.6</ele>
        <time>2021-01-31T08:57:06.000Z</time>
      </trkpt>
      <trkpt lat="-43.61204" lon="172.66811">
        <ele>60.3</ele>
        <time>2021-01-31T08:57:07.000Z</time>
      </trkpt>
      <trkpt lat="-43.61209" lon="172.66815">
        <ele>60.2</ele>
        <time>2021-01-31T08:57:08.000Z</time>
      </trkpt>
      <trkpt lat="-43.61218" lon="172.66824">
        <ele>60.2</ele>
        <time>2021-01-31T08:57:09.000Z</time>
      </trkpt>
      <trkpt lat="-43.61221" lon="172.66827">
        <ele>60.2</ele>
        <time>2021-01-31T08:57:09.000Z</time>
      </trkpt>
      <trkpt lat="-43.61224" lon="172.66832">
        <ele>60.5</ele>
        <time>2021-01-31T08:57:10.000Z</time>
      </trkpt>
      <trkpt lat="-43.61228" lon="172.66837">
        <ele>60.2</ele>
        <time>2021-01-31T08:57:11.000Z</time>
      </trkpt>
      <trkpt lat="-43.61231" lon="172.66843">
        <ele>59.9</ele>
        <time>2021-01-31T08:57:12.000Z</time>
      </trkpt>
      <trkpt lat="-43.61234" lon="172.6685">
        <ele>59.6</ele>
        <time>2021-01-31T08:57:13.000Z</time>
      </trkpt>
      <trkpt lat="-43.61236" lon="172.66854">
        <ele>59.3</ele>
        <time>2021-01-31T08:57:13.000Z</time>
      </trkpt>
      <trkpt lat="-43.61237" lon="172.66859">
        <ele>59.3</ele>
        <time>2021-01-31T08:57:13.000Z</time>
      </trkpt>
      <trkpt lat="-43.61239" lon="172.66867">
        <ele>59</ele>
        <time>2021-01-31T08:57:14.000Z</time>
      </trkpt>
      <trkpt lat="-43.61239" lon="172.66876">
        <ele>59.3</ele>
        <time>2021-01-31T08:57:15.000Z</time>
      </trkpt>
      <trkpt lat="-43.61239" lon="172.66885">
        <ele>59.5</ele>
        <time>2021-01-31T08:57:16.000Z</time>
      </trkpt>
      <trkpt lat="-43.61237" lon="172.66898">
        <ele>60.6</ele>
        <time>2021-01-31T08:57:17.000Z</time>
      </trkpt>
      <trkpt lat="-43.61234" lon="172.66912">
        <ele>62.3</ele>
        <time>2021-01-31T08:57:18.000Z</time>
      </trkpt>
      <trkpt lat="-43.61228" lon="172.66932">
        <ele>64</ele>
        <time>2021-01-31T08:57:20.000Z</time>
      </trkpt>
      <trkpt lat="-43.61225" lon="172.66944">
        <ele>64.4</ele>
        <time>2021-01-31T08:57:21.000Z</time>
      </trkpt>
      <trkpt lat="-43.61222" lon="172.66956">
        <ele>64.7</ele>
        <time>2021-01-31T08:57:22.000Z</time>
      </trkpt>
      <trkpt lat="-43.61215" lon="172.66974">
        <ele>66.3</ele>
        <time>2021-01-31T08:57:24.000Z</time>
      </trkpt>
      <trkpt lat="-43.61212" lon="172.66981">
        <ele>66.9</ele>
        <time>2021-01-31T08:57:25.000Z</time>
      </trkpt>
      <trkpt lat="-43.61206" lon="172.66995">
        <ele>68.3</ele>
        <time>2021-01-31T08:57:26.000Z</time>
      </trkpt>
      <trkpt lat="-43.61202" lon="172.67004">
        <ele>68.8</ele>
        <time>2021-01-31T08:57:27.000Z</time>
      </trkpt>
      <trkpt lat="-43.612" lon="172.67008">
        <ele>69</ele>
        <time>2021-01-31T08:57:27.000Z</time>
      </trkpt>
      <trkpt lat="-43.61196" lon="172.67015">
        <ele>69.5</ele>
        <time>2021-01-31T08:57:28.000Z</time>
      </trkpt>
      <trkpt lat="-43.61191" lon="172.67024">
        <ele>70.1</ele>
        <time>2021-01-31T08:57:29.000Z</time>
      </trkpt>
      <trkpt lat="-43.61166" lon="172.67065">
        <ele>73.9</ele>
        <time>2021-01-31T08:57:33.000Z</time>
      </trkpt>
      <trkpt lat="-43.6115799" lon="172.6708">
        <ele>74.8</ele>
        <time>2021-01-31T08:57:35.000Z</time>
      </trkpt>
      <trkpt lat="-43.61154" lon="172.67091">
        <ele>75.9</ele>
        <time>2021-01-31T08:57:36.000Z</time>
      </trkpt>
      <trkpt lat="-43.61152" lon="172.67097">
        <ele>76.7</ele>
        <time>2021-01-31T08:57:37.000Z</time>
      </trkpt>
      <trkpt lat="-43.6115" lon="172.67102">
        <ele>77.4</ele>
        <time>2021-01-31T08:57:37.000Z</time>
      </trkpt>
      <trkpt lat="-43.61149" lon="172.67106">
        <ele>77.8</ele>
        <time>2021-01-31T08:57:37.000Z</time>
      </trkpt>
      <trkpt lat="-43.61148" lon="172.67114">
        <ele>78.2</ele>
        <time>2021-01-31T08:57:38.000Z</time>
      </trkpt>
      <trkpt lat="-43.61148" lon="172.67121">
        <ele>78.2</ele>
        <time>2021-01-31T08:57:39.000Z</time>
      </trkpt>
      <trkpt lat="-43.61148" lon="172.67129">
        <ele>78.2</ele>
        <time>2021-01-31T08:57:40.000Z</time>
      </trkpt>
      <trkpt lat="-43.61149" lon="172.67136">
        <ele>77.8</ele>
        <time>2021-01-31T08:57:41.000Z</time>
      </trkpt>
      <trkpt lat="-43.6115" lon="172.67142">
        <ele>77.5</ele>
        <time>2021-01-31T08:57:41.000Z</time>
      </trkpt>
      <trkpt lat="-43.61151" lon="172.67146">
        <ele>77.2</ele>
        <time>2021-01-31T08:57:41.000Z</time>
      </trkpt>
      <trkpt lat="-43.61165" lon="172.67185">
        <ele>71.7</ele>
        <time>2021-01-31T08:57:45.000Z</time>
      </trkpt>
      <trkpt lat="-43.61166" lon="172.6719">
        <ele>70.9</ele>
        <time>2021-01-31T08:57:45.000Z</time>
      </trkpt>
      <trkpt lat="-43.6116699" lon="172.67195">
        <ele>70.1</ele>
        <time>2021-01-31T08:57:45.000Z</time>
      </trkpt>
      <trkpt lat="-43.6116699" lon="172.67201">
        <ele>69.6</ele>
        <time>2021-01-31T08:57:45.000Z</time>
      </trkpt>
      <trkpt lat="-43.6116699" lon="172.6720599">
        <ele>69.1</ele>
        <time>2021-01-31T08:57:45.000Z</time>
      </trkpt>
      <trkpt lat="-43.6116699" lon="172.6721">
        <ele>68.7</ele>
        <time>2021-01-31T08:57:45.000Z</time>
      </trkpt>
      <trkpt lat="-43.61165" lon="172.6721499">
        <ele>68.7</ele>
        <time>2021-01-31T08:57:45.000Z</time>
      </trkpt>
      <trkpt lat="-43.61164" lon="172.67219">
        <ele>68.6</ele>
        <time>2021-01-31T08:57:45.000Z</time>
      </trkpt>
      <trkpt lat="-43.61163" lon="172.67223">
        <ele>68.4</ele>
        <time>2021-01-31T08:57:45.000Z</time>
      </trkpt>
      <trkpt lat="-43.61161" lon="172.67227">
        <ele>68.4</ele>
        <time>2021-01-31T08:57:45.000Z</time>
      </trkpt>
      <trkpt lat="-43.61159" lon="172.67231">
        <ele>68.4</ele>
        <time>2021-01-31T08:57:45.000Z</time>
      </trkpt>
      <trkpt lat="-43.61156" lon="172.67235">
        <ele>68.6</ele>
        <time>2021-01-31T08:57:45.000Z</time>
      </trkpt>
      <trkpt lat="-43.61153" lon="172.6724">
        <ele>68.7</ele>
        <time>2021-01-31T08:57:46.000Z</time>
      </trkpt>
      <trkpt lat="-43.6115" lon="172.67243">
        <ele>69</ele>
        <time>2021-01-31T08:57:46.000Z</time>
      </trkpt>
      <trkpt lat="-43.61145" lon="172.67247">
        <ele>69.5</ele>
        <time>2021-01-31T08:57:47.000Z</time>
      </trkpt>
      <trkpt lat="-43.6113799" lon="172.67252">
        <ele>69.9</ele>
        <time>2021-01-31T08:57:48.000Z</time>
      </trkpt>
      <trkpt lat="-43.61134" lon="172.67255">
        <ele>69.7</ele>
        <time>2021-01-31T08:57:49.000Z</time>
      </trkpt>
      <trkpt lat="-43.6113" lon="172.67257">
        <ele>69.8</ele>
        <time>2021-01-31T08:57:49.000Z</time>
      </trkpt>
      <trkpt lat="-43.61121" lon="172.67262">
        <ele>70</ele>
        <time>2021-01-31T08:57:50.000Z</time>
      </trkpt>
      <trkpt lat="-43.61113" lon="172.67265">
        <ele>70.6</ele>
        <time>2021-01-31T08:57:51.000Z</time>
      </trkpt>
      <trkpt lat="-43.61107" lon="172.67267">
        <ele>71.2</ele>
        <time>2021-01-31T08:57:52.000Z</time>
      </trkpt>
      <trkpt lat="-43.61102" lon="172.67269">
        <ele>71.6</ele>
        <time>2021-01-31T08:57:53.000Z</time>
      </trkpt>
      <trkpt lat="-43.61093" lon="172.6727">
        <ele>73.1</ele>
        <time>2021-01-31T08:57:54.000Z</time>
      </trkpt>
      <trkpt lat="-43.61085" lon="172.67271">
        <ele>74.4</ele>
        <time>2021-01-31T08:57:55.000Z</time>
      </trkpt>
      <trkpt lat="-43.61081" lon="172.67271">
        <ele>74.8</ele>
        <time>2021-01-31T08:57:55.000Z</time>
      </trkpt>
      <trkpt lat="-43.61076" lon="172.67271">
        <ele>74.9</ele>
        <time>2021-01-31T08:57:56.000Z</time>
      </trkpt>
      <trkpt lat="-43.6107299" lon="172.67271">
        <ele>75</ele>
        <time>2021-01-31T08:57:56.000Z</time>
      </trkpt>
      <trkpt lat="-43.61068" lon="172.6727">
        <ele>75.4</ele>
        <time>2021-01-31T08:57:57.000Z</time>
      </trkpt>
      <trkpt lat="-43.61059" lon="172.67268">
        <ele>76.2</ele>
        <time>2021-01-31T08:57:58.000Z</time>
      </trkpt>
      <trkpt lat="-43.61033" lon="172.67261">
        <ele>79</ele>
        <time>2021-01-31T08:58:01.000Z</time>
      </trkpt>
      <trkpt lat="-43.61029" lon="172.6726">
        <ele>79.4</ele>
        <time>2021-01-31T08:58:01.000Z</time>
      </trkpt>
      <trkpt lat="-43.61023" lon="172.67259">
        <ele>79.8</ele>
        <time>2021-01-31T08:58:02.000Z</time>
      </trkpt>
      <trkpt lat="-43.61019" lon="172.67259">
        <ele>79.9</ele>
        <time>2021-01-31T08:58:02.000Z</time>
      </trkpt>
      <trkpt lat="-43.61015" lon="172.6726">
        <ele>79.7</ele>
        <time>2021-01-31T08:58:02.000Z</time>
      </trkpt>
      <trkpt lat="-43.6101" lon="172.67261">
        <ele>79.6</ele>
        <time>2021-01-31T08:58:03.000Z</time>
      </trkpt>
      <trkpt lat="-43.61006" lon="172.67262">
        <ele>79.4</ele>
        <time>2021-01-31T08:58:03.000Z</time>
      </trkpt>
      <trkpt lat="-43.61004" lon="172.67264">
        <ele>78.9</ele>
        <time>2021-01-31T08:58:03.000Z</time>
      </trkpt>
      <trkpt lat="-43.61" lon="172.67266">
        <ele>78.4</ele>
        <time>2021-01-31T08:58:03.000Z</time>
      </trkpt>
      <trkpt lat="-43.60996" lon="172.67269">
        <ele>78.2</ele>
        <time>2021-01-31T08:58:04.000Z</time>
      </trkpt>
      <trkpt lat="-43.60983" lon="172.67284">
        <ele>75.8</ele>
        <time>2021-01-31T08:58:06.000Z</time>
      </trkpt>
      <trkpt lat="-43.6098" lon="172.67287">
        <ele>75.4</ele>
        <time>2021-01-31T08:58:06.000Z</time>
      </trkpt>
      <trkpt lat="-43.60975" lon="172.67291">
        <ele>74.9</ele>
        <time>2021-01-31T08:58:07.000Z</time>
      </trkpt>
      <trkpt lat="-43.6096999" lon="172.67294">
        <ele>74.8</ele>
        <time>2021-01-31T08:58:08.000Z</time>
      </trkpt>
      <trkpt lat="-43.60966" lon="172.67297">
        <ele>74.5</ele>
        <time>2021-01-31T08:58:09.000Z</time>
      </trkpt>
      <trkpt lat="-43.60962" lon="172.67298">
        <ele>74.8</ele>
        <time>2021-01-31T08:58:09.000Z</time>
      </trkpt>
      <trkpt lat="-43.60959" lon="172.673">
        <ele>74.6</ele>
        <time>2021-01-31T08:58:09.000Z</time>
      </trkpt>
      <trkpt lat="-43.60946" lon="172.6730399">
        <ele>75.3</ele>
        <time>2021-01-31T08:58:10.000Z</time>
      </trkpt>
      <trkpt lat="-43.6094" lon="172.67305">
        <ele>75.8</ele>
        <time>2021-01-31T08:58:11.000Z</time>
      </trkpt>
      <trkpt lat="-43.60931" lon="172.67306">
        <ele>76.8</ele>
        <time>2021-01-31T08:58:12.000Z</time>
      </trkpt>
      <trkpt lat="-43.60917" lon="172.67306">
        <ele>78.8</ele>
        <time>2021-01-31T08:58:14.000Z</time>
      </trkpt>
      <trkpt lat="-43.60904" lon="172.67306">
        <ele>80.1</ele>
        <time>2021-01-31T08:58:15.000Z</time>
      </trkpt>
      <trkpt lat="-43.60879" lon="172.6730399">
        <ele>83.2</ele>
        <time>2021-01-31T08:58:18.000Z</time>
      </trkpt>
      <trkpt lat="-43.60869" lon="172.67302">
        <ele>84.7</ele>
        <time>2021-01-31T08:58:19.000Z</time>
      </trkpt>
      <trkpt lat="-43.60866" lon="172.67302">
        <ele>85</ele>
        <time>2021-01-31T08:58:19.000Z</time>
      </trkpt>
      <trkpt lat="-43.60862" lon="172.67301">
        <ele>85.7</ele>
        <time>2021-01-31T08:58:19.000Z</time>
      </trkpt>
      <trkpt lat="-43.60857" lon="172.67301">
        <ele>86.1</ele>
        <time>2021-01-31T08:58:20.000Z</time>
      </trkpt>
      <trkpt lat="-43.60853" lon="172.67302">
        <ele>86.3</ele>
        <time>2021-01-31T08:58:20.000Z</time>
      </trkpt>
      <trkpt lat="-43.60849" lon="172.67303">
        <ele>86.4</ele>
        <time>2021-01-31T08:58:20.000Z</time>
      </trkpt>
      <trkpt lat="-43.60845" lon="172.67305">
        <ele>86.3</ele>
        <time>2021-01-31T08:58:20.000Z</time>
      </trkpt>
      <trkpt lat="-43.60841" lon="172.67306">
        <ele>86.5</ele>
        <time>2021-01-31T08:58:20.000Z</time>
      </trkpt>
      <trkpt lat="-43.6083799" lon="172.67308">
        <ele>86.3</ele>
        <time>2021-01-31T08:58:20.000Z</time>
      </trkpt>
      <trkpt lat="-43.60835" lon="172.6731">
        <ele>86.1</ele>
        <time>2021-01-31T08:58:20.000Z</time>
      </trkpt>
      <trkpt lat="-43.60832" lon="172.67312">
        <ele>86.3</ele>
        <time>2021-01-31T08:58:20.000Z</time>
      </trkpt>
      <trkpt lat="-43.6083" lon="172.67315">
        <ele>86.3</ele>
        <time>2021-01-31T08:58:20.000Z</time>
      </trkpt>
      <trkpt lat="-43.60826" lon="172.67319">
        <ele>86.8</ele>
        <time>2021-01-31T08:58:21.000Z</time>
      </trkpt>
      <trkpt lat="-43.60823" lon="172.67324">
        <ele>86.7</ele>
        <time>2021-01-31T08:58:22.000Z</time>
      </trkpt>
      <trkpt lat="-43.6081999" lon="172.67328">
        <ele>86.9</ele>
        <time>2021-01-31T08:58:22.000Z</time>
      </trkpt>
      <trkpt lat="-43.60817" lon="172.67335">
        <ele>86.6</ele>
        <time>2021-01-31T08:58:23.000Z</time>
      </trkpt>
      <trkpt lat="-43.60815" lon="172.67346">
        <ele>85.8</ele>
        <time>2021-01-31T08:58:24.000Z</time>
      </trkpt>
      <trkpt lat="-43.60814" lon="172.67351">
        <ele>85.5</ele>
        <time>2021-01-31T08:58:24.000Z</time>
      </trkpt>
      <trkpt lat="-43.60813" lon="172.6735799">
        <ele>84.8</ele>
        <time>2021-01-31T08:58:25.000Z</time>
      </trkpt>
      <trkpt lat="-43.60813" lon="172.67363">
        <ele>84.1</ele>
        <time>2021-01-31T08:58:25.000Z</time>
      </trkpt>
      <trkpt lat="-43.60812" lon="172.6737">
        <ele>83.5</ele>
        <time>2021-01-31T08:58:26.000Z</time>
      </trkpt>
      <trkpt lat="-43.60809" lon="172.67393">
        <ele>81.3</ele>
        <time>2021-01-31T08:58:28.000Z</time>
      </trkpt>
      <trkpt lat="-43.60805" lon="172.67409">
        <ele>80.3</ele>
        <time>2021-01-31T08:58:29.000Z</time>
      </trkpt>
      <trkpt lat="-43.60802" lon="172.67424">
        <ele>79</ele>
        <time>2021-01-31T08:58:30.000Z</time>
      </trkpt>
      <trkpt lat="-43.60798" lon="172.67435">
        <ele>78.5</ele>
        <time>2021-01-31T08:58:31.000Z</time>
      </trkpt>
      <trkpt lat="-43.60797" lon="172.67436">
        <ele>78.7</ele>
        <time>2021-01-31T08:58:31.000Z</time>
      </trkpt>
      <trkpt lat="-43.6079" lon="172.6745">
        <ele>78.4</ele>
        <time>2021-01-31T08:58:32.000Z</time>
      </trkpt>
      <trkpt lat="-43.6078199" lon="172.67464">
        <ele>78</ele>
        <time>2021-01-31T08:58:33.000Z</time>
      </trkpt>
      <trkpt lat="-43.60729" lon="172.67532">
        <ele>74.3</ele>
        <time>2021-01-31T08:58:41.000Z</time>
      </trkpt>
      <trkpt lat="-43.60723" lon="172.6754">
        <ele>73.6</ele>
        <time>2021-01-31T08:58:42.000Z</time>
      </trkpt>
      <trkpt lat="-43.60717" lon="172.6754599">
        <ele>73.2</ele>
        <time>2021-01-31T08:58:43.000Z</time>
      </trkpt>
      <trkpt lat="-43.60712" lon="172.6755">
        <ele>73.1</ele>
        <time>2021-01-31T08:58:44.000Z</time>
      </trkpt>
      <trkpt lat="-43.60706" lon="172.67553">
        <ele>73.3</ele>
        <time>2021-01-31T08:58:45.000Z</time>
      </trkpt>
      <trkpt lat="-43.607" lon="172.67556">
        <ele>73.6</ele>
        <time>2021-01-31T08:58:46.000Z</time>
      </trkpt>
      <trkpt lat="-43.60687" lon="172.67559">
        <ele>74.8</ele>
        <time>2021-01-31T08:58:47.000Z</time>
      </trkpt>
      <trkpt lat="-43.6067899" lon="172.67561">
        <ele>75.6</ele>
        <time>2021-01-31T08:58:48.000Z</time>
      </trkpt>
      <trkpt lat="-43.60673" lon="172.67563">
        <ele>76</ele>
        <time>2021-01-31T08:58:49.000Z</time>
      </trkpt>
      <trkpt lat="-43.60666" lon="172.67567">
        <ele>76.3</ele>
        <time>2021-01-31T08:58:50.000Z</time>
      </trkpt>
      <trkpt lat="-43.6066" lon="172.67572">
        <ele>76.6</ele>
        <time>2021-01-31T08:58:51.000Z</time>
      </trkpt>
      <trkpt lat="-43.60655" lon="172.67577">
        <ele>76.7</ele>
        <time>2021-01-31T08:58:52.000Z</time>
      </trkpt>
      <trkpt lat="-43.60649" lon="172.67583">
        <ele>76.9</ele>
        <time>2021-01-31T08:58:53.000Z</time>
      </trkpt>
      <trkpt lat="-43.60644" lon="172.67592">
        <ele>76.6</ele>
        <time>2021-01-31T08:58:54.000Z</time>
      </trkpt>
      <trkpt lat="-43.60639" lon="172.67601">
        <ele>76.2</ele>
        <time>2021-01-31T08:58:55.000Z</time>
      </trkpt>
      <trkpt lat="-43.60634" lon="172.67611">
        <ele>75.6</ele>
        <time>2021-01-31T08:58:56.000Z</time>
      </trkpt>
      <trkpt lat="-43.6063" lon="172.67624">
        <ele>74.3</ele>
        <time>2021-01-31T08:58:57.000Z</time>
      </trkpt>
      <trkpt lat="-43.60627" lon="172.67633">
        <ele>73.3</ele>
        <time>2021-01-31T08:58:58.000Z</time>
      </trkpt>
      <trkpt lat="-43.60622" lon="172.67644">
        <ele>72.3</ele>
        <time>2021-01-31T08:58:59.000Z</time>
      </trkpt>
      <trkpt lat="-43.60618" lon="172.67653">
        <ele>71.4</ele>
        <time>2021-01-31T08:59:00.000Z</time>
      </trkpt>
      <trkpt lat="-43.60606" lon="172.67671">
        <ele>70</ele>
        <time>2021-01-31T08:59:02.000Z</time>
      </trkpt>
      <trkpt lat="-43.6059399" lon="172.67686">
        <ele>69.4</ele>
        <time>2021-01-31T08:59:04.000Z</time>
      </trkpt>
      <trkpt lat="-43.60584" lon="172.67695">
        <ele>69.5</ele>
        <time>2021-01-31T08:59:05.000Z</time>
      </trkpt>
      <trkpt lat="-43.60575" lon="172.67703">
        <ele>68.9</ele>
        <time>2021-01-31T08:59:06.000Z</time>
      </trkpt>
      <trkpt lat="-43.60567" lon="172.67709">
        <ele>68.4</ele>
        <time>2021-01-31T08:59:07.000Z</time>
      </trkpt>
      <trkpt lat="-43.6056" lon="172.67712">
        <ele>68.2</ele>
        <time>2021-01-31T08:59:08.000Z</time>
      </trkpt>
      <trkpt lat="-43.60551" lon="172.6771599">
        <ele>68</ele>
        <time>2021-01-31T08:59:09.000Z</time>
      </trkpt>
      <trkpt lat="-43.60541" lon="172.67719">
        <ele>67.9</ele>
        <time>2021-01-31T08:59:10.000Z</time>
      </trkpt>
      <trkpt lat="-43.60524" lon="172.67723">
        <ele>67.8</ele>
        <time>2021-01-31T08:59:12.000Z</time>
      </trkpt>
      <trkpt lat="-43.60512" lon="172.67726">
        <ele>67.6</ele>
        <time>2021-01-31T08:59:13.000Z</time>
      </trkpt>
      <trkpt lat="-43.60497" lon="172.6773">
        <ele>67.3</ele>
        <time>2021-01-31T08:59:15.000Z</time>
      </trkpt>
      <trkpt lat="-43.6049" lon="172.67733">
        <ele>67</ele>
        <time>2021-01-31T08:59:16.000Z</time>
      </trkpt>
      <trkpt lat="-43.6048199" lon="172.67738">
        <ele>66.3</ele>
        <time>2021-01-31T08:59:17.000Z</time>
      </trkpt>
      <trkpt lat="-43.60476" lon="172.67742">
        <ele>65.7</ele>
        <time>2021-01-31T08:59:18.000Z</time>
      </trkpt>
      <trkpt lat="-43.6047" lon="172.67748">
        <ele>64.7</ele>
        <time>2021-01-31T08:59:19.000Z</time>
      </trkpt>
      <trkpt lat="-43.60464" lon="172.67754">
        <ele>63.9</ele>
        <time>2021-01-31T08:59:20.000Z</time>
      </trkpt>
      <trkpt lat="-43.60459" lon="172.67763">
        <ele>62.8</ele>
        <time>2021-01-31T08:59:21.000Z</time>
      </trkpt>
      <trkpt lat="-43.60416" lon="172.67831">
        <ele>54.5</ele>
        <time>2021-01-31T08:59:28.000Z</time>
      </trkpt>
      <trkpt lat="-43.60411" lon="172.6784">
        <ele>53.9</ele>
        <time>2021-01-31T08:59:29.000Z</time>
      </trkpt>
      <trkpt lat="-43.6040599" lon="172.6785">
        <ele>53.4</ele>
        <time>2021-01-31T08:59:30.000Z</time>
      </trkpt>
      <trkpt lat="-43.60403" lon="172.67859">
        <ele>52.9</ele>
        <time>2021-01-31T08:59:31.000Z</time>
      </trkpt>
      <trkpt lat="-43.604" lon="172.67869">
        <ele>52.3</ele>
        <time>2021-01-31T08:59:32.000Z</time>
      </trkpt>
      <trkpt lat="-43.60396" lon="172.67885">
        <ele>51.2</ele>
        <time>2021-01-31T08:59:33.000Z</time>
      </trkpt>
      <trkpt lat="-43.60395" lon="172.67898">
        <ele>50.1</ele>
        <time>2021-01-31T08:59:34.000Z</time>
      </trkpt>
      <trkpt lat="-43.60394" lon="172.67905">
        <ele>49.5</ele>
        <time>2021-01-31T08:59:35.000Z</time>
      </trkpt>
      <trkpt lat="-43.60394" lon="172.67911">
        <ele>49</ele>
        <time>2021-01-31T08:59:35.000Z</time>
      </trkpt>
      <trkpt lat="-43.60395" lon="172.67921">
        <ele>48.4</ele>
        <time>2021-01-31T08:59:36.000Z</time>
      </trkpt>
      <trkpt lat="-43.60396" lon="172.67932">
        <ele>48.4</ele>
        <time>2021-01-31T08:59:37.000Z</time>
      </trkpt>
      <trkpt lat="-43.60398" lon="172.67946">
        <ele>48.3</ele>
        <time>2021-01-31T08:59:38.000Z</time>
      </trkpt>
      <trkpt lat="-43.604" lon="172.6795799">
        <ele>48.1</ele>
        <time>2021-01-31T08:59:39.000Z</time>
      </trkpt>
      <trkpt lat="-43.60403" lon="172.6797">
        <ele>47.7</ele>
        <time>2021-01-31T08:59:40.000Z</time>
      </trkpt>
      <trkpt lat="-43.6040599" lon="172.67982">
        <ele>47.2</ele>
        <time>2021-01-31T08:59:41.000Z</time>
      </trkpt>
      <trkpt lat="-43.60409" lon="172.67996">
        <ele>46.6</ele>
        <time>2021-01-31T08:59:42.000Z</time>
      </trkpt>
      <trkpt lat="-43.60411" lon="172.68005">
        <ele>46.6</ele>
        <time>2021-01-31T08:59:43.000Z</time>
      </trkpt>
      <trkpt lat="-43.60412" lon="172.68011">
        <ele>46.9</ele>
        <time>2021-01-31T08:59:43.000Z</time>
      </trkpt>
      <trkpt lat="-43.60412" lon="172.68018">
        <ele>47.4</ele>
        <time>2021-01-31T08:59:44.000Z</time>
      </trkpt>
      <trkpt lat="-43.60412" lon="172.68026">
        <ele>48.1</ele>
        <time>2021-01-31T08:59:45.000Z</time>
      </trkpt>
      <trkpt lat="-43.60405" lon="172.68106">
        <ele>55</ele>
        <time>2021-01-31T08:59:52.000Z</time>
      </trkpt>
      <trkpt lat="-43.60405" lon="172.68116">
        <ele>55.5</ele>
        <time>2021-01-31T08:59:53.000Z</time>
      </trkpt>
      <trkpt lat="-43.60405" lon="172.68125">
        <ele>56</ele>
        <time>2021-01-31T08:59:54.000Z</time>
      </trkpt>
      <trkpt lat="-43.60405" lon="172.68132">
        <ele>56.3</ele>
        <time>2021-01-31T08:59:55.000Z</time>
      </trkpt>
      <trkpt lat="-43.6040599" lon="172.68139">
        <ele>56.5</ele>
        <time>2021-01-31T08:59:56.000Z</time>
      </trkpt>
      <trkpt lat="-43.60407" lon="172.68147">
        <ele>56.7</ele>
        <time>2021-01-31T08:59:57.000Z</time>
      </trkpt>
      <trkpt lat="-43.60409" lon="172.68153">
        <ele>56.6</ele>
        <time>2021-01-31T08:59:58.000Z</time>
      </trkpt>
      <trkpt lat="-43.60411" lon="172.68159">
        <ele>56.6</ele>
        <time>2021-01-31T08:59:59.000Z</time>
      </trkpt>
      <trkpt lat="-43.60414" lon="172.68166">
        <ele>56.4</ele>
        <time>2021-01-31T09:00:00.000Z</time>
      </trkpt>
      <trkpt lat="-43.60419" lon="172.68175">
        <ele>56.7</ele>
        <time>2021-01-31T09:00:01.000Z</time>
      </trkpt>
      <trkpt lat="-43.6043" lon="172.68195">
        <ele>57</ele>
        <time>2021-01-31T09:00:03.000Z</time>
      </trkpt>
      <trkpt lat="-43.60432" lon="172.6819999">
        <ele>57.2</ele>
        <time>2021-01-31T09:00:03.000Z</time>
      </trkpt>
      <trkpt lat="-43.6043499" lon="172.68206">
        <ele>57.2</ele>
        <time>2021-01-31T09:00:04.000Z</time>
      </trkpt>
      <trkpt lat="-43.60436" lon="172.68212">
        <ele>57.6</ele>
        <time>2021-01-31T09:00:04.000Z</time>
      </trkpt>
      <trkpt lat="-43.60438" lon="172.68219">
        <ele>57.9</ele>
        <time>2021-01-31T09:00:05.000Z</time>
      </trkpt>
      <trkpt lat="-43.6044" lon="172.68226">
        <ele>58.1</ele>
        <time>2021-01-31T09:00:06.000Z</time>
      </trkpt>
      <trkpt lat="-43.60441" lon="172.68234">
        <ele>58.7</ele>
        <time>2021-01-31T09:00:07.000Z</time>
      </trkpt>
      <trkpt lat="-43.60441" lon="172.68241">
        <ele>59.4</ele>
        <time>2021-01-31T09:00:08.000Z</time>
      </trkpt>
      <trkpt lat="-43.60441" lon="172.68248">
        <ele>60.1</ele>
        <time>2021-01-31T09:00:09.000Z</time>
      </trkpt>
      <trkpt lat="-43.60441" lon="172.68256">
        <ele>61</ele>
        <time>2021-01-31T09:00:10.000Z</time>
      </trkpt>
      <trkpt lat="-43.60438" lon="172.68304">
        <ele>67.4</ele>
        <time>2021-01-31T09:00:14.000Z</time>
      </trkpt>
      <trkpt lat="-43.60437" lon="172.68317">
        <ele>69.2</ele>
        <time>2021-01-31T09:00:15.000Z</time>
      </trkpt>
      <trkpt lat="-43.60437" lon="172.6833">
        <ele>70.8</ele>
        <time>2021-01-31T09:00:16.000Z</time>
      </trkpt>
      <trkpt lat="-43.60437" lon="172.6834">
        <ele>72.3</ele>
        <time>2021-01-31T09:00:17.000Z</time>
      </trkpt>
      <trkpt lat="-43.60438" lon="172.68351">
        <ele>73.8</ele>
        <time>2021-01-31T09:00:18.000Z</time>
      </trkpt>
      <trkpt lat="-43.6044" lon="172.68359">
        <ele>74.6</ele>
        <time>2021-01-31T09:00:19.000Z</time>
      </trkpt>
      <trkpt lat="-43.60442" lon="172.68368">
        <ele>75.6</ele>
        <time>2021-01-31T09:00:20.000Z</time>
      </trkpt>
      <trkpt lat="-43.6044399" lon="172.68377">
        <ele>76.6</ele>
        <time>2021-01-31T09:00:21.000Z</time>
      </trkpt>
      <trkpt lat="-43.60447" lon="172.68385">
        <ele>77.2</ele>
        <time>2021-01-31T09:00:22.000Z</time>
      </trkpt>
      <trkpt lat="-43.60451" lon="172.68392">
        <ele>77.4</ele>
        <time>2021-01-31T09:00:23.000Z</time>
      </trkpt>
      <trkpt lat="-43.60454" lon="172.6839699">
        <ele>77.6</ele>
        <time>2021-01-31T09:00:24.000Z</time>
      </trkpt>
      <trkpt lat="-43.60457" lon="172.68401">
        <ele>77.5</ele>
        <time>2021-01-31T09:00:24.000Z</time>
      </trkpt>
      <trkpt lat="-43.60462" lon="172.68405">
        <ele>77</ele>
        <time>2021-01-31T09:00:25.000Z</time>
      </trkpt>
      <trkpt lat="-43.60466" lon="172.68409">
        <ele>76.7</ele>
        <time>2021-01-31T09:00:26.000Z</time>
      </trkpt>
      <trkpt lat="-43.60511" lon="172.6844">
        <ele>73.6</ele>
        <time>2021-01-31T09:00:32.000Z</time>
      </trkpt>
      <trkpt lat="-43.60521" lon="172.68447">
        <ele>73.1</ele>
        <time>2021-01-31T09:00:33.000Z</time>
      </trkpt>
      <trkpt lat="-43.60564" lon="172.68482">
        <ele>72.1</ele>
        <time>2021-01-31T09:00:39.000Z</time>
      </trkpt>
      <trkpt lat="-43.60571" lon="172.68488">
        <ele>71.9</ele>
        <time>2021-01-31T09:00:40.000Z</time>
      </trkpt>
      <trkpt lat="-43.60577" lon="172.68494">
        <ele>72</ele>
        <time>2021-01-31T09:00:41.000Z</time>
      </trkpt>
      <trkpt lat="-43.60581" lon="172.68498">
        <ele>72.1</ele>
        <time>2021-01-31T09:00:42.000Z</time>
      </trkpt>
      <trkpt lat="-43.6058499" lon="172.68503">
        <ele>71.9</ele>
        <time>2021-01-31T09:00:43.000Z</time>
      </trkpt>
      <trkpt lat="-43.60588" lon="172.68508">
        <ele>71.7</ele>
        <time>2021-01-31T09:00:44.000Z</time>
      </trkpt>
      <trkpt lat="-43.60591" lon="172.6851299">
        <ele>71.4</ele>
        <time>2021-01-31T09:00:45.000Z</time>
      </trkpt>
      <trkpt lat="-43.60593" lon="172.68517">
        <ele>71.4</ele>
        <time>2021-01-31T09:00:45.000Z</time>
      </trkpt>
      <trkpt lat="-43.60595" lon="172.68526">
        <ele>72.2</ele>
        <time>2021-01-31T09:00:46.000Z</time>
      </trkpt>
      <trkpt lat="-43.60597" lon="172.68534">
        <ele>72.8</ele>
        <time>2021-01-31T09:00:47.000Z</time>
      </trkpt>
      <trkpt lat="-43.60599" lon="172.68544">
        <ele>73.8</ele>
        <time>2021-01-31T09:00:48.000Z</time>
      </trkpt>
      <trkpt lat="-43.60599" lon="172.6855">
        <ele>74.8</ele>
        <time>2021-01-31T09:00:48.000Z</time>
      </trkpt>
      <trkpt lat="-43.60602" lon="172.68591">
        <ele>80.1</ele>
        <time>2021-01-31T09:00:51.000Z</time>
      </trkpt>
      <trkpt lat="-43.60602" lon="172.68601">
        <ele>81.2</ele>
        <time>2021-01-31T09:00:52.000Z</time>
      </trkpt>
      <trkpt lat="-43.60604" lon="172.68609">
        <ele>81.4</ele>
        <time>2021-01-31T09:00:53.000Z</time>
      </trkpt>
      <trkpt lat="-43.60606" lon="172.68618">
        <ele>81.8</ele>
        <time>2021-01-31T09:00:54.000Z</time>
      </trkpt>
      <trkpt lat="-43.60611" lon="172.6863">
        <ele>81.6</ele>
        <time>2021-01-31T09:00:55.000Z</time>
      </trkpt>
      <trkpt lat="-43.60616" lon="172.68641">
        <ele>81.5</ele>
        <time>2021-01-31T09:00:56.000Z</time>
      </trkpt>
      <trkpt lat="-43.60622" lon="172.68653">
        <ele>81.4</ele>
        <time>2021-01-31T09:00:57.000Z</time>
      </trkpt>
      <trkpt lat="-43.60638" lon="172.68682">
        <ele>80.4</ele>
        <time>2021-01-31T09:01:00.000Z</time>
      </trkpt>
      <trkpt lat="-43.60644" lon="172.6869199">
        <ele>80</ele>
        <time>2021-01-31T09:01:01.000Z</time>
      </trkpt>
      <trkpt lat="-43.60653" lon="172.68706">
        <ele>79.6</ele>
        <time>2021-01-31T09:01:03.000Z</time>
      </trkpt>
      <trkpt lat="-43.6066999" lon="172.6872799">
        <ele>79.7</ele>
        <time>2021-01-31T09:01:06.000Z</time>
      </trkpt>
      <trkpt lat="-43.60675" lon="172.68735">
        <ele>80</ele>
        <time>2021-01-31T09:01:07.000Z</time>
      </trkpt>
      <trkpt lat="-43.60677" lon="172.6874">
        <ele>80.4</ele>
        <time>2021-01-31T09:01:07.000Z</time>
      </trkpt>
      <trkpt lat="-43.60678" lon="172.68742">
        <ele>80.6</ele>
        <time>2021-01-31T09:01:07.000Z</time>
      </trkpt>
      <trkpt lat="-43.6067899" lon="172.68747">
        <ele>81.1</ele>
        <time>2021-01-31T09:01:07.000Z</time>
      </trkpt>
      <trkpt lat="-43.6067899" lon="172.6875">
        <ele>81.5</ele>
        <time>2021-01-31T09:01:07.000Z</time>
      </trkpt>
      <trkpt lat="-43.6067899" lon="172.6875499">
        <ele>80.8</ele>
        <time>2021-01-31T09:01:07.000Z</time>
      </trkpt>
      <trkpt lat="-43.60678" lon="172.68759">
        <ele>80.3</ele>
        <time>2021-01-31T09:01:07.000Z</time>
      </trkpt>
      <trkpt lat="-43.60676" lon="172.68766">
        <ele>79.6</ele>
        <time>2021-01-31T09:01:08.000Z</time>
      </trkpt>
      <trkpt lat="-43.60673" lon="172.68771">
        <ele>79.2</ele>
        <time>2021-01-31T09:01:09.000Z</time>
      </trkpt>
      <trkpt lat="-43.6066999" lon="172.68777">
        <ele>78.7</ele>
        <time>2021-01-31T09:01:10.000Z</time>
      </trkpt>
      <trkpt lat="-43.60665" lon="172.68785">
        <ele>78.1</ele>
        <time>2021-01-31T09:01:11.000Z</time>
      </trkpt>
      <trkpt lat="-43.60662" lon="172.68789">
        <ele>77.7</ele>
        <time>2021-01-31T09:01:11.000Z</time>
      </trkpt>
      <trkpt lat="-43.60656" lon="172.68797">
        <ele>77</ele>
        <time>2021-01-31T09:01:12.000Z</time>
      </trkpt>
      <trkpt lat="-43.6064999" lon="172.68802">
        <ele>76.6</ele>
        <time>2021-01-31T09:01:13.000Z</time>
      </trkpt>
      <trkpt lat="-43.60647" lon="172.68805">
        <ele>76.3</ele>
        <time>2021-01-31T09:01:13.000Z</time>
      </trkpt>
      <trkpt lat="-43.60643" lon="172.68807">
        <ele>76.3</ele>
        <time>2021-01-31T09:01:13.000Z</time>
      </trkpt>
      <trkpt lat="-43.60636" lon="172.6881">
        <ele>76.2</ele>
        <time>2021-01-31T09:01:14.000Z</time>
      </trkpt>
      <trkpt lat="-43.6063" lon="172.68811">
        <ele>76.4</ele>
        <time>2021-01-31T09:01:15.000Z</time>
      </trkpt>
      <trkpt lat="-43.60626" lon="172.68812">
        <ele>76.5</ele>
        <time>2021-01-31T09:01:15.000Z</time>
      </trkpt>
      <trkpt lat="-43.6062" lon="172.68812">
        <ele>76.9</ele>
        <time>2021-01-31T09:01:16.000Z</time>
      </trkpt>
      <trkpt lat="-43.60616" lon="172.68811">
        <ele>77.3</ele>
        <time>2021-01-31T09:01:16.000Z</time>
      </trkpt>
      <trkpt lat="-43.6060299" lon="172.68808">
        <ele>78.6</ele>
        <time>2021-01-31T09:01:17.000Z</time>
      </trkpt>
      <trkpt lat="-43.6058499" lon="172.68806">
        <ele>80.1</ele>
        <time>2021-01-31T09:01:19.000Z</time>
      </trkpt>
      <trkpt lat="-43.60578" lon="172.68805">
        <ele>80.2</ele>
        <time>2021-01-31T09:01:20.000Z</time>
      </trkpt>
      <trkpt lat="-43.60573" lon="172.68805">
        <ele>79.9</ele>
        <time>2021-01-31T09:01:21.000Z</time>
      </trkpt>
      <trkpt lat="-43.60567" lon="172.68806">
        <ele>79.4</ele>
        <time>2021-01-31T09:01:22.000Z</time>
      </trkpt>
      <trkpt lat="-43.60559" lon="172.68807">
        <ele>78.7</ele>
        <time>2021-01-31T09:01:23.000Z</time>
      </trkpt>
      <trkpt lat="-43.60553" lon="172.68808">
        <ele>78.2</ele>
        <time>2021-01-31T09:01:24.000Z</time>
      </trkpt>
      <trkpt lat="-43.60544" lon="172.68811">
        <ele>76.9</ele>
        <time>2021-01-31T09:01:25.000Z</time>
      </trkpt>
      <trkpt lat="-43.60506" lon="172.68823">
        <ele>70.8</ele>
        <time>2021-01-31T09:01:29.000Z</time>
      </trkpt>
      <trkpt lat="-43.60484" lon="172.68828">
        <ele>68.3</ele>
        <time>2021-01-31T09:01:31.000Z</time>
      </trkpt>
      <trkpt lat="-43.60473" lon="172.68829">
        <ele>67.7</ele>
        <time>2021-01-31T09:01:32.000Z</time>
      </trkpt>
      <trkpt lat="-43.60462" lon="172.68829">
        <ele>67.4</ele>
        <time>2021-01-31T09:01:33.000Z</time>
      </trkpt>
      <trkpt lat="-43.60449" lon="172.68828">
        <ele>67.4</ele>
        <time>2021-01-31T09:01:34.000Z</time>
      </trkpt>
      <trkpt lat="-43.60434" lon="172.68828">
        <ele>67</ele>
        <time>2021-01-31T09:01:36.000Z</time>
      </trkpt>
      <trkpt lat="-43.60425" lon="172.68829">
        <ele>66.5</ele>
        <time>2021-01-31T09:01:37.000Z</time>
      </trkpt>
      <trkpt lat="-43.60414" lon="172.6883">
        <ele>66.1</ele>
        <time>2021-01-31T09:01:38.000Z</time>
      </trkpt>
      <trkpt lat="-43.60413" lon="172.6883">
        <ele>66.2</ele>
        <time>2021-01-31T09:01:38.000Z</time>
      </trkpt>
      <trkpt lat="-43.60404" lon="172.68833">
        <ele>65.7</ele>
        <time>2021-01-31T09:01:39.000Z</time>
      </trkpt>
      <trkpt lat="-43.6038799" lon="172.68839">
        <ele>64.9</ele>
        <time>2021-01-31T09:01:41.000Z</time>
      </trkpt>
      <trkpt lat="-43.60376" lon="172.68846">
        <ele>63.5</ele>
        <time>2021-01-31T09:01:42.000Z</time>
      </trkpt>
      <trkpt lat="-43.60364" lon="172.6885299">
        <ele>62.2</ele>
        <time>2021-01-31T09:01:43.000Z</time>
      </trkpt>
      <trkpt lat="-43.60352" lon="172.68861">
        <ele>60.5</ele>
        <time>2021-01-31T09:01:44.000Z</time>
      </trkpt>
      <trkpt lat="-43.60343" lon="172.68868">
        <ele>59</ele>
        <time>2021-01-31T09:01:45.000Z</time>
      </trkpt>
      <trkpt lat="-43.60335" lon="172.68873">
        <ele>58</ele>
        <time>2021-01-31T09:01:46.000Z</time>
      </trkpt>
      <trkpt lat="-43.60329" lon="172.68875">
        <ele>57.8</ele>
        <time>2021-01-31T09:01:47.000Z</time>
      </trkpt>
      <trkpt lat="-43.60318" lon="172.68879">
        <ele>57.6</ele>
        <time>2021-01-31T09:01:48.000Z</time>
      </trkpt>
      <trkpt lat="-43.6031" lon="172.6887999">
        <ele>58</ele>
        <time>2021-01-31T09:01:49.000Z</time>
      </trkpt>
      <trkpt lat="-43.60302" lon="172.6887999">
        <ele>58.6</ele>
        <time>2021-01-31T09:01:50.000Z</time>
      </trkpt>
      <trkpt lat="-43.6029" lon="172.68881">
        <ele>59.3</ele>
        <time>2021-01-31T09:01:51.000Z</time>
      </trkpt>
      <trkpt lat="-43.60279" lon="172.68879">
        <ele>60.7</ele>
        <time>2021-01-31T09:01:52.000Z</time>
      </trkpt>
      <trkpt lat="-43.60273" lon="172.68879">
        <ele>61.2</ele>
        <time>2021-01-31T09:01:53.000Z</time>
      </trkpt>
      <trkpt lat="-43.60268" lon="172.6887999">
        <ele>61.4</ele>
        <time>2021-01-31T09:01:54.000Z</time>
      </trkpt>
      <trkpt lat="-43.60263" lon="172.68881">
        <ele>61.5</ele>
        <time>2021-01-31T09:01:55.000Z</time>
      </trkpt>
      <trkpt lat="-43.60257" lon="172.68883">
        <ele>61.5</ele>
        <time>2021-01-31T09:01:56.000Z</time>
      </trkpt>
      <trkpt lat="-43.60252" lon="172.68885">
        <ele>61.4</ele>
        <time>2021-01-31T09:01:57.000Z</time>
      </trkpt>
      <trkpt lat="-43.6024699" lon="172.68888">
        <ele>61.1</ele>
        <time>2021-01-31T09:01:58.000Z</time>
      </trkpt>
      <trkpt lat="-43.60241" lon="172.68893">
        <ele>60.4</ele>
        <time>2021-01-31T09:01:59.000Z</time>
      </trkpt>
      <trkpt lat="-43.60233" lon="172.689">
        <ele>59.5</ele>
        <time>2021-01-31T09:02:00.000Z</time>
      </trkpt>
      <trkpt lat="-43.60218" lon="172.68921">
        <ele>57.1</ele>
        <time>2021-01-31T09:02:02.000Z</time>
      </trkpt>
      <trkpt lat="-43.60204" lon="172.68944">
        <ele>56.7</ele>
        <time>2021-01-31T09:02:04.000Z</time>
      </trkpt>
      <trkpt lat="-43.60198" lon="172.68957">
        <ele>56.5</ele>
        <time>2021-01-31T09:02:05.000Z</time>
      </trkpt>
      <trkpt lat="-43.60195" lon="172.68967">
        <ele>56.1</ele>
        <time>2021-01-31T09:02:06.000Z</time>
      </trkpt>
      <trkpt lat="-43.60193" lon="172.6897899">
        <ele>55.5</ele>
        <time>2021-01-31T09:02:07.000Z</time>
      </trkpt>
      <trkpt lat="-43.60193" lon="172.68989">
        <ele>54.7</ele>
        <time>2021-01-31T09:02:08.000Z</time>
      </trkpt>
      <trkpt lat="-43.60193" lon="172.68999">
        <ele>54</ele>
        <time>2021-01-31T09:02:09.000Z</time>
      </trkpt>
      <trkpt lat="-43.60194" lon="172.69006">
        <ele>54.1</ele>
        <time>2021-01-31T09:02:10.000Z</time>
      </trkpt>
      <trkpt lat="-43.60195" lon="172.6901">
        <ele>54.1</ele>
        <time>2021-01-31T09:02:10.000Z</time>
      </trkpt>
      <trkpt lat="-43.60197" lon="172.69015">
        <ele>54</ele>
        <time>2021-01-31T09:02:10.000Z</time>
      </trkpt>
      <trkpt lat="-43.60201" lon="172.69025">
        <ele>53.8</ele>
        <time>2021-01-31T09:02:11.000Z</time>
      </trkpt>
      <trkpt lat="-43.60205" lon="172.69032">
        <ele>53.3</ele>
        <time>2021-01-31T09:02:12.000Z</time>
      </trkpt>
      <trkpt lat="-43.60213" lon="172.69042">
        <ele>52.1</ele>
        <time>2021-01-31T09:02:13.000Z</time>
      </trkpt>
      <trkpt lat="-43.6022" lon="172.6904999">
        <ele>50.8</ele>
        <time>2021-01-31T09:02:14.000Z</time>
      </trkpt>
      <trkpt lat="-43.60231" lon="172.6906">
        <ele>48.6</ele>
        <time>2021-01-31T09:02:15.000Z</time>
      </trkpt>
      <trkpt lat="-43.6024" lon="172.69069">
        <ele>46.5</ele>
        <time>2021-01-31T09:02:16.000Z</time>
      </trkpt>
      <trkpt lat="-43.60246" lon="172.69076">
        <ele>45.1</ele>
        <time>2021-01-31T09:02:17.000Z</time>
      </trkpt>
      <trkpt lat="-43.60252" lon="172.69084">
        <ele>43.7</ele>
        <time>2021-01-31T09:02:18.000Z</time>
      </trkpt>
      <trkpt lat="-43.60258" lon="172.69093">
        <ele>43.3</ele>
        <time>2021-01-31T09:02:19.000Z</time>
      </trkpt>
      <trkpt lat="-43.60267" lon="172.69108">
        <ele>42.5</ele>
        <time>2021-01-31T09:02:21.000Z</time>
      </trkpt>
      <trkpt lat="-43.60276" lon="172.69125">
        <ele>41.6</ele>
        <time>2021-01-31T09:02:23.000Z</time>
      </trkpt>
      <trkpt lat="-43.60281" lon="172.69136">
        <ele>41.1</ele>
        <time>2021-01-31T09:02:24.000Z</time>
      </trkpt>
      <trkpt lat="-43.6028499" lon="172.69147">
        <ele>40.7</ele>
        <time>2021-01-31T09:02:25.000Z</time>
      </trkpt>
      <trkpt lat="-43.60287" lon="172.6915799">
        <ele>40.7</ele>
        <time>2021-01-31T09:02:26.000Z</time>
      </trkpt>
      <trkpt lat="-43.60289" lon="172.69169">
        <ele>40.6</ele>
        <time>2021-01-31T09:02:27.000Z</time>
      </trkpt>
      <trkpt lat="-43.60289" lon="172.69175">
        <ele>40.8</ele>
        <time>2021-01-31T09:02:27.000Z</time>
      </trkpt>
      <trkpt lat="-43.6029" lon="172.69215">
        <ele>42</ele>
        <time>2021-01-31T09:02:30.000Z</time>
      </trkpt>
      <trkpt lat="-43.6029" lon="172.69262">
        <ele>43.9</ele>
        <time>2021-01-31T09:02:34.000Z</time>
      </trkpt>
      <trkpt lat="-43.60291" lon="172.69279">
        <ele>44.7</ele>
        <time>2021-01-31T09:02:35.000Z</time>
      </trkpt>
      <trkpt lat="-43.60292" lon="172.69287">
        <ele>45</ele>
        <time>2021-01-31T09:02:36.000Z</time>
      </trkpt>
      <trkpt lat="-43.60292" lon="172.69294">
        <ele>45.3</ele>
        <time>2021-01-31T09:02:37.000Z</time>
      </trkpt>
      <trkpt lat="-43.6029399" lon="172.69302">
        <ele>45.5</ele>
        <time>2021-01-31T09:02:38.000Z</time>
      </trkpt>
      <trkpt lat="-43.60296" lon="172.69307">
        <ele>45.5</ele>
        <time>2021-01-31T09:02:38.000Z</time>
      </trkpt>
      <trkpt lat="-43.60299" lon="172.69313">
        <ele>45.5</ele>
        <time>2021-01-31T09:02:39.000Z</time>
      </trkpt>
      <trkpt lat="-43.60302" lon="172.69318">
        <ele>45.4</ele>
        <time>2021-01-31T09:02:40.000Z</time>
      </trkpt>
      <trkpt lat="-43.6031" lon="172.69326">
        <ele>45</ele>
        <time>2021-01-31T09:02:41.000Z</time>
      </trkpt>
      <trkpt lat="-43.60317" lon="172.69332">
        <ele>44.7</ele>
        <time>2021-01-31T09:02:42.000Z</time>
      </trkpt>
      <trkpt lat="-43.60325" lon="172.69339">
        <ele>44.5</ele>
        <time>2021-01-31T09:02:43.000Z</time>
      </trkpt>
      <trkpt lat="-43.60348" lon="172.6936">
        <ele>44.2</ele>
        <time>2021-01-31T09:02:46.000Z</time>
      </trkpt>
      <trkpt lat="-43.60366" lon="172.69379">
        <ele>44</ele>
        <time>2021-01-31T09:02:49.000Z</time>
      </trkpt>
      <trkpt lat="-43.6037899" lon="172.69395">
        <ele>43.9</ele>
        <time>2021-01-31T09:02:51.000Z</time>
      </trkpt>
      <trkpt lat="-43.60393" lon="172.69409">
        <ele>43.4</ele>
        <time>2021-01-31T09:02:53.000Z</time>
      </trkpt>
      <trkpt lat="-43.60408" lon="172.69423">
        <ele>43.6</ele>
        <time>2021-01-31T09:02:55.000Z</time>
      </trkpt>
      <trkpt lat="-43.60417" lon="172.69432">
        <ele>44.5</ele>
        <time>2021-01-31T09:02:56.000Z</time>
      </trkpt>
      <trkpt lat="-43.60423" lon="172.69439">
        <ele>45.3</ele>
        <time>2021-01-31T09:02:57.000Z</time>
      </trkpt>
      <trkpt lat="-43.6043" lon="172.69448">
        <ele>46.4</ele>
        <time>2021-01-31T09:02:58.000Z</time>
      </trkpt>
      <trkpt lat="-43.6045299" lon="172.69484">
        <ele>50.7</ele>
        <time>2021-01-31T09:03:02.000Z</time>
      </trkpt>
      <trkpt lat="-43.60459" lon="172.69494">
        <ele>51.7</ele>
        <time>2021-01-31T09:03:03.000Z</time>
      </trkpt>
      <trkpt lat="-43.60466" lon="172.69502">
        <ele>52.2</ele>
        <time>2021-01-31T09:03:04.000Z</time>
      </trkpt>
      <trkpt lat="-43.60474" lon="172.69511">
        <ele>53</ele>
        <time>2021-01-31T09:03:05.000Z</time>
      </trkpt>
      <trkpt lat="-43.60486" lon="172.69523">
        <ele>53.7</ele>
        <time>2021-01-31T09:03:07.000Z</time>
      </trkpt>
      <trkpt lat="-43.60495" lon="172.69531">
        <ele>54</ele>
        <time>2021-01-31T09:03:08.000Z</time>
      </trkpt>
      <trkpt lat="-43.6050899" lon="172.69541">
        <ele>53.8</ele>
        <time>2021-01-31T09:03:10.000Z</time>
      </trkpt>
      <trkpt lat="-43.60517" lon="172.69548">
        <ele>53.9</ele>
        <time>2021-01-31T09:03:11.000Z</time>
      </trkpt>
      <trkpt lat="-43.60523" lon="172.69555">
        <ele>54.1</ele>
        <time>2021-01-31T09:03:12.000Z</time>
      </trkpt>
      <trkpt lat="-43.60528" lon="172.6956099">
        <ele>54.3</ele>
        <time>2021-01-31T09:03:13.000Z</time>
      </trkpt>
      <trkpt lat="-43.60532" lon="172.69566">
        <ele>54.3</ele>
        <time>2021-01-31T09:03:14.000Z</time>
      </trkpt>
      <trkpt lat="-43.60535" lon="172.69573">
        <ele>54.9</ele>
        <time>2021-01-31T09:03:15.000Z</time>
      </trkpt>
      <trkpt lat="-43.60537" lon="172.69579">
        <ele>55.4</ele>
        <time>2021-01-31T09:03:16.000Z</time>
      </trkpt>
      <trkpt lat="-43.60542" lon="172.6959">
        <ele>56.2</ele>
        <time>2021-01-31T09:03:17.000Z</time>
      </trkpt>
      <trkpt lat="-43.60546" lon="172.69603">
        <ele>57.8</ele>
        <time>2021-01-31T09:03:18.000Z</time>
      </trkpt>
      <trkpt lat="-43.6055" lon="172.69617">
        <ele>59.5</ele>
        <time>2021-01-31T09:03:19.000Z</time>
      </trkpt>
      <trkpt lat="-43.60553" lon="172.69624">
        <ele>60</ele>
        <time>2021-01-31T09:03:20.000Z</time>
      </trkpt>
      <trkpt lat="-43.60557" lon="172.6963">
        <ele>60</ele>
        <time>2021-01-31T09:03:21.000Z</time>
      </trkpt>
      <trkpt lat="-43.60562" lon="172.69637">
        <ele>60</ele>
        <time>2021-01-31T09:03:22.000Z</time>
      </trkpt>
      <trkpt lat="-43.60565" lon="172.6964">
        <ele>59.7</ele>
        <time>2021-01-31T09:03:22.000Z</time>
      </trkpt>
      <trkpt lat="-43.60568" lon="172.69642">
        <ele>59.2</ele>
        <time>2021-01-31T09:03:22.000Z</time>
      </trkpt>
      <trkpt lat="-43.60571" lon="172.69643">
        <ele>58.5</ele>
        <time>2021-01-31T09:03:22.000Z</time>
      </trkpt>
      <trkpt lat="-43.60577" lon="172.69645">
        <ele>57.2</ele>
        <time>2021-01-31T09:03:23.000Z</time>
      </trkpt>
      <trkpt lat="-43.60614" lon="172.69647">
        <ele>53</ele>
        <time>2021-01-31T09:03:27.000Z</time>
      </trkpt>
      <trkpt lat="-43.60626" lon="172.69647">
        <ele>52</ele>
        <time>2021-01-31T09:03:28.000Z</time>
      </trkpt>
      <trkpt lat="-43.60635" lon="172.69646">
        <ele>50.9</ele>
        <time>2021-01-31T09:03:29.000Z</time>
      </trkpt>
      <trkpt lat="-43.60642" lon="172.69645">
        <ele>50</ele>
        <time>2021-01-31T09:03:30.000Z</time>
      </trkpt>
      <trkpt lat="-43.60649" lon="172.69643">
        <ele>48.6</ele>
        <time>2021-01-31T09:03:31.000Z</time>
      </trkpt>
      <trkpt lat="-43.60649" lon="172.69643">
        <ele>48.6</ele>
        <time>2021-01-31T09:03:31.000Z</time>
      </trkpt>
      <trkpt lat="-43.60655" lon="172.6964099">
        <ele>47.3</ele>
        <time>2021-01-31T09:03:32.000Z</time>
      </trkpt>
      <trkpt lat="-43.60691" lon="172.6963">
        <ele>40.2</ele>
        <time>2021-01-31T09:03:36.000Z</time>
      </trkpt>
      <trkpt lat="-43.607" lon="172.69628">
        <ele>38.9</ele>
        <time>2021-01-31T09:03:37.000Z</time>
      </trkpt>
      <trkpt lat="-43.60712" lon="172.69625">
        <ele>37</ele>
        <time>2021-01-31T09:03:38.000Z</time>
      </trkpt>
      <trkpt lat="-43.60716" lon="172.69624">
        <ele>36.4</ele>
        <time>2021-01-31T09:03:38.000Z</time>
      </trkpt>
      <trkpt lat="-43.60722" lon="172.69624">
        <ele>36</ele>
        <time>2021-01-31T09:03:39.000Z</time>
      </trkpt>
      <trkpt lat="-43.60729" lon="172.69625">
        <ele>35.9</ele>
        <time>2021-01-31T09:03:40.000Z</time>
      </trkpt>
      <trkpt lat="-43.6073499" lon="172.69627">
        <ele>36.1</ele>
        <time>2021-01-31T09:03:41.000Z</time>
      </trkpt>
      <trkpt lat="-43.6074399" lon="172.69631">
        <ele>36.7</ele>
        <time>2021-01-31T09:03:42.000Z</time>
      </trkpt>
      <trkpt lat="-43.60748" lon="172.69633">
        <ele>37.1</ele>
        <time>2021-01-31T09:03:42.000Z</time>
      </trkpt>
      <trkpt lat="-43.60752" lon="172.69637">
        <ele>37.5</ele>
        <time>2021-01-31T09:03:43.000Z</time>
      </trkpt>
      <trkpt lat="-43.60756" lon="172.69642">
        <ele>37.8</ele>
        <time>2021-01-31T09:03:44.000Z</time>
      </trkpt>
      <trkpt lat="-43.60759" lon="172.69647">
        <ele>38.4</ele>
        <time>2021-01-31T09:03:45.000Z</time>
      </trkpt>
      <trkpt lat="-43.60766" lon="172.6966">
        <ele>39.7</ele>
        <time>2021-01-31T09:03:46.000Z</time>
      </trkpt>
      <trkpt lat="-43.60772" lon="172.69673">
        <ele>40.2</ele>
        <time>2021-01-31T09:03:47.000Z</time>
      </trkpt>
      <trkpt lat="-43.60778" lon="172.69684">
        <ele>39.5</ele>
        <time>2021-01-31T09:03:48.000Z</time>
      </trkpt>
      <trkpt lat="-43.6078199" lon="172.69691">
        <ele>38.9</ele>
        <time>2021-01-31T09:03:49.000Z</time>
      </trkpt>
      <trkpt lat="-43.60784" lon="172.69698">
        <ele>39.1</ele>
        <time>2021-01-31T09:03:50.000Z</time>
      </trkpt>
      <trkpt lat="-43.60787" lon="172.69706">
        <ele>39</ele>
        <time>2021-01-31T09:03:51.000Z</time>
      </trkpt>
      <trkpt lat="-43.60789" lon="172.6971299">
        <ele>39.1</ele>
        <time>2021-01-31T09:03:52.000Z</time>
      </trkpt>
      <trkpt lat="-43.6079" lon="172.69719">
        <ele>39.4</ele>
        <time>2021-01-31T09:03:52.000Z</time>
      </trkpt>
      <trkpt lat="-43.6079" lon="172.69726">
        <ele>40.3</ele>
        <time>2021-01-31T09:03:53.000Z</time>
      </trkpt>
      <trkpt lat="-43.60789" lon="172.69735">
        <ele>41.7</ele>
        <time>2021-01-31T09:03:54.000Z</time>
      </trkpt>
      <trkpt lat="-43.60788" lon="172.69743">
        <ele>43.1</ele>
        <time>2021-01-31T09:03:55.000Z</time>
      </trkpt>
      <trkpt lat="-43.60787" lon="172.6974899">
        <ele>44.2</ele>
        <time>2021-01-31T09:03:56.000Z</time>
      </trkpt>
      <trkpt lat="-43.60784" lon="172.69757">
        <ele>44.3</ele>
        <time>2021-01-31T09:03:57.000Z</time>
      </trkpt>
      <trkpt lat="-43.60779" lon="172.69768">
        <ele>44.2</ele>
        <time>2021-01-31T09:03:58.000Z</time>
      </trkpt>
      <trkpt lat="-43.60775" lon="172.69777">
        <ele>44.1</ele>
        <time>2021-01-31T09:03:59.000Z</time>
      </trkpt>
      <trkpt lat="-43.60727" lon="172.69842">
        <ele>45.3</ele>
        <time>2021-01-31T09:04:06.000Z</time>
      </trkpt>
      <trkpt lat="-43.60709" lon="172.69868">
        <ele>43.7</ele>
        <time>2021-01-31T09:04:09.000Z</time>
      </trkpt>
      <trkpt lat="-43.60671" lon="172.6991899">
        <ele>44.3</ele>
        <time>2021-01-31T09:04:15.000Z</time>
      </trkpt>
      <trkpt lat="-43.60645" lon="172.69954">
        <ele>45.7</ele>
        <time>2021-01-31T09:04:19.000Z</time>
      </trkpt>
      <trkpt lat="-43.60637" lon="172.6996399">
        <ele>46.1</ele>
        <time>2021-01-31T09:04:20.000Z</time>
      </trkpt>
      <trkpt lat="-43.6062" lon="172.69982">
        <ele>47</ele>
        <time>2021-01-31T09:04:22.000Z</time>
      </trkpt>
      <trkpt lat="-43.6059399" lon="172.70006">
        <ele>49.6</ele>
        <time>2021-01-31T09:04:25.000Z</time>
      </trkpt>
      <trkpt lat="-43.60586" lon="172.70014">
        <ele>51.1</ele>
        <time>2021-01-31T09:04:26.000Z</time>
      </trkpt>
      <trkpt lat="-43.60581" lon="172.70019">
        <ele>51.9</ele>
        <time>2021-01-31T09:04:27.000Z</time>
      </trkpt>
      <trkpt lat="-43.60578" lon="172.7002599">
        <ele>52.2</ele>
        <time>2021-01-31T09:04:28.000Z</time>
      </trkpt>
      <trkpt lat="-43.60574" lon="172.70034">
        <ele>52.5</ele>
        <time>2021-01-31T09:04:29.000Z</time>
      </trkpt>
      <trkpt lat="-43.60573" lon="172.7004">
        <ele>52.4</ele>
        <time>2021-01-31T09:04:29.000Z</time>
      </trkpt>
      <trkpt lat="-43.60572" lon="172.70046">
        <ele>52.3</ele>
        <time>2021-01-31T09:04:29.000Z</time>
      </trkpt>
      <trkpt lat="-43.60573" lon="172.70054">
        <ele>52</ele>
        <time>2021-01-31T09:04:30.000Z</time>
      </trkpt>
      <trkpt lat="-43.60574" lon="172.70058">
        <ele>51.7</ele>
        <time>2021-01-31T09:04:30.000Z</time>
      </trkpt>
      <trkpt lat="-43.60574" lon="172.70058">
        <ele>51.7</ele>
        <time>2021-01-31T09:04:30.000Z</time>
      </trkpt>
      <trkpt lat="-43.6058499" lon="172.70061">
        <ele>50.3</ele>
        <time>2021-01-31T09:04:31.000Z</time>
      </trkpt>
      <trkpt lat="-43.6059" lon="172.70063">
        <ele>49.5</ele>
        <time>2021-01-31T09:04:32.000Z</time>
      </trkpt>
      <trkpt lat="-43.60597" lon="172.70066">
        <ele>48.4</ele>
        <time>2021-01-31T09:04:33.000Z</time>
      </trkpt>
      <trkpt lat="-43.60601" lon="172.70067">
        <ele>47.8</ele>
        <time>2021-01-31T09:04:33.000Z</time>
      </trkpt>
      <trkpt lat="-43.60627" lon="172.70073">
        <ele>44</ele>
        <time>2021-01-31T09:04:36.000Z</time>
      </trkpt>
      <trkpt lat="-43.60637" lon="172.70075">
        <ele>42.7</ele>
        <time>2021-01-31T09:04:37.000Z</time>
      </trkpt>
      <trkpt lat="-43.60645" lon="172.70075">
        <ele>41.5</ele>
        <time>2021-01-31T09:04:38.000Z</time>
      </trkpt>
      <trkpt lat="-43.60651" lon="172.70074">
        <ele>40.7</ele>
        <time>2021-01-31T09:04:39.000Z</time>
      </trkpt>
      <trkpt lat="-43.60651" lon="172.70074">
        <ele>40.7</ele>
        <time>2021-01-31T09:04:39.000Z</time>
      </trkpt>
      <trkpt lat="-43.60644" lon="172.70033">
        <ele>40.1</ele>
        <time>2021-01-31T09:04:42.000Z</time>
      </trkpt>
    </trkseg>
  </trk>
</gpx>

<!--
Performance optimized by W3 Total Cache. Learn more: https://www.boldgrid.com/w3-total-cache/?utm_source=w3tc&utm_medium=footer_comment&utm_campaign=free_plugin

Page Caching using Disk: Enhanced{w3tc_pagecache_reject_reason} 

Served from: www.aquabike.world @ 2026-05-10 13:40:58 by W3 Total Cache
-->